GFSNW_sfc_wetblb_000.txt.gz
Wetbulb
53.07 52.96 52.90 52.64 52.46 50.82 54.20 57.95 51.07 57.05 57.34 51.93 49.39 45.95 45.08 43.22 45.34 47.43 46.15 45.93 44.07 42.45 42.29 41.30 41.13 40.58 43.60 45.48 45.49 42.38 44.04 41.59 36.42 40.14 45.62 43.71 43.61 41.25 40.21 35.61 34.33 36.64 32.74 33.81
53.18 52.84 52.56 52.34 52.10 50.72 56.39 54.31 53.54 57.66 56.82 46.65 46.69 46.41 45.13 46.35 45.33 45.17 44.85 43.93 45.05 45.27 42.97 40.11 41.94 43.02 46.07 46.04 45.14 44.25 44.77 39.57 34.43 38.44 40.29 41.69 40.25 41.17 41.26 40.85 37.44 33.46 31.05 35.60
53.38 52.91 52.42 52.18 52.08 50.71 56.47 53.89 46.69 53.29 53.20 50.90 48.31 45.63 44.77 44.42 47.42 46.03 46.01 44.91 46.16 44.90 43.18 44.63 41.97 42.71 45.38 46.72 46.86 45.19 45.50 41.99 38.19 34.73 38.81 42.67 39.06 41.27 42.29 39.47 33.46 35.04 36.25 39.17
52.88 52.76 52.44 52.20 51.95 50.41 57.01 51.74 47.60 46.75 47.18 47.09 47.89 47.37 45.69 44.09 43.48 46.91 46.54 44.81 44.53 43.19 39.56 40.09 40.72 43.33 44.76 46.38 45.46 45.77 45.31 37.58 40.50 40.90 41.67 40.04 39.41 38.94 39.85 38.03 38.63 33.28 37.33 39.28
52.53 52.37 52.18 51.80 51.64 50.60 54.58 51.94 50.62 49.11 47.03 45.34 45.74 43.42 44.23 43.77 44.14 44.42 43.37 43.51 44.30 44.47 41.56 42.42 41.12 43.35 43.95 42.85 45.56 44.21 43.93 37.54 37.45 35.30 39.91 39.72 37.38 39.39 39.51 39.79 39.87 39.93 40.41 40.40
51.88 51.78 51.70 51.31 51.27 52.28 55.01 51.48 49.90 53.05 40.15 43.89 44.82 45.11 45.07 44.27 45.83 45.57 47.10 46.39 45.36 43.14 45.35 47.70 48.38 48.55 47.73 46.86 44.33 42.86 40.95 38.16 35.60 32.14 37.72 35.44 32.03 36.38 39.12 41.10 42.73 41.19 37.14 42.50
51.76 50.12 50.05 50.74 50.04 52.15 56.75 53.96 53.17 39.87 45.00 44.13 45.47 43.89 46.05 45.57 46.29 44.69 46.85 48.30 46.24 48.00 49.86 50.09 49.33 48.10 46.86 46.52 45.73 46.20 39.46 36.26 35.98 32.54 34.38 27.96 41.13 45.06 44.00 41.12 41.32 42.69 43.10 43.94
51.28 51.71 52.07 51.32 50.50 49.35 56.58 53.37 53.29 49.23 37.16 46.84 43.68 44.43 45.43 46.10 46.78 45.68 46.47 48.58 50.06 50.45 48.06 42.96 36.62 38.96 36.75 39.43 42.39 43.09 44.33 38.85 34.81 32.27 32.85 36.62 39.24 42.32 40.61 38.36 38.06 43.67 43.13 43.92
50.80 51.08 51.04 50.65 50.66 50.17 55.53 55.36 54.14 52.25 38.29 43.55 48.19 47.12 47.08 45.57 45.57 44.97 45.15 48.34 50.44 49.27 45.45 38.43 33.90 32.83 36.21 35.78 39.14 38.79 38.63 39.85 35.53 35.35 30.27 28.76 38.77 44.09 42.73 41.13 34.18 43.17 42.84 42.80
50.41 50.58 50.36 50.29 50.49 51.01 56.63 57.77 55.66 54.89 45.68 50.08 48.51 46.91 46.83 48.00 46.60 45.64 45.73 45.82 43.89 47.15 36.62 34.81 34.08 34.67 40.00 34.00 33.67 34.09 34.44 33.90 31.35 32.04 30.73 35.63 43.28 41.58 42.21 32.26 37.11 43.28 44.63 44.60
50.25 50.30 50.18 50.17 50.07 50.68 54.44 56.14 56.52 54.29 44.92 49.80 49.27 49.98 48.81 46.94 47.29 44.11 46.00 44.89 43.18 39.78 35.17 34.62 35.86 33.72 38.81 36.57 39.44 38.04 35.85 33.52 32.25 33.54 31.54 30.32 44.71 39.97 36.46 42.96 47.10 46.91 46.91 46.56
49.73 49.83 49.88 49.95 50.02 50.15 51.69 52.50 55.91 54.78 48.40 48.88 53.59 53.93 54.63 52.66 51.99 48.68 47.28 46.59 45.42 45.53 41.40 37.89 37.89 33.17 33.54 35.17 31.89 40.50 33.47 37.93 38.68 38.39 38.77 46.82 46.89 44.27 46.59 48.54 46.30 46.54 46.02 46.95
49.60 49.58 49.97 50.18 50.08 50.18 51.62 52.81 53.38 51.49 38.07 46.28 47.24 49.01 53.66 54.36 53.90 55.69 46.05 42.02 47.97 44.41 46.80 42.50 36.26 33.90 37.16 33.54 35.59 37.84 39.97 43.50 37.71 38.56 42.00 44.51 45.02 47.97 49.04 48.78 47.15 47.38 47.21 45.48
49.10 49.44 49.55 49.55 49.94 50.48 50.79 50.01 53.69 52.02 42.37 34.08 43.56 53.76 52.16 55.46 54.78 53.73 53.13 51.57 52.17 50.62 49.58 35.71 34.62 34.62 40.43 36.56 38.48 37.19 40.30 39.88 37.79 38.93 42.47 44.81 45.98 47.05 47.43 47.59 48.12 47.56 45.77 44.92
49.05 49.35 49.51 49.68 50.25 50.47 51.11 51.40 52.17 53.58 48.58 36.44 40.72 46.98 51.15 53.92 53.27 51.87 52.45 51.04 49.97 46.96 35.89 34.08 35.89 39.29 38.67 39.85 39.93 37.28 41.20 39.16 36.92 37.34 45.02 44.56 45.19 47.16 47.92 47.07 45.91 46.01 44.41 43.71
48.53 49.01 49.16 49.34 49.23 49.47 48.00 43.08 47.84 51.19 49.87 37.89 33.54 43.30 44.02 49.56 51.59 50.60 49.56 50.21 48.67 46.58 40.43 36.08 39.77 42.07 38.45 33.17 35.28 42.28 43.90 45.49 45.76 42.98 46.61 46.49 46.76 47.61 48.32 45.86 46.13 46.66 46.26 45.34
47.68 48.27 48.49 48.81 48.35 48.99 44.95 41.30 45.86 48.32 50.47 34.62 32.99 34.99 40.20 41.58 45.05 47.79 47.95 49.13 47.17 44.64 39.88 35.71 40.04 40.33 40.98 34.08 33.94 42.18 44.97 45.43 45.48 46.82 46.30 43.94 45.67 43.65 47.00 46.52 45.19 44.76 44.72 43.19
46.72 46.79 47.06 47.30 47.59 46.76 43.88 47.19 48.27 48.89 43.58 37.16 32.27 34.81 38.63 42.32 39.60 38.88 42.30 43.44 42.64 41.69 42.06 41.96 40.79 43.10 38.25 34.55 41.06 43.67 44.10 44.92 45.16 45.47 46.20 45.24 45.65 44.97 42.77 42.33 41.40 40.15 40.48 40.78
46.56 46.67 46.97 46.49 44.36 40.56 42.36 46.85 47.73 48.31 42.58 32.81 32.45 32.63 33.54 41.69 39.86 40.12 40.08 40.64 34.44 43.83 35.53 39.85 42.01 39.32 34.42 39.16 40.90 42.12 43.33 43.38 43.64 45.03 43.80 42.70 39.60 39.20 39.55 39.31 39.11 38.77 39.48 36.93
46.58 45.08 40.99 36.62 41.13 45.25 46.38 44.43 40.03 38.60 36.26 35.53 32.63 37.89 35.44 41.00 38.02 36.44 37.16 35.89 33.90 32.81 37.20 41.65 34.26 35.68 41.51 43.48 44.23 44.92 45.34 44.69 42.30 38.04 36.49 37.27 37.00 37.21 37.73 38.03 38.51 37.19 35.64 36.52
43.71 39.07 37.89 44.06 44.21 43.38 39.10 35.17 33.17 35.71 32.80 35.72 36.76 37.91 36.48 40.92 34.54 34.62 38.25 34.44 33.72 30.46 35.50 34.63 34.34 33.29 38.91 42.17 40.93 41.23 40.06 39.54 38.82 38.77 38.75 38.81 38.38 37.83 37.06 35.68 35.51 34.79 34.99 33.71
42.55 42.33 42.87 42.23 39.75 37.16 32.80 32.09 34.08 32.38 32.18 36.75 35.36 35.30 36.66 38.49 39.78 36.77 35.53 32.99 33.90 29.50 33.91 29.85 27.84 36.25 37.11 36.89 36.86 37.58 38.21 38.35 38.33 38.55 37.84 38.28 37.54 38.65 37.12 35.56 34.39 34.71 32.84 32.36
43.65 38.84 34.44 35.30 33.54 28.41 26.56 24.93 31.14 32.10 35.67 33.51 33.58 34.05 34.58 34.97 34.07 32.09 31.91 30.22 30.19 32.01 28.87 29.02 33.23 35.59 36.33 36.40 36.97 37.68 38.69 36.28 33.42 36.32 37.60 37.50 37.71 36.53 34.49 34.40 33.63 32.42 31.41 29.30
34.81 32.19 27.35 28.65 27.74 28.81 30.27 32.29 33.10 33.72 33.90 33.36 34.81 34.62 34.62 35.35 32.45 33.54 29.91 33.11 30.91 27.16 24.66 28.32 34.15 34.34 35.26 36.78 37.58 36.41 36.78 34.38 32.35 32.64 34.46 34.56 32.99 32.90 30.52 30.74 30.22 30.55 29.90 28.24
32.81 32.09 25.79 28.16 32.40 32.56 32.62 32.21 32.81 35.08 35.44 34.99 33.87 33.11 32.22 31.88 29.37 32.07 30.65 27.49 24.82 27.00 28.19 33.06 35.58 34.66 34.69 35.39 35.63 35.98 34.83 33.19 31.96 33.34 33.13 32.63 31.97 30.38 30.92 28.99 29.98 30.10 28.72 28.18
31.50 31.51 28.51 30.84 29.52 31.00 29.55 29.55 31.00 35.80 33.49 33.43 32.97 28.51 25.93 27.06 30.06 27.25 26.66 25.79 23.94 30.39 34.10 36.81 36.15 35.07 35.03 35.31 35.47 34.77 34.81 33.41 33.41 33.22 32.78 32.12 30.47 30.60 31.56 30.51 30.25 29.16 29.17 28.47
28.20 27.22 32.69 32.45 29.88 28.68 31.18 32.03 33.92 36.49 32.18 29.57 29.26 24.05 24.23 30.18 25.16 24.41 29.41 27.37 32.37 36.52 36.50 36.62 36.58 35.05 34.75 35.30 35.39 33.79 33.80 33.36 33.44 32.75 31.27 30.97 30.48 30.17 29.69 30.78 29.41 28.52 28.62 28.89

GFSNW_sfc_wetblb_003.txt.gz
Wetbulb
53.56 53.19 53.03 52.75 52.45 51.23 54.35 60.83 53.93 60.50 62.52 55.05 54.61 49.71 47.90 44.20 48.08 49.76 48.30 48.36 46.59 45.04 45.27 44.56 44.03 43.29 45.89 48.53 48.59 44.94 47.24 43.62 38.78 42.60 48.55 47.43 46.06 44.84 44.72 38.11 36.47 39.47 38.18 37.08
53.70 53.13 52.79 52.38 52.13 51.58 60.18 56.65 55.76 61.85 61.40 49.34 49.95 49.06 47.81 48.84 47.76 47.83 47.57 46.60 48.07 48.06 45.73 42.62 44.70 45.47 48.31 49.17 47.65 46.64 47.46 42.25 36.67 40.80 44.45 45.83 44.95 46.37 45.86 44.28 42.02 35.90 32.56 36.84
54.00 53.54 53.15 52.71 52.27 51.99 57.45 56.79 51.05 56.06 57.43 55.88 51.12 48.66 47.57 46.45 49.60 48.22 48.94 47.74 48.93 47.21 45.69 47.40 44.27 45.19 47.80 48.87 48.92 46.14 46.80 43.51 39.96 36.03 40.34 44.29 41.30 43.52 45.02 43.68 36.96 38.16 39.02 41.34
53.70 53.65 53.23 52.79 52.27 51.75 57.43 55.73 51.34 50.98 50.29 51.10 51.27 50.60 48.68 46.65 45.78 49.46 49.63 47.38 46.92 45.72 41.72 42.67 43.07 45.81 47.53 48.87 47.05 47.38 47.24 39.83 42.70 43.11 43.94 43.48 42.67 42.17 42.75 41.39 42.26 37.22 40.39 41.57
53.21 53.13 53.05 52.39 51.94 51.44 58.78 54.43 53.78 54.24 51.07 49.41 49.57 45.96 47.11 45.73 46.38 46.88 46.04 45.91 47.02 47.40 44.33 45.11 43.57 46.16 46.42 45.45 48.08 46.62 46.58 38.75 39.91 37.08 41.50 42.08 39.63 42.06 42.34 42.33 42.69 42.73 42.82 42.25
52.78 53.09 52.50 52.04 51.50 52.69 58.27 57.09 55.71 56.79 46.13 47.93 47.92 47.74 46.86 46.30 47.81 48.55 49.04 48.61 47.50 45.60 47.85 50.36 50.34 50.57 50.10 49.06 46.80 45.79 43.29 39.02 36.73 32.22 39.97 36.99 33.24 38.29 41.73 43.15 44.77 43.86 39.52 44.53
52.60 50.77 50.45 51.84 51.20 51.12 60.06 57.90 57.21 44.74 47.78 49.00 47.90 47.51 48.46 47.65 48.61 47.40 49.55 50.25 48.41 50.35 53.47 53.00 51.67 50.24 48.99 49.09 48.60 49.34 41.67 38.20 35.42 32.42 36.25 29.06 41.79 46.61 45.82 43.44 44.33 45.54 44.81 45.36
51.84 51.02 52.59 52.14 52.16 51.47 60.01 59.18 56.91 52.66 38.68 49.89 48.40 48.35 48.61 49.60 50.24 48.59 49.11 50.91 52.72 53.99 51.15 44.71 37.77 40.27 37.10 40.80 46.40 46.65 47.61 40.36 34.15 33.60 34.01 37.28 39.97 44.30 43.30 40.90 39.98 45.08 44.42 44.76
50.96 51.06 51.71 51.19 51.27 51.88 59.17 60.72 59.99 55.94 40.31 47.26 50.50 49.45 50.01 47.91 48.33 48.48 48.72 52.60 53.96 52.18 48.24 39.95 33.42 34.38 36.58 37.12 40.91 44.15 43.06 43.59 35.40 35.78 30.69 28.11 39.97 45.31 46.20 45.78 36.53 45.66 45.17 45.07
50.56 50.66 50.63 50.61 50.87 51.36 57.27 60.25 61.06 56.83 48.19 52.99 51.89 49.52 49.35 51.58 49.82 47.94 48.55 48.67 47.18 50.79 41.22 33.24 33.77 35.71 40.94 34.39 34.53 36.03 36.16 34.86 33.04 32.79 31.49 35.68 44.31 47.20 45.60 34.36 37.88 46.90 46.85 45.05
50.38 50.20 50.27 50.12 50.33 50.85 55.17 59.29 61.19 57.22 50.85 52.59 53.87 54.16 51.55 51.10 49.95 46.79 48.32 47.64 47.64 44.09 36.68 34.87 36.96 35.23 39.58 38.81 40.97 38.86 36.26 34.31 33.06 33.93 32.33 31.42 46.93 45.44 37.98 43.61 48.27 47.98 47.14 46.41
49.91 49.90 49.93 50.07 50.07 50.37 52.32 55.59 59.81 59.17 53.43 53.33 57.09 56.89 56.44 55.23 54.26 51.49 51.20 48.25 47.46 48.04 43.79 39.22 38.86 35.04 35.23 35.04 32.00 43.24 34.68 40.74 39.71 39.69 39.81 48.36 50.59 47.43 50.07 50.26 48.51 47.24 46.53 47.34
49.61 49.55 49.84 50.09 50.54 50.84 52.01 55.60 57.04 54.59 41.03 47.87 49.99 51.80 55.68 57.53 56.74 57.83 49.45 49.50 50.95 49.71 51.74 48.07 39.04 34.33 41.21 33.59 35.10 37.27 40.26 44.85 40.86 41.38 43.72 46.15 46.50 48.86 50.77 48.84 46.12 48.13 47.94 46.32
49.07 49.21 49.36 49.60 49.91 50.30 51.17 53.07 56.77 54.77 43.52 33.78 43.48 55.05 53.19 57.20 57.04 55.83 55.27 53.24 53.80 52.45 52.06 37.05 34.33 33.78 42.00 37.21 38.97 38.48 40.61 41.80 39.53 40.85 44.42 45.38 45.76 47.18 48.25 47.51 47.84 47.86 48.16 47.24
49.14 49.50 49.09 49.34 50.05 50.09 51.03 52.52 54.57 55.79 50.20 37.23 39.85 48.10 53.32 55.17 55.27 53.65 53.86 52.62 51.04 50.45 39.40 34.51 36.14 41.99 40.14 39.93 40.04 37.83 41.93 40.43 37.31 36.10 44.23 44.84 45.93 47.21 47.21 46.25 45.85 47.07 46.08 44.51
48.57 48.84 49.20 49.29 49.21 49.49 48.70 43.87 48.85 53.08 52.46 39.77 34.69 45.12 47.01 51.47 52.39 52.42 51.58 51.78 51.55 49.91 44.44 36.32 41.90 45.85 40.68 34.33 35.11 41.14 44.96 46.05 46.67 43.48 47.46 46.73 46.85 47.36 47.53 46.03 46.60 44.82 43.54 43.48
48.03 48.41 48.95 49.10 48.79 50.05 45.46 42.24 47.74 50.14 52.07 34.87 34.69 35.57 42.31 42.38 46.39 50.77 50.15 51.66 50.10 47.13 43.68 38.66 41.03 41.27 41.81 35.05 34.80 43.31 44.64 46.49 46.80 48.27 47.55 44.79 45.96 44.86 47.59 45.49 44.33 44.03 43.50 43.39
47.34 47.45 47.58 47.85 47.89 47.49 44.00 47.00 48.43 49.37 43.02 37.92 33.24 34.33 38.32 44.03 41.25 40.88 47.37 44.73 42.62 41.94 42.18 41.24 40.88 43.15 38.86 34.98 42.17 44.13 45.45 45.81 45.59 45.48 46.66 46.62 47.42 46.35 43.88 44.06 42.92 41.27 40.71 41.52
47.15 47.00 47.20 47.09 45.13 40.74 42.87 46.69 47.81 48.10 42.44 32.51 31.97 33.78 33.42 44.33 41.95 40.88 42.04 41.91 34.15 43.74 36.68 41.04 42.14 40.08 36.39 40.38 42.30 43.48 44.51 44.19 43.84 45.55 45.70 44.21 42.33 41.95 42.04 41.71 41.35 39.50 38.64 38.24
46.65 46.75 42.65 37.41 42.96 45.48 46.30 44.14 39.39 36.67 35.42 34.51 33.06 38.80 35.58 42.74 38.52 35.78 36.68 37.41 33.60 32.15 38.02 42.91 38.39 37.17 42.57 44.01 45.08 45.50 44.35 44.40 43.47 40.33 39.11 40.07 39.47 39.99 40.41 40.18 40.45 38.65 36.08 36.28
46.55 41.60 39.22 44.27 44.83 45.34 40.61 36.11 33.78 35.60 32.51 34.28 36.49 39.07 36.95 41.43 35.79 34.51 37.41 34.15 35.60 31.43 35.80 37.26 35.46 34.78 40.02 43.24 43.66 44.44 42.82 41.83 41.78 41.93 41.84 41.84 41.16 40.10 39.62 39.50 38.75 36.84 35.86 35.80
44.78 44.90 45.97 44.95 40.82 38.12 33.42 32.15 34.81 33.06 32.98 38.52 37.34 37.55 38.77 40.02 41.94 37.84 36.50 33.06 34.51 29.02 37.29 31.42 30.35 37.09 40.07 40.44 39.96 40.85 41.76 41.70 41.24 41.32 40.85 41.05 40.63 40.57 39.84 38.50 36.20 36.61 35.27 32.62
46.47 40.98 36.68 36.88 35.05 29.64 27.42 26.50 31.46 33.27 36.56 35.03 34.37 33.68 36.45 36.62 36.03 33.06 32.70 30.70 31.77 35.62 31.04 30.53 34.62 38.81 39.57 39.41 39.86 40.05 41.19 40.70 37.28 39.61 40.60 40.17 39.24 39.10 36.59 35.54 36.28 32.91 35.00 32.41
37.28 33.97 28.92 30.92 29.22 30.80 32.65 32.86 34.15 34.67 34.15 35.05 36.95 35.80 35.69 35.58 33.42 33.97 29.25 34.34 33.40 28.52 27.20 30.88 38.37 37.47 38.15 38.93 39.37 38.80 38.33 37.09 36.43 37.20 37.97 36.40 34.87 34.33 34.51 32.88 33.42 32.51 32.75 31.92
33.42 32.15 27.70 29.14 34.66 36.25 34.83 35.23 36.52 36.60 37.02 37.13 36.06 35.44 34.63 31.61 29.53 31.75 30.89 27.26 25.49 28.80 28.87 36.16 38.93 37.97 38.07 37.74 37.95 37.76 36.46 35.47 35.30 37.58 36.77 34.48 33.42 33.78 34.19 33.97 32.79 32.87 32.15 31.70
34.30 32.88 30.98 33.82 31.64 32.06 31.25 31.43 32.70 38.22 36.56 35.89 35.59 31.33 27.74 27.25 30.41 27.94 26.27 25.89 24.32 31.05 37.91 38.98 38.70 37.57 37.68 37.12 36.37 36.50 36.73 36.63 37.07 38.02 37.08 35.37 33.24 32.68 33.22 34.28 32.79 32.15 31.97 31.43
30.87 30.80 34.66 35.32 32.06 32.32 33.60 34.81 36.13 38.92 33.90 30.71 31.62 25.50 25.16 31.34 27.03 25.29 29.50 27.70 32.83 36.49 37.20 37.93 37.83 37.32 37.59 38.34 36.86 35.32 36.17 37.32 37.17 37.47 37.48 35.88 34.68 33.22 31.78 30.40 32.14 32.19 31.98 31.20

GFSNW_sfc_wetblb_006.txt.gz
Wetbulb
54.07 53.68 53.44 53.04 52.61 52.05 54.13 62.83 53.84 62.02 63.50 54.78 53.86 48.92 48.57 44.47 48.90 50.68 49.30 49.33 47.89 46.19 46.46 45.06 44.83 43.92 46.57 49.47 48.83 45.12 47.56 43.42 38.33 41.63 47.90 48.78 46.15 44.28 44.28 36.23 35.27 37.80 36.02 35.80
54.25 53.75 53.52 52.96 52.58 52.14 57.19 56.24 55.72 63.05 61.93 49.53 50.06 49.55 48.31 49.87 48.57 48.72 48.54 47.54 48.75 49.01 46.41 43.05 45.86 46.39 49.39 49.74 47.95 45.38 46.45 42.47 35.55 39.05 44.62 46.57 44.22 45.00 45.22 44.36 39.75 35.63 32.07 35.43
54.61 54.33 53.73 53.22 52.74 52.36 57.45 56.32 48.38 56.25 57.47 55.80 51.15 48.62 47.95 46.63 50.54 49.01 49.70 48.54 49.46 47.72 46.13 47.94 44.70 45.59 48.77 49.67 48.94 46.67 47.00 42.55 39.23 34.93 38.79 43.22 40.05 42.37 43.71 42.32 35.38 36.27 37.14 39.58
54.17 54.19 53.65 53.06 52.68 52.15 58.37 55.49 51.96 52.67 51.11 51.14 51.78 50.81 49.08 47.34 46.61 49.90 50.06 47.93 47.50 46.12 41.14 43.09 43.41 46.38 47.31 49.48 47.59 48.67 46.51 39.30 41.54 42.19 42.85 42.22 40.65 40.47 41.42 40.22 40.49 35.62 38.38 40.36
53.63 53.87 53.45 52.71 52.26 51.67 59.57 53.84 53.05 53.92 51.09 50.90 49.78 46.00 47.35 46.66 47.50 47.34 46.84 45.78 47.90 47.65 45.06 44.68 42.52 45.38 46.01 44.89 48.28 47.32 47.52 38.10 38.50 36.27 41.02 41.24 38.02 40.71 41.62 41.01 41.22 41.32 42.05 41.56
52.99 54.51 53.00 52.40 51.83 53.01 58.09 57.47 56.38 56.87 47.53 49.43 48.59 48.36 47.43 47.09 48.44 49.55 49.35 48.84 47.90 43.40 47.40 50.22 50.17 50.13 49.22 48.28 46.21 44.80 43.90 39.09 34.19 32.56 37.87 36.27 32.38 37.06 40.35 41.96 43.53 42.70 37.36 42.63
52.83 51.10 51.14 52.45 51.82 52.03 60.30 58.49 57.22 43.25 47.59 50.23 47.88 48.35 48.65 48.04 48.68 47.39 49.81 50.29 46.74 50.43 54.39 53.00 51.08 49.58 48.02 47.51 46.84 48.09 40.82 36.19 34.18 32.23 32.95 27.49 39.98 45.79 44.04 42.36 43.73 44.80 43.85 44.28
52.53 50.96 52.38 52.99 52.15 52.13 59.50 59.58 57.07 51.55 36.77 49.84 48.79 49.09 48.68 49.51 50.04 48.71 48.95 50.35 52.54 54.52 50.85 42.91 35.69 40.39 37.68 39.82 45.93 46.07 47.05 38.10 34.96 31.70 32.66 36.14 38.90 42.14 41.95 39.82 39.53 44.97 43.80 45.03
51.46 51.28 52.24 52.38 51.90 52.36 57.11 60.44 60.60 55.52 38.79 46.36 50.61 49.05 49.74 47.86 48.32 48.98 49.95 53.37 54.60 52.14 47.99 38.77 33.30 33.81 36.29 36.94 39.75 45.68 43.06 40.44 39.31 36.23 30.43 27.24 38.50 43.52 46.90 45.97 34.64 45.16 44.70 43.80
50.94 50.60 50.70 51.07 51.46 51.68 55.80 60.87 62.04 56.66 48.30 52.58 52.67 49.32 49.62 51.26 50.11 47.94 49.34 49.24 48.43 51.10 39.68 34.42 33.32 33.81 40.34 34.37 32.91 34.00 37.11 35.14 33.15 33.84 31.52 34.72 43.13 45.93 47.31 33.67 36.04 44.57 45.28 44.45
50.80 50.42 50.22 50.33 50.47 50.98 54.10 59.12 62.28 57.55 50.67 52.17 54.22 54.14 51.24 51.07 50.81 48.02 49.17 47.60 49.45 43.95 36.05 34.60 37.26 34.60 39.22 38.30 39.83 37.72 35.54 34.22 33.09 32.55 31.46 29.91 46.97 46.24 37.11 42.64 46.72 45.94 45.31 44.81
50.19 50.10 49.92 50.13 50.43 50.48 51.32 54.97 61.22 60.94 54.19 52.87 56.91 56.95 57.85 55.62 54.32 51.49 51.00 47.45 47.54 47.34 42.63 38.19 38.23 34.42 36.05 34.03 32.22 41.75 34.12 38.86 36.60 37.66 37.53 45.20 47.60 46.05 47.71 47.09 46.02 45.60 45.40 46.14
49.78 49.85 49.92 50.02 50.29 50.54 52.18 54.97 57.90 54.96 40.94 50.09 51.23 51.34 56.29 58.13 57.28 58.73 49.37 52.02 51.28 49.48 52.22 46.79 36.96 33.87 40.91 33.51 35.20 37.87 40.89 44.03 38.47 38.21 41.56 43.97 45.60 47.49 47.96 48.18 46.11 46.51 46.92 45.45
49.08 49.18 49.31 49.43 49.86 50.35 51.07 52.64 57.32 54.13 43.27 33.69 44.34 54.55 53.03 56.96 57.17 56.87 56.11 53.95 54.20 52.97 51.40 39.31 35.51 33.69 41.52 37.14 38.83 37.87 40.79 41.71 38.66 37.89 42.19 43.97 45.37 47.00 47.20 47.33 47.66 46.13 46.29 45.19
48.90 48.98 49.13 49.25 49.72 50.06 51.29 53.31 55.86 56.26 49.24 37.50 39.92 47.28 52.62 54.56 55.44 54.23 54.60 53.20 51.51 49.42 40.58 35.32 36.05 42.09 39.45 42.08 39.82 37.20 41.89 39.76 37.07 36.05 43.04 43.13 43.98 47.35 48.23 45.53 44.87 44.55 43.55 42.18
48.41 48.88 49.20 49.53 49.53 49.51 50.11 44.53 50.46 52.53 52.61 40.04 34.06 45.49 46.49 50.89 52.78 52.27 51.82 52.26 51.41 49.93 45.71 38.23 43.03 45.92 38.89 33.69 35.66 42.04 45.08 45.78 46.58 43.18 46.77 46.47 47.43 47.15 46.66 44.55 44.22 43.89 42.60 42.39
47.94 48.25 48.53 49.02 48.91 50.07 45.77 42.53 47.52 50.46 52.08 34.96 35.69 39.17 42.71 46.26 47.93 49.34 49.19 51.05 49.13 47.88 44.09 38.59 38.56 38.64 41.53 33.33 34.68 42.26 44.89 46.07 46.33 47.29 46.52 42.37 44.48 43.67 45.25 44.54 43.42 43.31 42.57 41.60
47.83 48.08 48.14 48.54 48.16 47.60 43.98 46.82 48.12 49.19 43.08 37.67 34.60 33.87 36.59 44.35 42.51 40.78 45.57 42.65 41.47 39.84 39.48 37.68 36.40 40.08 36.58 33.83 40.99 43.78 45.26 45.77 45.65 45.16 45.94 44.88 44.26 43.61 42.67 42.95 42.40 40.85 39.35 37.99
47.11 47.22 47.09 46.84 44.58 40.52 42.74 47.29 47.69 47.13 41.74 33.69 32.06 32.61 32.97 43.65 40.60 38.76 37.60 39.07 32.97 39.82 34.78 37.79 38.70 37.98 34.72 39.30 41.66 43.16 44.28 43.48 42.66 43.61 42.74 41.94 40.43 40.41 40.93 40.79 40.36 39.01 37.60 35.36
46.64 47.47 42.75 35.14 40.58 46.50 46.60 43.08 36.58 35.13 34.24 33.69 32.24 38.71 36.58 42.54 37.50 35.32 35.69 35.32 32.79 32.06 36.68 41.58 36.83 36.05 42.41 43.75 44.47 44.56 42.85 41.99 41.79 39.23 37.35 38.08 38.45 39.01 39.32 39.31 40.11 38.81 35.51 35.45
46.09 42.03 37.32 44.05 45.39 44.70 39.79 33.87 32.61 33.15 32.06 33.86 36.27 37.78 38.06 42.36 35.03 33.51 35.32 32.61 33.69 31.16 35.22 36.45 35.01 33.74 38.88 43.24 43.13 42.87 41.96 41.75 41.31 41.11 40.43 40.28 39.92 38.91 38.27 37.79 38.32 36.10 35.18 34.77
44.56 45.16 46.13 44.57 41.30 37.68 33.69 32.06 34.57 32.79 32.41 37.55 35.74 37.17 38.32 37.48 42.09 36.40 34.60 32.47 33.51 27.31 37.30 32.25 29.47 36.10 40.64 41.01 40.54 40.74 41.30 40.79 40.44 40.60 39.26 39.24 39.33 39.71 37.70 37.37 37.34 34.90 35.02 31.61
46.07 41.11 36.59 36.41 35.32 29.66 28.46 27.33 31.40 32.46 36.18 35.03 35.44 34.23 37.10 37.48 36.88 33.69 32.17 30.18 28.48 35.07 31.31 29.26 33.76 39.35 40.69 40.32 39.75 39.51 40.19 38.08 36.72 38.21 38.39 38.96 38.65 38.29 34.00 33.84 34.33 33.74 32.22 32.54
38.34 32.97 28.68 30.73 28.50 30.12 32.38 33.37 32.58 33.51 34.42 35.69 36.91 35.32 36.14 35.31 31.99 32.05 27.57 32.66 34.05 28.02 26.26 28.92 36.81 37.44 38.37 38.81 38.95 38.18 37.33 33.49 33.89 35.72 36.68 35.46 34.71 34.16 33.06 32.64 31.48 30.47 30.23 31.39
34.06 32.98 27.46 29.80 34.76 36.22 33.56 36.05 35.83 35.97 36.89 37.58 35.94 35.71 34.90 33.42 30.13 31.63 31.22 27.06 24.74 27.55 28.71 35.64 37.39 38.41 38.44 37.61 38.30 37.26 34.85 32.17 33.04 35.61 34.66 34.06 33.64 32.88 32.10 33.19 31.98 31.90 30.98 30.19
34.18 31.55 29.90 33.94 33.19 31.88 32.24 32.42 33.69 37.96 37.28 36.79 36.30 31.63 27.46 26.61 28.99 26.73 25.17 25.10 24.15 30.86 36.98 37.08 37.53 37.01 36.93 35.90 34.83 35.89 36.20 35.28 35.37 35.68 35.86 35.35 34.21 32.94 33.12 33.16 32.41 31.85 31.58 30.91
29.65 30.79 36.17 35.44 33.86 32.42 33.69 33.66 35.03 39.79 34.15 30.58 31.90 25.11 25.07 31.59 26.66 25.06 29.56 27.75 32.19 35.60 35.99 36.64 37.11 35.91 36.17 35.61 35.55 33.86 34.44 35.48 35.74 35.98 35.92 35.70 35.48 33.83 32.38 31.31 32.15 31.43 31.56 30.96

GFSNW_sfc_wetblb_009.txt.gz
Wetbulb
53.62 53.55 53.41 53.03 52.43 52.40 55.07 55.26 47.34 56.20 58.30 49.48 47.97 40.99 46.28 45.07 48.09 49.87 48.46 47.56 46.04 43.95 44.51 42.64 42.70 42.75 44.61 47.44 46.03 42.69 43.75 39.00 30.00 38.49 44.82 46.30 42.75 41.67 41.40 32.41 32.43 30.98 30.50 33.17
53.73 53.48 53.23 52.85 52.50 52.26 49.69 51.76 51.00 57.68 56.64 39.82 38.22 45.43 47.35 48.26 47.94 47.39 47.58 46.31 47.09 46.88 43.69 38.32 43.60 44.51 47.60 47.03 45.82 42.18 42.85 34.60 28.17 33.39 39.51 42.73 40.39 42.00 41.49 39.47 32.05 31.17 25.70 31.37
53.99 53.72 53.19 52.91 52.57 52.27 52.12 51.22 38.36 50.13 51.64 50.25 45.68 44.51 45.23 45.08 49.14 48.05 48.74 47.51 47.86 45.50 43.21 45.14 41.14 43.24 47.10 47.76 46.94 46.16 44.71 38.97 33.62 29.07 34.19 39.63 36.87 39.22 40.22 37.85 25.94 30.91 32.13 35.45
53.31 53.46 53.02 52.68 52.15 52.04 54.16 50.11 44.58 46.78 39.34 44.16 46.17 46.67 47.06 45.29 45.01 48.56 48.49 46.19 46.12 43.95 36.56 38.94 40.79 45.04 45.06 46.83 45.69 45.76 43.41 32.90 37.91 39.03 40.44 40.76 39.47 38.80 38.59 36.79 36.39 31.90 35.09 35.96
52.91 53.20 52.61 51.97 51.62 51.53 54.32 47.51 46.86 48.40 44.12 47.02 45.67 42.90 44.49 45.04 45.89 45.44 45.74 43.79 46.21 45.13 39.97 42.69 38.94 42.76 41.98 41.26 44.46 42.10 43.74 33.08 34.38 34.74 39.42 40.03 36.17 37.45 37.86 37.64 37.60 37.55 37.81 37.25
52.52 52.95 50.38 51.75 51.39 52.63 53.99 51.66 50.81 49.70 43.09 42.16 39.10 40.44 45.23 45.82 47.04 47.09 47.85 46.09 44.08 37.80 44.79 46.02 46.01 45.92 45.56 44.84 42.42 38.11 37.98 33.15 29.14 32.90 35.58 34.19 26.87 33.44 36.56 38.08 39.18 37.95 31.98 37.43
52.52 50.67 51.14 51.83 51.18 51.55 54.09 53.39 51.74 36.83 35.10 37.31 42.35 47.11 46.96 46.06 46.66 44.06 48.40 46.94 41.39 48.23 50.85 48.30 44.61 43.03 43.68 43.21 43.39 43.56 33.68 30.10 31.01 32.47 30.07 25.74 35.24 42.08 41.21 38.57 39.65 40.28 40.69 41.15
52.44 50.27 51.35 51.82 51.29 51.60 53.43 55.07 52.45 40.62 34.21 42.46 44.75 45.86 45.87 46.54 46.23 44.94 47.09 49.07 50.56 49.84 45.62 35.50 33.02 31.23 31.45 35.19 41.80 41.12 41.59 32.55 31.21 29.60 28.62 32.83 35.94 39.21 37.05 35.50 35.81 42.07 40.69 42.61
51.66 51.66 51.56 52.14 51.50 51.35 53.66 55.91 55.17 45.93 36.12 38.16 49.08 44.71 45.44 38.65 38.07 40.01 45.13 50.39 50.22 48.27 34.94 35.03 28.23 22.90 29.97 31.33 36.61 42.26 39.20 36.35 32.05 28.81 23.78 21.88 31.70 39.88 44.58 43.45 32.16 42.23 43.71 42.59
50.87 51.05 51.01 51.19 51.37 51.47 52.73 54.07 57.12 52.23 40.52 45.48 48.35 42.94 41.86 47.06 42.65 36.90 42.17 44.39 40.45 45.97 34.51 32.74 32.23 27.38 36.55 27.87 26.02 26.51 29.15 30.07 27.36 23.87 26.71 29.38 38.29 42.17 44.95 28.99 34.20 42.84 44.17 43.49
50.41 50.48 50.43 50.44 50.67 51.02 52.73 53.37 56.88 52.46 43.98 47.01 50.34 51.28 47.25 47.46 44.97 35.88 42.65 40.80 38.62 36.15 33.09 33.12 32.88 32.40 31.06 29.65 34.79 29.73 28.31 26.02 29.42 25.98 29.70 23.90 42.62 41.15 32.15 38.73 42.24 43.56 43.04 43.11
50.22 50.20 49.82 49.94 50.30 50.59 50.81 50.50 56.76 56.46 49.06 48.06 53.23 53.89 54.08 52.91 51.76 47.50 45.12 43.02 43.74 42.25 33.93 33.34 33.62 33.09 33.25 32.38 31.34 37.92 31.44 34.11 29.31 31.92 30.21 39.63 42.79 41.35 43.44 44.64 43.00 43.49 43.05 42.88
49.64 49.77 50.00 49.94 50.21 50.59 51.63 51.57 53.86 50.91 39.64 47.55 46.22 46.86 52.01 55.70 54.18 54.84 41.94 41.53 47.88 45.19 45.26 38.39 35.66 34.02 35.40 32.54 33.22 33.04 38.93 41.28 34.16 33.38 37.63 40.55 42.24 44.09 44.78 44.71 43.83 44.80 44.63 43.69
49.25 49.34 49.41 49.48 49.76 50.34 50.86 50.75 53.44 51.50 42.13 33.84 42.14 50.72 50.25 54.54 54.18 53.24 53.04 50.78 50.98 49.69 46.23 35.84 34.02 33.48 40.64 34.78 36.69 36.38 38.72 39.46 36.92 36.28 39.53 41.04 41.92 42.62 43.94 44.47 46.00 43.97 42.38 41.83
48.87 48.98 49.08 49.19 49.78 50.01 50.54 51.72 52.80 54.08 48.74 36.38 37.72 45.87 49.33 52.31 52.40 51.69 51.80 50.95 49.29 43.17 37.29 34.57 34.36 36.12 36.67 36.12 35.51 34.82 40.91 39.05 35.60 34.37 40.86 40.35 41.45 42.68 44.17 43.38 41.74 41.32 41.11 38.62
48.56 49.06 49.39 49.12 49.12 49.51 49.32 44.32 50.13 53.30 53.05 39.83 34.21 44.03 43.73 47.56 49.31 48.60 48.75 49.69 48.31 46.79 40.34 35.46 39.15 43.66 39.04 33.30 35.18 40.42 43.55 44.15 44.35 41.06 43.63 43.40 42.79 43.81 45.22 43.15 41.58 40.65 39.54 38.41
48.05 48.38 48.88 49.08 48.81 50.12 45.94 42.23 46.58 50.31 51.64 35.29 34.73 35.05 40.21 42.15 43.38 45.12 45.15 46.72 45.24 44.45 39.63 36.91 38.15 38.64 41.62 32.73 34.98 41.19 43.28 43.57 44.00 45.03 44.55 41.37 42.03 38.58 41.32 40.76 40.94 41.29 39.44 38.20
47.91 47.96 48.22 48.45 48.65 47.60 43.77 46.26 47.98 49.39 43.03 37.82 34.93 34.14 35.12 41.25 34.58 35.82 40.82 36.33 37.63 38.71 39.05 36.18 35.44 37.48 35.11 33.24 39.41 41.59 42.55 43.45 43.00 43.21 42.37 40.74 39.85 39.64 39.74 40.40 39.49 37.93 36.22 35.74
47.73 47.69 47.37 45.88 43.75 39.78 42.15 47.11 46.72 45.92 41.65 34.57 32.57 32.20 32.54 41.47 38.64 36.63 36.12 37.22 32.74 36.63 33.45 35.03 37.17 33.80 33.22 37.30 39.24 40.44 41.11 39.90 39.39 40.30 39.49 37.92 37.27 37.24 38.50 38.03 36.98 36.59 35.68 33.41
46.88 46.21 40.92 34.19 39.10 46.57 46.39 42.00 35.81 34.72 33.48 33.12 31.80 35.68 33.80 40.03 34.55 33.10 33.27 32.92 32.17 30.87 33.66 36.65 33.09 32.94 39.36 40.85 41.86 41.62 38.10 39.29 39.21 34.66 33.42 33.25 33.48 35.01 35.19 35.40 35.59 35.64 33.49 32.42
44.02 37.44 34.55 42.13 46.05 43.30 37.22 32.15 31.99 31.99 30.46 32.11 33.66 34.94 33.80 38.75 33.39 32.53 33.27 31.82 31.99 28.67 26.61 26.86 24.00 27.86 34.97 39.17 38.86 38.83 39.63 40.04 39.49 38.37 37.12 35.91 35.09 34.25 33.85 32.64 32.97 32.39 31.24 30.91
43.19 42.31 44.27 41.85 37.63 33.83 32.24 30.93 31.67 30.82 28.26 33.34 32.85 34.05 36.40 34.34 38.13 32.70 32.56 30.49 31.07 24.67 29.44 29.28 24.34 29.89 36.83 36.94 37.21 38.01 37.39 36.91 37.20 36.59 34.59 34.37 35.00 34.80 32.11 31.74 31.21 29.34 30.52 31.07
42.91 36.77 33.24 33.68 32.11 27.99 23.22 22.97 28.82 26.31 31.31 34.08 33.21 32.73 33.39 33.99 34.19 31.96 30.43 28.15 26.59 31.60 27.85 25.15 26.04 33.59 35.71 35.68 35.73 35.87 35.92 32.31 31.17 33.92 34.40 34.59 33.78 33.82 30.25 31.75 28.90 26.38 31.97 31.32
32.52 29.77 20.34 23.78 24.66 24.85 27.28 27.44 31.16 32.15 32.74 33.09 33.03 32.36 29.83 31.75 29.64 29.83 24.96 25.35 27.80 24.61 22.11 19.43 26.14 32.12 35.00 35.83 36.15 35.81 34.14 28.32 28.71 30.69 31.22 29.60 28.44 29.12 28.22 25.31 27.86 31.68 27.29 27.41
27.29 28.98 19.69 25.50 28.58 32.00 31.76 33.07 32.83 32.71 33.89 33.30 31.31 30.31 28.34 24.27 22.13 26.14 21.53 19.00 21.93 20.08 18.22 23.10 27.96 31.35 32.34 32.62 33.29 32.09 28.48 27.01 25.96 30.85 27.78 27.25 27.93 27.95 28.89 27.56 27.41 29.05 26.91 26.75
31.36 29.43 24.83 28.57 26.72 29.77 30.11 31.37 32.39 33.62 31.98 29.91 28.22 23.03 17.86 16.99 20.51 17.33 17.67 16.52 16.33 19.24 23.27 26.90 29.52 30.48 30.80 31.36 30.11 30.40 31.51 31.60 31.19 31.17 31.09 30.87 28.61 27.17 28.66 30.64 31.29 30.97 29.26 28.39
25.84 21.74 28.01 31.61 28.75 31.06 30.81 32.17 31.61 33.85 26.35 20.48 21.23 15.18 17.85 22.97 15.97 16.50 24.14 18.18 20.26 23.97 25.61 27.27 29.79 30.20 30.28 30.64 30.42 28.58 29.21 30.62 30.21 30.75 31.50 31.76 30.24 25.46 31.40 31.30 32.33 31.22 29.29 29.08

GFSNW_sfc_wetblb_012.txt.gz
Wetbulb
52.84 52.89 52.88 52.55 52.23 52.16 52.00 52.43 42.46 51.28 56.26 46.21 43.29 38.34 44.15 44.66 46.17 48.27 46.72 45.80 44.20 42.24 42.38 40.93 41.20 40.82 42.87 45.63 44.78 40.94 42.06 36.33 29.83 36.45 42.35 43.72 40.81 38.70 37.83 27.65 30.48 29.32 30.70 31.56
52.86 52.61 52.50 52.41 51.91 51.71 49.77 48.60 47.83 54.44 53.54 36.40 34.26 43.59 45.87 46.81 46.25 45.75 46.00 44.22 45.51 45.23 41.90 37.40 41.85 42.90 45.98 44.99 44.20 40.88 41.07 33.19 27.02 31.56 36.50 40.70 38.61 39.96 39.30 37.14 30.67 29.09 23.36 27.61
52.84 52.67 52.53 52.23 51.77 51.65 51.74 47.07 39.03 46.51 48.39 47.17 42.71 42.24 43.17 43.34 47.43 46.38 47.03 45.50 46.17 43.61 41.26 43.21 38.93 41.87 45.68 45.98 45.26 45.36 43.44 36.93 32.06 27.44 31.71 37.33 35.40 38.25 38.61 35.49 25.47 30.27 31.76 33.78
52.62 52.52 51.90 51.59 51.66 51.48 52.44 46.62 41.72 44.69 37.24 41.56 42.87 44.35 45.32 43.53 43.10 46.60 46.52 44.55 44.13 42.23 35.39 37.31 39.35 42.46 43.00 45.04 44.87 43.48 40.90 32.15 35.52 36.92 38.39 38.55 38.49 37.92 38.14 35.56 34.90 29.56 33.65 33.97
52.14 51.53 49.48 50.69 51.32 51.70 49.28 45.40 45.17 45.41 41.58 45.57 43.08 40.74 42.33 43.56 43.88 44.76 43.44 42.57 43.92 43.17 38.98 39.98 37.07 40.89 39.80 39.91 42.54 39.83 41.41 31.80 32.48 33.53 37.62 37.88 35.65 37.80 37.16 36.62 36.50 35.55 35.19 34.58
51.95 49.86 49.91 50.92 51.13 53.22 49.35 49.70 49.07 45.68 39.22 39.13 36.81 37.66 43.02 43.85 45.68 45.21 46.25 44.78 41.95 36.29 42.89 44.86 45.04 45.19 44.30 43.44 40.67 36.41 36.14 31.36 28.92 30.91 33.71 33.04 30.22 33.17 34.62 35.90 37.53 35.78 30.72 35.60
51.43 49.51 50.69 50.53 50.68 51.45 52.50 50.49 44.65 36.35 32.71 33.65 38.86 45.21 45.35 44.44 44.53 43.19 45.84 45.37 41.13 46.21 48.23 46.12 43.15 40.76 40.08 40.58 40.37 42.23 32.37 29.34 29.02 29.69 31.13 24.69 35.51 39.68 39.13 36.22 37.42 38.37 39.38 39.78
51.65 49.16 51.35 50.67 50.60 51.13 52.69 51.94 48.53 37.71 32.14 39.71 42.07 43.27 43.93 44.25 43.71 43.49 44.62 46.78 47.69 47.53 41.65 33.76 29.77 29.50 30.41 32.40 40.79 40.23 39.55 33.29 29.43 24.94 28.40 31.90 34.77 37.61 35.23 33.59 34.77 40.21 39.47 40.87
51.20 51.04 51.30 50.98 50.66 51.06 52.86 53.15 51.12 42.53 35.53 36.88 46.34 42.93 43.40 37.28 35.40 37.76 43.50 48.48 48.36 44.19 33.08 30.03 22.19 21.66 28.52 30.57 35.32 40.50 37.08 33.68 27.39 29.61 26.69 23.58 30.67 37.60 42.76 40.93 29.29 41.16 40.82 40.02
50.64 50.66 50.78 51.00 50.91 51.27 52.07 51.69 53.89 48.42 40.22 43.57 46.92 41.34 40.03 44.61 39.81 35.07 38.28 43.37 39.06 42.35 34.20 30.00 26.06 26.09 34.68 27.79 24.58 24.76 27.89 30.34 22.94 19.59 24.71 26.10 35.67 39.80 41.72 23.58 29.68 38.81 41.60 41.35
50.28 50.30 50.50 50.54 50.68 51.01 51.99 51.96 54.17 50.35 42.35 46.36 49.08 49.90 46.08 45.91 42.06 35.17 40.88 39.98 37.02 35.66 33.14 31.60 28.34 30.97 30.12 28.80 32.78 29.47 28.19 25.72 28.08 25.81 25.83 24.60 40.13 40.17 33.03 36.54 38.36 41.19 41.10 41.41
49.92 50.07 49.91 50.17 50.45 50.66 51.38 48.66 54.07 53.48 47.51 46.28 51.33 52.34 53.05 51.30 49.30 45.59 42.55 41.53 40.46 38.85 34.30 33.90 30.73 30.97 32.40 30.31 30.58 36.16 31.36 33.58 29.00 30.51 29.14 37.29 40.55 40.85 41.03 42.47 40.96 40.12 42.15 43.32
49.53 49.69 49.82 49.76 50.14 50.64 50.87 49.26 51.08 48.94 38.99 44.42 45.16 46.10 50.13 54.15 53.06 52.12 40.74 37.11 46.09 42.81 42.64 35.56 34.46 32.98 34.03 32.92 32.90 34.47 37.12 39.94 31.74 33.61 37.50 39.00 40.45 43.00 43.57 42.10 41.41 43.05 41.73 40.11
49.10 49.24 49.23 49.31 49.74 50.29 50.38 48.92 50.34 47.78 42.00 34.09 41.57 48.81 48.85 52.83 52.37 51.59 50.63 48.52 49.14 48.23 44.64 35.36 34.28 33.37 40.22 34.73 38.16 36.49 39.04 39.70 36.63 37.01 39.50 40.48 41.52 41.42 43.64 44.28 42.49 41.73 41.56 41.28
48.72 48.99 49.12 49.21 49.89 49.97 49.26 49.50 51.28 51.77 47.13 36.27 37.06 45.03 48.23 50.70 51.54 50.69 51.28 49.90 47.79 41.99 36.99 34.64 34.61 35.81 36.44 34.43 34.65 34.81 40.55 38.67 35.62 35.19 40.80 40.49 41.26 43.17 44.23 40.84 40.55 40.81 38.88 38.21
48.43 48.92 49.24 49.31 49.28 49.69 49.55 44.87 49.01 51.62 52.59 39.53 34.46 43.52 42.86 46.04 47.45 47.64 47.34 48.02 46.95 45.00 38.97 35.35 38.43 42.52 38.40 33.37 33.52 38.90 42.14 43.96 44.63 41.57 44.28 43.43 43.20 41.91 41.38 39.36 39.06 39.69 39.69 37.71
48.20 48.68 48.95 49.10 48.63 50.33 46.50 43.32 46.41 50.61 51.96 35.73 34.82 34.92 39.28 40.74 42.19 43.24 43.31 44.63 43.36 43.55 39.99 36.44 38.35 38.50 41.43 32.99 35.31 41.34 42.30 43.45 44.70 44.51 44.41 40.41 40.26 38.10 40.18 38.84 39.17 39.68 39.08 37.83
47.87 48.10 48.50 48.56 48.38 47.82 44.33 46.26 48.09 49.84 43.86 38.08 34.28 34.21 35.26 41.31 32.83 34.05 39.15 35.53 36.78 38.41 39.12 35.51 35.53 36.77 34.64 34.00 40.50 40.81 42.27 43.56 42.84 41.27 41.47 40.55 38.70 38.24 38.56 38.99 37.99 36.35 35.20 35.97
47.80 47.80 47.33 45.78 43.84 40.04 42.18 46.41 46.25 45.10 42.63 34.82 32.83 32.46 32.61 41.28 37.95 35.48 33.94 34.06 32.99 35.63 32.99 34.41 36.69 32.98 33.41 37.23 38.35 39.78 40.33 39.92 38.58 38.18 37.83 37.87 36.43 36.43 35.81 35.80 35.30 34.62 34.67 34.48
47.24 45.62 40.49 34.08 38.99 46.81 46.16 41.24 36.25 35.15 33.73 33.37 32.27 34.98 33.52 39.19 33.88 32.64 32.99 32.80 32.07 30.92 33.13 37.65 33.17 34.30 39.30 40.96 41.67 40.92 36.39 37.12 36.33 33.11 31.80 32.27 31.92 32.66 31.70 32.42 33.63 32.95 31.87 32.32
43.17 36.57 34.44 41.67 46.52 42.58 36.39 32.03 32.60 32.25 30.91 32.03 33.11 33.96 33.50 38.23 33.46 32.61 32.98 31.89 31.66 27.64 26.40 31.42 26.52 27.83 32.90 36.07 35.05 36.52 37.00 37.60 36.92 36.86 35.66 34.68 32.65 32.15 31.54 30.43 31.42 30.90 30.27 30.19
42.67 41.58 43.54 40.98 37.18 33.54 32.16 30.35 30.71 30.32 27.34 32.18 31.20 33.22 35.96 33.88 37.47 32.37 31.71 29.86 30.38 23.24 26.17 25.04 25.22 27.25 32.48 33.74 34.31 34.92 35.89 36.28 35.92 35.77 34.18 34.05 33.73 33.69 31.00 30.35 30.40 29.73 29.00 26.51
40.00 36.07 33.49 31.66 31.87 24.65 20.69 24.81 27.39 27.33 31.42 33.67 32.98 32.43 32.78 33.50 33.84 31.50 24.48 24.10 20.31 29.15 26.90 24.67 24.19 31.49 34.81 35.68 36.47 35.47 34.36 31.87 30.84 34.80 35.13 34.70 33.00 32.09 28.69 28.38 28.81 26.58 26.52 27.74
30.94 25.53 23.67 23.39 22.58 24.44 24.60 26.25 30.81 32.19 32.43 32.61 32.96 31.84 29.33 29.39 23.91 29.47 24.94 24.57 26.79 21.90 21.76 18.70 25.01 30.25 32.53 33.41 33.17 32.67 31.51 26.71 27.33 29.36 30.30 29.10 27.79 27.57 26.68 23.83 25.59 21.97 30.55 31.15
24.44 24.98 19.87 24.58 28.87 29.46 31.24 32.25 31.94 32.58 33.19 30.96 26.56 25.89 26.20 23.37 19.72 26.90 24.15 17.55 21.24 22.58 17.16 21.85 26.72 30.12 31.04 31.04 31.59 31.40 27.58 27.25 27.35 29.97 27.51 26.34 25.51 25.51 27.78 28.95 24.84 28.41 30.25 29.82
24.47 25.63 24.31 25.54 26.97 27.89 29.96 31.26 31.47 32.03 27.53 26.72 25.90 20.25 16.46 16.18 17.09 15.04 16.14 14.98 14.66 17.32 19.02 24.90 28.51 29.83 30.27 29.90 29.49 30.32 29.80 28.98 29.58 30.28 29.85 29.77 27.01 27.45 29.11 26.90 29.86 32.52 32.13 31.49
21.64 18.99 26.94 28.55 25.83 23.32 30.14 28.65 30.47 33.55 29.24 19.05 17.99 14.62 17.35 20.53 11.89 13.67 21.85 15.72 18.51 22.37 24.66 27.21 28.45 28.85 29.05 29.37 29.36 27.03 28.41 30.02 30.07 30.04 29.65 29.32 29.54 26.13 28.40 26.01 31.88 30.60 31.50 31.83

GFSNW_sfc_wetblb_018.txt.gz
Wetbulb
52.46 52.39 52.22 52.06 51.78 51.59 52.85 45.68 40.30 50.17 51.69 42.88 37.20 36.43 40.49 43.00 43.50 45.89 44.08 43.11 41.56 39.45 39.30 38.02 37.70 37.58 39.61 43.07 42.00 38.03 38.73 33.64 28.60 33.43 38.58 39.84 37.59 35.24 34.40 26.12 27.15 27.52 25.69 27.70
52.11 51.99 50.21 49.27 51.42 51.77 50.62 46.06 45.54 50.59 49.54 34.77 31.85 40.48 42.86 43.87 42.99 42.91 42.33 41.08 42.71 42.38 38.78 35.38 38.55 39.56 42.66 43.23 41.40 38.46 38.73 31.75 25.45 28.76 34.81 36.92 35.80 36.09 35.94 32.73 29.17 29.23 26.41 26.60
52.35 50.37 49.54 50.12 51.55 51.70 48.64 44.22 38.95 44.98 45.30 42.09 40.19 39.50 39.27 40.75 44.54 43.39 43.69 42.38 43.25 40.86 38.07 40.48 37.26 38.75 42.86 43.97 42.38 44.07 42.01 33.98 30.21 25.18 29.38 32.33 31.86 34.91 35.42 33.96 29.05 28.62 29.88 32.31
51.85 49.20 49.72 51.35 51.19 51.40 49.13 42.69 40.10 42.08 35.51 40.18 40.87 41.05 41.06 40.33 39.27 43.07 43.84 41.40 41.17 39.17 33.89 35.41 35.90 39.70 40.43 42.00 43.34 40.82 38.78 31.90 32.94 33.76 34.98 34.88 35.07 34.81 35.26 33.02 33.11 30.85 32.72 32.06
50.06 49.16 50.12 50.94 51.13 51.49 47.08 43.67 43.06 41.19 39.65 42.47 40.08 38.37 39.80 41.02 40.95 41.51 40.21 40.12 40.54 40.11 36.64 37.14 35.63 38.65 36.91 37.51 40.02 36.94 38.42 30.07 31.15 30.28 33.62 33.72 31.62 34.61 35.39 35.07 34.30 34.49 35.00 33.79
49.27 49.14 49.36 50.49 50.67 51.23 46.99 45.59 44.74 43.76 36.67 35.67 35.12 35.31 40.15 41.39 42.77 42.72 43.60 42.50 39.47 34.64 40.33 42.40 42.09 42.49 41.88 40.12 37.68 35.37 34.49 30.54 27.40 23.52 30.08 29.75 23.88 29.74 32.35 33.55 34.89 33.75 29.91 34.06
48.69 48.47 49.54 50.10 50.53 51.23 49.92 46.71 42.67 36.21 32.14 31.48 36.94 41.47 41.40 41.25 41.04 40.82 42.15 41.97 38.62 41.67 45.12 42.91 40.51 37.92 35.64 36.74 37.51 39.65 31.83 27.98 29.14 24.10 26.04 19.74 33.10 36.05 36.79 34.82 35.18 35.45 34.80 36.14
48.47 48.18 50.16 50.15 50.36 51.50 50.88 47.15 43.34 37.37 30.93 36.35 39.03 40.96 41.30 41.23 41.56 40.81 41.93 44.40 43.34 43.50 39.74 32.98 29.83 29.23 28.20 30.25 36.78 35.35 35.61 30.88 28.25 28.75 26.73 29.37 34.44 35.27 32.91 32.23 31.85 36.36 35.58 37.30
48.76 49.30 50.59 50.21 50.26 51.05 51.84 48.67 44.13 41.40 35.10 35.99 42.88 41.24 40.18 35.09 33.10 35.42 39.78 44.76 44.56 40.70 30.20 29.05 23.70 22.95 26.79 29.24 31.55 35.99 34.27 30.21 26.38 27.81 25.79 22.58 30.77 33.89 39.40 37.68 28.65 36.29 39.78 38.79
50.67 50.69 51.06 50.39 50.36 50.21 51.94 49.81 48.23 45.03 36.52 40.10 43.67 38.86 38.69 40.75 37.00 33.32 35.01 40.10 37.67 39.36 31.40 29.52 21.49 24.88 31.37 26.82 22.48 21.97 26.91 29.81 30.20 29.18 27.75 29.95 34.77 36.41 37.70 25.65 30.33 37.78 39.82 40.11
50.16 50.24 50.67 50.94 50.42 49.30 51.74 50.36 50.66 47.31 39.37 42.23 46.25 46.05 43.01 41.99 39.39 34.95 38.74 38.46 35.04 34.84 30.56 27.93 25.60 19.63 28.54 27.81 31.02 27.80 27.39 24.30 23.27 25.14 25.03 21.21 36.15 36.82 31.37 36.17 37.97 39.33 39.16 38.48
49.55 49.87 50.08 50.33 50.51 49.99 50.68 48.69 50.46 49.73 45.58 43.61 47.17 48.67 48.28 47.04 45.79 42.78 39.08 39.27 37.54 37.37 33.32 32.38 28.43 24.54 24.04 27.14 28.18 33.15 29.19 33.33 29.98 31.67 28.55 36.16 38.83 40.34 39.91 41.29 40.50 39.15 38.57 40.24
49.30 49.41 49.98 50.24 50.41 51.00 50.68 48.36 48.13 46.29 38.38 42.55 43.58 43.50 47.41 51.15 50.40 49.03 40.05 34.97 42.02 38.84 39.73 32.79 31.55 27.84 30.01 30.39 29.96 31.99 35.37 38.33 33.04 33.71 36.42 37.83 40.91 42.65 42.04 40.42 39.75 42.08 41.69 38.75
49.29 49.29 49.32 49.68 49.91 50.57 50.51 48.04 47.44 46.33 41.21 33.85 39.83 45.48 44.95 49.16 50.61 49.09 48.00 46.31 44.64 41.61 38.73 33.39 33.12 33.11 38.65 33.83 37.26 35.56 37.61 37.65 35.59 36.37 39.83 41.13 41.17 41.78 42.32 42.46 40.52 39.47 39.48 38.83
49.27 49.30 49.36 49.38 49.88 49.98 49.44 48.60 49.29 49.98 46.15 35.61 37.02 43.24 45.44 47.00 48.34 47.49 46.10 46.19 43.38 41.00 35.66 33.47 34.36 34.83 35.83 34.51 34.73 34.31 40.44 38.19 35.66 34.73 40.75 40.82 41.44 41.53 40.56 37.18 35.77 35.29 37.24 37.09
48.84 49.20 49.65 49.52 49.37 50.42 50.75 46.21 50.21 50.24 51.70 39.63 35.12 41.77 39.39 42.18 44.83 44.79 45.12 45.25 43.57 42.51 38.84 34.90 37.90 41.37 38.18 32.94 32.87 39.80 41.93 43.50 44.40 41.16 44.08 41.03 39.31 37.83 37.09 34.84 35.82 37.06 37.82 37.48
48.38 48.58 48.89 49.42 49.25 51.11 47.57 44.23 44.84 50.31 50.71 36.75 34.57 35.98 35.54 38.39 40.60 41.25 41.56 44.18 43.98 43.15 38.00 34.90 37.02 37.74 40.12 32.73 34.79 40.77 42.31 42.79 42.50 43.68 41.38 37.69 38.65 36.29 37.73 36.56 36.16 35.04 33.66 34.05
48.17 48.19 48.17 48.55 49.00 48.56 45.83 46.03 47.64 50.19 44.68 39.25 33.83 34.33 34.98 38.56 32.64 33.83 39.45 35.64 36.57 37.08 38.33 35.09 34.18 36.28 34.19 33.42 37.75 39.60 40.81 41.59 37.41 34.70 36.22 37.33 36.96 35.38 32.73 33.51 33.18 31.09 30.93 31.62
47.95 47.75 47.71 46.60 44.59 41.25 42.99 46.60 46.85 45.49 43.65 34.01 32.75 33.29 33.11 40.82 36.95 35.22 34.68 35.24 33.09 35.42 32.93 33.80 36.05 32.91 33.15 32.20 33.07 34.06 34.16 36.47 32.25 33.76 33.25 33.66 32.91 33.03 33.13 32.82 31.90 29.63 28.41 29.10
47.01 45.29 41.40 34.36 38.73 46.52 46.00 42.21 37.46 35.99 34.39 33.85 32.94 34.84 33.83 39.42 33.27 32.93 33.82 32.73 32.17 30.55 32.90 34.58 32.35 32.50 32.76 32.97 34.08 34.34 33.12 33.44 34.20 31.79 31.02 32.04 31.63 32.08 31.86 30.46 30.04 29.10 28.54 29.41
42.48 36.72 34.38 41.56 46.25 41.83 36.46 33.47 32.91 32.56 31.82 32.52 33.71 33.36 33.45 37.40 33.38 33.09 32.91 32.50 31.93 26.39 24.41 30.11 29.10 28.29 29.20 31.63 32.58 33.02 33.35 34.26 35.42 35.29 34.21 34.74 33.73 30.81 29.90 30.18 30.07 29.99 28.90 28.63
42.38 41.97 42.96 40.36 36.67 33.45 33.38 31.42 31.07 30.84 29.17 32.10 31.78 32.90 35.49 33.64 36.50 33.06 31.43 30.09 29.38 23.23 25.88 24.96 18.82 26.31 30.11 32.31 32.11 32.14 32.76 31.84 32.30 32.19 31.56 30.81 30.52 30.87 30.15 30.26 30.35 29.24 28.98 26.29
39.75 36.31 33.83 32.44 31.05 28.82 28.21 22.57 25.90 27.60 30.41 33.00 32.75 31.99 32.16 33.26 33.80 30.86 30.29 25.32 20.06 28.11 21.63 19.62 22.41 28.25 33.10 32.86 32.60 31.60 32.55 31.25 28.00 29.72 30.07 30.20 29.09 28.55 26.82 27.43 27.72 25.92 26.27 26.55
30.93 28.90 27.68 25.26 24.57 25.05 23.07 23.63 25.94 28.73 32.35 32.37 32.52 30.48 29.78 29.82 27.64 27.85 24.22 24.51 25.55 20.10 15.12 17.23 23.23 30.18 32.00 31.58 30.43 29.06 29.18 25.99 25.51 28.07 28.45 26.85 25.95 26.27 26.22 24.41 24.76 22.87 23.82 26.18
26.74 24.38 19.98 22.14 24.29 28.04 30.89 31.98 32.52 32.17 32.97 32.04 30.26 28.39 25.49 26.14 21.01 26.08 23.18 21.83 19.16 18.06 15.30 17.82 26.72 30.03 29.49 28.81 29.67 28.90 26.67 24.74 24.74 28.45 26.47 24.40 23.64 23.51 25.19 26.70 24.55 23.74 23.16 23.52
23.37 20.40 22.07 25.85 27.88 27.41 29.01 31.63 31.25 32.50 30.93 29.22 27.09 17.31 15.09 16.91 19.39 19.74 20.11 16.44 13.52 15.50 15.67 24.23 27.21 28.30 28.63 28.81 28.11 28.27 28.37 28.28 28.65 28.73 27.70 27.66 24.83 24.18 27.42 27.75 26.53 25.13 23.81 24.24
18.95 19.09 26.83 21.63 20.37 22.40 19.67 31.29 31.36 32.61 28.95 24.78 14.83 12.16 14.40 17.89 10.72 13.88 18.23 12.36 15.52 19.41 21.41 23.93 27.37 28.22 28.34 28.63 28.50 26.23 26.78 28.48 28.58 28.47 28.23 28.28 27.93 24.63 22.93 24.66 28.42 27.03 28.20 29.43

GFSNW_sfc_wetblb_021.txt.gz
Wetbulb
52.26 52.24 50.62 50.01 50.70 51.66 51.28 45.96 44.95 52.77 53.19 43.75 38.86 38.64 42.05 43.59 44.93 46.60 45.38 44.85 43.66 41.88 41.53 40.37 40.20 39.70 41.96 44.39 45.42 41.13 41.71 37.35 33.83 36.61 41.31 42.67 41.14 38.53 37.15 32.98 30.31 33.14 32.17 31.99
52.12 50.62 50.19 50.55 51.14 51.56 51.28 46.98 47.70 51.62 51.07 37.95 35.88 43.15 44.01 44.66 44.47 44.04 44.35 43.39 44.59 44.04 41.07 38.16 41.42 41.95 44.98 44.85 44.73 42.04 42.19 36.10 30.33 32.04 37.81 40.12 39.06 39.59 37.89 35.99 33.94 32.11 29.69 32.26
51.81 50.06 50.17 50.75 51.31 51.70 48.98 45.53 41.72 46.48 45.46 43.53 42.07 41.43 41.71 42.25 45.33 44.24 44.42 43.56 44.85 42.52 40.24 42.20 40.42 41.46 44.82 45.56 44.62 43.84 43.71 36.77 33.58 29.88 32.84 36.28 34.89 36.99 37.68 37.56 32.91 32.42 33.43 35.65
50.57 49.65 50.21 50.89 51.07 51.26 49.20 44.15 42.43 44.13 37.96 41.78 42.46 42.96 42.77 41.71 41.21 44.82 45.17 43.28 43.03 41.44 36.80 39.13 39.81 42.08 42.59 43.62 44.20 43.57 42.37 35.88 35.86 36.38 37.55 36.69 36.44 36.45 36.92 35.57 36.67 33.04 35.62 36.13
49.61 49.27 49.36 50.46 50.96 50.64 47.75 44.46 44.19 42.47 40.56 43.09 42.50 39.58 42.03 42.10 42.55 43.39 42.80 41.74 43.04 42.75 39.44 40.28 38.57 41.82 41.41 40.70 43.10 41.62 40.62 35.56 35.43 33.07 35.66 35.19 33.23 36.05 36.30 36.74 37.19 36.50 37.34 36.66
49.12 48.94 49.40 50.45 50.86 50.94 48.02 46.67 46.14 45.62 37.41 37.24 38.38 38.55 42.27 42.81 43.92 43.77 44.96 43.52 41.64 37.98 43.00 45.21 45.45 44.77 43.33 43.44 41.64 39.16 38.38 35.66 32.34 29.64 32.12 31.92 29.51 32.99 34.98 36.39 37.60 37.82 33.73 38.98
49.14 48.65 49.36 50.02 50.42 50.99 50.26 47.72 43.78 38.81 35.70 35.09 38.30 42.66 43.33 42.25 43.34 42.13 44.04 44.26 41.61 44.24 46.59 45.18 42.58 39.21 38.81 40.20 40.10 41.29 33.82 33.05 32.09 31.08 29.55 25.69 36.21 39.57 39.65 37.60 38.59 39.33 38.19 39.07
48.55 48.40 50.20 50.06 50.37 51.28 50.19 46.78 44.39 40.08 33.12 37.00 40.63 41.94 41.88 42.44 42.63 42.49 43.66 45.63 44.60 45.85 42.99 37.33 33.16 33.22 30.82 32.82 37.34 38.07 38.23 34.36 31.19 29.44 28.38 32.27 36.38 38.29 37.29 35.85 36.34 39.62 38.30 40.77
47.89 48.76 50.39 50.11 49.93 51.10 51.57 49.13 45.28 42.56 35.85 38.42 43.43 42.14 41.92 38.24 37.55 39.51 42.69 46.20 45.56 42.70 35.35 34.33 30.32 29.04 30.03 32.52 33.62 36.57 35.66 33.95 34.35 30.90 27.56 25.86 34.91 38.01 42.51 40.79 31.98 39.66 42.10 40.97
49.05 50.99 50.69 50.10 49.11 50.31 52.30 51.01 49.54 45.48 38.62 41.88 44.67 41.62 41.46 42.14 40.01 37.42 38.38 43.37 40.94 42.01 34.21 31.82 32.00 32.79 33.24 31.17 27.08 25.90 30.17 31.73 31.04 30.75 28.36 32.39 38.13 39.31 40.70 30.87 34.40 41.85 41.96 41.53
50.46 50.53 50.71 50.27 49.92 49.94 52.36 52.17 50.98 48.20 39.99 44.08 47.55 47.67 43.31 43.17 41.93 38.86 41.09 40.98 38.87 36.95 33.49 33.49 32.25 30.72 33.16 32.54 33.66 30.69 31.50 29.15 27.82 28.38 27.74 25.74 38.70 39.83 35.32 40.21 41.81 42.12 42.13 42.39
49.80 50.31 50.64 50.43 50.35 50.38 51.25 50.42 50.75 49.87 46.64 44.87 49.18 51.30 51.27 49.61 47.03 44.03 41.20 41.85 39.54 40.38 35.35 33.26 31.98 31.28 29.07 30.43 31.95 35.00 31.89 35.47 33.37 33.36 33.87 39.73 40.25 41.22 43.72 43.06 40.99 40.79 41.18 38.43
49.21 49.59 50.36 50.54 50.64 50.63 51.06 49.59 49.23 46.76 38.92 43.42 45.51 45.93 49.14 51.73 51.47 50.44 43.35 39.06 43.49 41.12 42.22 36.93 34.52 33.49 33.72 31.99 31.40 34.87 36.94 38.98 35.45 35.54 39.81 40.92 42.38 45.16 44.04 43.08 40.17 39.54 39.10 37.69
49.17 49.28 49.61 49.97 50.36 50.10 50.24 49.58 48.13 46.67 41.49 33.85 41.15 46.01 46.46 50.21 51.74 51.27 49.73 46.66 44.33 42.68 40.84 34.21 33.67 33.85 39.67 34.32 38.32 36.13 39.38 39.25 37.81 37.09 40.95 42.35 42.39 43.13 40.73 38.23 37.46 36.26 36.72 37.04
49.16 49.18 49.25 49.38 50.13 49.88 49.95 49.65 50.06 49.52 46.48 35.99 37.81 44.08 46.33 46.33 49.18 49.80 48.41 46.95 44.81 42.58 36.39 33.85 34.94 36.72 37.33 37.23 36.35 34.94 40.63 39.32 36.42 35.80 42.14 42.09 39.73 39.47 38.64 36.11 35.25 36.22 36.68 37.53
48.87 49.18 49.42 49.34 49.53 50.63 51.42 45.83 48.95 50.91 49.93 38.92 34.21 42.02 41.64 42.75 45.44 46.79 46.80 46.80 44.95 43.70 39.53 35.48 38.64 42.67 39.78 32.94 33.03 40.08 42.60 44.32 44.95 42.33 44.11 40.66 38.77 37.57 37.50 35.84 36.84 36.89 36.73 35.55
48.58 48.82 49.03 49.16 49.37 51.44 48.33 45.75 45.91 49.92 49.93 37.47 35.84 35.96 38.24 40.15 41.19 41.29 42.18 44.34 45.70 44.52 39.07 35.45 37.23 37.57 40.40 32.94 33.70 40.62 41.31 40.87 38.44 40.18 40.48 37.28 38.06 35.88 37.65 36.04 35.84 36.11 35.23 34.73
48.93 48.95 49.07 49.63 49.11 48.27 46.97 46.65 47.97 50.00 45.10 40.01 33.85 35.30 35.15 39.68 35.40 35.64 39.71 37.28 38.56 38.20 38.53 35.07 35.64 36.56 34.92 33.62 36.34 34.77 36.56 34.76 33.99 34.29 36.03 35.58 35.91 35.91 35.93 36.69 35.94 34.09 33.59 33.41
48.71 49.00 48.89 47.64 45.46 41.97 43.71 46.89 46.87 45.98 44.49 34.57 32.94 33.67 33.30 40.64 37.16 36.35 35.83 36.94 33.30 36.32 33.12 34.18 36.42 33.64 33.02 31.99 32.14 32.32 33.81 34.85 32.75 34.41 35.02 34.81 33.81 34.13 34.69 34.63 34.01 32.81 32.73 33.09
48.05 46.99 42.78 34.74 39.09 46.49 46.36 42.78 38.15 36.16 34.57 34.21 33.12 35.70 34.19 40.11 34.03 33.12 34.39 33.30 32.58 32.03 33.74 35.54 32.94 33.09 32.27 33.65 34.38 34.34 34.46 35.37 36.04 32.91 31.06 32.20 32.01 32.41 32.92 32.31 32.73 32.58 32.25 32.67
42.82 36.90 34.56 41.61 46.00 42.40 36.95 33.30 33.29 32.56 31.85 32.53 33.76 33.74 33.97 37.58 34.12 33.30 34.03 32.58 32.58 28.74 28.85 31.86 31.09 29.96 30.42 33.46 33.74 34.69 34.78 35.86 36.13 36.23 35.72 34.86 33.34 31.61 31.33 31.55 32.20 31.89 31.27 30.56
42.75 41.75 42.91 40.50 36.80 33.65 32.38 31.45 31.43 31.61 31.16 32.87 32.85 33.23 35.34 33.64 36.85 33.85 32.22 31.61 30.69 25.11 29.34 28.24 24.58 28.59 32.31 33.44 33.38 34.18 34.70 34.34 33.80 33.74 32.27 32.10 31.64 31.91 31.23 30.77 30.72 30.29 30.29 28.62
41.15 36.94 32.94 32.93 31.46 30.47 29.24 26.46 26.88 28.77 31.48 32.88 32.90 32.01 32.75 33.45 34.00 31.60 31.60 27.49 25.76 29.02 24.79 23.78 25.83 30.71 33.50 34.17 34.45 32.58 32.80 32.18 29.88 31.70 32.11 31.96 31.48 30.81 28.49 28.44 29.10 28.05 28.27 28.92
32.90 33.09 28.91 28.63 27.42 26.91 25.88 26.77 27.88 31.09 32.35 32.76 32.85 31.00 31.19 30.10 30.13 28.42 25.90 26.07 26.61 23.70 19.52 21.04 27.52 32.03 33.36 33.20 31.76 30.98 31.13 27.43 26.67 29.15 30.28 28.77 27.67 27.84 27.38 25.31 26.31 25.50 26.61 28.40
27.20 28.52 24.50 24.75 27.03 29.54 30.70 32.38 32.76 32.70 33.48 32.61 30.70 28.78 28.25 26.61 25.99 27.07 25.05 23.16 20.47 21.79 21.10 24.39 30.50 31.61 30.83 30.66 31.17 31.16 28.39 25.84 26.21 30.39 28.49 26.63 26.34 26.13 27.01 28.27 27.80 28.19 26.25 25.63
26.70 25.12 24.32 26.85 27.92 28.00 30.69 31.82 31.85 32.81 31.03 30.07 28.08 22.17 23.54 22.91 23.68 22.33 21.69 19.45 16.96 21.37 23.02 27.34 29.36 29.84 30.22 30.50 29.94 29.91 29.92 29.58 29.88 30.20 29.29 29.08 26.97 25.98 28.80 28.83 27.78 26.74 26.19 26.12
22.94 22.63 26.20 24.78 23.61 26.87 27.00 31.89 32.04 33.14 31.33 25.06 22.62 18.76 19.54 21.05 18.34 18.79 22.12 18.30 22.19 24.61 26.00 26.86 28.85 29.53 29.61 29.95 29.54 27.40 27.98 29.41 30.01 30.15 30.00 29.73 29.53 26.83 25.47 26.36 29.66 30.07 29.84 29.34

GFSNW_sfc_wetblb_024.txt.gz
Wetbulb
51.93 50.39 50.55 50.87 51.35 51.80 56.15 57.51 51.08 59.55 60.96 52.17 50.83 47.98 47.49 46.12 48.77 50.52 49.39 49.51 47.65 46.09 45.71 44.52 44.05 43.33 45.58 48.17 48.39 44.04 45.89 43.69 39.17 39.34 44.87 46.75 45.53 42.74 42.10 38.24 34.46 38.06 36.34 36.18
50.99 50.20 50.37 51.11 51.34 52.02 59.97 56.51 55.67 59.47 58.77 48.66 47.99 48.02 47.49 48.68 48.39 48.08 48.25 47.20 48.60 48.57 45.77 42.83 45.22 45.35 47.63 48.51 48.08 45.81 46.60 41.85 36.00 37.34 42.21 45.13 42.79 43.60 42.85 40.94 39.70 35.23 33.30 37.17
51.00 50.15 50.26 50.97 51.34 52.03 58.95 56.19 51.41 54.89 55.27 52.26 49.90 47.58 46.78 46.14 49.31 48.07 49.24 47.75 49.12 47.58 45.62 47.25 44.61 44.93 47.22 48.50 47.90 44.02 47.28 43.06 37.84 34.73 37.59 40.59 38.09 40.43 41.86 41.19 35.98 36.14 37.31 39.57
50.63 49.99 50.19 50.67 51.36 51.37 57.90 54.59 51.29 51.45 49.47 49.11 50.13 49.71 48.13 46.39 45.44 49.06 49.67 47.37 47.53 46.67 43.13 44.06 43.90 46.10 46.29 46.98 45.42 47.66 47.04 39.14 40.92 41.48 42.01 41.85 40.67 39.99 40.69 39.26 40.15 35.88 39.08 39.84
49.75 49.61 49.91 50.69 51.18 51.05 56.67 53.46 52.28 51.77 49.26 49.52 49.66 45.67 47.46 46.70 46.27 47.65 46.13 46.65 47.01 47.24 44.28 43.99 43.01 45.05 45.12 43.89 47.02 46.25 46.14 40.05 39.07 36.97 40.60 40.70 38.18 40.77 40.99 40.85 41.03 41.01 41.11 40.39
49.32 49.61 49.78 50.58 50.94 52.44 57.62 54.62 52.67 55.49 43.49 46.99 48.96 47.39 47.75 47.39 49.22 48.04 49.26 49.44 48.08 45.21 47.37 49.65 49.93 49.80 48.85 47.81 45.47 44.09 43.25 41.61 37.67 35.14 37.17 36.92 34.28 38.56 39.70 40.75 42.39 41.67 37.71 42.59
49.27 49.42 50.07 50.24 50.74 53.16 59.08 56.09 54.34 50.97 46.34 48.06 47.95 47.89 48.62 48.04 47.81 47.53 48.26 49.65 47.95 48.30 51.74 50.89 49.63 47.31 46.17 46.52 45.62 46.52 39.64 38.96 36.51 34.58 35.02 30.24 39.62 44.32 43.79 41.41 42.44 43.91 43.52 44.28
49.15 48.95 50.27 50.09 50.21 51.31 56.63 53.48 54.09 51.13 37.68 48.12 46.93 48.25 48.09 48.54 49.21 48.06 48.60 48.65 48.85 52.81 50.24 46.11 39.31 40.07 37.95 39.22 42.02 42.92 44.65 40.22 34.41 32.04 32.49 36.61 39.22 41.51 40.76 39.04 39.54 44.60 42.90 44.19
48.60 49.67 50.34 49.92 48.96 51.30 56.83 54.79 53.27 52.81 40.99 47.60 48.91 48.52 49.48 47.65 47.79 47.67 47.10 49.19 50.63 50.52 47.71 42.84 35.00 35.93 36.34 36.93 38.22 40.82 40.39 40.81 39.96 32.56 30.05 28.28 39.13 42.99 44.81 44.09 35.84 44.35 44.84 44.04
49.13 50.99 50.47 49.88 48.56 51.42 58.31 56.31 55.60 55.24 50.37 49.19 50.05 49.57 48.68 50.07 49.05 47.94 47.92 48.30 47.87 49.50 39.67 34.59 35.47 38.44 39.06 35.77 34.23 33.61 33.85 34.72 33.51 33.51 31.89 35.75 43.41 43.12 44.20 33.64 36.72 44.32 44.88 44.09
50.86 51.14 50.85 50.39 50.33 50.68 57.58 56.24 56.34 55.91 49.63 50.27 51.47 50.91 49.49 49.32 50.99 48.33 48.30 48.02 46.96 43.07 37.31 36.41 37.04 35.50 40.32 37.79 39.59 36.92 37.17 34.73 32.71 32.82 30.43 28.88 43.75 42.94 37.48 42.72 46.13 45.62 46.30 44.50
50.28 50.75 50.94 50.46 50.35 50.34 53.63 56.46 55.94 55.75 54.66 51.57 53.73 54.77 54.68 54.12 53.05 51.53 49.88 48.53 47.52 48.98 43.54 38.47 38.40 35.85 34.48 38.88 35.91 41.46 36.38 40.38 38.64 38.51 38.65 45.85 47.35 44.86 47.03 48.23 46.29 44.04 39.46 36.97
49.66 50.11 50.80 50.72 50.49 50.65 53.97 56.16 55.89 55.35 49.93 51.37 52.47 51.59 53.39 55.75 55.82 56.33 50.95 50.13 50.02 48.74 49.97 46.52 40.88 34.96 42.21 33.87 37.19 40.68 43.63 44.94 40.30 40.21 42.90 44.89 46.62 48.29 45.92 44.99 40.73 40.33 39.37 39.04
49.23 49.57 50.06 50.35 50.56 50.05 53.14 56.83 54.83 54.23 47.35 36.77 48.51 50.56 50.74 53.18 55.51 55.68 55.31 52.24 50.53 49.88 50.10 38.04 37.31 38.22 45.83 41.57 42.12 40.04 43.92 44.57 41.68 41.44 43.65 44.71 45.76 45.17 41.38 38.68 38.40 38.02 38.82 38.31
49.16 49.30 49.61 50.06 50.46 50.78 56.13 57.74 56.39 56.36 54.07 42.87 46.93 50.19 49.82 50.95 52.96 53.86 54.05 53.34 51.28 46.41 40.21 37.86 40.03 46.65 42.32 42.39 40.11 37.75 45.09 43.21 39.47 37.93 43.93 42.67 41.22 38.70 39.05 36.16 35.77 37.69 37.79 38.49
49.02 49.31 49.72 49.65 50.05 50.82 57.24 53.35 56.88 57.13 56.69 46.60 40.58 49.19 47.22 48.16 50.82 51.72 51.67 52.19 51.50 48.53 46.35 40.13 46.27 46.23 45.22 33.87 35.27 43.09 45.95 47.25 47.15 42.33 44.91 41.40 38.38 37.96 36.90 36.85 37.60 38.76 39.23 39.33
48.77 48.84 49.20 49.43 49.28 55.36 52.99 50.67 51.84 51.90 56.01 42.75 38.40 40.84 45.00 44.71 47.05 47.61 48.66 48.62 49.47 49.60 45.37 39.49 43.22 43.11 44.43 34.23 34.16 40.69 39.93 40.37 40.78 44.00 41.30 36.73 38.14 35.10 38.76 38.73 39.82 39.84 38.83 38.92
48.49 48.77 48.70 48.42 48.22 48.42 52.14 52.12 49.75 53.04 48.80 45.84 35.32 38.22 41.53 44.39 42.06 39.57 43.21 42.48 41.94 41.45 42.76 37.27 38.76 39.57 38.04 34.41 38.78 38.21 38.19 36.89 36.39 37.77 41.45 40.24 39.11 38.74 39.43 39.12 38.18 36.61 36.30 36.83
48.64 48.95 49.00 49.01 47.07 44.00 45.69 47.00 48.51 50.08 49.13 36.77 34.96 36.95 35.68 43.65 39.87 40.29 40.43 41.85 35.86 39.95 35.14 35.85 37.73 35.14 34.83 36.78 35.50 35.62 36.35 37.30 37.35 37.86 38.32 37.19 35.96 35.80 36.42 36.53 36.28 35.19 35.04 35.54
48.31 48.27 44.54 35.68 40.38 46.92 47.23 44.75 40.03 37.46 35.50 34.78 34.05 38.83 36.77 43.20 38.70 37.68 39.11 38.22 35.50 33.33 35.31 37.80 33.33 34.06 33.18 36.41 37.28 38.62 37.87 37.44 38.25 35.90 32.79 33.96 34.27 34.59 34.77 35.08 35.83 35.27 34.87 34.96
43.45 37.64 34.96 42.50 46.15 42.95 38.18 34.23 34.41 33.69 32.60 33.85 34.98 35.18 35.42 39.69 36.28 33.87 35.32 33.51 33.87 31.51 34.61 35.01 33.37 32.42 34.53 37.41 36.64 37.63 37.36 37.21 36.74 36.91 36.61 36.47 35.72 34.84 34.69 34.85 35.10 34.95 34.36 33.83
42.89 42.08 42.75 40.75 37.89 33.69 32.96 32.06 32.24 32.60 33.66 33.79 34.02 34.29 36.24 34.41 38.14 34.59 32.78 32.78 33.14 29.82 36.06 31.34 30.16 35.28 36.45 36.32 35.26 35.93 37.01 36.54 35.94 36.31 35.70 36.03 35.49 36.18 35.43 34.76 34.41 34.29 33.49 32.29
42.62 35.33 32.78 32.78 31.88 31.69 31.32 29.50 31.51 31.86 35.06 35.87 34.56 32.42 33.87 34.58 36.53 32.96 33.33 31.69 30.91 33.55 29.11 29.39 33.99 35.02 36.34 35.98 35.85 36.38 36.72 35.77 34.28 35.29 35.96 36.25 36.00 35.46 33.59 32.65 33.40 32.72 32.69 33.10
34.05 32.06 30.02 31.69 30.97 32.12 32.93 33.77 34.65 35.21 35.47 35.14 35.62 33.51 34.83 33.87 32.60 33.14 30.61 30.43 31.61 27.31 25.20 28.43 32.72 35.53 36.90 37.61 36.71 35.44 35.36 34.57 32.63 33.50 34.57 34.07 33.23 33.06 33.02 31.81 31.97 30.95 30.97 32.21
32.60 33.67 29.38 30.03 30.70 33.40 33.67 34.41 35.32 35.07 36.84 37.32 34.99 34.32 35.46 32.06 30.24 31.61 29.60 26.82 25.43 27.87 28.52 32.85 36.08 37.30 36.65 35.23 35.24 35.67 34.90 33.39 32.21 34.12 33.70 32.83 32.41 32.26 32.38 33.52 33.88 33.24 31.74 31.39
32.89 31.32 29.14 30.37 31.85 31.15 32.60 33.33 32.78 35.01 32.99 33.41 34.50 31.10 30.61 28.78 30.06 27.39 27.28 25.60 25.02 29.66 33.79 36.76 37.03 34.40 34.15 34.48 34.41 33.80 33.76 33.06 33.24 34.16 33.82 33.43 32.87 31.86 33.10 33.42 32.71 32.02 31.79 30.99
32.15 29.10 31.69 31.53 32.60 32.96 33.14 35.30 35.59 34.91 34.56 31.74 30.72 27.53 26.55 27.57 26.82 25.94 28.38 27.28 31.63 34.19 35.01 34.84 34.58 34.10 33.93 34.23 33.65 32.81 32.52 32.83 33.84 34.24 34.26 34.00 34.06 33.56 31.62 31.83 34.11 33.42 32.91 31.57

GFSNW_sfc_wetblb_027.txt.gz
Wetbulb
51.14 50.70 50.70 51.14 51.75 52.23 53.78 59.94 52.01 63.27 64.79 52.01 53.04 50.57 49.85 48.55 50.79 52.80 51.06 51.39 49.55 48.43 48.20 46.56 46.23 45.80 48.36 50.42 50.10 45.88 47.74 45.46 40.99 41.90 46.82 48.73 47.41 45.27 44.80 39.18 36.91 40.07 38.04 37.57
51.11 50.65 50.80 50.80 51.59 51.95 63.23 56.72 56.22 63.23 62.32 49.90 49.57 51.20 49.90 51.12 50.47 50.62 50.46 49.21 50.78 51.20 48.55 44.84 47.68 47.89 50.04 50.48 49.87 47.93 48.50 44.57 38.80 40.94 44.61 47.11 44.28 45.52 44.77 43.68 41.46 36.01 34.98 37.68
51.21 50.77 50.69 50.97 51.63 52.35 60.55 57.73 52.69 56.09 57.75 56.94 51.74 49.85 49.30 48.33 51.91 50.62 51.54 50.59 51.74 50.25 47.86 49.83 47.15 47.24 49.14 50.65 50.29 45.25 48.13 45.00 40.69 37.30 40.38 43.51 40.85 42.76 43.81 42.61 37.37 37.90 38.82 41.14
50.63 50.47 50.50 50.83 51.45 52.01 60.02 58.46 54.53 55.34 50.58 51.94 52.72 52.35 50.95 48.61 47.10 51.20 52.20 49.63 49.80 49.03 45.29 47.03 46.19 48.64 48.32 49.28 45.47 48.70 48.46 41.37 43.26 43.77 43.99 43.54 42.54 42.09 42.78 41.18 41.75 37.78 40.58 41.40
50.10 50.12 49.91 50.87 51.29 51.50 60.52 55.53 54.70 56.66 55.10 53.71 52.25 48.05 49.91 48.92 48.50 49.78 48.48 48.88 50.16 49.99 47.20 46.55 45.59 47.26 46.98 46.26 48.67 47.92 48.03 41.90 42.10 39.26 42.79 42.54 40.38 42.36 42.73 42.78 42.65 42.25 42.11 41.10
50.28 49.65 50.31 50.62 51.06 51.99 60.32 59.80 59.20 58.12 47.47 52.57 51.04 50.23 50.29 49.78 51.29 50.55 51.61 51.60 49.85 48.15 49.07 51.66 52.21 51.99 50.91 49.55 47.34 46.12 45.07 43.67 39.38 36.14 40.55 39.30 36.46 40.72 41.91 42.60 43.94 42.91 38.59 43.40
49.80 49.60 50.49 50.33 50.59 52.30 62.28 60.66 59.62 55.08 49.24 51.38 50.92 50.37 51.06 50.46 50.66 49.43 51.86 52.45 50.28 51.44 54.63 53.90 52.34 50.67 49.32 49.20 48.64 49.32 43.98 41.81 39.29 35.62 35.52 30.93 41.86 46.24 45.49 43.26 44.02 45.32 44.93 45.98
49.04 49.40 50.29 48.82 49.51 51.74 61.06 59.06 58.78 54.96 41.83 52.20 50.59 51.18 51.23 51.55 52.23 50.99 51.06 51.19 53.41 55.58 52.46 47.69 41.49 41.15 37.76 41.96 45.28 45.99 47.64 43.45 37.06 33.92 34.28 37.95 40.76 43.49 42.49 41.05 40.64 46.05 44.74 46.22
49.51 50.90 50.53 49.01 49.76 51.58 60.36 58.46 59.27 57.72 45.01 50.55 53.00 51.78 52.40 50.39 50.35 50.19 49.58 52.52 54.81 54.41 50.74 43.96 35.93 37.04 39.06 39.48 41.12 44.40 43.96 45.40 41.13 35.36 31.05 29.53 40.48 45.21 46.58 45.78 36.78 46.15 46.75 45.70
49.83 51.54 50.86 50.60 50.39 51.50 60.58 59.53 60.20 58.56 53.87 53.73 53.78 51.91 51.58 53.91 52.42 50.55 50.87 50.73 50.63 53.44 43.32 36.61 36.91 39.56 42.68 37.71 35.53 33.72 35.95 36.85 35.23 34.98 33.33 37.33 44.32 45.47 46.59 34.78 37.81 46.79 46.68 43.74
51.42 51.66 51.13 50.58 50.56 51.11 58.66 59.13 60.25 58.86 53.80 53.42 54.43 53.89 52.61 52.82 53.19 49.63 51.87 50.31 50.47 49.17 38.24 36.97 40.46 37.67 42.78 40.81 42.35 39.47 36.98 35.14 33.78 35.88 32.32 29.95 46.07 45.03 38.84 43.96 47.86 45.63 45.28 42.24
51.13 51.39 51.26 50.89 50.57 50.83 53.12 58.61 59.94 60.49 57.00 55.00 57.44 57.21 57.09 56.45 55.83 54.71 53.23 50.62 50.77 51.17 46.65 41.53 42.57 39.25 38.50 40.10 37.48 45.20 38.33 42.14 39.28 40.00 40.31 47.32 48.04 46.48 47.87 48.70 45.57 43.89 39.82 39.96
50.39 50.94 51.46 51.20 50.75 50.99 54.15 59.58 59.82 59.84 54.41 54.38 54.95 53.72 56.24 58.53 58.60 59.22 52.82 53.92 53.33 52.86 54.85 49.63 43.86 35.70 44.36 35.16 40.11 42.49 45.07 47.54 42.55 41.98 44.50 45.13 46.32 48.23 47.31 45.98 43.32 41.60 41.44 41.35
49.90 50.32 51.03 51.39 50.75 51.56 54.32 59.08 59.44 57.97 51.54 39.51 51.46 54.12 54.14 55.78 58.02 58.02 57.88 55.48 55.25 55.02 53.65 40.93 39.51 37.88 48.62 44.00 44.91 43.64 45.71 46.50 43.60 42.38 45.47 45.70 44.60 43.28 42.17 41.11 40.14 39.31 40.37 40.73
49.36 49.86 50.57 51.20 51.46 52.50 58.50 60.07 59.34 59.09 55.39 45.59 50.46 52.62 52.78 54.03 55.36 55.79 56.04 55.16 53.77 52.02 43.14 38.24 40.45 49.15 47.75 46.76 45.31 42.41 46.62 44.43 41.91 39.20 43.72 43.45 41.14 41.17 40.32 38.40 39.30 40.05 40.02 40.60
49.14 49.43 50.21 50.55 50.56 51.74 59.39 54.71 59.37 59.65 59.04 50.64 43.10 52.29 50.17 51.91 53.52 54.08 53.93 54.68 52.78 52.72 48.12 42.20 49.20 49.94 47.00 36.25 37.98 44.84 47.45 48.42 47.02 45.21 43.15 40.92 39.84 39.35 39.03 39.64 40.27 41.23 41.17 40.36
48.66 48.93 49.31 49.74 49.98 58.54 54.19 51.90 54.47 52.39 59.65 48.03 40.24 45.41 48.91 49.12 51.51 52.06 51.86 50.94 50.40 50.12 49.46 44.97 46.91 47.27 46.78 39.33 37.12 44.81 45.17 44.41 43.98 43.83 42.14 37.17 37.38 39.17 41.51 41.22 41.94 41.36 40.21 40.11
48.57 48.66 48.37 48.26 48.19 49.74 53.90 55.10 52.01 54.08 54.01 51.12 35.70 40.77 44.14 48.03 44.87 42.74 47.53 45.52 46.41 47.48 46.96 42.53 43.16 46.24 44.10 36.96 42.87 44.91 43.61 41.07 39.98 41.33 43.45 43.35 43.15 41.75 41.40 40.76 39.99 38.28 38.00 38.25
48.43 48.19 48.73 51.20 49.40 47.43 53.75 47.59 51.15 55.25 52.92 38.60 35.16 35.89 35.52 46.97 42.76 42.82 43.20 45.53 37.70 43.12 36.43 38.16 40.81 37.88 36.54 41.34 42.27 40.00 39.28 38.75 39.14 41.18 41.51 40.27 38.12 37.79 38.35 38.50 38.05 36.94 36.76 36.89
48.28 49.59 46.51 36.97 42.20 47.18 48.10 49.81 43.68 41.82 43.32 40.60 37.15 46.15 39.28 45.16 40.64 38.23 38.49 40.60 37.70 34.07 37.19 38.76 33.35 34.04 36.70 40.36 41.41 41.69 40.61 41.05 41.30 39.13 35.90 36.43 35.70 36.53 36.99 36.75 37.75 37.14 36.41 36.04
44.20 38.23 35.52 43.66 46.44 45.07 39.76 34.98 35.89 35.34 33.53 35.89 40.03 42.11 40.07 43.38 38.69 36.61 39.87 34.62 34.98 32.80 35.98 35.74 35.28 35.07 39.02 40.22 39.30 40.04 40.94 40.99 39.05 39.38 38.69 38.20 37.58 36.71 36.51 36.82 36.98 36.57 35.98 35.06
42.91 42.20 43.34 41.69 38.51 34.07 35.34 33.53 32.99 33.71 35.28 34.72 34.00 35.07 37.58 36.25 40.59 34.75 32.99 33.71 33.71 32.14 39.17 33.08 30.32 38.14 39.98 40.07 39.31 39.55 39.70 39.21 38.23 38.34 37.18 37.67 37.45 37.90 37.23 36.70 35.93 35.70 35.20 33.66
41.82 36.11 33.35 33.35 31.90 31.17 31.54 30.07 33.17 32.80 34.22 34.75 34.04 32.43 33.89 34.44 36.58 32.62 32.99 32.26 32.80 37.28 30.89 30.60 36.57 38.46 39.53 39.82 39.54 38.81 40.07 38.45 35.87 36.62 37.45 37.39 37.23 36.93 35.50 34.72 35.53 34.89 34.74 35.00
33.51 32.08 30.81 32.08 31.35 33.17 34.59 36.07 36.02 35.78 36.25 35.70 34.44 32.99 33.53 33.89 32.80 33.71 32.26 33.20 34.42 29.38 27.00 30.14 37.24 38.04 39.30 39.79 39.71 38.88 37.83 36.20 34.96 35.73 35.99 35.52 35.84 35.42 35.47 34.07 34.12 33.20 32.86 34.42
33.17 33.35 30.27 31.29 32.77 34.07 34.07 34.44 35.89 35.82 37.52 37.88 36.23 36.07 37.89 34.25 32.08 34.55 31.90 28.82 27.92 29.81 31.54 36.00 38.93 39.17 38.67 38.50 37.92 37.51 36.47 35.55 34.56 36.23 35.20 34.66 34.78 34.74 34.55 35.73 35.94 35.58 34.04 33.27
34.62 33.35 31.72 32.99 32.80 32.08 32.80 33.17 32.99 36.78 37.38 38.28 37.82 34.25 32.44 31.35 33.12 29.90 29.68 28.74 27.57 32.83 36.73 39.40 39.62 38.40 37.75 37.46 36.65 35.87 36.22 35.45 35.29 35.55 35.37 35.39 35.52 34.19 35.10 36.04 34.88 33.60 32.99 32.44
34.24 31.60 34.98 34.25 34.25 33.17 33.71 35.89 35.51 37.11 35.87 32.62 33.81 30.27 29.11 30.90 29.66 27.98 32.31 31.29 34.14 37.32 38.23 38.96 38.42 36.54 36.23 36.48 36.29 35.01 35.12 35.13 35.62 35.78 35.75 35.73 35.99 36.00 35.00 33.20 35.76 36.48 36.49 34.30

GFSNW_sfc_wetblb_030.txt.gz
Wetbulb
50.85 50.53 50.80 50.87 52.13 52.52 55.62 62.78 50.09 64.26 66.10 50.75 52.01 49.75 50.76 48.13 50.67 53.06 51.47 51.71 49.43 48.32 48.26 46.97 46.59 46.28 48.48 50.65 50.23 46.22 46.99 45.54 41.46 42.36 46.81 48.24 46.79 44.63 44.31 39.68 36.54 39.68 38.11 37.09
50.76 50.53 50.45 50.68 51.94 52.02 61.97 54.61 56.09 63.31 63.00 48.52 49.89 51.62 50.51 51.61 50.31 50.42 50.40 49.67 51.14 51.88 48.84 45.31 48.10 48.15 50.37 50.71 50.30 47.21 47.77 45.09 39.54 40.51 44.42 47.27 43.41 44.80 44.51 43.91 41.96 35.69 33.46 35.48
50.58 50.56 50.62 50.82 51.98 52.81 58.94 58.33 52.09 54.28 56.55 57.23 51.36 49.58 49.03 48.62 53.02 51.71 52.03 51.09 51.95 50.36 48.52 50.14 47.24 47.21 49.67 51.18 49.68 46.43 48.78 45.13 41.20 37.43 39.91 43.17 40.38 42.26 43.59 42.46 37.39 37.11 37.66 39.52
50.30 50.38 50.42 50.86 51.82 52.36 58.51 58.44 53.65 54.33 49.38 51.59 52.23 51.56 50.46 48.73 47.55 51.86 52.51 49.92 50.03 49.02 45.90 47.13 46.68 48.68 48.13 49.59 45.86 48.61 48.78 41.97 43.81 43.77 43.57 43.06 41.58 40.89 41.54 40.11 41.36 36.15 39.81 40.15
49.95 50.03 50.32 51.06 51.44 51.33 59.08 55.49 54.40 55.93 54.76 53.97 52.08 48.36 49.59 49.11 49.61 50.30 48.83 48.72 50.25 50.69 47.38 47.49 46.21 48.16 47.61 46.68 48.74 47.81 48.78 42.37 42.78 39.33 42.99 42.13 38.79 40.61 42.03 42.04 42.18 41.82 41.85 40.91
49.82 49.56 50.60 50.86 51.01 52.49 60.65 59.83 60.53 58.25 48.57 52.62 51.47 50.55 50.44 50.16 51.72 51.54 52.65 51.63 50.39 48.12 49.67 51.79 51.91 51.88 50.85 49.70 47.85 46.46 45.90 44.55 40.24 36.48 39.77 38.31 36.07 40.43 41.64 42.26 43.57 42.72 38.30 42.97
49.81 49.65 50.52 49.40 49.60 51.53 62.03 61.31 59.82 55.46 50.69 51.82 50.58 51.51 51.76 50.84 51.34 49.49 52.00 52.87 50.58 52.25 54.19 53.32 52.18 50.66 49.45 49.20 48.91 49.69 44.09 42.27 39.11 34.57 35.43 30.29 41.16 45.32 44.71 42.51 43.57 44.68 44.16 45.22
49.27 49.80 50.39 49.69 50.05 51.05 61.75 61.36 60.21 54.67 40.87 52.30 51.34 51.55 51.12 52.25 52.29 51.29 51.19 52.00 54.06 55.37 52.30 48.32 40.61 41.64 38.09 41.99 46.06 46.22 48.30 43.13 36.85 34.34 33.79 37.38 40.60 43.56 42.11 40.77 39.84 45.42 44.61 44.89
49.42 51.50 50.91 50.42 50.71 51.80 60.94 59.55 61.64 59.03 46.64 50.75 53.30 51.43 52.39 50.55 50.43 50.16 49.75 53.79 56.32 54.26 50.66 42.78 36.59 37.64 40.25 39.14 40.78 45.37 45.54 45.71 41.04 35.68 29.62 28.64 40.38 44.85 47.11 45.74 35.54 46.00 45.09 43.66
49.48 51.64 50.95 50.75 50.79 51.58 59.84 59.57 62.46 59.58 55.44 55.06 55.25 52.61 52.09 54.14 52.69 50.47 50.41 50.47 50.99 54.03 42.50 33.80 34.81 39.54 43.09 38.08 35.54 34.47 35.74 36.87 34.49 34.51 31.97 35.84 43.83 45.91 46.93 34.10 36.92 45.55 44.45 42.47
51.82 51.72 51.08 50.62 50.69 51.41 57.72 59.40 62.25 59.99 54.31 54.29 56.04 55.72 53.97 53.59 54.42 50.16 51.77 50.05 51.49 49.62 36.88 35.79 39.61 37.78 43.40 41.76 42.88 37.81 35.39 34.09 32.80 34.99 32.56 29.76 46.57 45.46 38.23 44.06 47.12 45.33 43.98 42.29
51.72 52.23 51.38 50.89 50.74 51.22 52.96 58.11 60.83 62.06 57.42 55.20 59.14 57.81 57.71 57.14 56.56 54.35 54.18 51.02 50.86 50.59 45.03 41.70 43.67 37.92 37.72 39.30 38.70 45.28 39.39 42.60 40.45 39.21 38.08 47.04 48.11 46.11 47.75 47.47 43.95 42.99 42.04 42.36
51.20 52.11 52.11 51.35 51.19 51.81 53.95 59.97 60.42 61.06 57.13 54.28 54.81 53.63 56.77 59.01 58.56 60.27 52.61 55.79 54.05 53.04 54.88 47.44 42.33 33.62 43.81 34.44 40.16 42.92 44.89 47.34 44.12 43.62 45.01 45.93 46.18 46.75 45.76 44.52 42.79 42.44 42.09 41.79
50.50 51.18 52.61 52.04 51.50 52.23 53.88 59.27 60.33 58.36 51.74 38.15 51.77 55.58 54.97 57.02 58.72 58.62 58.53 56.10 57.01 55.92 52.41 40.26 37.60 36.33 48.06 43.77 44.08 43.89 46.25 46.59 43.70 42.93 45.80 46.94 44.59 44.14 42.80 41.77 41.47 40.95 41.23 41.03
49.93 50.39 51.47 53.74 52.99 52.14 58.77 60.33 59.91 59.91 55.94 44.37 50.96 53.71 53.98 55.10 56.23 56.41 56.68 55.86 53.92 51.45 41.41 36.52 39.12 49.07 47.87 48.29 45.53 42.81 46.15 43.47 41.33 40.24 45.69 45.21 42.94 41.63 41.69 41.17 40.25 40.97 40.23 40.19
49.28 49.75 50.84 50.90 50.96 50.46 59.21 54.01 58.96 59.47 59.35 49.33 40.65 52.79 50.97 52.74 54.13 54.65 54.27 54.44 53.91 53.30 46.67 41.99 48.31 51.25 47.98 37.24 38.42 44.38 46.34 47.96 47.60 45.45 45.80 44.86 42.47 41.75 42.83 41.19 40.99 41.44 40.57 39.87
48.67 49.25 49.86 49.95 50.52 57.17 53.18 50.57 53.23 51.99 58.57 46.49 38.51 45.63 49.20 50.31 52.54 52.48 51.58 52.16 51.15 51.04 49.10 44.44 46.53 47.90 47.37 36.88 36.43 43.65 46.28 46.93 46.43 45.16 43.01 39.02 39.54 40.45 42.22 42.18 42.00 41.28 39.93 39.80
48.48 48.48 48.49 48.31 47.57 49.24 53.28 53.75 52.21 53.68 53.98 50.98 35.61 41.26 44.91 48.94 46.51 43.44 48.09 45.52 47.00 48.52 46.57 43.18 42.46 46.81 42.61 37.23 43.01 45.25 46.64 43.98 44.19 43.68 44.10 43.89 43.42 43.16 41.68 41.41 39.52 37.96 37.41 37.64
48.17 48.08 48.97 52.44 51.85 52.11 53.58 48.09 50.26 57.51 53.50 37.78 35.25 36.15 35.61 47.91 43.20 43.16 43.52 45.91 35.79 43.19 37.42 38.94 42.55 37.60 35.86 40.82 43.06 45.19 42.55 41.24 41.34 42.49 42.02 41.54 39.70 38.77 38.51 38.32 37.78 36.47 36.04 36.30
48.37 50.50 46.74 37.24 43.91 47.39 48.02 52.61 47.83 44.98 43.59 41.23 36.33 45.83 39.52 44.89 40.40 37.92 38.15 39.60 36.33 33.80 37.28 39.70 33.80 34.64 42.40 43.65 44.09 44.68 42.43 42.12 42.13 38.91 36.99 37.06 36.34 36.67 36.85 36.81 37.37 36.91 35.85 35.66
45.19 39.05 35.25 42.97 46.49 48.26 42.41 37.60 36.52 37.24 34.88 38.49 41.07 44.64 39.40 45.10 38.02 35.97 39.60 34.34 35.43 32.71 36.51 35.86 33.98 33.61 39.82 42.59 41.03 42.65 42.48 42.57 41.53 40.92 39.71 38.93 37.68 36.69 36.40 36.72 37.37 36.13 35.40 34.35
43.00 42.42 43.63 41.68 37.91 34.51 35.61 33.80 33.62 33.62 35.73 35.33 34.61 36.66 41.09 38.82 43.84 36.48 34.16 33.80 33.62 32.14 38.55 33.43 31.29 37.93 40.24 40.36 40.09 40.67 41.34 40.44 39.38 39.19 37.80 37.80 37.40 37.39 37.03 36.28 35.36 34.65 34.27 31.28
41.85 36.80 35.07 34.34 31.80 30.84 31.80 30.52 32.15 33.24 33.22 34.37 33.78 32.50 34.33 35.05 36.77 32.71 32.35 31.62 31.98 37.09 32.09 30.16 34.92 39.08 40.34 40.54 40.25 39.72 40.35 36.77 36.39 37.02 37.36 37.03 36.44 35.78 34.63 33.31 34.30 32.53 33.51 34.00
33.54 31.80 30.67 31.80 31.26 32.35 32.88 33.07 33.43 35.07 35.61 34.34 34.16 32.69 33.62 32.53 32.17 32.17 31.62 32.71 34.61 29.91 28.33 29.76 36.38 38.66 39.85 40.36 40.41 39.08 38.06 32.55 34.54 36.28 36.03 34.18 34.09 33.84 32.56 32.05 32.17 30.45 31.76 33.26
32.89 33.07 30.50 31.21 32.89 33.62 33.43 33.43 34.29 34.66 35.91 35.05 33.62 33.42 34.26 32.53 31.62 32.71 32.14 29.30 28.37 30.42 30.76 34.60 38.01 39.83 39.43 38.41 38.32 37.86 35.93 32.78 33.18 36.30 33.26 31.45 31.77 32.71 33.38 34.01 34.04 34.35 31.88 31.72
35.07 33.25 31.97 33.25 32.71 31.98 32.35 32.71 32.53 35.37 35.03 36.14 36.33 32.53 31.80 31.26 32.53 30.45 30.10 29.50 28.15 32.51 35.97 38.50 39.28 38.33 38.43 38.16 36.25 35.31 35.43 34.97 35.00 35.09 34.50 33.75 32.11 31.44 34.47 35.18 33.55 32.53 32.51 32.32
32.53 32.51 34.16 34.70 32.89 32.35 32.71 33.98 33.62 36.87 34.88 32.17 34.34 30.84 27.81 32.11 30.06 28.75 32.48 30.93 33.81 37.70 38.37 37.85 37.94 36.75 37.11 36.75 35.66 33.42 33.70 34.87 35.29 35.25 34.75 34.86 34.94 33.54 33.26 32.41 34.41 34.75 34.33 32.80

GFSNW_sfc_wetblb_033.txt.gz
Wetbulb
50.86 49.86 50.25 50.72 51.82 52.46 54.33 54.64 44.31 59.35 60.32 44.82 45.38 41.55 48.54 47.28 49.04 51.82 50.70 49.56 47.64 46.17 45.79 44.65 44.29 43.78 45.55 48.67 47.89 43.03 43.40 41.33 33.47 39.03 43.94 45.73 43.06 41.63 41.40 29.39 31.56 31.93 29.04 30.07
50.85 49.90 50.12 50.49 51.84 51.97 56.60 50.33 51.64 58.90 58.57 38.41 40.70 47.11 49.61 50.03 48.52 48.63 48.88 47.88 49.60 49.14 45.77 41.81 45.48 45.37 48.84 49.37 46.67 43.39 43.94 38.57 29.99 35.63 40.45 44.25 40.22 41.92 41.95 40.65 33.63 30.08 23.84 28.25
50.31 50.06 49.80 50.08 51.73 52.34 54.66 52.86 43.17 50.56 52.06 51.18 47.14 46.20 46.15 47.02 50.96 50.18 50.66 49.10 49.65 47.28 44.98 47.43 44.01 44.35 48.56 48.90 46.58 45.39 45.67 41.48 35.94 29.80 35.30 38.76 36.00 38.92 39.56 37.96 28.27 30.12 31.31 35.45
50.21 49.98 49.86 51.02 51.68 51.94 54.88 54.05 47.55 48.00 40.63 43.80 47.19 47.52 47.72 46.55 46.11 50.17 50.44 47.68 48.13 46.15 40.10 43.69 43.45 45.59 45.99 47.75 45.69 45.93 44.33 36.32 39.89 40.40 40.18 39.89 38.26 37.67 37.57 35.73 36.12 29.63 33.87 36.97
49.67 49.59 49.62 51.18 51.22 51.31 53.92 52.50 50.88 49.63 46.01 47.30 46.96 45.05 45.70 46.66 47.90 47.91 46.74 45.92 47.73 47.37 43.24 44.56 42.50 45.41 43.94 43.25 44.95 43.97 44.95 35.25 35.28 32.77 39.94 38.97 35.54 37.43 38.13 38.55 38.83 37.85 37.96 36.61
49.57 49.38 50.25 48.50 49.33 52.17 54.65 54.34 55.42 52.37 45.93 45.30 44.66 44.68 47.57 48.28 49.00 49.35 50.84 48.25 45.93 42.12 45.88 46.92 46.98 46.85 45.94 46.62 43.64 42.09 41.90 34.79 30.81 28.28 35.51 32.89 27.74 35.08 38.26 38.81 39.88 38.67 32.83 38.33
49.56 49.20 49.80 48.63 48.64 51.95 57.54 56.29 55.64 45.89 40.17 45.62 46.50 49.56 49.52 49.09 48.77 46.56 49.39 49.81 45.67 48.13 50.04 47.70 46.41 44.55 44.08 46.32 44.67 47.21 36.90 34.33 31.87 24.06 28.49 17.70 37.13 42.17 42.19 40.12 40.76 41.26 41.44 41.59
49.24 50.24 50.69 50.59 50.43 51.47 56.41 56.07 55.55 46.06 36.07 47.72 48.05 48.25 48.07 48.67 48.99 47.45 47.97 49.49 50.23 50.38 48.82 38.59 33.02 32.91 31.26 37.41 43.20 43.03 44.43 33.47 25.92 27.23 25.74 31.75 37.10 41.24 39.56 37.05 36.34 42.64 41.18 41.36
48.97 51.17 50.58 50.58 50.90 51.51 56.53 55.80 56.85 51.75 40.75 43.54 51.67 47.51 47.89 44.21 43.97 44.83 46.81 51.09 51.70 51.10 41.14 31.98 27.02 27.44 33.24 34.65 38.02 41.06 43.22 37.56 29.01 21.96 17.90 17.24 33.68 41.77 44.20 42.38 29.08 42.66 42.08 40.19
50.43 50.91 50.67 50.50 50.73 51.61 56.89 55.38 57.13 55.58 46.91 49.67 50.97 46.50 45.94 49.72 46.94 41.52 45.71 46.29 45.34 46.95 35.97 32.44 27.53 28.73 39.51 31.93 30.64 27.92 28.61 31.75 24.68 21.64 18.96 28.75 40.29 43.33 44.50 28.10 30.65 41.52 41.30 39.72
52.02 51.15 50.56 50.39 50.59 51.43 56.11 54.06 57.06 55.02 47.70 49.80 53.37 53.45 50.02 51.40 49.40 40.34 45.93 41.84 41.94 37.28 32.73 28.16 31.16 31.05 33.31 33.19 38.52 33.05 28.84 26.67 28.85 30.18 24.99 22.43 43.92 43.00 33.68 37.99 42.19 41.39 40.21 40.06
51.80 51.58 50.84 50.78 50.85 51.22 52.52 52.91 56.80 57.58 52.86 50.71 54.16 53.38 53.78 53.72 53.10 49.37 47.46 43.65 46.66 44.60 36.88 35.79 34.39 33.65 34.22 32.61 28.52 40.97 31.76 35.59 31.38 32.36 30.63 39.76 43.15 42.29 43.26 43.53 40.60 40.57 41.04 40.71
51.17 52.69 51.43 50.88 51.11 51.74 53.44 54.81 56.07 54.88 47.31 49.33 50.10 49.14 52.93 55.04 54.76 55.95 46.27 46.01 50.21 48.35 48.11 39.89 39.45 33.18 35.57 28.39 31.36 34.96 39.94 44.01 34.81 36.55 40.75 41.73 42.48 42.56 43.01 42.60 40.32 40.86 41.16 40.64
50.67 51.62 52.08 51.25 50.87 51.31 54.47 54.52 55.74 51.62 46.69 35.89 46.08 53.03 50.95 54.32 55.08 55.12 54.28 52.22 51.49 49.58 44.34 37.27 36.25 32.85 41.92 32.85 35.88 35.10 39.30 42.65 39.42 36.67 40.23 41.49 41.91 41.50 40.73 40.56 40.55 39.65 41.36 40.13
50.16 50.81 51.80 50.54 50.76 50.91 56.11 55.87 55.70 55.45 50.87 38.41 39.94 50.51 51.30 52.76 53.41 53.52 53.77 52.01 49.34 43.14 37.85 34.24 34.55 36.17 37.41 34.67 36.67 33.65 43.25 39.92 32.88 31.73 42.01 40.86 39.66 40.35 40.59 38.46 38.42 39.73 38.42 37.25
49.39 49.81 50.66 50.83 50.70 50.66 55.80 49.87 54.18 53.24 54.94 41.61 37.21 48.20 47.45 49.61 50.63 51.21 50.44 50.84 48.99 46.59 40.19 36.17 41.64 47.12 39.24 32.73 31.05 41.28 44.27 44.61 44.35 42.41 42.01 41.26 40.26 39.87 40.95 41.22 40.69 39.56 37.84 36.63
48.97 49.26 49.69 49.30 49.46 51.31 49.24 46.54 50.04 48.70 52.29 39.87 34.96 39.94 44.56 46.86 48.71 47.25 47.48 47.38 45.90 45.26 39.22 37.15 38.38 40.34 40.64 33.50 32.85 40.40 43.37 44.09 42.79 41.67 40.22 37.11 37.79 38.15 42.37 41.70 41.03 39.18 37.32 36.19
48.57 48.63 48.71 48.08 47.98 49.27 50.17 49.97 50.07 50.13 46.82 42.33 33.70 35.28 36.51 45.98 38.56 37.12 43.48 39.31 42.58 43.12 39.97 38.39 36.74 38.06 35.07 32.94 39.76 42.59 43.81 42.42 41.25 41.19 42.31 41.18 41.25 41.58 41.21 40.96 36.95 35.32 33.80 33.66
48.36 48.69 50.31 50.68 48.46 46.73 48.95 48.13 48.26 51.63 46.93 33.97 34.62 32.67 31.01 43.98 39.58 37.60 38.05 41.39 33.88 39.40 34.06 35.51 38.35 34.22 34.62 38.84 40.71 41.23 40.68 40.05 40.49 42.17 43.02 41.80 40.79 37.38 36.09 35.68 34.84 33.15 32.52 32.58
48.89 50.21 46.33 37.14 42.38 46.88 48.85 47.34 41.83 38.92 37.32 36.78 35.52 38.43 35.77 40.86 35.15 34.24 35.31 34.40 33.33 32.41 34.31 38.61 32.96 33.87 38.56 41.17 41.26 40.54 39.70 41.47 41.48 38.65 36.38 36.10 34.90 34.07 34.15 34.25 34.15 33.13 32.20 32.02
46.19 39.48 35.52 42.24 46.59 44.93 38.95 34.60 34.59 34.96 34.80 35.31 38.41 37.42 37.27 40.85 33.89 33.66 34.75 32.77 32.77 31.08 32.66 33.65 31.94 31.87 36.44 39.42 39.07 40.19 41.25 41.86 41.62 39.61 37.43 36.58 34.86 33.56 33.01 33.07 32.45 30.70 30.18 30.05
43.28 42.52 43.17 41.33 37.92 34.95 35.33 33.68 33.14 33.48 34.12 33.80 34.03 34.75 37.69 35.13 39.72 34.19 32.77 32.71 32.71 29.24 35.64 32.23 29.00 32.90 36.75 37.34 38.15 40.15 41.32 40.00 37.76 37.55 35.34 34.74 34.86 34.30 31.82 30.53 29.99 30.41 29.64 25.35
41.69 37.30 35.16 34.62 32.05 32.41 32.80 32.12 31.82 32.23 32.55 33.78 33.15 32.59 33.30 33.86 35.08 32.41 32.40 31.28 30.76 33.74 31.28 27.34 29.83 36.96 38.18 38.05 37.83 36.12 35.18 33.44 33.39 35.27 35.45 34.86 33.94 32.76 29.73 29.23 30.16 26.30 29.30 30.26
33.65 32.43 30.11 31.46 29.97 30.72 30.15 31.28 32.03 32.96 32.77 32.96 32.94 32.02 32.55 32.22 32.38 32.00 30.48 31.08 31.60 28.69 24.28 22.68 33.51 37.32 38.08 37.86 37.54 35.66 33.06 29.71 31.31 31.39 31.80 30.05 29.77 28.63 27.00 25.83 26.72 23.18 27.44 29.89
32.37 32.74 28.84 29.23 30.92 31.84 32.02 32.55 32.76 33.09 34.18 33.48 32.56 32.37 32.71 31.48 30.35 31.29 29.76 27.38 26.42 28.12 27.96 30.95 34.22 35.62 34.77 34.47 35.03 32.73 30.16 26.23 28.44 31.07 28.35 25.40 24.62 26.81 28.95 29.31 29.43 30.17 27.29 25.76
32.97 32.44 29.98 31.64 31.82 31.49 31.90 31.88 31.88 33.48 33.14 33.50 33.12 31.29 31.28 29.23 30.18 27.77 28.09 27.32 25.87 28.88 31.29 34.05 34.66 34.71 34.48 33.78 32.24 31.34 31.89 30.74 30.56 30.48 30.88 30.37 26.99 25.32 30.03 30.73 28.35 27.11 26.63 25.34
32.46 30.35 33.70 32.77 32.22 31.69 32.08 32.44 32.20 34.66 32.94 31.10 31.66 28.39 26.05 30.00 27.37 26.78 30.92 28.12 30.32 32.19 32.13 33.87 33.38 33.05 32.59 31.72 31.84 29.73 31.20 31.23 31.35 31.37 31.52 31.26 31.58 27.82 27.20 27.83 31.25 30.64 30.73 26.52

GFSNW_sfc_wetblb_036.txt.gz
Wetbulb
50.02 49.43 49.94 50.04 51.73 52.11 53.31 50.91 42.46 56.07 53.61 40.79 42.23 39.36 45.93 46.92 47.52 49.76 48.26 47.64 46.68 43.70 43.62 42.65 42.43 41.98 43.66 47.31 46.54 40.42 42.16 38.31 31.63 37.02 41.80 43.65 41.06 39.63 38.43 28.22 29.64 30.02 27.50 28.37
50.06 49.25 49.81 49.62 51.58 52.12 53.28 47.71 49.97 56.80 51.10 33.56 37.31 43.62 47.66 48.20 46.69 46.61 46.70 46.16 47.88 47.09 43.90 40.64 43.63 43.53 47.04 46.53 44.77 41.56 41.54 36.32 28.65 33.76 38.98 42.08 38.43 40.06 40.04 37.47 31.42 29.30 22.19 27.37
49.65 49.31 49.70 49.82 51.74 52.20 53.84 50.06 41.75 47.37 50.03 46.17 42.97 42.60 44.15 45.27 48.92 48.15 48.58 47.10 47.99 45.56 43.35 45.40 42.13 42.71 46.65 46.43 44.38 44.47 44.89 39.07 33.79 29.77 33.52 36.46 33.33 36.31 36.99 35.30 26.74 28.70 29.62 33.17
49.63 48.97 49.55 50.87 51.55 51.66 52.50 50.86 44.20 44.38 37.27 41.25 45.41 45.32 45.65 44.54 44.09 48.07 48.22 45.72 45.93 44.28 39.05 41.92 41.22 43.80 44.27 46.03 44.65 44.22 42.44 34.92 37.61 37.59 37.65 37.28 35.93 35.08 35.12 33.22 33.52 28.37 32.09 34.10
48.97 48.74 49.31 50.61 51.01 51.17 51.72 49.57 47.65 46.48 41.87 44.15 44.52 43.41 43.96 44.90 46.07 46.12 44.95 43.88 45.84 45.12 41.49 42.68 41.08 43.30 41.91 41.13 42.57 41.48 42.74 34.09 33.36 31.12 37.68 36.26 33.07 35.28 36.38 36.25 36.23 35.93 35.82 35.19
48.96 48.59 48.45 48.37 48.67 50.93 52.12 54.84 54.54 48.62 43.72 41.12 42.67 42.64 44.25 46.24 47.49 47.50 48.58 46.32 43.05 40.26 43.92 44.60 44.45 44.18 45.26 45.12 41.91 40.49 39.40 32.74 28.50 24.94 32.62 30.68 26.15 34.09 35.79 36.76 37.58 36.36 31.58 36.14
49.05 48.74 48.16 48.79 48.47 50.94 57.49 55.08 51.87 44.09 38.53 42.30 43.31 47.57 47.59 46.63 46.79 45.20 47.47 47.29 43.31 46.43 48.59 45.38 42.94 42.02 43.13 44.03 43.07 43.78 35.27 32.27 28.13 22.20 24.43 16.15 34.22 40.30 40.07 38.28 39.46 39.84 39.43 39.59
49.17 49.79 50.39 50.02 50.20 51.20 54.50 54.14 51.33 43.66 34.71 45.00 45.71 46.76 46.72 46.76 46.79 45.64 46.60 48.21 47.65 48.57 45.17 34.65 31.99 31.42 31.34 36.04 41.25 41.91 40.82 30.86 27.04 19.26 23.84 28.50 34.99 39.17 38.13 35.61 35.33 41.09 39.83 39.78
49.33 50.71 50.14 50.20 50.08 51.14 53.76 53.71 54.21 46.94 40.12 42.28 49.82 45.54 46.39 42.50 41.81 42.53 45.21 49.46 50.52 45.75 36.64 29.49 26.33 26.15 29.63 33.00 36.71 40.03 39.73 33.74 26.63 26.77 15.94 15.27 31.19 39.74 42.53 40.42 29.23 41.58 40.68 39.08
51.64 50.73 50.49 49.99 50.27 51.33 54.16 53.19 54.78 51.37 43.88 46.98 48.61 44.20 44.54 46.92 43.37 39.12 43.20 44.42 43.95 42.83 28.08 22.55 23.67 28.91 36.61 30.55 29.06 26.45 29.38 24.88 24.22 18.82 16.11 26.66 36.07 41.13 42.29 27.96 30.36 40.80 40.73 39.09
50.73 50.31 49.96 49.85 50.41 50.96 52.75 52.63 54.43 52.25 44.72 49.13 51.46 51.40 48.07 47.70 44.52 38.97 43.69 40.54 39.43 36.27 29.18 24.20 26.04 28.75 30.70 31.34 36.01 32.19 29.71 26.12 23.16 23.37 16.90 22.36 40.79 41.04 33.97 36.71 40.57 40.54 39.28 38.95
51.05 50.22 49.98 49.89 50.44 50.66 53.13 50.24 54.90 55.08 50.04 49.36 51.69 52.00 52.24 52.50 50.84 47.04 44.07 41.36 42.72 40.28 34.57 31.66 35.12 32.49 34.48 30.51 27.90 38.12 30.94 33.12 29.98 31.90 30.64 37.50 41.36 39.93 41.87 42.20 39.40 39.27 38.75 39.24
51.14 50.62 50.19 50.04 50.47 51.40 53.88 52.73 53.28 51.04 44.30 47.18 48.51 48.04 52.23 53.52 53.02 53.31 44.36 43.32 48.27 45.80 41.98 37.47 32.61 28.29 33.94 29.48 30.77 34.07 38.25 41.51 33.75 34.55 38.72 40.59 40.80 41.44 41.99 41.52 39.56 40.51 41.33 40.47
50.30 50.57 49.76 49.94 50.26 51.65 53.59 52.53 52.63 48.09 43.60 35.39 44.53 51.68 49.45 53.03 53.65 53.76 51.89 50.02 48.11 45.30 41.45 36.77 36.29 30.26 38.36 29.89 33.08 33.28 36.51 40.64 37.41 35.02 39.39 40.32 40.59 39.99 40.30 40.12 41.00 41.01 41.15 39.87
49.85 50.12 50.20 50.01 50.30 51.78 54.23 53.01 51.64 52.01 45.18 38.91 37.75 48.32 50.44 50.94 52.20 52.29 51.55 49.63 46.42 40.74 36.47 33.75 33.68 33.81 35.38 30.23 34.12 32.10 41.41 38.59 33.16 32.99 40.41 38.85 38.28 39.65 39.81 39.62 39.46 40.00 39.00 37.28
48.99 49.80 49.93 49.40 49.66 52.32 51.81 46.77 52.01 50.84 49.83 40.55 33.99 45.38 45.68 47.48 50.66 50.01 49.53 49.53 46.81 42.93 38.55 34.76 39.31 44.17 36.14 32.85 32.67 39.64 43.39 43.88 43.13 40.85 41.48 39.88 39.38 39.90 41.54 40.32 40.08 40.86 37.14 34.52
48.79 48.83 47.94 48.03 49.65 49.62 47.06 43.02 48.71 48.68 48.06 38.22 35.02 33.69 42.98 45.52 47.14 44.73 45.00 45.13 43.93 43.56 37.20 35.00 36.06 37.88 38.97 32.64 31.33 39.23 42.02 42.81 41.54 41.10 39.70 36.92 37.56 38.31 42.30 42.08 39.60 36.93 34.81 34.01
48.86 48.84 48.09 48.00 49.46 49.51 47.76 48.45 48.54 48.07 43.08 38.54 33.12 36.04 34.81 43.41 36.28 36.46 40.77 36.80 39.05 40.13 39.50 35.91 32.68 36.04 34.42 33.32 38.42 40.87 41.72 40.79 39.72 39.70 40.48 39.92 40.75 41.87 40.70 39.25 35.57 34.08 32.74 32.55
48.99 49.34 48.72 48.77 46.72 45.09 47.02 46.82 46.86 47.40 43.40 33.95 30.06 29.52 30.62 41.51 38.58 35.83 35.07 38.86 33.01 37.66 33.75 35.02 35.07 33.98 33.35 37.77 39.06 40.31 39.80 39.57 39.27 41.29 41.40 41.62 40.52 38.46 35.90 34.44 33.94 32.45 31.93 31.92
48.53 48.15 43.63 37.09 42.22 46.61 47.24 44.25 39.57 38.06 36.64 36.29 30.85 34.56 34.08 39.28 33.54 33.57 33.54 33.56 32.82 31.90 31.80 38.21 33.01 34.13 36.89 38.78 40.44 39.90 39.64 41.03 42.33 38.74 35.86 34.43 33.17 33.43 33.91 33.71 33.17 32.05 30.94 30.70
46.43 40.08 36.31 42.15 45.78 43.23 38.75 34.48 34.33 34.81 34.76 34.83 37.44 34.56 35.91 39.15 33.35 33.20 32.70 32.47 32.47 30.22 31.22 32.95 31.44 31.89 34.45 37.69 38.04 40.64 40.73 40.86 39.92 38.06 36.31 35.94 34.91 33.13 32.41 32.05 31.34 29.71 29.14 29.47
44.10 42.38 43.26 41.53 37.31 34.55 34.42 32.98 33.38 33.71 33.62 33.87 34.46 34.61 37.19 35.37 36.29 33.81 32.83 31.82 32.08 28.08 33.47 32.09 29.12 32.58 35.57 37.54 39.32 40.02 38.40 36.86 35.76 35.93 34.63 34.07 33.60 32.54 30.47 29.33 28.72 29.19 28.51 23.30
42.56 38.07 34.66 36.13 32.86 32.82 33.50 31.94 31.73 32.06 32.43 33.65 33.39 32.83 33.18 34.10 35.17 32.67 32.46 31.72 30.64 33.71 31.17 27.98 30.61 35.91 37.56 36.88 34.69 34.62 35.39 33.99 33.86 34.68 34.27 33.25 32.20 31.30 29.46 28.56 29.37 24.37 28.23 29.63
33.69 33.21 30.35 31.91 29.44 30.03 30.03 31.31 32.06 32.47 32.47 32.65 32.65 32.06 32.43 32.11 32.46 32.08 30.77 31.11 31.66 28.55 23.09 20.72 33.18 36.55 37.23 36.32 34.79 33.22 31.22 28.47 30.50 31.14 31.30 29.73 29.32 28.09 25.93 23.10 24.50 21.48 25.96 28.88
32.43 32.80 27.95 28.16 30.59 31.27 32.05 32.47 32.46 32.61 33.53 33.18 32.61 32.41 32.56 31.17 30.03 31.16 29.28 27.02 25.34 27.38 26.53 30.61 33.15 35.90 33.99 33.16 33.53 31.45 29.70 27.44 29.22 30.17 27.90 24.79 23.67 24.79 27.46 28.12 27.92 28.80 25.73 24.52
31.54 32.13 29.46 31.35 31.13 31.17 31.94 31.94 31.55 32.98 32.65 33.00 32.61 31.14 30.59 28.16 29.47 27.04 26.99 26.23 23.86 26.34 31.16 32.83 34.31 33.59 32.76 32.11 31.60 30.89 31.22 29.93 29.68 29.73 29.90 29.32 25.09 23.30 29.00 29.46 27.74 25.74 24.53 24.66
31.54 30.60 32.82 32.27 32.06 31.16 31.96 32.32 32.27 34.04 32.82 30.40 31.31 26.23 24.31 29.48 26.49 26.09 29.59 25.58 29.68 32.24 32.43 33.81 33.51 32.24 31.17 30.87 31.28 29.50 30.94 31.06 30.77 30.48 30.55 30.45 30.84 27.16 25.72 26.35 30.32 29.94 29.89 25.98

GFSNW_sfc_wetblb_039.txt.gz
Wetbulb
49.99 49.41 49.95 50.07 50.95 52.00 52.62 47.98 40.63 54.07 49.49 39.78 39.91 39.54 44.35 46.14 45.57 48.28 47.14 46.33 44.51 41.54 41.66 41.05 40.41 40.22 41.98 45.78 44.66 38.72 40.57 36.42 30.73 35.08 40.52 41.89 39.02 37.49 35.99 26.00 28.50 28.61 26.43 27.14
49.79 49.26 49.93 49.98 51.44 51.91 51.99 46.64 49.35 55.70 47.51 33.41 36.72 41.96 45.23 46.30 44.87 45.03 45.31 44.30 45.78 45.22 42.39 39.12 41.60 41.75 45.44 44.10 43.07 40.43 40.00 34.61 28.03 32.46 37.66 40.09 36.98 37.57 37.98 34.79 30.21 28.47 21.08 26.27
49.50 49.32 49.57 49.82 51.62 52.02 52.94 47.30 41.23 46.11 48.56 42.09 40.62 40.31 42.26 43.22 47.31 46.49 46.80 45.26 46.27 43.84 41.83 43.65 40.23 41.14 44.69 43.96 42.45 44.21 43.42 37.42 32.23 28.53 32.28 35.12 31.92 34.43 35.60 34.08 26.68 28.35 28.51 30.70
49.62 49.40 49.15 50.23 51.46 51.43 51.87 48.03 42.53 43.66 37.32 42.00 43.89 42.58 43.97 42.86 42.22 46.33 46.31 43.99 44.30 42.74 38.16 39.89 39.73 42.23 42.45 43.80 43.92 42.67 40.26 34.09 35.33 35.17 35.75 35.29 34.18 34.06 33.92 32.30 31.76 28.15 30.24 32.32
49.08 48.63 48.77 50.88 51.19 51.08 50.19 48.25 45.28 44.32 39.08 42.53 43.77 41.48 42.60 43.24 44.18 44.38 42.98 42.62 44.01 42.94 40.38 41.49 39.90 41.72 39.63 38.05 41.12 40.20 40.99 32.61 32.81 30.81 35.45 34.56 31.45 33.86 34.11 34.07 33.62 32.59 34.03 33.99
48.88 48.40 48.47 48.13 50.47 51.24 49.18 50.46 51.32 46.23 41.18 39.66 39.21 40.62 43.24 44.62 45.98 46.00 46.45 45.25 41.91 38.86 41.97 43.43 43.29 43.23 43.66 42.88 40.54 39.02 36.90 31.74 27.60 23.73 30.70 28.53 23.67 31.37 35.10 35.05 35.71 35.27 31.89 35.56
48.55 48.48 48.22 48.23 49.40 50.92 55.03 52.99 50.11 42.80 37.05 38.01 40.96 45.26 45.36 45.19 45.26 44.12 45.69 45.20 42.30 44.59 45.50 42.81 42.38 40.69 41.79 42.70 41.22 41.94 33.63 30.49 25.15 20.90 23.24 17.27 31.92 37.40 37.92 36.18 37.42 37.74 37.54 38.11
48.93 50.05 49.98 49.18 48.44 49.29 55.94 53.33 49.36 42.35 33.28 42.52 43.66 45.35 44.81 45.03 45.19 44.34 45.05 46.56 46.04 46.54 40.76 33.77 31.83 30.14 31.67 35.09 39.86 39.39 38.55 29.69 26.24 20.27 22.08 27.20 33.15 37.54 36.94 35.06 34.33 39.44 38.02 38.45
49.29 50.09 49.77 50.12 50.34 50.76 54.94 53.71 50.91 46.15 41.12 41.34 47.40 44.66 44.67 41.24 40.26 41.40 43.60 48.03 47.61 43.22 33.40 28.85 24.90 25.13 28.79 31.71 35.21 39.10 36.66 31.67 26.22 24.90 15.06 15.04 30.08 37.89 41.03 38.88 28.68 40.37 39.83 38.57
50.71 50.23 49.46 49.90 50.52 51.93 54.28 53.18 52.88 49.05 43.01 45.63 46.92 43.29 43.45 44.47 41.48 38.03 42.14 42.86 42.28 40.71 27.12 21.28 22.93 27.46 33.81 29.56 28.12 26.88 28.80 23.51 23.17 16.08 15.83 25.81 34.19 39.46 40.46 27.95 28.35 40.32 40.88 39.74
50.64 50.18 49.86 50.10 50.39 52.02 53.09 51.94 52.93 50.37 44.80 47.70 49.73 50.11 46.54 45.26 42.90 38.61 42.35 39.94 38.52 32.65 28.52 24.09 25.15 22.40 30.24 30.42 33.88 31.90 30.06 25.47 22.34 23.92 17.37 21.76 38.23 38.64 32.94 35.63 37.86 40.55 39.27 38.46
50.62 50.42 50.26 50.09 50.09 51.91 51.91 51.10 53.98 53.34 49.25 47.90 50.73 50.40 51.03 50.48 47.49 45.36 42.25 41.73 40.43 38.81 32.10 28.10 27.97 29.94 33.54 27.86 26.17 35.43 28.95 31.87 29.39 30.67 30.01 36.81 38.92 38.13 39.56 40.84 39.43 39.24 39.19 39.01
49.67 49.95 50.32 50.05 50.86 52.28 53.14 51.86 50.95 48.71 44.23 46.64 47.35 47.21 51.34 52.10 51.38 51.40 43.07 42.26 45.73 42.04 39.76 36.91 30.59 25.15 32.55 28.71 29.72 31.82 36.59 38.86 31.86 33.06 36.47 37.03 39.55 39.72 41.05 40.66 39.15 39.50 39.86 39.82
49.41 49.55 49.56 49.97 51.20 51.62 52.46 51.00 49.89 46.34 41.78 35.49 43.56 50.20 48.32 51.44 52.98 52.55 50.43 48.37 45.10 42.60 39.17 35.26 32.09 26.52 35.66 28.46 32.04 33.32 35.88 38.63 35.59 33.95 37.42 38.25 39.79 40.00 39.55 39.24 39.83 40.21 41.18 40.95
49.56 49.46 49.29 50.02 51.59 51.87 52.45 50.85 49.62 49.40 43.72 38.05 36.44 46.67 48.65 49.63 51.81 50.45 49.61 47.68 44.62 39.85 35.80 33.13 33.46 33.22 33.55 29.88 32.81 30.93 38.66 36.78 32.48 31.95 38.51 38.49 38.08 39.63 39.35 38.39 39.07 40.01 39.68 36.27
48.82 48.49 48.97 49.41 51.06 51.37 47.75 44.05 49.88 50.11 47.27 40.21 33.99 43.84 44.29 46.72 48.70 48.32 47.50 47.84 44.45 40.48 37.60 34.57 36.43 41.39 35.38 33.25 33.95 38.83 41.74 42.13 40.67 38.96 40.17 38.74 37.40 38.69 39.93 39.55 40.02 40.41 37.17 33.74
48.19 47.54 48.35 48.94 49.20 49.76 45.33 41.41 46.84 48.46 45.99 38.48 34.93 32.95 41.54 43.91 45.14 42.89 43.54 43.32 42.65 41.90 38.32 34.29 35.93 36.78 38.05 33.28 32.29 38.33 40.64 41.45 40.74 40.55 39.74 36.80 36.91 38.19 40.88 40.59 39.73 36.55 34.32 33.97
48.62 47.51 48.41 48.98 49.17 48.62 47.02 47.58 46.78 46.34 40.82 37.51 32.95 32.13 34.19 41.94 36.00 36.38 39.95 36.69 38.28 38.80 38.52 36.17 31.37 36.01 34.89 33.43 37.62 39.68 40.40 39.80 38.91 38.33 39.80 39.71 40.17 40.76 39.68 35.99 34.65 32.59 32.24 32.15
48.67 47.91 48.20 48.10 46.59 44.56 46.73 46.73 46.77 44.89 42.31 33.56 28.25 30.87 30.24 39.53 37.76 35.33 35.21 37.85 32.89 36.98 33.30 34.75 34.62 32.89 33.13 36.47 37.84 37.98 38.23 38.31 38.40 39.64 39.93 40.03 39.45 36.13 34.68 34.50 33.81 32.09 31.03 31.06
47.37 47.44 42.99 37.48 42.87 46.56 46.18 42.54 38.01 37.24 37.10 36.36 32.36 34.79 34.10 38.99 33.66 33.50 30.48 33.80 28.64 32.01 29.44 37.64 32.94 34.19 35.72 37.01 38.33 39.69 38.78 39.61 40.17 37.49 32.58 33.07 32.92 33.63 34.05 33.43 33.03 31.76 30.71 30.33
44.15 39.81 36.59 43.19 45.55 42.52 37.67 34.52 33.10 35.02 34.81 34.72 34.87 34.13 35.69 38.03 33.69 32.39 31.33 28.88 32.15 29.42 27.69 30.19 27.95 31.01 33.78 36.64 36.74 37.54 37.68 37.90 37.42 37.32 36.81 36.73 35.75 34.10 32.35 31.36 31.03 30.15 29.47 29.33
43.04 41.75 42.20 39.06 35.74 34.87 34.13 32.12 33.30 33.76 32.88 33.98 34.57 34.70 37.32 34.93 35.07 32.24 32.76 30.46 31.76 28.17 33.58 31.61 28.88 32.72 35.79 37.92 35.33 34.85 36.79 37.66 37.96 38.86 37.75 35.28 32.77 31.95 30.60 29.71 28.94 28.91 28.26 23.61
42.19 37.64 35.31 34.29 32.38 33.00 33.28 32.58 31.79 32.21 32.71 33.77 33.31 33.12 33.12 33.84 34.52 32.59 32.56 31.43 29.84 32.71 30.72 29.43 31.01 35.40 35.38 35.29 35.02 35.89 37.34 36.49 34.24 33.30 33.21 33.05 31.95 30.83 29.60 28.64 29.05 25.18 28.07 29.12
33.89 33.33 32.54 32.21 30.69 30.12 30.31 31.41 32.21 32.20 32.39 32.57 32.92 32.00 32.54 32.02 32.54 32.18 30.88 31.59 31.78 28.85 26.48 22.95 32.47 36.56 37.32 36.11 34.27 32.15 30.33 27.92 29.84 30.29 30.53 29.33 28.80 27.65 25.38 23.22 22.84 21.00 25.56 28.47
32.11 32.54 28.00 27.33 30.35 31.38 31.79 32.20 32.54 32.35 33.27 32.94 32.91 32.35 32.85 31.25 30.48 30.90 29.36 26.94 23.99 23.64 21.64 29.99 31.97 36.44 33.77 32.17 31.29 30.13 29.25 26.05 27.77 29.34 27.08 24.40 23.76 24.43 26.70 27.13 26.97 27.69 24.13 23.39
32.11 31.97 29.35 31.26 31.04 30.90 31.85 31.88 31.67 32.91 32.57 32.92 32.89 31.05 28.45 27.71 28.82 25.14 24.84 23.83 19.12 21.39 30.36 32.91 34.53 34.62 32.34 31.17 30.87 30.33 30.62 30.21 29.70 29.80 29.92 29.18 24.54 22.54 28.76 28.55 26.95 24.65 23.71 23.95
30.93 30.70 32.56 32.02 32.00 31.44 31.88 32.24 32.03 33.96 32.73 30.33 30.87 25.96 23.82 28.67 25.32 24.39 26.68 21.09 25.15 29.66 30.91 33.27 32.92 31.71 30.54 30.62 32.14 30.52 30.13 30.27 30.27 30.40 30.13 29.80 30.16 26.01 25.54 26.44 30.05 29.48 29.35 25.40

GFSNW_sfc_wetblb_042.txt.gz
Wetbulb
50.37 50.04 49.78 50.03 49.57 51.78 52.15 45.71 40.31 52.99 47.74 39.57 38.36 38.18 42.84 44.72 44.46 46.03 45.64 44.61 41.99 39.94 39.94 39.33 38.61 38.91 40.61 43.97 43.17 38.10 39.03 35.25 30.76 33.61 38.36 40.09 37.41 35.84 34.19 25.60 27.53 27.73 25.91 27.03
49.79 49.72 49.71 49.92 49.99 52.15 50.84 46.05 48.77 54.36 46.24 34.19 35.80 40.76 43.28 44.91 43.30 43.35 43.77 42.82 44.20 43.70 40.95 37.90 39.60 40.42 43.93 42.47 41.29 39.40 39.47 33.37 27.97 31.92 35.51 38.08 35.45 35.83 35.38 32.54 29.55 27.69 20.10 25.05
49.61 49.68 49.73 49.93 50.76 51.89 50.90 46.59 41.89 45.62 46.04 40.52 39.70 39.22 40.24 41.58 45.45 44.68 45.08 43.93 44.72 42.44 40.29 41.84 39.11 39.78 42.98 42.46 41.22 44.01 42.15 35.38 31.76 28.49 30.34 33.47 31.22 33.04 34.67 33.06 25.78 27.55 27.62 28.87
49.59 49.23 49.61 49.96 51.03 51.33 52.05 45.32 41.86 43.91 38.47 41.48 39.19 40.63 41.97 41.57 40.82 44.69 45.00 42.85 42.90 41.25 37.37 38.11 38.24 40.66 40.94 41.85 43.33 41.31 38.59 32.98 33.37 33.16 33.67 33.38 32.20 32.15 32.47 31.58 30.78 28.30 29.29 30.67
48.99 49.13 49.71 49.79 51.11 51.24 49.75 46.88 42.69 41.16 38.27 44.37 41.82 39.73 41.35 41.88 42.62 43.02 41.33 41.65 42.12 41.39 39.52 40.16 38.58 40.40 38.41 36.19 40.11 38.43 39.02 31.97 32.08 31.21 33.17 32.59 30.96 32.87 32.44 31.46 30.94 31.58 31.18 31.81
48.77 49.06 48.95 50.50 50.89 51.33 48.60 49.19 49.53 44.07 38.99 39.69 39.76 39.75 42.04 43.33 44.72 44.66 44.71 43.75 41.07 38.46 40.89 42.40 42.28 41.76 41.58 40.70 39.29 37.35 35.06 31.03 28.65 25.18 28.88 27.25 23.55 30.66 32.39 33.14 33.90 33.27 30.49 34.33
48.87 48.53 48.58 49.18 50.80 51.12 52.45 51.42 48.90 42.20 34.04 36.78 40.49 43.36 43.35 43.39 43.36 42.96 43.79 43.59 40.68 42.31 43.59 42.26 41.23 40.01 41.20 41.63 39.96 39.42 32.21 29.18 24.03 19.87 22.06 15.94 30.71 34.42 35.62 34.40 35.21 36.15 35.59 36.31
48.53 47.99 48.04 48.43 49.84 50.20 53.50 51.95 47.92 41.60 32.38 37.97 41.32 43.37 43.41 43.89 44.01 42.94 43.67 45.05 44.32 44.30 39.15 33.93 32.93 29.83 32.77 34.18 37.75 36.05 35.82 28.65 24.23 18.85 20.69 26.98 31.44 35.66 34.83 33.52 32.90 38.17 36.80 37.09
49.79 49.53 48.81 47.76 48.81 48.59 53.56 52.08 49.55 46.08 39.69 39.95 45.23 43.09 42.76 39.86 39.00 40.32 41.92 45.94 44.41 40.65 32.03 29.18 25.45 25.85 30.38 30.49 34.12 37.74 34.62 30.74 26.31 19.42 15.27 14.67 29.40 35.45 39.14 37.38 28.92 37.90 38.63 37.40
49.71 49.50 49.48 49.64 49.99 50.78 54.11 52.26 51.96 47.99 42.80 44.73 44.82 42.19 42.39 43.07 40.61 37.44 41.21 42.60 40.62 39.09 26.92 20.82 22.29 25.66 31.86 28.50 27.32 27.83 27.38 23.77 21.31 14.54 14.01 24.89 32.23 37.48 38.57 28.39 29.61 38.59 39.34 38.06
49.69 49.53 49.61 49.92 50.47 51.28 54.92 52.36 53.05 49.27 44.37 46.18 48.16 48.61 44.71 43.67 41.82 38.07 41.65 39.64 38.24 32.13 28.84 24.99 24.57 23.08 29.66 29.85 32.26 31.86 29.64 27.41 26.48 21.93 14.00 21.63 36.18 37.56 33.02 35.67 35.80 38.65 38.67 38.01
50.23 49.89 49.58 49.97 51.20 51.30 54.08 52.75 52.92 51.86 48.16 47.20 49.18 48.81 49.46 48.59 45.89 44.01 40.87 41.48 39.86 38.35 31.34 24.58 25.45 25.65 31.40 27.68 25.79 34.56 28.88 31.50 28.16 29.31 29.12 35.46 37.11 36.64 38.15 38.61 38.20 37.91 38.28 37.83
49.85 49.81 49.88 50.49 51.45 51.14 53.04 52.24 48.39 48.62 44.03 45.68 46.38 45.64 50.10 50.81 49.89 49.42 41.77 40.66 43.07 39.53 38.12 32.84 28.87 25.28 30.10 25.98 29.31 30.60 34.90 36.27 30.56 31.94 35.03 35.87 37.29 39.20 40.30 40.01 39.01 38.70 39.72 39.10
49.05 49.71 49.89 50.32 50.75 51.22 51.67 49.63 48.12 45.71 42.48 35.65 42.83 48.87 47.08 50.02 51.65 51.07 48.68 45.73 42.61 40.45 38.11 31.41 30.54 26.73 33.85 27.52 30.49 31.47 34.69 36.26 33.47 32.75 36.46 37.46 39.93 39.79 38.94 39.04 38.99 39.63 39.75 39.30
49.18 50.48 51.07 51.05 50.77 51.26 51.60 49.44 48.29 47.69 43.26 37.70 37.18 45.38 47.11 48.94 50.33 48.69 47.82 45.95 43.34 39.00 35.20 33.12 33.06 31.92 32.36 32.06 31.37 30.86 36.63 35.27 31.86 31.19 37.72 37.22 37.26 38.09 39.10 38.05 38.58 39.63 38.04 35.85
47.34 48.60 49.52 49.70 49.94 49.15 46.66 43.87 48.27 48.87 45.90 40.86 34.15 42.45 42.99 45.59 46.87 46.36 45.61 45.73 42.06 39.56 37.83 33.61 36.06 39.64 34.44 32.87 33.34 38.05 39.91 40.52 39.48 37.40 38.40 37.84 35.75 36.74 38.40 39.16 39.47 39.27 34.99 35.00
47.83 48.54 49.21 49.45 49.47 49.36 43.08 40.33 45.88 45.98 44.32 38.43 34.35 32.73 40.09 42.10 43.40 41.15 41.46 41.54 40.02 40.23 38.14 34.46 35.63 36.80 37.17 33.28 31.55 37.39 39.58 40.02 39.31 38.66 38.01 35.13 35.54 36.76 39.58 38.88 36.34 35.38 33.88 33.62
48.10 48.48 48.34 48.52 48.62 47.77 46.84 46.37 46.50 45.52 39.75 37.25 31.98 31.35 34.09 40.81 36.54 36.53 40.59 36.81 37.65 38.79 38.32 35.80 33.58 36.44 33.98 32.88 36.57 38.60 38.87 37.88 38.16 38.01 38.52 38.86 39.64 36.21 33.68 34.96 34.42 32.82 31.88 32.28
47.76 47.77 48.05 47.94 46.14 44.43 46.37 46.68 46.00 43.89 41.22 30.54 26.04 29.75 29.26 38.84 36.86 35.32 36.73 37.06 33.60 36.73 33.48 35.11 34.47 32.71 32.59 34.81 36.09 37.34 37.41 37.18 37.06 37.91 37.71 36.05 32.99 32.83 33.84 34.08 34.21 32.64 31.66 31.43
47.18 47.26 43.38 37.27 43.05 46.34 45.76 41.87 37.65 37.19 36.53 34.90 31.43 35.19 33.70 38.92 33.81 33.30 29.72 32.89 28.40 23.44 27.71 37.06 32.90 33.45 36.04 35.03 35.79 36.63 37.05 37.68 38.11 32.21 30.83 32.94 34.00 34.92 35.32 34.89 33.63 31.60 30.38 30.40
44.76 40.32 37.28 43.21 45.03 43.05 36.82 33.63 33.10 33.81 33.16 35.78 34.64 34.60 35.08 38.21 33.90 32.72 30.42 29.43 30.93 26.67 26.25 32.02 29.95 30.87 32.20 34.60 33.01 35.36 36.11 36.79 36.91 37.28 37.42 37.57 36.24 34.37 32.20 30.63 30.76 29.94 29.40 28.98
44.08 43.15 42.58 40.53 37.53 34.90 34.39 31.98 32.89 33.39 31.30 34.14 34.37 34.54 37.02 34.37 33.06 33.43 32.71 25.24 30.83 27.09 33.18 31.37 28.23 32.42 34.27 33.95 35.86 37.50 38.40 38.62 38.38 38.71 37.85 36.68 33.65 31.74 30.24 29.02 28.61 28.72 28.55 25.61
40.19 36.57 33.57 34.18 30.67 33.25 33.13 31.39 32.14 31.97 32.89 33.93 33.30 32.92 33.09 33.83 34.44 32.71 32.74 30.85 29.43 32.38 30.70 28.69 31.22 32.38 33.33 35.27 36.77 36.42 36.66 35.13 32.80 32.50 32.28 31.77 30.87 30.07 29.46 28.73 29.26 26.23 28.04 28.66
33.37 32.55 33.28 32.27 31.56 30.69 30.67 31.77 32.75 31.98 32.36 32.74 32.90 32.15 32.71 32.20 32.69 32.18 31.50 31.58 31.74 28.46 26.64 23.93 32.17 35.50 35.56 36.39 35.04 31.61 29.98 27.47 29.49 29.97 29.91 29.03 28.75 27.69 25.67 23.38 22.56 20.43 24.73 27.87
32.71 33.18 27.98 27.86 30.16 31.38 31.77 32.18 32.32 32.14 33.25 32.90 32.90 32.51 32.84 31.40 30.93 31.03 29.71 26.93 21.78 21.95 19.71 29.39 32.18 35.76 32.86 30.46 30.08 29.53 28.80 25.60 27.84 29.46 26.60 23.74 23.19 24.14 26.41 26.89 26.59 27.13 23.40 23.50
32.68 31.47 27.41 30.88 30.69 30.69 31.83 32.03 31.80 32.89 32.74 33.09 33.22 31.22 29.32 27.85 28.03 24.63 24.46 23.22 18.20 21.35 30.14 32.17 34.59 33.26 30.41 30.01 30.01 29.39 29.85 29.44 29.18 29.19 29.56 28.49 24.29 22.36 28.11 27.42 26.08 24.50 23.01 22.93
31.58 29.93 32.00 31.97 31.77 31.26 31.85 32.04 31.82 33.58 32.72 30.69 30.48 23.74 22.53 27.36 21.52 21.22 24.45 18.28 26.60 30.87 31.95 33.28 33.10 30.40 29.77 29.66 31.11 29.32 29.80 29.57 29.27 29.66 29.61 29.61 29.71 25.03 25.77 26.71 29.39 29.17 29.20 25.84

GFSNW_sfc_wetblb_045.txt.gz
Wetbulb
51.82 51.65 51.44 50.41 49.78 50.45 51.21 46.98 41.64 54.41 50.12 42.11 39.79 38.45 41.90 45.31 45.83 47.34 46.77 45.67 43.99 42.32 42.57 41.68 41.06 41.28 43.44 45.95 46.48 42.83 42.68 39.63 36.16 38.30 42.44 43.83 42.39 40.22 39.54 34.30 31.69 32.34 32.36 34.99
51.43 50.82 50.42 50.14 49.54 51.92 50.63 44.32 48.99 55.12 47.83 36.97 37.36 42.08 44.17 46.03 44.91 45.35 45.89 45.48 46.12 46.03 42.80 40.23 42.08 42.94 45.84 44.90 44.88 42.95 42.78 37.86 33.65 36.10 39.81 42.16 40.59 40.18 37.73 35.89 35.12 32.49 32.84 34.08
51.11 50.50 49.87 49.61 49.57 51.86 51.88 48.83 43.43 47.60 45.40 42.46 41.07 40.68 41.23 43.09 46.96 46.66 46.46 45.19 46.30 44.68 42.73 43.51 41.15 42.26 45.09 45.24 44.49 43.82 44.25 37.91 36.82 34.31 36.01 38.40 36.60 37.49 37.70 37.99 33.53 32.58 33.70 35.43
50.61 50.14 50.08 49.63 49.58 50.89 51.06 46.69 43.83 46.38 40.52 40.91 41.02 42.71 42.78 42.55 42.93 46.93 46.75 45.03 44.97 43.46 39.85 40.86 40.52 42.89 43.10 44.04 44.37 43.81 42.88 37.43 37.12 36.23 36.39 36.90 36.61 36.04 36.94 36.12 36.12 34.95 35.69 35.47
50.15 49.92 49.82 49.47 49.49 51.22 51.04 45.30 42.62 42.01 41.25 44.04 41.60 41.23 42.19 42.76 44.12 44.90 44.42 43.56 44.34 44.69 41.65 42.83 40.56 42.40 41.40 40.34 43.15 42.24 41.12 36.47 36.34 34.80 35.16 34.76 34.97 36.43 35.74 35.58 35.26 36.12 35.07 35.49
49.56 49.45 49.42 49.17 50.28 51.55 49.88 50.17 48.81 44.92 39.11 41.36 39.19 39.65 42.59 43.59 45.84 45.89 45.57 45.42 43.49 41.95 44.44 45.07 43.84 43.68 43.30 43.04 42.29 39.74 38.07 36.20 34.01 30.67 31.14 31.12 30.18 34.97 36.62 36.31 37.10 38.09 34.62 40.18
49.40 49.04 48.81 48.87 50.82 51.19 52.93 51.51 48.85 41.74 34.82 39.71 39.97 43.09 44.52 44.02 45.22 44.36 45.30 45.48 43.93 44.60 46.54 44.86 44.77 43.16 42.49 42.41 39.99 40.62 35.03 32.36 29.32 29.51 26.87 25.16 36.25 38.50 38.35 37.40 37.74 38.70 38.98 40.10
48.97 48.55 48.25 49.02 50.55 51.03 54.12 52.48 48.67 42.14 33.65 38.84 40.84 43.54 44.04 44.47 44.88 44.53 44.91 46.00 45.40 45.95 42.72 38.84 36.50 35.09 35.73 36.84 38.29 37.01 37.69 33.12 28.01 29.72 27.22 31.12 34.96 35.52 37.53 36.59 37.17 40.94 40.35 39.88
48.36 47.91 47.86 48.90 50.33 50.25 54.37 52.81 50.52 46.04 38.99 38.52 44.36 43.87 44.04 41.66 41.21 42.60 43.89 46.07 45.92 42.47 35.82 34.39 31.73 32.15 35.44 33.79 36.82 39.10 36.33 34.52 34.20 26.79 27.38 24.70 34.10 38.16 42.30 41.50 34.38 40.70 41.51 39.96
47.79 47.70 47.99 48.53 50.03 49.80 54.38 53.06 51.68 49.83 44.26 46.95 46.38 43.56 43.40 44.18 42.38 40.16 42.46 43.56 43.89 42.80 33.39 31.23 32.50 33.07 34.95 32.27 30.20 31.46 33.50 31.27 31.47 23.10 29.16 30.97 36.32 40.03 41.94 32.84 35.58 40.64 42.39 41.46
49.20 48.93 48.19 48.57 49.87 50.31 53.78 52.34 53.68 51.18 45.90 47.49 49.66 49.70 44.61 44.20 44.16 41.22 43.41 42.51 41.85 36.87 34.67 34.07 31.74 32.97 34.06 33.77 34.89 34.61 33.51 31.47 29.81 25.47 26.74 28.24 38.49 40.83 37.57 41.74 40.75 41.80 42.07 41.83
49.18 49.38 49.53 49.62 50.38 51.44 53.62 51.58 54.11 52.78 49.06 47.98 50.27 49.98 50.53 50.80 48.54 45.28 43.08 44.26 42.03 41.97 36.13 32.60 31.52 32.46 32.94 32.09 32.61 36.63 33.36 36.45 34.10 33.80 35.03 40.08 40.36 41.60 42.42 41.83 41.27 42.41 42.36 42.02
49.49 49.79 50.04 50.29 51.17 51.17 52.90 52.77 50.98 50.73 46.77 46.72 47.56 47.16 50.48 51.32 50.57 51.07 43.80 42.97 44.59 41.10 40.74 35.99 34.29 32.99 34.01 32.21 32.84 35.11 37.49 37.98 36.30 35.52 39.16 38.16 40.19 41.84 43.10 43.74 42.68 43.28 42.89 42.74
49.56 49.58 50.15 50.90 50.72 51.22 52.10 51.19 49.53 49.59 44.82 36.61 44.15 49.33 47.80 49.98 51.32 51.47 49.19 45.38 42.84 41.83 40.64 35.08 33.83 34.35 35.74 33.12 35.60 35.91 38.10 38.38 36.41 36.16 39.14 39.37 41.32 42.24 42.54 42.73 42.49 42.04 42.03 42.06
50.24 50.05 50.47 50.57 50.74 50.67 51.15 50.14 49.01 49.72 47.08 38.67 40.45 46.87 47.25 48.63 49.70 48.09 47.42 45.90 44.23 41.49 37.58 34.07 35.41 34.70 35.59 35.21 35.53 34.29 38.75 37.91 35.85 35.40 40.16 40.48 40.35 40.87 41.67 41.46 41.20 41.36 39.58 36.79
49.92 50.49 50.44 50.24 50.21 49.17 48.91 46.97 48.78 46.99 46.40 42.27 36.02 43.82 44.01 46.26 47.01 45.78 45.39 45.62 43.37 41.76 39.60 35.13 37.61 41.02 37.60 34.26 34.27 39.54 40.62 41.90 41.18 40.48 42.29 41.22 40.63 40.55 41.38 41.39 40.93 38.24 37.04 35.55
48.84 48.73 49.17 49.19 48.35 47.88 42.70 42.39 46.27 45.39 44.96 39.71 35.08 35.86 41.28 42.61 44.55 43.26 42.65 43.05 41.57 42.43 39.28 36.73 38.56 39.48 39.50 33.71 33.90 38.64 41.00 41.49 41.31 41.06 41.25 40.84 40.48 39.84 39.23 37.26 36.35 36.02 35.01 34.52
48.36 48.36 48.25 48.24 48.03 47.99 47.34 46.80 46.00 45.15 40.44 38.94 33.36 33.08 37.06 41.36 38.15 37.80 41.15 38.71 40.07 39.79 38.77 37.03 35.99 37.69 35.84 34.60 38.10 39.34 40.67 40.46 39.85 39.65 40.52 39.21 36.41 35.87 34.93 35.23 35.32 35.30 35.67 35.27
47.93 47.68 47.65 48.08 46.30 45.75 47.33 46.41 45.74 44.41 42.21 33.41 30.99 32.94 33.29 40.78 36.95 36.23 38.15 37.84 34.07 37.22 34.44 36.42 37.86 34.04 33.11 35.08 35.92 36.73 37.96 38.71 36.49 34.88 35.19 35.11 34.43 34.88 36.31 36.90 36.77 35.57 35.47 34.69
47.16 46.91 43.52 38.03 43.85 45.97 45.50 42.07 38.95 37.54 36.25 35.33 31.48 35.70 34.41 39.60 35.33 34.07 33.94 33.89 32.62 31.64 33.93 37.39 33.89 34.09 35.39 33.62 34.15 34.95 37.23 38.87 35.94 33.74 32.98 34.39 35.28 35.71 35.26 35.17 36.23 35.22 32.90 32.60
44.73 41.28 37.88 43.77 45.20 42.90 36.66 33.42 33.94 33.89 32.79 35.85 34.99 36.50 35.08 38.43 35.57 33.12 33.06 31.85 31.35 29.76 30.68 33.60 31.66 31.91 33.32 35.03 35.65 37.04 38.02 38.35 37.71 37.62 37.44 37.88 37.27 35.61 34.59 32.21 32.39 32.12 31.62 31.01
44.28 43.65 42.94 40.85 37.90 35.33 34.25 32.40 33.53 32.65 32.78 34.56 34.95 35.13 37.56 35.15 35.38 34.12 33.15 29.41 32.12 28.25 33.75 32.24 28.75 32.03 33.55 36.33 36.78 38.12 38.55 38.62 37.75 38.29 37.38 36.60 34.33 33.94 32.35 31.06 30.69 30.84 30.34 27.71
43.76 39.17 36.42 37.34 34.44 33.39 27.35 28.24 32.23 32.04 33.53 34.18 33.70 33.33 34.42 35.13 36.36 32.81 33.56 31.51 29.83 34.01 31.31 29.69 31.43 31.54 36.06 35.97 35.78 35.57 35.54 34.30 33.54 33.14 33.21 32.68 31.85 31.36 30.95 30.02 30.30 28.00 30.13 30.71
34.81 34.59 33.17 30.91 32.07 32.44 32.61 32.25 33.17 32.25 32.81 33.35 33.71 32.62 33.89 32.81 34.62 32.44 32.41 31.49 32.70 29.62 27.08 28.13 30.88 33.26 35.86 35.28 34.54 33.03 30.48 29.05 30.78 31.19 31.21 29.62 29.44 29.18 27.33 25.41 25.48 25.00 28.66 29.84
32.76 32.99 29.18 28.99 30.72 31.58 31.64 32.25 32.58 32.37 33.30 33.53 33.53 33.17 34.35 32.08 31.58 31.80 30.93 29.02 26.01 26.38 24.87 30.60 33.51 34.71 35.34 33.13 31.36 30.89 29.78 27.26 29.86 31.13 28.55 26.34 25.66 26.94 28.30 29.39 29.80 29.15 26.01 25.98
32.94 30.78 29.55 31.28 31.01 31.16 31.90 32.08 31.87 33.11 32.96 33.32 33.65 31.64 30.98 28.67 29.56 27.34 26.84 26.58 23.00 25.38 31.56 32.22 33.68 33.89 32.08 31.17 30.92 30.70 30.95 30.78 30.87 30.96 30.64 29.34 27.30 26.98 28.95 28.57 28.59 26.79 27.37 25.92
31.46 29.83 32.19 32.04 31.85 31.31 31.90 32.26 31.84 33.62 32.97 30.96 31.42 27.31 26.15 29.06 25.27 24.64 27.14 24.59 26.68 31.03 32.01 32.04 32.78 31.46 30.58 31.34 32.33 30.27 30.90 30.72 30.84 30.50 29.92 28.82 28.64 26.92 25.51 24.07 25.02 25.52 26.19 25.55

GFSNW_sfc_wetblb_048.txt.gz
Wetbulb
50.69 52.61 52.62 51.76 50.91 50.39 51.20 53.63 46.68 59.47 61.02 50.10 51.43 46.99 47.79 46.65 49.58 50.96 49.08 49.34 47.54 46.14 46.93 45.79 44.97 44.86 47.12 49.77 49.96 47.27 48.00 46.97 42.09 43.48 46.53 47.85 46.92 45.53 45.54 39.49 37.08 40.19 39.19 39.32
50.47 51.61 52.00 51.02 50.59 51.18 53.62 50.90 52.68 56.80 54.52 46.67 46.41 48.56 47.57 49.21 48.69 49.39 49.26 48.42 49.51 50.01 47.75 44.48 46.81 47.53 48.30 48.92 48.94 48.34 48.06 44.90 39.77 40.47 44.22 46.32 44.35 45.91 45.21 42.95 42.93 38.42 37.21 39.43
50.35 51.59 51.47 50.43 50.30 51.28 55.81 52.10 48.39 52.59 52.88 52.52 49.22 46.82 46.32 45.92 50.77 49.90 50.28 49.44 50.74 49.29 47.24 48.42 46.25 46.76 47.34 47.91 48.40 44.22 47.59 45.59 43.52 39.64 41.51 45.06 41.85 43.57 44.38 43.47 38.27 38.82 39.64 40.65
49.69 51.43 51.16 50.39 50.27 50.96 54.66 53.61 49.51 52.39 47.04 47.60 48.55 49.10 47.38 45.41 46.71 50.05 51.24 49.04 49.94 48.92 45.37 46.07 45.80 47.49 46.02 47.49 45.31 48.28 48.63 43.23 43.08 41.97 41.80 42.01 42.41 42.54 43.26 41.66 42.51 38.91 41.30 40.75
49.46 50.81 50.43 49.87 49.96 50.81 52.38 50.90 50.09 50.50 50.97 49.70 47.62 45.33 46.46 45.73 47.64 49.04 48.37 48.83 49.94 50.29 47.77 48.14 46.48 48.06 47.30 46.80 48.00 47.90 46.65 42.87 42.11 39.89 40.51 40.45 39.40 42.10 42.78 43.72 43.77 42.80 43.10 42.06
49.47 50.70 50.04 49.54 49.84 51.65 53.96 56.90 54.23 53.74 44.93 47.19 46.11 45.92 46.74 46.85 50.94 49.02 49.63 51.88 50.18 48.81 49.03 50.75 51.95 50.73 50.27 49.48 48.30 46.51 45.44 43.37 40.51 36.62 37.59 37.90 36.38 41.21 42.83 43.09 44.33 43.95 40.56 44.98
49.20 50.20 49.44 49.25 49.52 51.92 58.33 58.75 55.04 52.76 44.32 45.04 45.90 46.66 48.44 48.73 50.50 49.56 49.00 51.08 50.56 48.72 52.51 52.34 51.42 50.02 48.54 48.06 46.21 47.14 42.99 42.31 39.25 37.16 33.59 31.88 40.96 43.30 43.28 43.85 44.99 45.83 44.76 45.03
49.07 49.58 49.00 48.98 49.21 50.66 57.62 60.09 55.77 51.02 40.62 46.71 46.48 47.32 48.89 49.76 49.98 49.17 49.55 49.19 50.54 52.73 50.19 47.19 43.41 43.53 43.39 43.65 43.95 43.88 44.97 41.92 35.34 37.19 34.36 38.30 40.53 40.46 39.89 39.71 40.98 45.51 45.07 45.66
49.13 48.82 48.65 48.81 49.20 50.60 54.61 60.15 57.36 54.67 46.62 44.51 49.02 48.32 50.15 48.68 49.25 48.50 46.47 48.87 50.97 48.87 47.68 45.52 41.04 39.04 42.08 39.81 41.51 43.41 42.36 43.09 42.22 34.74 35.67 33.49 39.92 42.76 45.98 45.27 38.28 45.56 46.41 46.48
48.46 48.37 48.53 48.65 49.16 50.87 56.67 58.66 57.20 56.70 50.95 49.94 51.19 48.85 48.93 52.13 50.78 48.79 46.94 47.05 47.35 48.27 45.48 38.35 41.04 41.20 41.69 38.65 37.07 35.70 38.90 38.58 38.15 36.31 37.18 38.54 42.94 44.27 46.02 36.06 38.99 46.23 47.67 48.16
48.12 48.10 48.14 48.55 49.29 50.70 55.96 56.32 58.11 58.19 51.97 51.76 53.13 52.34 50.64 50.16 52.27 48.65 48.39 48.08 47.49 46.69 43.71 39.98 41.63 42.08 41.35 40.14 41.13 39.72 39.40 38.24 36.18 34.88 34.68 33.16 44.06 44.33 40.72 45.88 47.36 47.11 48.04 48.58
47.54 47.86 47.89 48.27 49.84 50.87 53.34 55.40 57.14 58.46 54.53 51.99 54.22 53.52 53.97 53.69 53.54 52.24 50.34 51.17 49.63 50.62 46.64 43.87 42.37 38.65 36.78 41.23 39.64 42.28 38.83 43.13 42.16 41.24 42.04 44.71 46.31 47.69 48.65 47.32 46.36 47.47 47.51 48.08
48.28 47.97 47.97 48.63 50.26 51.64 54.00 57.13 57.12 57.21 53.73 51.86 53.40 51.58 53.79 55.30 54.62 55.65 50.84 50.54 51.17 48.99 50.00 47.27 45.26 37.26 44.14 37.03 41.09 42.28 43.39 43.56 42.28 40.72 44.23 44.97 46.36 48.04 48.33 48.42 48.00 48.06 48.07 48.63
48.73 48.62 48.53 49.14 50.20 51.51 53.75 57.38 55.93 56.31 50.80 41.79 49.29 53.87 51.61 53.44 55.01 54.92 53.80 52.24 49.83 49.16 51.09 46.37 41.51 42.48 43.49 42.14 43.01 42.92 44.82 43.78 42.70 42.28 45.38 45.95 46.19 47.04 47.58 47.50 47.03 46.73 46.70 47.11
49.09 49.27 49.13 49.73 50.81 51.05 54.58 53.94 52.93 54.86 53.15 43.31 47.93 51.36 51.58 52.48 53.13 52.05 52.49 51.68 51.16 50.56 45.75 39.44 44.15 43.47 43.22 42.92 43.08 42.19 44.53 43.79 42.10 42.23 43.89 44.50 44.56 45.83 46.15 46.18 45.93 46.18 44.68 43.27
49.05 49.67 50.27 50.08 49.99 50.96 57.64 51.30 52.14 49.89 53.79 48.83 43.05 48.92 48.81 50.95 51.88 51.03 50.09 51.31 51.02 49.89 46.39 40.49 44.38 43.55 45.42 37.61 40.94 43.30 44.02 45.00 45.07 44.49 46.00 45.97 45.59 45.82 46.37 45.91 44.92 43.86 42.15 39.52
49.55 49.49 49.40 49.29 49.24 54.04 51.13 48.79 50.45 47.69 50.83 46.59 40.15 45.13 47.13 48.25 50.03 47.97 49.29 49.25 46.70 49.52 43.35 41.36 42.59 43.06 46.02 37.08 41.02 42.01 44.16 44.81 45.14 45.50 45.69 44.24 43.76 41.63 43.46 42.49 40.08 39.40 39.05 38.52
48.68 48.91 49.26 49.03 48.67 49.26 51.43 48.64 46.60 48.01 48.80 48.89 36.36 41.04 45.80 47.20 44.12 42.32 45.08 43.75 46.52 43.35 41.30 41.54 40.52 41.48 42.43 39.34 41.11 42.02 43.41 43.88 43.37 43.08 44.18 42.65 41.14 39.70 37.82 38.82 38.60 37.43 35.85 35.89
48.23 48.11 48.12 53.69 51.06 52.11 50.99 46.11 46.82 50.18 49.75 38.35 35.27 38.89 37.59 44.62 40.01 40.51 43.84 43.50 36.54 41.39 38.89 39.85 42.44 36.76 36.11 36.77 37.55 40.57 41.12 41.47 39.84 40.94 40.52 38.49 36.75 37.09 37.92 38.18 37.94 36.25 36.64 37.07
47.85 52.26 51.14 46.91 48.38 46.36 47.48 48.99 48.60 44.61 41.84 39.96 34.18 40.49 36.72 42.75 40.98 38.75 40.76 39.54 37.26 34.18 37.96 39.76 39.07 38.75 35.32 35.50 36.85 39.31 41.87 42.42 41.05 35.48 34.20 36.02 36.66 37.12 36.90 37.18 38.19 38.67 37.77 36.13
50.58 47.59 42.86 48.71 46.60 49.28 44.12 37.61 37.62 40.13 35.81 39.36 38.58 40.81 38.19 41.27 38.74 35.63 38.21 34.72 35.91 33.45 36.95 37.05 35.72 35.33 34.17 36.57 38.16 40.34 40.27 39.49 38.94 38.84 38.80 38.51 37.52 37.24 37.31 35.65 35.37 34.94 34.25 33.57
48.99 48.40 47.98 47.84 45.38 41.73 36.90 34.00 36.54 37.40 35.07 37.83 38.12 38.27 39.51 38.34 42.01 38.37 36.72 32.55 35.84 32.76 37.54 35.58 31.62 34.12 35.68 37.31 38.19 39.88 40.16 39.66 39.07 39.31 38.57 38.31 37.11 36.18 35.01 34.40 34.02 33.74 33.37 32.86
50.11 45.76 38.17 43.06 36.36 35.09 36.54 31.99 34.68 33.85 36.54 36.10 36.65 34.89 38.30 38.27 40.96 35.27 36.36 34.36 32.50 38.01 34.07 32.40 32.90 35.05 36.71 37.45 37.31 38.07 38.30 38.18 38.18 36.45 35.66 35.32 34.48 34.12 33.93 33.16 32.69 33.75 34.12 34.44
38.17 36.17 34.00 35.09 34.72 33.64 34.90 35.86 36.65 34.18 35.09 36.90 37.74 35.27 36.90 37.08 36.54 35.63 34.90 33.45 35.06 30.72 29.49 30.12 31.40 35.28 35.43 35.84 36.76 35.18 33.19 33.53 34.42 34.18 33.93 32.43 32.58 32.13 32.41 31.94 32.28 31.61 30.72 30.68
35.45 36.72 32.00 32.19 32.19 32.70 32.91 33.45 34.72 34.51 35.90 38.17 38.35 37.23 39.47 35.27 33.27 34.18 33.27 31.10 29.90 30.79 31.17 32.65 33.84 34.77 36.14 35.56 34.66 34.05 32.77 33.19 34.07 34.36 31.86 31.19 31.97 32.31 32.14 31.86 30.35 29.40 28.73 28.03
34.71 34.01 31.64 32.37 32.37 31.82 32.37 32.55 32.37 34.98 35.45 37.23 38.21 34.00 34.00 31.46 33.97 32.55 31.61 31.59 29.92 31.54 33.33 33.92 34.65 35.05 35.83 34.99 34.09 34.21 34.38 34.24 34.21 34.22 33.32 31.73 30.05 29.22 28.90 29.08 27.54 26.84 26.99 25.71
33.64 31.42 32.91 33.64 32.55 31.82 32.00 33.27 32.73 34.57 34.54 32.37 35.09 32.55 30.34 32.99 30.91 29.30 32.23 31.30 32.61 33.15 32.84 33.41 36.13 35.99 34.59 34.75 33.93 32.94 34.01 34.15 33.70 31.96 30.61 29.61 28.78 27.61 25.99 24.71 25.50 25.34 25.97 25.54

GFSNW_sfc_wetblb_051.txt.gz
Wetbulb
50.71 50.96 51.54 52.84 51.84 50.92 51.04 53.39 47.02 59.96 61.52 47.29 49.93 48.00 50.16 49.58 50.01 53.56 51.39 50.26 48.17 47.34 47.61 46.24 46.08 45.22 48.51 52.60 52.16 48.08 50.49 47.77 42.94 45.22 49.13 50.24 49.41 47.10 47.02 41.33 39.42 41.60 40.91 40.41
50.51 50.57 51.22 52.47 51.12 51.13 53.21 49.95 52.74 59.79 58.62 44.25 48.04 51.08 50.40 50.99 49.37 50.48 50.51 48.49 49.53 50.20 47.76 44.92 47.49 47.75 51.67 51.76 51.53 49.18 50.95 45.43 40.39 42.45 46.36 48.46 46.09 47.30 47.13 47.02 45.08 40.71 38.47 40.62
50.26 50.91 50.68 52.01 50.92 51.65 56.19 51.95 47.60 51.43 54.63 52.10 50.42 48.89 48.85 47.39 51.66 51.07 52.25 50.03 50.72 49.44 47.36 49.46 47.40 48.11 49.98 51.37 51.72 45.82 49.39 46.96 43.88 40.13 43.31 46.93 44.87 45.98 47.08 45.72 40.75 40.58 40.99 43.00
50.11 50.52 50.30 51.55 51.01 51.19 55.01 52.97 49.49 51.92 45.97 48.65 49.58 51.30 49.74 47.26 46.58 51.54 52.93 50.27 50.14 49.15 46.01 47.38 47.46 50.14 49.25 50.15 46.51 49.71 50.76 44.75 46.32 46.33 46.07 45.74 45.44 45.04 45.63 44.20 44.41 41.49 43.12 43.24
49.32 49.87 49.90 50.89 50.79 50.99 52.77 50.72 50.79 52.51 49.87 50.75 50.48 47.94 48.96 47.31 47.89 49.63 49.36 48.97 49.73 51.06 48.44 49.06 47.25 50.12 50.00 48.74 50.59 50.40 50.76 44.83 45.87 42.78 45.79 45.12 43.28 45.43 45.35 45.11 45.27 44.46 44.43 43.92
49.34 49.30 49.01 50.36 50.40 51.42 50.53 57.06 57.78 52.47 48.73 50.00 49.34 49.78 49.83 48.38 50.20 52.35 53.11 51.82 50.25 50.47 51.44 54.67 55.05 54.64 53.66 52.83 50.91 49.67 48.71 46.31 42.69 38.31 41.93 41.86 37.36 43.30 44.54 45.34 46.33 45.81 42.61 46.67
48.93 48.45 48.12 49.88 50.22 51.48 55.15 57.11 56.28 51.37 47.43 50.40 48.55 49.53 50.71 49.25 50.15 50.62 52.31 54.49 52.26 53.32 56.36 55.81 54.70 53.08 51.85 51.30 50.55 52.19 47.44 46.35 44.02 38.82 35.81 30.97 42.95 46.13 45.45 44.82 46.37 47.62 47.24 47.82
48.57 47.95 47.98 49.24 49.82 50.43 56.89 61.23 58.13 53.70 45.26 50.86 49.07 49.20 49.91 50.79 52.55 52.08 52.51 52.06 55.14 56.84 54.76 49.32 45.50 45.92 44.70 45.98 47.38 47.31 49.03 46.07 39.08 36.62 36.63 40.77 42.78 43.84 42.64 41.78 42.47 46.29 46.29 46.79
48.08 48.14 48.45 49.22 49.33 49.94 54.09 58.10 62.05 56.11 52.54 49.52 51.15 49.50 50.41 49.32 50.86 50.47 49.32 54.12 55.88 53.71 52.54 48.66 41.61 39.55 42.71 42.28 44.25 46.74 45.70 46.54 43.36 38.46 35.63 32.60 42.48 45.25 47.46 46.96 39.22 46.71 47.35 47.17
47.89 47.98 48.77 49.10 49.31 49.73 53.57 57.04 61.25 57.68 51.89 53.22 53.31 49.93 50.52 52.67 52.48 51.19 49.97 50.64 49.99 52.40 49.91 38.86 43.03 42.90 46.02 41.13 40.70 38.04 41.19 41.98 39.27 38.72 37.15 41.52 46.40 46.84 47.94 37.83 41.18 48.23 48.59 48.24
48.13 48.32 48.88 49.02 49.20 49.33 52.97 56.16 61.50 58.80 55.21 53.83 55.10 54.60 52.14 53.09 53.90 50.17 51.71 50.15 50.73 50.29 44.91 41.76 46.08 44.66 45.34 43.93 45.28 42.40 41.16 40.79 36.93 40.74 33.91 33.27 47.14 46.31 42.09 47.56 49.29 49.12 49.51 50.05
48.40 48.30 48.44 48.64 48.77 49.31 52.05 54.58 60.39 62.06 57.87 54.59 57.91 56.64 57.11 57.08 57.47 55.16 53.30 52.20 52.03 52.77 49.68 48.95 49.51 41.53 41.17 45.13 40.43 46.93 41.76 46.02 44.57 43.65 43.27 48.01 49.01 48.27 50.99 50.35 49.20 49.63 49.80 50.20
48.31 48.35 48.52 48.50 48.77 50.08 53.00 58.55 60.81 60.77 56.03 53.78 54.73 53.89 56.05 57.91 57.84 59.48 52.99 55.52 55.97 54.34 56.29 52.25 50.84 40.49 48.61 39.51 44.48 45.90 47.04 47.65 44.66 43.61 45.99 47.09 48.06 49.44 50.15 50.40 49.71 50.31 50.57 50.28
47.76 47.68 47.93 48.29 49.47 50.90 53.59 58.70 60.15 58.39 54.06 47.92 50.17 56.58 53.72 56.46 57.75 57.87 57.99 57.35 56.31 55.57 55.49 49.88 43.75 42.98 49.34 47.28 47.33 46.03 47.69 47.06 44.85 44.78 46.86 47.31 48.31 49.33 49.68 50.16 50.01 49.24 49.37 49.62
47.43 47.59 48.00 48.50 49.87 51.49 56.55 57.59 56.69 58.88 56.19 46.81 49.04 53.58 53.97 56.08 56.60 56.08 56.23 55.71 54.54 53.06 49.48 42.85 47.40 48.90 47.94 48.06 47.38 45.50 48.07 45.79 44.20 43.21 46.95 47.04 47.51 48.43 49.02 48.70 48.62 48.54 47.57 46.85
47.72 47.77 48.19 49.72 50.67 52.61 55.77 53.14 56.67 57.60 59.34 51.50 44.83 51.64 51.28 54.15 55.37 54.81 54.63 55.40 55.06 54.52 48.19 47.30 48.98 47.48 49.70 41.19 43.62 46.83 46.88 47.47 48.20 46.89 48.17 48.57 48.12 48.41 49.27 47.77 46.47 45.93 44.35 43.29
47.89 48.32 48.96 50.13 51.29 57.45 54.00 50.72 53.12 53.41 57.53 47.81 41.22 45.16 51.02 52.08 53.73 52.54 53.21 53.50 51.75 52.96 48.19 44.67 48.11 47.87 49.31 40.66 42.39 45.65 46.04 47.16 47.42 48.31 48.41 45.85 46.85 44.18 45.49 43.59 42.81 42.37 41.76 40.19
48.79 48.87 49.38 49.42 48.90 49.07 51.67 50.41 48.42 50.32 51.97 49.42 38.32 42.32 46.21 51.13 48.72 46.27 51.15 48.99 51.18 46.80 44.20 45.53 44.33 45.67 44.91 42.94 44.73 45.22 46.09 46.36 45.75 45.91 46.98 45.55 44.08 43.32 42.23 41.98 40.60 38.49 36.93 37.91
48.71 48.98 49.73 55.08 54.88 54.06 50.93 46.56 47.98 54.08 51.77 39.04 36.69 39.59 38.14 48.18 44.28 45.84 46.35 47.36 38.86 46.30 40.86 43.26 45.05 40.19 38.88 39.54 40.69 42.29 43.40 43.69 43.25 44.43 43.77 42.72 40.53 39.45 39.59 39.70 37.88 36.72 37.05 38.86
48.62 54.09 52.93 50.11 51.23 46.96 48.37 49.37 50.21 47.90 47.39 43.81 38.32 44.18 40.74 45.41 43.64 40.57 42.87 41.44 38.48 35.60 40.15 44.80 41.57 39.75 38.56 39.74 40.34 42.56 44.29 44.89 44.21 40.51 37.61 38.20 37.20 38.50 38.46 38.37 39.83 39.73 38.85 37.91
54.98 50.53 45.79 50.78 46.94 51.08 47.16 39.55 42.67 45.22 38.68 42.30 41.84 44.67 40.98 44.74 40.53 36.62 40.49 36.32 38.08 33.79 38.84 38.75 37.66 36.57 36.43 39.61 40.78 42.63 43.77 43.06 40.84 40.87 40.15 39.95 38.84 38.14 38.29 36.94 36.05 35.86 35.72 34.73
50.64 50.92 50.82 50.91 47.81 44.08 39.59 35.24 38.50 39.59 37.28 39.17 38.64 40.10 41.61 40.76 44.71 39.43 37.99 34.51 37.14 33.27 41.04 38.28 33.71 34.71 38.54 39.54 39.80 40.81 41.03 40.77 39.92 39.69 39.48 39.70 38.44 37.44 36.31 35.77 35.20 34.67 35.37 33.99
53.10 48.29 41.04 45.21 37.77 35.96 34.87 33.05 35.80 34.32 37.92 37.80 38.62 35.80 40.08 40.19 42.57 37.20 37.96 33.79 34.35 40.29 34.85 33.59 34.94 37.41 38.63 39.20 39.07 39.28 40.26 40.45 40.07 38.25 37.54 36.56 35.25 35.72 35.26 33.88 34.52 36.55 34.64 34.11
39.77 37.23 35.24 35.60 33.79 35.05 35.78 37.65 36.98 35.60 36.69 38.50 39.67 36.69 38.40 39.75 36.50 38.32 32.88 35.16 36.81 32.10 30.99 32.00 35.03 36.49 37.68 38.72 39.43 38.96 36.62 35.93 35.77 35.53 35.32 34.29 33.87 33.29 33.23 32.67 32.45 30.90 29.73 29.93
37.05 36.87 32.88 32.52 32.88 33.79 33.79 34.87 35.96 35.72 39.47 40.39 38.80 39.01 40.25 36.69 34.51 36.84 33.42 31.79 31.41 32.71 33.53 34.60 35.28 35.89 36.27 36.78 37.14 35.52 34.28 34.31 34.75 34.94 32.98 33.06 34.67 33.37 32.20 31.00 30.00 29.29 28.31 27.29
35.04 34.33 32.52 33.06 33.06 32.15 32.88 33.24 33.24 37.14 39.85 42.90 42.07 37.00 35.96 33.42 35.86 34.69 33.92 32.63 31.47 32.59 34.85 35.23 35.56 36.16 36.99 37.05 36.58 36.54 36.66 36.23 35.96 35.49 34.08 31.83 30.05 30.24 29.86 29.57 27.91 27.78 27.41 25.79
33.24 31.79 33.06 33.97 32.70 31.79 32.15 33.60 33.97 36.85 38.14 34.15 37.57 34.33 32.20 35.48 32.31 31.13 34.43 32.46 33.57 34.24 34.06 34.93 36.64 36.71 36.70 36.89 35.94 34.36 35.69 36.31 35.14 33.93 32.86 31.21 30.21 29.02 27.78 26.58 27.07 26.75 26.90 26.03

GFSNW_sfc_wetblb_054.txt.gz
Wetbulb
50.15 50.75 51.42 51.66 52.82 51.76 50.79 50.91 42.84 57.69 60.11 46.85 46.36 45.04 48.28 49.32 51.03 51.66 50.89 50.12 48.11 46.47 46.69 45.54 44.81 44.45 47.28 51.94 51.09 47.16 49.64 47.33 42.63 44.61 49.21 49.88 48.19 46.37 45.98 41.13 38.53 42.67 40.25 39.42
49.86 50.10 51.09 51.35 52.16 51.58 50.46 46.86 50.39 58.81 57.65 41.89 43.03 47.00 48.34 50.71 49.84 50.06 50.09 49.12 49.61 49.89 47.07 44.36 46.73 47.50 52.27 52.20 50.69 48.47 50.40 45.92 39.53 41.44 46.09 48.81 45.56 46.19 46.32 46.43 46.62 40.39 37.99 39.80
49.56 49.91 50.85 51.07 51.85 51.66 51.73 48.66 44.52 50.64 53.11 51.06 45.52 45.32 46.51 47.48 52.27 50.13 50.83 50.13 50.36 48.42 46.97 49.13 46.62 47.25 50.61 52.18 51.47 47.11 51.90 47.01 42.79 38.67 41.77 46.19 44.36 45.26 46.12 45.36 41.10 40.45 40.72 42.42
49.24 49.92 50.33 50.95 51.33 51.26 51.09 49.85 47.16 50.15 43.38 47.13 47.76 49.50 48.03 46.55 46.99 50.56 51.10 49.42 49.06 47.65 45.09 45.92 45.74 48.46 49.71 50.68 47.00 49.94 50.12 42.88 44.16 44.70 45.85 46.10 45.40 45.14 45.34 43.63 44.40 40.38 43.10 42.58
48.67 49.60 50.08 50.56 51.09 51.23 49.48 47.63 48.81 52.11 49.10 49.26 47.08 45.97 48.01 47.36 48.87 48.51 47.67 48.50 49.61 49.27 46.82 47.23 45.61 48.68 50.04 48.02 50.28 49.45 50.75 44.35 45.76 43.66 46.34 45.84 43.25 44.85 45.12 44.99 44.91 44.24 44.73 43.76
48.53 49.24 49.91 50.23 50.59 50.84 48.67 52.80 56.16 51.51 47.21 47.77 45.49 46.75 49.19 48.79 51.32 50.99 50.89 51.38 50.22 48.93 50.57 53.80 54.73 55.06 54.16 52.35 50.21 48.82 48.61 46.48 43.80 39.19 42.83 41.03 35.63 42.59 43.71 44.46 45.76 45.49 41.47 46.43
48.61 49.14 49.46 49.47 50.38 50.40 52.06 53.55 56.52 50.25 45.67 46.60 46.50 48.53 50.59 50.00 50.72 49.56 52.12 53.63 51.38 53.80 57.21 56.54 55.05 53.62 52.84 52.83 51.96 52.93 48.67 47.43 45.16 39.90 35.82 30.90 42.36 47.05 45.83 44.04 44.78 45.84 45.69 47.09
48.53 48.98 48.99 48.85 50.10 50.39 51.14 54.68 56.44 52.39 43.17 48.36 47.74 49.68 50.66 51.88 52.51 50.18 52.18 53.81 56.19 57.76 55.22 49.67 45.47 45.19 43.44 46.39 49.07 49.04 50.78 47.20 40.73 35.05 36.12 40.06 42.61 44.66 43.32 42.36 42.14 46.78 45.80 46.63
48.22 48.49 48.28 48.40 48.72 50.11 50.78 51.78 54.67 56.55 49.71 47.94 50.15 49.76 51.63 49.54 49.75 51.00 50.44 55.36 58.18 57.39 53.51 48.01 41.37 40.03 42.92 41.85 43.60 47.19 46.92 49.24 42.73 39.36 34.45 30.57 42.92 45.74 47.45 46.59 38.75 46.56 46.82 47.33
47.94 47.98 47.36 47.72 47.81 48.02 49.24 51.67 54.57 54.30 49.10 53.16 52.69 49.10 49.41 54.00 52.05 50.72 51.11 50.51 50.66 53.95 48.64 36.39 39.94 43.83 45.72 41.23 39.99 36.67 41.02 41.59 37.97 37.93 35.97 40.38 47.50 47.53 47.88 37.74 40.58 48.18 48.36 48.11
47.66 47.62 47.18 47.65 47.74 47.82 49.39 50.88 53.16 51.64 53.58 54.48 56.45 55.57 52.68 52.91 53.43 49.32 52.10 49.81 51.38 52.03 42.36 38.38 46.53 44.32 46.12 44.33 45.75 41.84 39.88 39.97 35.80 41.06 34.03 32.95 48.24 46.08 42.07 47.56 50.48 49.29 49.53 50.55
47.46 47.29 47.08 47.56 48.28 48.69 49.37 48.90 54.33 56.14 54.38 55.07 58.64 56.70 57.17 56.28 56.67 55.69 53.35 52.88 51.63 52.82 49.69 48.18 50.05 40.03 40.70 45.25 41.85 47.79 41.63 45.79 43.83 42.93 41.74 49.62 49.29 49.07 51.15 50.72 49.07 49.64 49.80 50.31
47.13 47.09 47.02 48.02 48.72 49.20 49.19 50.62 54.39 57.63 56.05 54.09 54.90 53.85 56.57 57.80 57.77 60.28 53.03 56.60 56.49 55.43 58.79 53.11 51.48 39.90 49.52 38.65 45.59 46.46 47.75 49.13 46.44 45.08 46.82 47.69 48.68 49.90 50.74 50.48 49.71 50.03 50.34 49.72
47.33 47.49 47.81 48.14 48.54 49.21 49.45 50.18 54.62 57.25 56.03 46.36 50.47 57.41 54.59 57.14 58.25 59.13 59.63 59.37 59.17 58.29 56.90 51.56 42.16 41.64 51.82 48.35 48.95 47.74 48.22 48.22 45.31 45.26 47.31 47.97 48.39 49.06 49.38 49.73 50.22 49.78 49.80 49.59
47.56 47.82 47.94 48.15 48.73 49.19 49.98 51.86 55.30 58.34 54.34 46.17 48.84 53.80 55.19 56.57 57.05 56.85 57.21 58.30 56.25 54.81 48.17 39.09 48.73 50.78 50.21 50.06 49.34 46.99 48.86 46.55 45.07 44.41 47.12 47.51 46.91 48.41 49.47 48.70 48.11 47.87 46.25 43.83
47.78 48.01 48.32 48.36 48.43 49.22 51.68 50.12 56.94 58.90 57.67 51.80 43.62 52.05 52.39 55.12 56.15 55.55 55.39 56.47 57.25 55.11 49.01 49.08 49.94 49.97 51.26 41.15 44.68 47.71 48.47 49.12 48.93 47.18 48.96 48.23 47.73 47.84 48.25 45.55 44.73 43.98 42.66 41.53
47.46 47.69 47.98 48.34 49.04 52.60 50.96 48.40 51.09 49.83 57.51 49.24 39.65 43.72 50.33 53.53 53.74 53.53 53.08 54.77 52.90 52.90 49.33 47.53 48.54 47.68 48.50 40.19 44.02 46.25 47.46 48.34 48.02 48.88 48.66 45.60 47.08 41.99 43.47 42.91 41.88 41.30 40.60 40.45
47.42 47.55 48.03 48.73 48.81 49.19 50.28 50.75 49.74 50.28 52.21 49.98 37.29 38.38 44.70 51.00 47.67 46.85 50.48 49.38 50.23 47.11 44.32 46.00 45.41 45.72 47.12 43.48 45.42 46.47 46.95 46.79 46.04 46.27 47.22 44.97 43.96 42.99 41.76 41.74 40.49 38.03 37.03 37.61
47.87 48.76 49.24 51.71 51.85 50.49 49.88 47.11 48.67 55.50 51.58 38.38 35.84 35.83 36.73 48.94 45.00 45.43 46.22 47.82 37.65 46.05 39.83 42.90 45.65 39.99 38.54 42.92 43.73 44.45 44.64 44.21 43.97 44.35 44.03 43.52 41.20 39.89 39.38 38.75 38.36 37.22 37.42 38.58
48.79 51.81 50.93 42.19 48.15 47.19 47.56 49.12 50.17 46.48 46.65 44.76 39.47 43.55 39.83 44.99 43.43 40.56 41.75 41.72 38.38 36.20 40.21 44.90 41.54 38.56 40.86 41.53 42.62 43.72 44.92 45.36 44.26 40.56 38.55 38.78 38.12 38.13 38.14 38.52 38.92 37.97 36.49 35.48
54.26 48.79 41.97 47.91 47.26 50.14 45.86 40.16 38.92 41.69 37.29 42.75 43.65 43.55 40.80 44.86 39.70 36.37 40.01 36.39 38.20 35.12 38.61 39.47 37.00 36.67 37.35 41.59 42.07 44.17 44.10 42.87 42.85 42.55 41.30 40.85 40.11 38.60 36.90 35.25 35.59 35.26 34.17 32.93
52.04 51.45 51.79 51.47 48.91 42.53 37.84 34.94 37.84 38.89 37.40 39.45 40.63 41.23 42.03 41.49 45.86 38.96 37.11 34.94 36.57 33.97 40.85 35.78 34.43 34.94 39.07 40.16 40.24 40.98 41.04 40.94 40.06 40.17 39.24 39.53 38.39 37.23 36.07 34.78 34.31 34.30 33.26 30.06
52.94 46.55 38.74 43.46 37.11 35.12 34.21 31.66 35.58 34.22 37.08 37.98 38.79 36.36 39.55 40.98 41.96 36.39 36.02 34.21 35.24 41.09 34.48 33.75 35.18 37.51 39.29 39.81 40.19 39.88 40.74 40.33 39.44 37.72 37.10 36.52 35.50 35.21 34.13 32.25 32.46 32.47 30.79 29.67
39.42 36.93 34.21 34.75 34.21 34.94 34.75 34.94 36.20 34.75 36.02 38.38 39.24 37.47 38.60 39.10 35.30 36.02 32.94 35.39 36.76 32.51 30.94 32.56 35.40 37.49 38.32 39.30 39.53 38.75 36.17 34.18 35.18 34.99 34.14 33.07 32.09 30.47 30.08 29.16 28.60 27.36 27.31 27.45
35.84 36.39 32.04 31.85 32.40 33.30 33.49 34.21 34.75 35.25 39.42 39.96 39.06 38.69 39.06 36.02 33.85 35.84 33.35 31.67 30.91 33.51 33.59 34.70 36.83 37.88 38.30 37.96 37.70 35.24 33.89 32.71 33.61 34.10 32.52 32.14 31.63 30.45 29.07 28.36 28.40 27.71 25.04 24.57
35.12 33.49 32.40 32.76 32.94 32.40 32.76 32.94 33.12 36.09 37.28 41.79 42.31 36.20 32.94 33.67 35.91 33.67 31.60 32.78 31.78 33.49 34.36 35.40 36.79 36.32 36.91 36.47 35.15 35.22 35.87 35.09 34.40 33.50 32.21 30.37 29.10 28.54 28.65 27.64 26.29 25.59 24.37 21.53
32.58 31.49 32.37 33.12 32.40 31.67 31.85 32.94 33.49 36.91 37.65 33.67 37.65 33.49 31.98 36.71 32.90 31.41 33.38 31.49 32.93 33.62 33.86 35.67 36.39 36.39 36.53 36.52 36.03 34.48 35.28 35.37 34.46 33.15 32.04 30.31 29.62 28.80 27.92 26.35 25.87 26.53 26.35 22.30

GFSNW_sfc_wetblb_057.txt.gz
Wetbulb
48.16 49.33 50.75 51.32 51.38 52.25 51.29 50.18 42.47 52.19 56.08 43.28 42.91 40.19 43.87 46.43 48.59 50.82 49.24 48.39 47.28 44.43 43.45 43.44 41.93 42.45 44.53 48.32 49.52 44.66 46.63 42.14 36.58 41.67 47.01 47.44 44.72 42.58 42.46 31.21 33.40 34.91 30.51 32.64
48.11 47.88 50.01 50.85 51.29 51.86 49.76 46.57 46.71 53.49 53.20 35.61 38.51 42.87 44.24 46.88 47.68 47.40 48.23 47.51 48.67 47.46 44.33 42.28 44.92 44.14 49.96 49.07 47.43 45.20 46.49 40.19 32.06 36.64 41.03 45.03 41.92 43.39 43.16 42.19 38.75 34.38 26.93 32.28
46.70 47.41 48.97 50.41 51.02 51.81 51.57 46.90 41.02 48.05 49.81 44.16 41.14 40.42 41.10 42.51 48.74 48.12 49.70 48.56 48.97 46.21 43.46 45.60 44.59 45.31 49.55 50.18 48.29 45.90 47.90 43.16 37.92 31.78 36.91 41.66 39.96 42.28 43.02 40.47 30.57 33.19 34.03 37.90
46.25 47.18 46.10 50.21 50.90 51.37 50.80 46.43 42.71 47.79 42.24 43.19 42.46 42.61 42.42 42.52 43.16 48.89 49.86 47.35 46.89 45.07 40.82 42.38 43.77 46.30 46.99 49.12 46.92 47.18 45.44 38.43 40.15 40.96 42.50 43.11 42.85 42.23 42.46 41.61 40.06 33.93 37.75 39.65
46.35 46.52 44.22 49.69 50.49 50.83 47.46 44.22 44.70 48.17 46.29 46.93 44.42 42.12 41.02 41.96 45.32 46.97 46.03 45.10 47.23 46.45 42.83 43.64 41.70 46.28 45.76 44.33 46.16 44.56 46.03 38.50 39.62 37.77 43.15 42.02 39.13 41.77 41.57 41.28 41.55 39.90 39.64 39.12
45.72 45.82 43.72 49.49 50.16 50.26 43.99 48.36 48.29 48.37 44.37 44.77 43.08 42.27 42.90 44.09 47.32 48.86 50.09 47.40 46.72 45.12 46.72 49.01 48.59 50.05 49.55 48.46 45.62 43.11 43.43 40.40 35.03 32.10 37.39 36.92 29.68 37.82 40.08 41.25 42.04 40.45 36.04 40.65
45.31 44.99 43.31 48.99 50.06 50.03 48.42 48.70 49.44 46.69 40.18 44.25 43.48 44.34 45.20 45.82 47.05 47.40 49.82 48.92 46.84 50.16 53.20 52.16 50.18 48.26 47.73 50.09 47.70 48.42 42.95 40.73 35.37 29.53 29.90 21.92 38.18 44.41 42.81 41.25 41.61 41.15 41.54 42.20
45.54 44.36 46.31 48.80 49.69 50.21 46.67 49.63 50.09 46.59 35.25 45.04 45.14 44.56 44.88 46.52 48.50 48.36 49.14 51.13 52.95 52.99 50.59 44.29 40.06 38.34 37.24 41.93 46.76 45.77 46.64 38.99 32.34 27.18 27.52 35.14 39.36 41.57 40.15 38.43 37.69 42.28 41.29 43.09
45.82 47.29 48.11 48.79 49.33 50.02 47.75 46.01 49.13 49.32 42.76 43.92 47.98 44.70 46.26 44.49 45.81 46.63 48.40 52.33 53.85 51.97 47.45 40.47 33.38 31.70 37.85 37.92 40.63 44.75 44.77 42.54 32.55 28.77 25.07 21.37 36.71 42.19 45.05 43.29 31.15 43.34 43.13 42.61
47.06 47.33 47.90 48.81 49.15 49.41 48.14 46.19 48.78 48.13 46.70 47.64 48.60 44.39 44.05 49.08 47.31 44.64 47.21 48.10 48.33 50.60 35.96 33.44 31.65 31.55 42.28 34.16 34.22 32.29 30.92 31.31 28.05 24.83 25.41 31.63 43.74 44.23 45.25 30.69 32.78 43.74 44.46 44.93
46.92 47.63 48.32 48.37 48.73 49.09 48.22 45.27 49.62 49.45 47.57 48.86 51.81 50.11 48.43 50.01 49.39 42.88 46.82 45.32 47.45 45.28 35.04 34.68 32.75 30.51 37.03 36.73 42.54 36.79 33.70 30.53 27.98 31.28 30.55 26.69 46.05 42.92 36.27 41.45 43.83 44.77 44.97 45.36
47.00 47.84 47.77 47.96 48.47 49.00 48.20 44.11 51.02 52.70 47.84 49.30 54.82 53.28 53.74 53.33 53.01 50.57 47.63 45.71 47.26 47.32 40.36 38.16 38.02 35.46 34.81 35.42 30.76 43.68 34.69 39.88 34.92 35.76 34.82 43.55 45.40 44.71 45.46 45.36 43.93 44.65 44.37 45.38
47.16 47.43 47.20 47.37 47.59 48.37 47.96 45.88 50.88 50.72 46.86 50.11 52.92 49.99 52.87 55.52 55.14 55.91 47.41 48.62 50.37 49.61 50.21 44.62 40.83 34.91 38.43 32.89 34.77 38.89 42.89 45.75 39.53 39.42 43.01 43.15 45.15 46.53 47.02 46.62 45.22 45.89 46.24 46.03
47.18 47.00 46.63 47.09 47.75 48.14 47.98 45.25 49.21 50.55 49.32 40.21 48.54 55.42 51.84 54.29 55.95 55.79 56.71 54.57 54.50 52.69 49.42 40.07 36.64 35.11 44.66 37.20 41.60 39.51 42.50 43.32 41.49 40.21 42.66 44.67 44.86 45.18 46.18 46.80 46.82 42.36 40.99 41.98
47.17 46.90 46.47 47.16 47.95 48.61 48.73 48.21 48.89 50.97 49.00 42.18 45.49 51.54 52.84 54.19 54.46 54.60 56.05 54.15 52.48 48.32 39.46 35.63 37.64 42.86 41.39 41.33 40.94 38.22 43.21 41.99 35.27 33.86 43.61 42.99 42.73 44.65 45.25 42.72 41.67 40.33 38.44 37.25
46.88 46.90 47.05 47.72 48.13 48.64 47.94 44.37 50.05 50.81 52.23 47.06 37.64 48.53 48.68 51.79 53.00 52.13 53.55 53.56 52.64 48.68 42.88 37.67 42.95 45.91 40.89 33.62 32.29 42.68 44.67 45.52 45.66 43.12 45.27 43.12 41.18 41.53 42.20 40.23 39.46 39.32 38.34 38.28
46.90 47.20 47.63 47.99 48.03 48.65 46.72 46.17 49.90 49.89 52.08 44.81 36.75 39.33 46.83 50.10 50.56 48.40 49.14 49.78 47.37 47.47 42.97 39.04 41.20 42.58 41.95 35.42 33.14 42.59 44.52 45.16 45.68 46.30 43.97 39.97 40.34 37.56 39.13 39.17 38.92 39.19 38.18 37.72
46.97 47.18 47.60 47.78 48.39 48.60 48.72 50.28 48.72 48.85 50.36 45.56 34.75 36.19 41.90 48.33 43.04 40.67 45.91 44.55 43.55 42.76 42.36 40.92 35.50 40.10 35.37 33.68 41.48 43.57 44.00 43.49 41.97 42.16 43.11 40.45 40.42 40.03 38.93 38.26 36.94 35.29 34.76 35.54
47.60 47.62 47.80 48.31 47.53 46.48 49.45 49.13 47.26 50.93 46.70 34.92 33.23 36.01 34.74 46.10 42.35 42.54 41.00 42.47 35.28 42.40 34.74 38.55 39.27 35.96 32.81 39.74 40.99 41.81 42.16 40.85 40.04 41.21 40.58 39.59 38.20 38.22 36.40 36.18 35.26 34.36 34.14 32.98
47.62 47.80 47.69 41.82 46.63 48.03 47.96 46.56 41.84 38.68 39.17 39.23 35.84 38.76 36.75 43.38 37.95 36.20 35.79 35.82 34.21 32.93 35.94 42.02 34.69 33.89 39.72 40.28 40.95 42.06 43.01 41.74 40.99 37.09 35.56 36.29 36.53 35.38 35.84 34.75 34.70 33.20 32.11 31.29
49.25 45.03 39.47 46.37 47.75 48.10 41.11 34.56 34.92 36.38 32.76 35.32 39.97 39.06 37.71 42.97 35.53 33.63 34.92 33.48 33.45 31.96 33.57 34.22 33.51 32.16 37.84 41.83 40.88 41.68 42.28 42.53 41.95 40.74 39.74 39.43 38.08 33.83 32.67 32.42 32.24 31.23 30.04 28.91
49.12 47.10 48.29 46.66 43.96 37.09 35.60 32.53 33.59 34.92 31.90 34.74 37.08 37.34 40.12 37.24 42.21 35.61 33.67 32.90 33.08 30.09 36.73 33.99 27.84 34.62 39.32 39.75 38.49 38.59 39.89 40.13 39.60 40.10 39.24 37.60 35.19 34.31 33.31 32.21 30.54 27.88 26.77 25.41
48.27 42.41 36.57 37.83 34.21 32.65 31.92 29.32 31.99 31.88 33.83 35.79 34.83 34.01 34.71 36.32 37.43 33.65 34.01 32.62 32.14 35.27 31.72 27.46 30.94 36.95 38.67 38.49 38.24 38.39 39.21 38.76 36.97 35.31 35.06 34.54 33.16 32.11 30.91 29.54 28.59 26.84 25.34 25.92
37.23 34.59 32.87 33.08 31.99 31.58 31.58 32.55 33.48 33.08 34.03 35.30 35.10 34.75 33.80 33.85 33.26 33.11 31.89 32.37 33.74 29.73 26.24 27.34 33.83 36.90 37.80 38.48 38.64 37.33 33.54 32.28 32.31 32.42 31.17 28.91 27.92 26.98 26.53 25.29 24.34 24.35 24.29 24.47
33.23 33.33 30.06 29.90 31.19 32.35 32.37 32.74 33.09 33.79 36.34 35.79 34.74 34.74 34.66 32.76 32.67 32.52 31.70 30.33 28.62 28.53 28.11 32.35 35.81 36.84 37.23 36.01 33.85 32.59 31.31 30.82 31.00 31.41 28.87 27.29 26.74 26.14 25.79 26.04 25.32 24.20 20.75 19.06
32.99 31.78 31.55 32.17 32.17 31.84 32.22 32.40 32.40 34.34 34.19 35.46 34.75 33.14 31.98 32.19 32.29 30.67 30.07 27.36 25.45 30.19 32.02 35.43 36.90 36.43 35.73 33.54 32.86 33.35 33.48 32.33 31.93 31.33 30.00 28.51 26.26 24.55 24.34 25.12 23.59 19.31 18.19 16.14
31.62 29.91 31.76 31.99 31.92 30.86 31.43 32.23 32.19 34.99 34.54 32.38 32.88 30.50 29.88 32.75 30.42 27.98 30.29 27.99 29.83 31.78 33.21 34.50 35.47 34.61 33.31 33.46 33.31 32.39 32.64 31.99 29.91 28.75 28.11 26.92 27.30 25.70 24.17 22.43 23.66 23.70 22.36 14.76

GFSNW_sfc_wetblb_063.txt.gz
Wetbulb
47.16 47.30 47.43 47.88 48.04 48.88 48.61 44.36 36.27 50.26 52.09 42.98 42.54 36.82 41.22 43.53 44.33 45.87 45.48 45.65 44.16 42.13 40.23 38.49 38.58 39.04 41.85 44.44 44.99 40.53 42.32 37.76 32.78 38.28 43.07 44.34 41.41 39.38 38.28 29.99 30.72 30.60 28.50 30.16
46.89 46.68 46.78 47.31 47.45 48.11 46.05 39.76 41.40 51.10 49.77 37.22 38.21 39.95 40.63 43.63 43.04 43.02 43.70 43.77 45.39 44.55 39.77 36.36 40.03 40.71 44.82 46.22 44.18 42.25 43.05 36.32 30.52 34.30 38.61 42.50 40.33 39.87 40.17 37.94 33.47 29.95 25.30 30.22
46.82 47.05 46.32 46.08 47.20 47.26 46.56 40.85 35.67 44.79 46.35 44.99 41.12 38.15 38.28 39.08 45.44 43.47 44.40 44.02 45.33 43.47 40.79 42.20 39.44 40.94 45.51 46.37 45.87 45.50 44.60 38.28 35.66 30.90 35.34 38.90 36.66 39.07 38.89 37.47 29.48 30.74 30.75 34.38
46.55 46.80 46.49 46.56 46.68 47.09 45.36 40.75 37.59 41.90 36.62 39.05 41.90 40.16 38.88 38.28 39.59 43.64 44.04 41.16 42.20 41.86 38.09 38.46 39.19 43.57 43.84 45.23 44.13 44.12 42.26 36.47 36.86 37.75 38.68 38.76 38.37 38.50 37.88 36.59 36.09 32.08 35.25 34.94
46.23 46.49 46.39 46.40 46.31 46.90 40.89 36.93 40.29 43.23 39.68 42.09 40.85 39.96 37.74 38.02 40.07 40.97 39.82 39.66 44.09 42.62 40.52 41.52 39.30 43.37 41.52 41.44 42.90 41.33 42.30 35.08 35.06 34.10 36.88 37.67 36.30 38.84 38.09 37.57 37.33 37.20 36.80 36.15
45.83 46.06 45.97 46.10 46.68 45.70 38.99 43.02 44.32 42.83 40.80 40.15 38.82 38.56 38.46 38.75 41.75 43.29 43.89 42.57 42.28 40.71 44.40 46.49 45.81 46.33 45.80 45.01 42.70 40.05 39.57 36.71 31.65 30.11 33.53 33.71 29.49 34.55 37.60 38.30 38.99 38.21 33.87 38.23
45.65 45.59 45.66 45.95 46.39 44.93 45.52 43.16 44.31 42.63 35.47 39.08 38.31 39.82 40.86 39.73 40.95 40.19 43.78 43.85 41.76 45.21 49.65 47.76 46.10 45.38 45.53 45.04 43.40 43.87 38.29 35.26 30.62 27.08 28.38 21.86 36.29 40.41 39.83 37.93 36.93 37.63 38.24 38.05
45.46 45.27 45.53 45.86 45.51 46.53 44.80 44.64 43.96 43.88 33.37 40.21 41.60 40.13 40.00 41.10 42.55 42.14 42.54 44.43 45.98 49.13 47.94 40.36 37.50 35.10 36.53 39.07 42.66 42.86 42.18 34.62 29.32 26.70 27.19 32.11 37.58 38.85 37.40 36.00 34.92 38.59 38.54 39.57
44.89 45.01 45.30 45.72 45.98 47.41 44.33 45.65 47.21 44.36 40.79 39.61 43.74 40.89 41.26 38.26 38.67 39.74 42.36 45.66 51.45 49.23 42.63 36.05 32.33 31.48 36.26 36.10 37.54 41.31 39.88 37.26 32.90 25.70 23.43 22.88 35.37 39.22 40.61 39.56 29.97 40.16 40.10 39.91
44.69 44.99 45.43 46.12 46.30 47.45 44.75 45.86 48.25 44.86 41.12 43.86 45.46 41.86 40.61 43.82 42.45 39.69 41.58 46.09 46.39 46.81 34.13 31.03 29.60 31.36 39.53 32.86 32.41 31.05 30.86 30.24 28.54 23.45 22.31 30.62 38.34 41.21 40.62 29.64 31.83 40.38 40.97 40.04
44.80 45.27 45.39 45.93 46.04 46.46 44.44 43.48 48.07 44.55 41.61 42.53 47.80 47.00 44.04 44.39 44.63 39.22 42.91 44.88 43.68 39.66 34.91 33.80 32.36 29.30 36.16 34.54 37.02 33.90 33.68 30.05 26.30 24.59 20.21 26.93 41.16 39.93 35.26 37.13 40.70 42.65 41.88 41.36
45.06 45.34 45.62 45.88 45.65 45.11 45.12 41.46 48.25 47.88 42.53 42.79 47.67 47.55 48.00 48.87 49.28 45.56 45.68 43.36 44.29 44.19 39.23 35.87 36.38 32.99 32.25 33.09 30.82 38.61 32.83 35.52 32.95 33.54 32.86 40.04 41.31 40.12 41.24 42.58 42.34 42.53 42.28 41.55
44.84 45.08 45.22 45.03 44.87 45.76 44.45 43.57 46.00 44.66 39.95 40.03 43.67 45.36 50.01 52.94 52.13 50.61 44.67 45.68 48.75 46.81 47.10 41.91 39.58 35.47 36.16 33.62 32.87 36.94 39.43 41.05 35.64 36.32 39.45 39.94 41.42 42.91 43.21 42.95 42.71 43.11 43.43 39.98
44.59 44.71 44.75 44.83 45.20 45.69 44.72 44.63 45.55 43.51 42.24 37.93 43.97 53.05 49.99 53.25 53.99 51.26 51.06 50.36 49.64 48.19 46.24 39.84 37.01 34.48 42.13 36.29 39.73 37.31 40.16 41.34 38.45 36.79 39.60 41.50 42.29 41.85 39.65 38.71 39.04 39.20 39.98 39.33
44.63 44.92 45.16 44.96 45.06 46.28 46.41 46.60 46.76 46.21 42.03 37.90 41.45 48.27 51.85 53.28 53.34 52.80 52.98 51.43 48.04 43.66 39.82 34.63 37.15 40.45 40.01 37.85 38.73 36.90 40.93 39.71 36.58 35.43 41.24 39.82 41.00 40.78 39.56 38.45 37.37 37.55 36.15 35.14
45.04 45.44 45.71 47.12 47.63 46.99 44.21 39.97 44.69 47.61 47.73 40.50 34.80 46.18 48.73 51.36 51.75 50.71 50.45 49.96 48.24 46.42 42.44 39.36 40.98 44.28 37.74 32.26 32.28 40.36 42.27 43.25 42.27 41.53 43.19 40.30 39.74 38.36 38.49 36.99 36.42 36.66 35.77 35.97
45.48 46.25 46.85 47.58 46.87 45.08 41.72 37.01 42.18 47.01 47.73 40.24 34.78 38.13 47.21 49.27 49.35 46.31 46.54 46.91 46.49 45.65 43.50 40.38 41.57 41.20 38.98 30.91 30.45 40.15 42.18 41.06 40.11 39.56 39.29 35.93 36.59 34.83 37.09 36.57 36.35 36.68 35.64 35.63
46.32 46.69 46.71 46.87 46.68 45.82 42.10 48.78 46.23 47.10 43.97 43.64 33.37 36.20 40.79 46.87 42.14 41.49 43.15 40.51 41.25 42.40 41.09 40.02 37.45 40.56 35.04 34.82 39.44 41.10 39.85 39.59 39.27 38.10 39.36 37.95 36.78 36.49 35.11 35.36 34.77 32.46 31.29 31.62
46.21 46.06 46.21 44.61 43.59 39.32 42.90 47.73 47.97 49.52 45.65 34.83 32.84 34.63 34.60 44.47 40.71 41.09 38.22 39.71 34.62 39.26 34.82 34.63 38.29 33.88 35.14 40.04 41.40 40.47 39.89 39.49 36.93 37.40 36.92 36.79 35.01 34.22 33.69 32.92 31.56 30.06 29.57 30.20
46.25 44.68 40.89 36.63 43.06 47.92 47.86 45.82 41.12 40.25 38.98 37.19 34.09 38.72 36.78 41.44 36.05 34.47 34.95 34.44 33.71 33.18 35.35 37.88 29.19 32.73 37.71 38.82 40.82 41.15 39.68 38.60 38.14 34.83 33.41 33.74 33.26 32.78 32.73 31.03 31.18 30.30 29.11 28.80
40.57 38.77 36.97 46.35 48.03 45.43 40.22 33.35 31.71 33.91 32.82 35.67 38.16 38.99 37.44 41.10 34.86 33.53 33.53 32.81 32.44 32.41 34.91 34.96 32.63 32.54 34.53 38.69 38.81 39.87 40.32 40.19 39.69 39.69 38.12 36.82 35.17 33.42 30.67 29.33 29.51 28.88 27.36 25.80
42.71 44.29 46.76 45.58 41.76 36.45 34.04 31.28 31.52 32.04 31.61 35.19 36.05 35.87 39.07 36.27 37.63 34.68 33.17 31.89 31.61 31.25 35.92 33.32 31.30 32.32 35.51 37.32 37.97 38.87 39.45 38.61 37.68 37.84 36.05 35.24 34.18 32.98 30.89 29.43 27.53 26.26 24.86 22.78
46.83 42.19 36.46 37.11 33.02 31.69 31.39 29.37 29.63 30.98 33.12 35.08 34.63 33.35 34.04 34.57 33.18 32.96 32.91 31.23 29.29 33.02 32.36 31.48 32.12 36.87 37.71 37.76 38.53 38.71 39.25 37.51 36.05 34.90 34.41 32.61 30.38 29.89 28.48 25.77 25.38 24.67 23.30 22.98
37.02 34.65 31.56 32.08 31.12 30.94 31.10 31.98 32.82 32.81 33.00 34.59 34.87 32.61 32.43 31.01 33.11 32.07 30.01 31.68 32.78 27.07 23.96 23.94 32.46 36.25 36.57 35.78 35.96 34.82 33.08 32.82 32.86 31.62 30.23 27.90 26.59 25.52 25.73 25.29 24.14 22.14 21.66 21.48
32.94 33.46 27.80 28.68 30.79 31.87 32.05 32.44 33.00 33.17 34.56 33.52 32.57 32.52 32.09 32.23 31.59 30.00 31.24 29.64 28.14 26.03 21.92 30.25 34.86 35.52 33.46 33.07 32.48 31.43 30.46 30.17 29.52 29.22 27.35 25.77 25.00 24.39 24.08 24.46 23.77 21.74 19.86 17.96
31.95 29.95 31.07 32.05 32.08 31.90 32.07 32.29 32.31 34.01 33.55 32.63 31.75 30.97 31.58 30.42 30.84 28.38 23.50 26.09 24.96 26.03 31.34 33.86 35.62 33.38 32.64 31.82 31.33 30.82 30.08 28.97 28.37 27.93 27.09 25.80 24.33 23.42 23.63 23.67 21.35 19.57 18.78 17.41
30.50 28.54 31.25 31.12 31.24 30.06 30.97 32.11 32.26 34.18 33.15 31.28 25.48 28.57 29.58 31.74 28.64 27.62 29.34 26.62 28.57 31.10 32.41 32.96 33.00 31.54 31.26 31.07 30.11 29.28 29.07 28.32 27.61 26.77 25.92 25.04 24.37 22.99 22.08 20.49 20.94 21.54 20.03 18.28

GFSNW_sfc_wetblb_066.txt.gz
Wetbulb
48.51 47.95 47.54 47.89 48.17 48.29 46.46 42.15 34.26 45.36 51.23 40.17 41.82 38.54 38.55 42.16 43.71 46.11 43.89 43.14 42.84 41.43 38.70 36.56 36.80 37.67 40.57 43.07 42.59 38.84 40.84 36.15 31.02 36.57 40.24 41.64 39.69 38.42 37.06 30.20 29.63 29.44 27.26 28.68
48.30 47.62 47.44 47.78 47.69 48.17 43.67 38.47 39.50 49.51 47.70 33.57 36.35 40.97 41.10 41.76 42.26 41.94 41.75 41.64 43.49 43.59 39.33 34.35 38.06 39.01 43.08 43.21 41.99 40.16 41.46 34.31 28.84 32.37 36.24 39.50 38.14 38.91 38.28 35.62 32.26 29.90 25.13 29.79
48.37 47.52 47.31 47.41 47.60 48.07 44.84 38.93 33.47 42.15 43.82 41.60 37.43 38.48 38.80 37.57 43.69 42.23 42.71 42.41 43.62 42.04 40.02 40.83 37.41 38.88 43.38 44.45 43.55 44.77 44.14 36.69 33.56 30.12 33.21 36.90 34.85 37.63 37.86 36.78 28.42 30.22 29.68 33.35
48.02 47.32 47.24 47.35 47.35 47.60 43.19 39.99 36.27 41.08 35.11 35.98 37.79 39.16 39.03 37.44 37.18 42.63 43.12 40.83 41.65 41.05 37.90 37.83 37.62 41.74 42.88 43.61 44.41 42.13 41.49 35.00 35.42 35.95 37.11 37.36 36.85 36.81 36.08 35.05 34.52 31.45 34.16 33.32
47.71 47.20 47.12 47.06 47.08 47.32 39.81 34.04 37.01 40.77 37.31 39.75 37.61 39.41 37.48 37.56 38.68 40.19 38.81 38.67 40.96 41.91 38.94 40.42 37.85 42.17 40.51 40.90 41.27 40.13 39.97 34.80 34.23 33.20 35.24 36.39 34.43 37.56 36.38 36.85 36.38 35.13 35.07 34.69
47.24 46.94 46.60 46.41 46.79 46.28 38.69 39.07 39.81 38.31 38.88 38.35 35.98 35.66 37.93 38.04 40.34 41.65 42.93 41.96 40.89 40.33 41.33 44.40 45.15 45.10 44.40 42.73 40.51 38.75 37.95 35.34 31.34 30.27 32.76 33.33 29.61 34.14 37.11 37.30 37.27 37.27 33.00 37.15
47.17 46.54 46.29 46.06 46.45 45.50 38.45 39.44 40.70 37.56 34.39 37.79 36.74 36.67 39.84 39.04 40.06 38.61 42.65 43.50 41.34 43.38 48.48 47.82 46.14 43.25 43.42 43.23 41.26 41.84 36.70 34.51 30.98 28.25 27.89 21.18 35.33 38.32 38.27 37.16 37.30 37.24 36.47 37.25
47.01 46.22 46.05 45.81 45.53 46.19 39.79 41.17 39.31 40.15 33.53 38.36 38.96 38.52 38.90 41.13 41.28 40.32 41.96 43.75 45.14 47.18 46.71 41.16 37.37 34.94 34.79 36.81 41.18 40.70 40.49 33.98 29.13 28.48 26.91 31.14 35.34 37.68 36.69 35.25 35.29 37.62 36.88 38.06
46.50 46.06 45.90 45.79 45.52 46.27 41.27 41.59 45.38 42.48 38.49 35.33 41.17 39.97 39.59 37.28 37.01 37.22 39.74 45.29 47.23 47.01 41.01 35.98 32.57 31.05 34.89 35.17 36.95 40.18 38.55 36.39 32.29 25.76 23.54 22.82 33.87 38.41 39.23 37.84 30.58 38.96 39.28 39.24
46.10 45.78 45.76 45.62 45.63 46.28 41.98 40.31 42.96 40.04 36.51 43.51 42.76 38.76 38.43 41.71 38.72 35.14 38.53 42.04 43.94 45.67 29.75 26.49 31.27 32.99 37.80 32.14 33.11 32.65 31.69 29.66 27.68 22.54 22.56 30.24 38.05 39.18 38.83 29.69 31.43 38.00 39.80 39.62
45.89 45.61 45.45 45.41 45.44 46.06 43.42 40.82 43.54 41.15 38.89 41.19 45.25 44.72 41.26 41.78 41.09 35.49 38.84 41.61 41.24 36.42 32.90 30.14 30.53 28.88 35.20 33.38 37.18 35.29 35.09 31.30 26.09 24.49 22.17 27.60 40.13 38.73 34.18 36.95 38.33 39.78 39.43 39.86
45.45 45.16 45.22 45.29 45.52 45.55 44.91 40.26 44.06 48.10 42.39 41.48 45.43 44.52 45.16 45.82 45.11 42.30 43.92 41.08 41.66 41.95 37.51 33.84 33.97 31.76 32.48 34.12 31.55 37.87 34.47 37.88 34.36 34.61 34.24 40.59 39.77 39.28 39.39 40.26 40.76 41.49 41.19 39.89
44.96 44.76 45.14 45.33 45.31 45.29 44.74 42.10 43.95 44.76 40.08 40.34 42.08 41.79 46.31 48.37 48.59 49.02 43.06 42.80 46.27 43.91 45.48 40.07 39.33 34.14 36.28 31.97 32.84 36.79 38.44 40.02 35.12 35.89 38.79 39.40 40.56 41.25 41.04 42.15 41.72 42.05 41.28 38.37
44.27 44.88 44.83 45.09 45.40 45.92 44.53 41.46 45.56 43.77 41.33 34.96 41.45 51.33 49.12 51.64 51.41 50.06 47.84 48.41 47.38 45.75 44.15 37.95 36.94 35.36 40.85 35.29 39.11 37.17 39.31 41.26 37.21 35.45 39.65 40.65 41.55 41.58 40.89 39.74 41.05 40.48 38.31 37.01
44.83 44.64 44.93 45.29 45.99 45.83 44.08 44.63 45.76 45.85 41.98 36.09 38.37 44.94 49.56 50.95 51.00 50.81 48.63 48.43 45.01 41.91 38.43 34.06 36.62 40.31 39.97 37.58 38.01 35.49 40.65 39.19 36.46 35.81 41.84 41.15 40.28 40.65 39.49 38.99 38.51 38.14 35.77 34.51
44.64 45.03 45.14 45.10 45.48 45.31 43.86 40.07 45.60 46.75 46.52 38.46 32.84 44.93 48.17 51.26 51.28 49.98 47.08 47.97 46.48 44.20 40.66 36.76 41.17 43.38 40.24 33.15 31.73 40.15 42.17 42.57 42.62 41.88 43.33 39.76 39.01 37.46 38.03 36.76 35.97 36.12 35.62 35.18
44.47 44.72 44.77 45.08 45.39 44.44 40.77 38.24 42.32 47.52 46.50 38.25 32.88 36.14 46.27 49.03 49.18 46.17 45.15 44.04 43.58 43.68 41.24 37.11 40.38 41.04 38.49 29.92 30.54 39.43 40.50 40.38 40.83 40.06 40.13 36.94 37.27 36.15 36.23 35.73 35.49 36.09 35.13 35.01
44.71 44.94 44.86 45.00 45.59 45.66 41.68 46.76 47.35 46.26 43.70 41.51 32.05 35.17 40.30 46.81 42.33 41.26 42.97 39.56 40.46 41.11 40.73 38.52 35.37 39.79 36.09 34.25 38.74 39.93 38.91 38.94 37.77 37.29 38.16 37.89 35.99 35.16 33.95 34.55 34.36 32.73 31.58 31.43
45.57 45.52 46.29 45.15 42.70 38.46 41.09 46.45 46.85 47.79 43.09 33.79 32.61 33.51 34.03 44.07 41.22 40.47 39.38 39.94 34.77 39.54 35.69 35.87 39.33 33.33 33.78 39.45 40.37 38.98 39.03 39.56 36.46 37.19 36.84 36.21 33.52 32.87 32.58 32.97 31.87 30.31 29.66 30.57
45.81 44.28 39.76 33.51 38.01 46.61 46.80 44.96 40.28 40.31 40.17 37.16 33.51 38.64 35.89 40.81 36.00 34.59 35.43 34.41 34.22 33.32 35.52 39.74 33.71 34.79 37.79 38.68 40.52 41.25 40.41 38.49 37.59 34.25 32.77 32.50 32.25 31.97 31.86 31.48 32.01 31.01 30.14 29.44
39.01 37.43 36.76 41.98 47.32 44.73 39.41 32.38 32.94 33.68 32.59 35.28 36.00 38.76 37.00 40.45 34.69 32.97 34.21 32.59 31.84 32.02 33.24 34.59 33.09 33.12 35.18 38.29 39.11 39.77 38.97 38.43 38.60 38.03 36.62 36.03 34.43 32.37 29.70 29.28 29.54 29.88 28.95 27.17
39.99 41.98 45.55 43.88 40.97 34.77 31.69 31.79 31.04 31.39 31.18 34.89 35.82 36.67 38.95 36.04 39.00 33.85 32.93 32.70 32.10 30.80 35.92 33.62 31.34 32.78 35.33 36.48 36.65 37.08 37.18 37.04 36.21 36.48 35.27 34.66 32.68 31.87 30.65 29.26 28.40 27.12 25.50 24.38
43.86 41.55 38.42 36.22 32.77 31.13 29.14 28.12 26.73 30.56 32.91 34.69 34.60 33.33 34.51 34.75 36.02 32.77 33.12 31.34 29.98 33.23 32.44 31.62 30.63 35.87 37.41 37.10 37.08 36.90 37.26 36.17 35.38 34.52 33.89 32.35 30.97 30.77 28.70 26.08 25.24 24.89 23.95 23.41
35.30 33.48 30.98 31.46 30.53 31.25 31.39 31.76 32.55 32.59 32.59 33.68 34.01 32.74 33.59 32.40 32.70 32.38 31.39 31.32 32.25 28.19 26.17 26.60 29.70 35.32 35.42 36.90 35.89 34.61 32.93 32.15 31.40 30.62 30.31 29.08 27.76 25.98 25.42 24.37 24.05 23.41 22.25 22.19
31.64 31.74 27.42 28.48 30.72 31.99 31.99 32.20 32.93 32.74 34.18 33.32 33.08 32.31 32.85 31.55 31.13 30.82 31.51 29.56 25.50 23.62 21.51 29.16 32.87 33.56 33.16 32.49 32.64 31.98 30.95 30.16 28.99 28.13 26.18 25.47 24.90 23.76 23.15 23.28 23.15 22.06 20.53 19.23
31.45 29.69 30.77 31.82 31.93 31.08 31.45 32.26 32.08 33.63 32.96 32.85 33.05 30.95 30.53 29.54 29.85 24.73 24.41 20.24 18.07 27.17 30.72 32.93 33.10 31.85 31.41 30.96 30.70 30.14 29.68 28.64 27.61 26.98 26.30 25.63 24.71 23.56 22.00 21.53 20.63 19.71 18.93 17.80
29.94 28.06 30.69 30.90 30.71 29.62 30.54 31.39 31.03 33.94 33.27 30.33 27.55 28.96 29.01 31.17 28.25 27.31 28.56 25.63 28.61 30.30 30.65 31.44 31.74 30.28 29.01 29.08 28.93 28.76 28.46 27.46 26.64 25.73 25.04 24.22 23.72 22.37 21.22 19.55 20.56 20.89 19.89 19.11

GFSNW_sfc_wetblb_069.txt.gz
Wetbulb
48.83 49.00 49.33 48.80 48.14 47.87 46.58 41.33 32.31 46.15 49.76 37.89 39.07 35.29 39.14 42.20 43.01 46.14 44.71 44.28 43.15 42.33 40.12 38.30 38.46 39.29 42.50 43.89 43.91 41.31 44.17 40.62 35.86 40.08 44.05 44.95 43.74 42.66 41.83 37.21 34.31 34.44 34.18 35.39
48.57 48.76 49.12 48.73 47.82 47.85 42.94 37.30 36.94 46.75 45.68 31.75 34.12 37.99 39.34 41.88 41.19 42.55 42.42 41.68 43.66 45.61 42.35 37.05 39.59 40.80 44.86 43.26 44.05 42.76 43.49 38.44 34.33 36.35 40.14 43.58 42.41 41.83 41.17 39.25 37.61 34.70 34.43 37.04
48.71 48.73 48.98 48.37 47.83 47.96 43.81 37.74 31.25 39.16 41.42 40.03 36.28 35.83 36.40 37.61 43.11 42.56 43.74 42.78 44.23 43.28 41.67 43.01 40.02 40.15 44.50 44.18 44.90 44.69 45.66 39.65 37.81 34.33 37.61 40.93 38.90 40.60 40.80 41.12 35.71 36.92 36.53 40.03
48.55 48.45 49.13 48.16 47.56 47.43 42.97 38.43 35.10 38.26 32.30 33.67 35.79 37.45 37.51 36.41 37.19 42.57 43.53 41.14 42.22 41.70 38.56 40.44 39.56 42.97 44.67 45.27 45.05 44.87 45.49 39.01 38.85 39.02 39.25 40.27 40.60 40.40 39.58 39.41 40.48 37.67 40.44 37.63
48.30 48.27 48.90 47.60 47.56 47.50 40.81 34.86 36.01 38.47 37.94 37.20 34.80 36.79 35.96 36.76 38.72 39.89 39.21 39.51 41.26 42.21 40.49 42.03 39.48 42.44 43.28 43.18 43.39 43.09 43.02 39.30 38.49 37.40 38.61 39.41 38.55 40.07 39.56 39.50 39.30 39.60 39.02 38.78
48.37 48.08 48.37 47.45 47.26 46.64 39.91 40.28 39.97 37.52 36.79 36.32 33.31 33.08 35.98 38.19 40.70 41.88 42.89 42.07 41.51 40.28 42.15 45.34 45.43 46.41 46.27 46.14 44.75 41.52 40.43 38.40 36.36 34.32 36.38 37.53 33.33 38.18 39.89 40.49 41.24 41.76 38.10 43.28
48.38 47.82 47.69 47.04 46.84 45.74 42.92 40.76 40.34 36.50 31.88 36.03 34.79 35.05 37.45 38.03 40.39 38.90 42.97 43.81 41.55 44.41 48.90 47.74 47.05 45.65 44.65 44.54 43.53 44.85 39.39 38.25 35.73 33.21 32.03 28.81 40.79 42.05 42.27 41.20 41.86 42.01 41.21 42.09
48.24 47.74 47.17 46.73 46.38 46.46 41.16 40.89 38.69 38.07 32.52 36.62 37.37 37.13 35.91 40.39 42.10 40.44 41.64 44.40 46.58 48.17 46.67 39.91 36.06 36.74 38.55 40.09 42.03 42.11 42.54 37.66 33.04 32.72 32.26 35.63 38.40 40.15 40.75 39.71 40.55 43.00 42.16 42.41
47.80 47.55 46.87 46.46 46.29 46.73 42.50 40.87 42.59 40.64 36.04 35.49 40.22 38.73 37.78 36.36 38.11 38.64 41.09 45.83 48.33 47.31 41.05 36.85 32.22 30.10 36.52 37.34 37.92 40.81 39.08 38.94 38.31 30.37 31.03 28.99 38.34 41.75 42.92 43.06 36.21 43.73 42.90 42.91
47.44 47.35 46.55 46.25 46.26 46.52 42.54 39.89 43.39 40.88 37.51 39.75 40.94 38.38 37.88 40.38 39.95 37.48 39.60 42.09 44.30 46.90 34.68 33.07 32.59 34.35 40.65 36.00 34.46 34.57 34.66 33.79 33.99 29.78 33.03 35.00 40.56 41.83 42.96 36.72 39.62 43.04 43.55 44.22
47.33 46.71 46.34 46.23 46.40 46.51 42.93 39.97 43.30 40.43 36.81 39.41 41.71 43.78 41.53 41.28 41.28 36.37 39.37 40.72 41.68 39.29 34.79 33.61 34.19 33.70 37.84 37.47 39.13 37.04 36.42 34.15 33.44 31.81 31.94 32.10 42.64 40.84 38.78 44.00 42.61 43.20 43.71 44.44
46.70 46.39 46.15 45.99 46.10 46.49 44.66 38.27 43.16 43.98 39.05 39.84 44.98 44.84 45.21 45.61 46.27 42.56 43.31 41.01 41.27 42.11 38.76 36.44 36.52 34.64 34.39 37.76 34.85 40.06 36.63 39.57 37.39 38.09 39.22 44.83 43.29 45.62 44.69 44.37 45.13 44.26 44.60 43.78
46.36 46.15 46.01 46.04 46.00 46.27 44.21 40.59 41.93 40.66 37.86 36.47 39.62 40.31 46.76 47.63 47.24 49.63 42.02 43.23 46.07 44.23 46.46 41.33 41.07 35.93 38.70 34.85 36.13 39.48 40.26 41.98 40.00 40.68 42.75 42.48 43.27 44.16 45.37 44.45 45.29 44.86 45.22 42.43
45.97 45.83 45.88 45.66 45.63 46.15 44.21 40.57 42.54 41.47 40.99 33.28 38.08 48.77 43.76 50.54 49.68 48.72 49.49 47.96 48.32 47.45 46.43 40.29 37.00 37.91 42.32 38.78 42.01 40.89 41.78 42.16 39.68 39.86 41.78 43.33 44.46 44.92 45.08 44.22 44.61 42.42 40.97 40.75
45.79 45.76 45.74 45.74 45.85 45.57 43.68 43.84 44.01 43.78 41.21 35.06 36.62 43.56 46.95 51.19 49.81 49.32 49.85 49.14 46.85 45.32 40.66 35.74 39.91 42.12 41.61 40.38 40.70 38.96 42.81 41.33 39.38 39.24 43.93 44.61 45.31 46.27 44.88 43.43 43.21 40.95 38.49 37.01
45.14 45.25 45.15 44.84 44.96 44.58 41.29 36.70 43.29 44.34 44.57 38.01 32.30 43.98 44.26 50.46 50.64 49.54 48.49 48.54 47.45 46.06 42.78 39.85 43.14 44.40 42.58 37.18 38.47 42.71 44.03 44.73 44.75 44.81 45.12 42.10 40.39 39.90 41.85 42.11 40.92 39.17 38.51 37.49
44.50 44.51 44.91 44.89 44.85 42.92 39.22 37.69 42.42 45.22 46.05 38.22 32.50 34.23 44.91 49.21 48.58 47.25 45.89 46.00 45.51 46.39 43.14 40.37 42.61 42.84 41.79 35.49 37.31 42.08 42.39 42.28 42.86 41.88 41.57 40.23 39.90 39.96 38.89 38.73 37.87 37.50 36.84 36.70
44.77 44.77 45.21 44.97 44.61 45.02 42.43 46.20 46.54 46.30 42.65 41.18 31.68 34.05 39.43 47.18 42.25 40.98 44.56 42.00 42.63 42.50 42.11 40.78 41.09 41.22 37.73 36.96 40.31 40.88 39.92 39.78 39.74 39.12 39.38 40.46 37.46 36.71 35.78 36.52 36.22 34.39 33.34 33.45
44.80 44.70 44.71 43.44 42.24 38.73 41.20 46.75 46.98 47.54 42.74 33.72 32.51 31.76 34.51 44.24 41.47 41.08 39.25 41.45 36.14 40.60 37.23 38.58 41.63 36.85 36.51 40.93 41.66 40.05 39.97 40.63 38.99 37.34 36.95 37.07 36.52 35.08 35.00 34.93 34.39 32.75 32.26 32.67
44.51 41.96 38.61 33.84 40.84 46.46 46.71 43.51 39.07 39.42 40.49 37.95 33.24 38.14 35.74 41.03 38.07 35.78 37.18 35.20 34.29 33.96 37.17 40.92 37.21 35.97 39.79 41.19 42.83 43.62 42.66 39.83 38.06 34.67 33.28 33.89 33.70 33.85 34.31 35.04 34.44 33.46 32.31 30.20
41.76 38.55 35.94 41.78 46.23 42.04 38.12 32.84 32.32 33.93 32.12 35.52 36.91 38.93 37.18 39.99 35.50 33.77 34.44 32.68 32.86 33.42 36.21 37.26 34.85 34.76 37.44 39.11 40.41 40.99 39.93 39.33 38.86 38.59 38.11 38.30 36.67 34.10 31.91 31.53 31.81 31.58 30.30 28.55
40.35 41.75 44.84 44.02 39.94 35.22 32.33 31.14 31.74 32.60 32.19 35.33 35.67 37.28 38.78 36.12 39.03 35.22 33.24 32.65 32.33 32.13 36.41 34.48 32.94 34.61 36.72 37.73 37.12 37.47 38.29 37.83 36.99 37.33 35.45 34.44 33.12 32.97 31.53 30.22 28.77 28.08 27.30 26.71
43.14 38.75 35.05 33.93 32.69 29.90 28.22 25.81 28.83 30.78 33.19 34.91 35.03 33.58 35.38 34.79 35.97 32.69 32.33 31.76 31.35 34.94 32.84 32.97 32.33 36.25 37.30 36.82 36.23 35.68 36.11 35.65 34.21 32.85 32.57 31.71 30.62 30.33 28.89 26.86 27.06 27.26 26.23 25.90
33.45 32.51 30.94 31.88 30.31 31.53 31.90 29.65 31.66 33.19 33.42 34.13 34.46 32.69 33.96 33.06 32.87 32.33 31.76 31.58 32.23 30.31 29.44 28.77 33.03 33.93 34.73 35.04 34.99 33.70 31.67 31.32 30.76 29.93 29.09 27.77 26.34 25.12 25.60 25.69 25.46 24.83 23.82 23.76
31.15 32.10 28.24 28.73 30.96 31.86 32.10 32.69 33.42 33.01 34.22 34.05 33.03 33.69 34.56 31.94 31.18 31.53 32.09 30.51 27.87 28.28 27.08 30.30 32.09 32.67 32.43 31.86 31.31 30.17 28.96 28.10 27.31 26.94 25.35 24.60 24.60 23.96 23.92 24.50 24.35 23.09 21.91 21.01
31.49 29.24 29.41 31.32 31.73 30.51 31.13 32.09 31.76 33.33 33.19 32.95 33.81 32.30 31.31 30.34 29.68 28.81 27.23 25.70 24.64 27.76 30.46 31.91 31.57 30.05 29.54 28.97 28.86 28.25 28.08 27.33 26.61 26.30 25.66 24.78 23.45 22.40 21.80 21.87 21.23 21.02 20.67 19.84
29.49 27.39 29.19 28.30 29.41 27.80 28.94 30.24 29.62 32.74 33.03 30.78 31.86 30.03 29.39 31.92 28.66 26.27 28.03 25.42 27.31 29.77 29.72 30.21 29.87 28.54 28.34 28.39 27.94 27.18 26.70 25.94 25.61 25.12 24.33 23.37 22.84 22.67 21.95 20.23 21.05 21.39 20.83 20.74

GFSNW_sfc_wetblb_072.txt.gz
Wetbulb
49.31 49.22 49.19 48.96 49.30 48.90 46.92 41.91 32.97 47.07 50.48 34.62 37.38 34.37 39.29 42.42 43.29 48.19 46.25 46.21 45.80 44.18 43.09 42.19 41.93 42.29 44.99 48.99 49.34 45.38 48.59 45.74 40.95 43.29 48.44 49.67 49.05 46.63 46.71 40.32 38.77 41.28 39.90 39.61
48.95 49.14 48.93 48.77 49.03 48.58 44.15 37.37 37.72 48.40 47.35 29.98 32.31 38.68 39.32 42.35 42.94 43.56 44.80 44.31 45.40 46.75 44.59 40.67 43.76 44.10 48.22 48.53 48.56 46.83 48.12 43.81 38.85 40.18 44.09 46.90 45.53 47.04 47.38 46.20 44.46 40.15 38.10 40.18
48.99 49.12 48.90 48.74 48.78 48.66 44.70 38.25 31.51 39.28 40.44 41.34 36.34 35.87 37.38 37.70 43.57 43.94 45.43 45.18 46.37 44.62 42.59 45.97 42.33 42.56 45.40 47.92 49.01 47.38 48.70 45.74 42.16 38.12 41.08 44.50 42.59 44.37 45.96 45.09 40.88 40.44 41.33 43.17
48.75 49.04 49.10 48.70 48.89 48.12 43.72 39.63 35.38 39.11 31.30 33.59 37.46 38.29 38.06 36.82 37.62 43.03 45.24 43.82 44.73 44.16 40.53 42.29 41.92 43.25 45.28 45.52 45.40 48.15 48.66 42.53 44.45 44.42 44.74 44.66 43.92 43.55 44.63 43.24 43.86 40.76 43.31 43.75
48.18 48.78 48.79 48.42 48.69 47.85 40.85 35.17 37.98 40.60 38.86 39.22 36.10 36.73 35.44 36.56 39.20 41.05 39.95 41.12 44.21 45.58 42.71 42.92 40.40 43.40 44.12 45.00 47.01 47.15 48.56 43.06 44.68 42.31 44.64 44.29 42.58 44.44 44.91 45.31 45.36 45.37 45.55 44.73
48.05 48.31 48.56 48.28 48.52 46.67 39.20 43.91 44.18 41.86 37.89 37.94 34.19 34.10 36.26 37.93 41.14 43.10 43.87 43.77 43.07 42.96 44.62 47.48 47.10 47.54 47.77 47.63 46.36 45.65 45.42 44.45 41.93 38.19 42.91 42.27 37.40 43.06 44.70 45.72 46.88 46.57 43.02 47.05
48.33 48.46 48.33 47.93 48.25 46.45 43.29 42.59 43.70 38.99 34.35 37.31 35.99 36.91 37.57 38.02 40.73 40.01 43.79 45.46 44.20 47.10 50.63 49.11 47.34 46.99 45.70 46.40 46.99 49.05 45.08 44.55 43.88 38.73 37.03 32.94 43.49 47.58 48.42 46.54 47.43 48.86 48.15 49.09
47.56 47.89 48.22 47.66 47.98 46.99 43.68 45.23 44.07 39.67 35.67 38.07 37.76 37.35 37.55 38.71 40.78 41.64 42.90 45.65 48.27 50.64 47.01 41.57 37.98 37.60 39.26 41.34 44.66 47.05 48.96 45.82 40.67 38.54 37.32 41.72 42.24 42.48 45.09 44.56 44.83 49.44 48.62 49.05
47.00 47.43 47.93 47.41 47.73 46.90 44.97 45.75 48.48 44.05 38.77 36.52 40.56 38.49 38.74 37.30 38.42 40.15 43.88 48.92 51.72 50.12 44.50 40.77 33.99 32.10 35.98 38.09 41.42 45.03 45.75 46.21 43.92 37.60 38.23 34.43 42.92 47.68 49.67 48.62 41.32 50.20 49.79 49.13
46.69 47.33 47.90 47.59 47.39 46.68 45.04 45.41 49.74 44.47 38.93 42.31 42.40 38.94 38.44 41.77 41.18 40.71 42.80 45.38 45.83 49.64 43.61 36.74 37.05 35.22 40.29 35.30 37.66 37.80 38.85 40.06 39.17 39.44 39.44 42.06 46.59 46.06 48.75 39.61 42.96 49.89 50.01 49.77
46.58 46.69 47.32 47.45 47.19 46.56 44.97 44.58 49.23 45.12 40.70 42.36 44.20 44.91 41.96 42.72 42.69 40.06 43.59 43.40 44.90 44.55 40.03 38.28 40.04 39.49 41.30 39.80 41.48 40.91 40.08 39.33 38.46 40.44 37.08 35.92 46.22 44.80 43.87 49.78 49.92 50.64 49.96 50.75
46.22 46.64 47.02 47.24 46.96 46.26 46.04 41.57 47.81 47.84 42.68 41.95 45.87 45.44 47.10 45.11 47.12 46.08 46.72 44.45 45.04 46.15 42.64 44.15 43.63 41.05 42.43 41.78 36.89 45.27 39.76 44.30 43.03 43.13 44.11 50.99 48.87 51.05 51.49 51.77 51.67 50.10 50.91 51.06
45.92 46.82 47.21 47.07 46.77 46.33 45.46 43.36 44.84 45.01 39.54 40.79 40.60 41.54 44.82 46.48 47.90 51.37 44.42 47.18 48.09 47.59 51.02 46.93 46.45 42.35 44.71 39.29 40.64 43.06 45.37 46.23 44.51 44.67 48.74 49.14 50.50 51.01 49.07 49.77 49.38 50.42 50.89 51.24
46.19 46.82 46.81 46.58 46.35 46.14 45.05 42.56 44.78 42.99 40.27 35.32 38.52 46.09 45.18 49.69 49.73 50.03 50.78 49.89 52.46 51.45 50.82 48.47 44.14 43.52 47.45 44.11 44.62 44.39 47.39 47.22 45.59 46.80 49.17 47.51 49.18 50.32 51.46 50.40 50.73 49.56 49.26 50.21
46.61 46.60 46.40 46.37 46.49 45.39 45.00 46.32 45.67 45.42 40.97 35.37 36.60 42.66 45.29 45.79 47.11 48.20 50.28 50.70 50.44 50.17 46.40 39.96 42.86 47.50 47.50 47.88 46.86 45.33 48.04 47.16 44.79 44.30 50.44 49.57 51.25 52.73 52.04 50.74 49.99 50.09 48.04 46.95
46.26 46.37 46.26 46.08 45.49 44.59 42.82 37.64 44.49 46.53 46.62 38.79 34.39 44.08 42.38 43.34 47.16 48.46 48.55 49.49 49.98 50.01 47.68 47.41 48.11 48.96 48.12 43.68 43.35 48.26 50.39 51.33 51.73 49.59 48.32 48.93 47.07 45.97 45.83 49.34 50.88 50.19 48.28 47.62
45.64 45.68 45.91 45.36 44.43 44.24 39.89 37.85 43.69 45.82 47.07 37.60 33.96 36.50 43.23 44.25 45.28 48.39 48.62 49.24 49.65 49.59 48.63 46.33 48.12 48.23 47.26 42.34 41.63 48.08 50.28 50.67 48.73 47.41 46.36 47.85 46.30 47.13 44.65 45.62 45.88 44.83 45.51 44.83
45.44 45.23 44.17 44.11 44.47 44.15 42.50 48.18 45.68 46.45 40.97 39.58 33.66 34.47 36.60 47.24 43.70 42.33 49.35 46.64 48.35 46.15 46.17 44.82 45.49 44.81 44.17 41.95 46.89 49.20 48.77 47.06 46.44 46.34 46.70 46.59 44.05 42.85 42.62 43.37 42.42 41.21 40.59 40.40
44.39 44.35 44.36 44.19 42.14 40.03 43.28 45.80 45.18 47.79 41.87 34.37 33.30 33.04 32.20 44.61 41.37 43.04 44.10 47.47 38.74 44.45 41.64 44.13 47.18 41.76 41.07 46.02 47.77 47.84 47.10 45.44 47.95 45.41 44.13 42.30 42.84 42.16 41.56 41.89 41.63 39.90 38.41 39.02
44.27 42.16 38.37 34.13 39.87 46.29 45.98 43.25 39.64 39.27 40.46 40.38 33.66 35.48 32.02 40.43 37.24 35.46 39.79 41.93 37.11 33.84 39.76 45.86 42.02 42.96 47.20 46.90 46.81 48.22 48.29 47.27 44.67 41.75 39.58 39.62 40.58 40.57 40.59 41.27 41.06 39.69 38.62 37.14
42.73 38.24 36.73 43.58 46.42 43.86 38.94 33.60 33.66 34.90 32.57 37.74 37.84 37.35 34.49 40.35 32.76 33.99 37.45 35.11 36.20 35.29 39.71 41.32 39.61 39.68 43.01 43.02 44.10 45.62 45.54 45.49 43.79 43.69 43.13 42.12 41.84 40.09 39.53 37.75 35.82 33.88 33.31 30.75
41.53 42.83 45.72 43.79 40.85 38.12 33.13 32.21 33.48 32.83 33.22 38.32 37.67 39.26 38.76 38.33 39.89 35.37 34.39 34.75 32.57 32.74 39.05 38.90 36.10 38.05 39.08 39.74 40.46 42.17 43.40 42.86 41.35 41.43 40.22 40.17 39.23 38.44 36.42 34.73 32.51 31.46 29.71 28.17
45.56 41.66 36.42 38.31 34.70 30.02 29.10 28.50 30.08 31.89 36.34 37.74 37.21 35.61 39.50 40.36 39.92 33.84 34.21 33.66 32.57 35.02 32.76 32.11 32.71 36.49 37.59 37.18 37.85 37.85 39.53 39.07 38.23 36.65 36.02 34.08 32.60 32.67 32.06 29.55 29.63 29.30 28.15 28.19
37.41 34.39 31.31 33.66 30.19 32.23 34.46 35.00 36.00 39.12 37.98 37.47 38.15 36.38 37.77 35.11 34.57 33.84 33.84 32.76 33.77 32.94 32.70 29.64 33.53 33.83 34.32 34.09 33.90 32.78 31.05 30.49 29.82 29.10 28.87 28.17 27.71 27.12 27.76 28.30 28.69 27.90 27.47 27.56
32.94 34.13 30.76 31.67 33.30 33.48 32.54 33.30 34.57 34.64 38.51 37.96 37.53 37.12 36.40 33.66 33.12 33.84 33.12 32.03 29.29 29.15 28.00 30.77 31.39 32.05 31.50 30.45 29.66 28.63 27.76 27.31 26.83 26.76 26.07 25.98 26.31 26.12 26.38 27.37 27.22 25.99 25.44 24.13
33.83 30.70 29.52 29.65 31.83 30.46 30.83 30.87 32.21 33.68 34.57 35.85 36.80 33.30 32.76 32.39 33.12 31.28 28.68 29.07 25.18 26.96 29.55 30.95 30.41 29.03 28.40 27.54 27.67 27.43 27.39 26.71 26.08 26.18 26.08 25.74 24.91 24.43 24.22 24.39 24.27 24.37 23.98 22.98
31.67 29.32 29.62 28.69 29.27 26.78 28.48 29.57 29.22 32.95 33.84 32.39 34.39 32.03 30.94 35.02 30.06 26.35 27.80 24.74 27.07 28.57 27.78 29.01 29.16 27.89 27.38 27.75 27.26 26.95 26.87 26.80 27.15 26.76 25.89 25.53 25.57 25.78 24.72 22.92 23.29 23.22 22.41 22.30

GFSNW_sfc_wetblb_075.txt.gz
Wetbulb
49.00 49.31 49.44 49.47 49.21 49.19 47.45 42.22 33.85 48.69 50.64 36.31 36.41 32.58 38.85 42.00 43.64 46.41 45.19 46.01 46.12 43.66 44.14 43.34 41.09 41.65 45.95 49.44 49.90 46.72 49.16 46.53 42.63 44.16 49.47 50.44 49.53 47.10 46.97 41.41 39.85 42.98 41.40 41.79
48.73 48.89 49.06 49.44 49.12 48.91 44.83 36.95 37.84 48.93 48.79 30.75 31.91 37.29 38.37 40.88 41.85 42.97 44.74 44.77 47.04 49.00 43.81 41.38 44.21 44.39 48.85 49.44 48.99 47.96 49.01 44.43 39.54 42.08 45.89 48.60 46.46 48.29 48.47 47.97 46.75 41.89 39.42 41.54
48.62 48.82 48.87 49.13 48.95 49.00 45.69 37.31 32.30 40.74 41.38 41.67 37.65 35.25 36.09 37.08 42.64 42.72 44.52 45.70 46.70 45.37 43.59 46.53 43.22 43.93 47.01 49.78 49.35 48.31 50.35 45.96 42.93 39.27 42.65 46.22 43.61 45.30 47.08 46.41 43.00 42.22 42.34 43.87
48.65 48.67 48.68 48.67 48.81 48.77 44.67 38.48 37.00 40.58 31.43 34.20 38.40 38.97 37.88 36.25 37.07 42.22 44.45 43.07 44.89 44.08 40.34 41.86 42.24 45.32 45.66 46.80 46.99 49.34 49.50 43.29 44.69 45.03 46.05 45.98 45.03 44.86 45.12 44.13 45.15 42.14 44.10 44.22
47.80 48.41 48.47 48.31 48.60 48.65 42.32 35.41 37.89 40.44 39.65 38.86 37.61 37.15 36.60 36.86 38.74 40.29 40.10 41.87 43.85 45.14 41.90 43.50 40.13 43.67 44.38 44.28 47.64 47.18 50.12 43.95 44.94 42.79 45.54 45.42 43.35 44.81 45.44 45.26 45.23 45.10 45.31 44.86
46.96 47.27 48.28 48.07 48.27 47.84 40.81 42.60 45.29 41.70 38.45 38.04 35.58 37.13 37.32 37.91 40.80 42.60 43.74 43.29 43.33 43.14 45.10 48.74 48.77 48.72 47.54 47.13 45.83 46.92 47.23 46.11 43.12 39.42 44.46 44.19 40.61 43.73 44.99 45.93 46.96 46.50 43.46 47.61
46.72 46.85 46.96 48.01 48.33 47.78 45.58 43.89 44.53 40.11 34.47 37.42 37.47 38.12 39.05 38.71 40.04 39.90 43.34 45.21 43.57 46.96 51.19 51.10 48.63 46.72 46.11 45.77 45.21 47.80 46.17 45.67 45.22 40.42 39.81 33.98 44.09 48.85 48.32 46.44 47.27 48.61 48.58 49.37
46.80 46.70 46.17 47.02 47.71 48.12 45.43 45.87 44.75 41.04 37.20 38.93 38.46 39.02 38.67 40.05 41.68 40.83 43.10 44.89 48.12 50.25 49.44 43.70 39.30 37.40 38.41 40.63 43.75 45.28 46.89 45.60 42.11 39.02 38.67 41.85 44.07 45.39 46.37 45.47 45.37 49.56 49.08 50.06
46.57 46.64 46.60 46.50 47.89 48.00 45.99 45.72 49.93 45.26 39.56 38.87 41.95 39.50 40.00 37.95 37.97 39.85 42.70 47.72 51.44 50.95 45.22 41.56 34.75 32.39 35.89 34.59 39.32 47.26 45.41 47.21 44.01 40.57 36.34 33.51 43.43 48.03 50.83 50.59 43.01 50.60 50.85 50.63
46.76 46.79 46.65 46.90 47.72 47.96 46.03 44.59 51.39 46.68 39.63 42.03 43.20 38.16 39.34 42.88 41.26 39.71 42.14 44.08 46.27 49.28 41.96 38.09 36.81 35.84 40.21 35.42 36.60 37.92 40.75 41.51 40.20 40.78 39.43 42.57 48.10 49.45 51.47 41.29 43.81 51.48 51.63 51.47
46.88 46.88 46.69 46.59 47.95 47.83 45.87 43.81 51.15 46.91 41.69 43.02 45.26 45.75 42.51 43.18 43.00 38.71 42.50 42.91 44.91 44.56 39.41 38.17 38.95 39.11 40.27 39.66 40.79 40.89 40.19 39.51 39.65 41.65 38.52 36.25 49.49 47.65 44.70 50.28 54.01 53.38 53.26 52.92
46.90 46.66 46.65 47.25 47.69 47.60 46.50 42.16 50.07 49.93 44.27 43.83 48.65 48.32 49.93 49.03 47.59 43.31 43.98 44.15 44.73 46.00 42.79 44.15 43.17 43.06 45.88 41.57 36.71 44.12 40.81 44.44 42.86 44.21 44.51 51.75 51.08 51.38 53.32 54.29 53.77 54.14 53.66 53.69
46.59 46.56 47.02 47.62 47.60 47.50 46.26 44.92 48.07 47.23 42.70 42.76 44.21 43.91 48.52 50.55 49.95 51.78 42.66 47.46 49.40 48.05 51.37 46.46 45.37 40.81 44.50 40.99 41.83 42.25 45.27 47.87 45.63 45.84 48.43 50.54 52.34 53.48 53.73 54.32 53.84 54.24 54.03 53.93
46.26 46.52 46.75 47.12 47.27 46.54 46.49 45.06 47.68 46.00 42.70 37.64 39.76 48.29 46.38 49.19 48.98 48.86 48.93 48.98 51.31 52.16 50.59 48.48 45.77 43.77 46.81 44.36 44.41 44.23 46.46 47.52 46.22 46.15 48.43 50.25 52.07 53.59 54.39 54.52 53.74 53.14 53.77 53.64
46.33 46.48 46.93 47.07 46.26 46.34 46.17 48.02 48.00 48.70 42.86 36.97 38.70 45.40 47.40 49.21 49.01 46.91 47.91 47.14 48.73 47.32 47.82 45.57 43.43 46.79 46.22 47.26 46.99 44.89 47.74 46.37 45.79 44.89 50.02 50.14 50.92 53.41 55.83 54.75 53.93 53.77 53.33 52.60
46.08 46.85 47.18 45.53 45.25 45.82 43.57 37.32 44.78 48.00 46.48 40.21 34.27 44.01 44.21 46.28 47.67 46.55 46.68 47.82 48.56 48.11 46.31 46.38 47.29 48.78 46.72 44.47 42.09 46.79 47.95 49.32 50.95 49.34 52.54 52.44 52.90 50.94 51.60 53.49 54.55 54.66 53.90 53.11
46.49 46.97 45.46 44.94 45.07 45.43 40.54 39.46 44.14 46.12 47.08 41.38 35.55 37.20 44.11 45.40 45.26 44.79 45.68 47.50 47.21 47.45 48.06 46.57 46.92 47.86 47.63 46.44 41.93 45.71 48.52 50.27 50.79 53.05 51.72 49.74 51.40 51.38 49.20 49.83 50.32 49.15 51.67 51.61
45.72 44.36 44.28 44.95 45.00 45.33 43.72 47.80 46.03 48.68 42.44 42.94 33.63 34.82 38.64 45.62 41.71 40.29 46.05 44.36 46.86 45.76 46.50 48.50 46.49 48.20 47.93 42.21 45.92 47.70 48.95 50.97 51.27 51.65 51.92 51.60 50.13 48.73 48.24 48.34 47.60 47.22 46.78 47.32
44.55 44.64 44.26 43.10 42.56 40.27 43.61 45.89 45.68 48.42 44.00 34.84 32.81 33.08 31.24 37.37 41.75 44.82 45.65 47.31 41.19 46.96 44.08 44.23 46.39 44.59 41.32 45.82 47.13 48.30 49.94 49.25 50.14 51.30 49.57 47.74 47.39 47.03 46.29 45.81 45.77 44.69 43.65 44.15
44.17 43.33 39.07 35.83 42.77 45.15 44.54 41.15 38.60 39.46 41.67 41.84 34.63 38.42 33.35 37.01 32.99 40.49 42.17 43.63 38.91 35.35 40.78 46.46 42.32 42.52 47.56 48.93 48.78 50.39 51.26 50.99 49.17 46.62 45.49 45.47 45.58 45.36 45.27 45.37 45.55 44.61 43.43 42.61
43.94 40.51 38.07 44.64 45.51 42.25 39.02 33.52 33.35 34.94 33.35 39.30 38.99 38.32 36.27 39.88 33.50 33.90 39.32 36.80 38.21 34.44 40.41 40.88 39.85 40.00 45.12 46.90 47.51 48.39 49.32 49.47 48.05 47.88 47.79 47.54 47.49 45.43 44.47 42.93 42.52 41.61 39.82 36.50
42.63 43.89 44.41 43.46 39.27 37.50 34.08 33.17 34.62 33.12 33.33 38.54 37.78 37.88 39.18 37.91 36.25 32.23 36.25 36.25 35.53 34.63 42.89 40.79 37.01 36.57 39.49 42.40 43.76 45.68 46.59 46.14 44.79 45.80 44.61 44.07 42.61 40.90 36.58 35.01 32.97 31.19 29.99 29.69
47.50 41.50 37.60 37.75 36.11 30.09 29.71 27.68 31.74 32.90 37.67 39.66 39.47 35.75 39.06 38.38 34.86 31.90 34.62 33.90 33.90 37.86 34.97 32.69 32.28 35.32 36.75 37.44 39.21 40.11 42.01 41.30 39.90 37.96 37.47 36.00 34.09 33.94 32.85 30.75 30.77 30.56 28.56 28.55
39.36 35.71 30.99 33.53 30.07 34.30 35.62 36.65 36.96 37.77 37.52 38.76 38.85 35.87 34.44 34.62 31.72 32.81 31.90 33.35 33.70 32.63 32.22 29.40 31.39 32.25 32.29 32.67 32.49 32.12 31.31 30.79 30.25 29.70 29.45 28.51 28.22 28.15 29.06 29.34 29.32 28.96 27.92 27.84
34.02 36.10 29.73 31.27 33.35 33.71 33.71 34.80 35.89 35.36 38.22 39.93 39.20 37.32 36.16 32.99 32.81 33.53 32.81 31.72 29.33 30.22 28.82 29.68 30.53 31.14 30.24 29.10 28.74 27.78 27.28 27.20 27.13 27.49 27.24 27.44 27.33 27.11 27.60 28.41 28.45 27.49 26.23 25.57
34.80 31.60 30.98 30.53 33.35 31.36 30.58 30.51 31.90 32.94 33.97 37.41 39.16 34.08 32.45 32.45 34.06 31.54 28.84 29.99 26.33 27.32 29.66 29.70 28.89 27.54 27.32 27.09 27.10 27.17 27.40 27.18 27.22 27.68 27.82 27.83 27.17 26.89 26.52 26.92 26.39 26.34 26.01 25.44
33.46 28.85 30.69 30.30 31.54 28.54 26.78 26.69 27.26 31.64 32.79 32.63 34.44 31.90 30.45 35.13 30.35 27.35 28.83 25.22 26.88 27.80 28.20 29.46 29.58 28.23 28.26 28.57 28.49 28.69 29.13 28.93 29.03 28.79 28.32 28.16 28.25 27.46 26.04 23.88 24.39 24.10 23.58 24.34

GFSNW_sfc_wetblb_078.txt.gz
Wetbulb
48.68 48.76 48.96 49.09 49.18 49.29 47.53 42.10 32.81 45.89 49.71 35.91 36.23 32.22 36.38 39.49 39.68 43.27 42.58 43.24 42.00 41.75 43.67 43.32 43.58 42.20 44.98 49.23 48.43 45.12 48.03 46.15 41.16 43.92 48.69 49.63 48.08 46.20 46.23 40.96 39.32 42.84 40.67 40.50
48.41 48.75 49.00 48.91 48.87 49.20 45.16 37.51 37.35 47.72 47.04 30.24 31.55 36.19 36.21 38.79 38.37 39.33 40.69 41.08 43.16 44.96 43.75 41.47 44.63 44.95 48.52 48.13 46.40 46.26 47.86 43.21 38.20 41.01 45.47 47.98 45.36 46.87 47.29 46.93 45.67 41.04 37.47 39.89
48.54 48.77 48.83 48.88 48.72 48.98 45.86 36.06 31.52 40.30 40.91 40.94 36.13 34.07 34.20 34.51 40.05 39.71 41.97 42.31 43.54 40.64 42.89 45.50 43.34 44.40 47.17 49.78 48.15 46.43 48.62 45.54 42.66 38.48 41.80 45.61 42.89 44.95 46.34 46.57 40.78 41.72 42.20 43.96
48.44 48.69 48.84 48.81 48.61 48.56 45.54 34.46 35.18 39.32 31.70 34.15 36.53 37.31 36.46 34.51 34.49 39.78 41.39 40.26 40.84 38.35 38.30 41.05 42.54 44.31 45.24 47.20 48.38 47.65 47.97 41.59 45.24 44.91 45.28 45.53 44.77 44.53 44.67 43.45 44.16 40.98 43.76 43.77
47.97 48.04 48.29 48.48 48.66 48.42 43.17 32.65 35.83 39.90 37.80 37.94 35.67 36.27 35.72 35.25 37.01 37.44 36.57 37.96 40.84 42.11 39.08 42.56 40.71 43.62 42.80 42.22 46.84 46.85 47.91 42.65 44.51 42.56 44.83 44.88 43.21 45.09 45.20 44.82 44.62 44.08 44.94 44.50
47.11 47.44 47.58 47.82 48.39 47.90 41.73 41.07 43.69 40.75 37.53 36.25 35.10 34.65 36.26 36.68 39.44 40.32 41.28 40.92 40.75 40.34 41.49 45.82 48.17 48.88 47.73 47.12 44.18 42.49 44.69 44.06 41.95 37.90 43.99 42.97 37.36 43.27 44.52 44.75 46.04 45.59 42.19 46.96
46.76 46.78 46.85 47.16 47.59 47.94 43.91 43.68 42.07 37.40 34.29 37.13 36.16 36.92 37.77 37.70 38.92 37.90 41.00 42.74 41.43 45.86 50.19 49.81 49.10 46.61 46.97 46.96 45.47 45.35 41.43 41.90 43.06 37.47 38.60 31.37 43.39 48.74 47.67 45.87 46.37 47.71 47.57 48.42
46.58 46.44 46.26 46.48 46.92 47.55 45.15 45.62 41.93 39.59 35.15 37.99 37.46 37.86 38.27 39.35 41.51 39.63 40.60 43.42 45.99 49.02 46.41 40.11 37.57 38.60 40.35 41.77 44.34 43.95 44.09 41.20 37.15 36.15 36.13 41.04 43.63 46.16 45.90 44.87 44.40 49.05 47.83 49.04
46.14 46.02 46.04 46.28 46.58 46.92 46.25 44.29 47.14 42.75 37.44 37.26 40.25 38.50 39.37 37.68 38.00 39.05 41.45 45.75 47.65 49.12 42.89 37.90 33.34 31.81 35.87 36.03 38.76 44.53 43.69 43.50 38.58 38.60 33.77 31.66 43.10 48.14 51.09 49.68 39.75 49.69 50.02 49.83
46.27 46.14 46.26 46.34 46.72 46.91 45.54 43.52 46.99 42.94 38.02 41.12 42.55 38.29 38.46 42.07 40.63 38.68 41.01 42.56 41.68 47.80 39.76 36.07 34.24 34.68 39.43 32.66 34.28 35.93 37.43 38.16 36.42 36.74 36.42 41.05 47.56 48.41 50.21 39.21 41.15 51.16 52.28 52.41
46.24 46.47 46.30 46.25 46.51 46.65 44.94 43.49 47.11 43.46 40.03 41.88 43.76 43.43 40.57 42.67 42.47 38.05 41.56 41.24 41.71 41.66 37.15 35.95 36.95 36.55 38.45 37.32 39.15 39.33 37.05 36.47 37.13 38.94 35.11 33.96 49.70 48.10 43.12 48.07 52.77 53.86 53.31 54.10
46.29 46.31 46.48 46.41 46.48 46.56 46.66 41.50 47.05 48.18 41.92 42.30 48.13 47.67 48.50 48.17 47.47 44.33 44.25 42.02 42.20 43.56 40.89 41.62 41.23 38.76 39.54 37.73 32.67 43.98 37.71 40.78 40.00 42.27 42.03 51.56 51.10 50.48 52.59 53.93 54.18 53.97 55.45 55.10
46.25 46.38 46.59 46.68 46.66 46.37 46.77 43.36 45.32 45.61 41.65 41.26 43.52 43.16 48.72 51.65 51.36 53.31 43.35 45.13 46.88 46.16 50.27 44.18 44.10 39.37 41.49 37.18 38.56 40.49 43.80 48.43 44.36 44.55 46.75 48.00 50.71 50.72 53.58 53.94 53.12 55.26 56.43 55.08
46.34 46.48 46.57 46.48 46.68 46.41 46.56 43.46 46.16 45.22 41.54 37.13 39.09 48.59 46.80 50.87 50.34 50.78 50.32 48.19 49.18 47.73 47.45 44.78 44.25 41.20 46.03 40.73 43.32 42.36 45.13 46.20 44.92 45.28 47.57 48.32 49.90 51.29 53.59 54.27 56.09 54.42 54.96 54.35
46.38 46.55 46.50 46.59 46.64 46.94 46.22 46.38 47.29 48.29 42.56 36.32 38.79 45.88 47.47 48.90 48.55 47.63 49.08 47.50 46.24 44.27 42.92 40.57 42.02 45.43 45.91 45.97 45.07 42.33 46.78 44.83 43.13 44.19 49.30 48.90 49.98 53.18 56.50 54.51 53.10 53.89 53.48 53.03
46.43 46.38 46.46 46.62 47.05 46.70 44.88 38.14 46.17 48.64 48.94 41.81 34.91 44.56 44.36 46.45 46.93 46.58 45.94 46.82 45.56 44.31 43.38 44.12 46.52 49.56 46.55 43.25 40.79 46.16 48.42 49.63 50.04 48.37 52.64 52.61 52.95 51.90 51.50 51.70 54.02 54.57 54.52 54.60
46.27 46.41 46.70 46.34 46.56 45.50 41.72 39.89 43.93 47.15 48.46 40.92 35.97 36.88 43.64 45.53 45.71 45.14 44.36 45.94 44.77 43.59 44.11 43.33 45.52 46.47 46.40 44.09 38.78 44.70 47.73 48.67 48.79 50.77 50.53 50.37 51.75 49.67 50.29 50.72 50.04 50.64 52.47 52.78
45.73 45.60 45.87 45.96 46.20 46.05 43.28 46.06 46.07 48.00 43.83 42.47 33.45 34.38 38.50 41.81 40.58 40.00 44.64 42.06 43.75 43.21 43.30 46.39 44.62 46.70 46.60 39.73 43.90 46.76 48.45 48.68 49.29 51.96 52.14 51.47 49.84 49.81 48.70 48.95 49.10 48.04 47.73 48.19
45.40 45.23 45.62 44.93 44.39 41.43 42.92 45.67 46.21 47.80 43.67 34.96 33.04 33.58 32.01 37.08 38.34 41.36 42.73 43.81 35.70 43.85 39.76 42.29 45.01 42.69 38.88 43.38 45.17 46.71 47.64 47.30 47.56 50.29 51.69 49.28 48.24 47.91 47.15 46.88 46.88 44.99 44.52 45.21
44.93 44.04 38.58 33.40 41.24 45.06 45.20 42.47 38.25 39.51 41.07 41.33 34.71 39.46 33.63 36.11 35.02 36.94 40.43 41.89 37.91 34.82 39.18 44.28 37.91 40.85 46.25 47.78 49.88 50.14 51.21 50.53 50.97 47.64 45.90 46.91 46.52 46.05 46.18 45.97 45.69 44.70 43.74 42.26
43.93 39.86 37.54 41.22 45.40 43.11 39.47 33.33 33.36 35.05 33.30 38.01 38.57 38.55 34.68 38.60 33.49 32.50 40.28 36.26 37.54 33.22 38.13 37.74 38.13 38.27 44.07 47.52 47.57 49.36 49.54 49.06 48.50 48.50 47.69 48.56 48.26 45.65 42.01 36.96 35.22 35.52 33.14 30.31
43.86 42.55 44.04 43.80 39.18 35.53 33.87 31.95 32.68 33.05 31.62 37.90 37.25 37.53 39.85 36.95 39.29 34.81 34.31 35.76 34.85 31.74 42.39 38.29 35.22 35.59 40.75 43.35 44.78 45.76 45.54 45.53 44.99 45.08 42.65 40.50 39.50 37.25 34.87 32.06 30.40 29.49 28.83 28.01
47.15 42.01 36.81 37.20 34.08 29.86 30.49 26.70 29.62 32.84 38.18 39.31 38.49 35.08 37.88 35.00 36.42 32.86 32.86 32.50 32.84 38.15 36.34 34.42 31.21 33.83 34.83 35.94 37.33 37.15 37.78 37.88 35.58 34.49 33.92 32.87 32.15 31.84 30.82 28.38 28.30 27.52 26.39 26.54
38.39 34.67 30.14 31.60 29.54 32.84 32.63 34.82 36.76 36.74 39.81 39.60 38.75 35.03 32.84 32.13 31.59 32.32 31.59 33.04 34.91 32.10 29.81 28.13 29.66 30.26 30.21 30.71 31.12 30.19 29.38 29.96 29.76 28.89 28.81 28.46 28.09 27.75 27.94 27.66 27.59 26.58 25.73 26.43
33.94 35.09 29.26 29.82 32.10 32.41 31.70 33.77 35.20 33.69 36.66 38.63 37.36 34.84 33.75 31.77 31.77 32.13 32.68 31.41 29.46 29.45 27.18 28.71 28.63 28.75 27.90 27.03 27.34 27.03 26.93 27.04 26.96 27.33 26.56 26.43 26.21 25.75 25.41 26.32 26.34 25.73 24.86 24.31
33.72 30.22 29.57 30.25 32.39 29.94 28.30 26.88 29.31 31.73 31.28 35.74 35.89 31.95 31.77 31.77 32.32 30.99 29.14 28.89 25.09 25.65 28.35 28.75 28.10 26.74 26.79 26.50 27.11 27.33 27.58 26.98 26.69 26.84 26.79 26.57 25.73 25.00 25.23 26.04 25.86 25.74 25.45 24.56
32.30 28.39 30.46 29.95 29.50 26.25 25.22 25.60 26.47 30.85 31.53 31.95 32.66 30.28 29.20 34.41 29.61 25.56 25.94 22.95 25.20 27.18 27.69 28.56 27.95 26.99 27.51 28.47 28.45 28.36 28.47 28.25 28.03 27.62 27.38 27.06 27.08 26.15 24.69 23.09 23.53 24.01 23.99 23.21

GFSNW_sfc_wetblb_081.txt.gz
Wetbulb
47.95 48.32 48.71 48.82 49.00 48.99 47.37 41.51 32.08 45.44 47.09 35.08 34.85 29.71 32.04 36.94 36.25 39.35 37.71 37.40 36.15 35.44 37.48 36.19 36.03 39.95 43.35 45.88 45.06 41.69 44.00 42.36 36.41 39.15 46.06 47.91 46.24 42.97 42.77 35.12 35.47 37.02 34.01 33.82
47.75 47.95 48.43 48.77 48.88 49.01 44.59 36.34 36.52 45.37 44.65 29.46 30.55 33.69 33.77 35.49 34.35 35.74 35.95 35.15 38.23 38.74 36.60 34.73 38.32 41.61 47.65 45.32 44.22 41.88 43.43 39.60 33.97 37.19 42.11 45.88 43.31 43.73 44.63 42.98 40.45 35.82 30.32 34.70
48.00 48.31 48.38 48.63 48.81 48.91 45.35 33.56 29.85 37.93 40.22 37.52 33.21 31.79 31.55 31.46 37.67 35.81 37.74 36.74 38.22 36.14 34.37 39.74 36.84 38.97 45.65 46.68 47.20 45.47 45.28 40.70 37.62 32.70 37.73 42.63 40.22 42.85 43.80 41.93 33.82 35.25 35.76 39.32
47.69 48.09 48.36 48.48 48.56 48.89 45.60 34.65 32.34 36.75 30.37 33.68 33.29 34.31 33.20 31.16 31.39 36.98 37.83 34.36 34.72 34.59 32.66 36.37 36.53 41.31 40.23 45.22 46.10 46.77 44.53 37.35 39.66 41.86 43.15 43.32 43.55 42.89 42.53 40.88 41.27 39.05 40.87 41.68
47.49 47.75 47.91 48.36 48.54 48.78 43.18 31.15 33.51 37.49 34.13 35.82 34.69 33.22 32.83 32.20 34.17 34.65 33.65 32.83 35.10 36.66 34.49 36.58 35.94 38.89 38.57 39.77 44.23 43.99 43.97 36.94 39.89 38.27 42.34 43.18 41.60 42.89 42.53 43.11 42.87 41.59 41.34 40.91
47.51 47.65 47.79 48.04 48.40 48.08 41.61 40.61 40.65 38.23 35.30 34.37 32.50 32.46 31.91 34.02 36.48 37.18 38.36 36.94 35.29 33.91 36.38 40.92 43.47 45.88 44.93 43.53 43.17 39.48 41.04 38.14 38.32 33.21 40.51 40.20 33.21 40.31 42.16 43.36 44.63 42.71 38.18 41.94
47.56 47.39 47.57 47.53 47.90 47.96 44.82 42.30 40.07 34.81 31.28 32.94 32.81 34.48 35.19 34.11 36.08 34.51 38.25 39.19 35.86 39.45 44.33 47.72 44.99 44.38 42.86 43.77 44.12 44.41 40.27 39.27 38.58 32.74 34.85 28.94 39.72 45.31 45.59 43.55 44.63 44.76 43.84 44.29
47.33 47.09 47.16 47.11 47.12 47.44 43.99 44.39 40.03 36.34 30.29 35.18 35.09 35.34 35.44 36.27 37.17 36.32 37.44 39.66 41.50 41.77 43.28 38.48 35.46 35.58 37.43 38.54 42.60 42.27 43.71 39.41 32.17 31.13 32.25 37.89 40.95 43.09 42.87 42.24 41.08 46.04 44.55 45.23
46.53 46.74 46.90 46.84 46.79 47.28 45.07 42.76 44.24 39.66 33.58 31.71 38.75 36.09 36.57 33.79 33.30 34.22 36.63 42.27 42.55 41.03 36.68 34.19 29.74 29.00 33.49 33.40 36.93 43.57 43.06 42.05 35.90 31.94 29.84 28.11 38.81 45.20 47.54 46.74 35.03 46.32 46.98 45.73
46.06 46.14 46.32 46.58 46.68 46.97 44.69 42.13 44.43 41.43 35.06 37.22 38.67 36.05 34.98 38.96 37.04 33.57 36.16 37.83 38.09 40.37 32.30 26.00 30.23 29.63 37.76 31.59 31.88 32.84 33.74 32.93 30.58 31.76 30.73 35.23 45.11 47.15 48.16 35.23 35.14 47.15 48.08 47.45
45.86 46.04 46.21 46.27 46.49 46.68 44.92 41.64 45.26 41.76 37.54 38.64 41.21 42.63 38.37 39.56 39.07 33.13 36.06 34.97 36.14 35.42 30.70 30.96 32.51 28.49 34.65 34.44 36.76 35.82 34.30 32.93 31.26 32.01 29.34 28.76 47.16 45.53 40.40 43.08 46.95 48.55 47.56 47.93
46.04 46.20 46.27 46.21 46.39 46.45 45.97 39.92 45.01 45.35 41.17 39.95 45.76 45.09 45.88 44.76 43.40 40.11 38.29 36.31 37.24 39.28 36.76 33.57 34.39 28.76 30.28 32.98 26.82 41.32 34.64 37.69 35.87 37.41 35.76 45.69 48.26 47.37 48.78 49.78 48.23 48.06 47.85 49.16
46.13 46.11 46.25 46.53 46.46 46.37 45.67 41.90 43.13 42.67 39.76 40.33 41.24 40.91 44.98 48.04 45.78 48.03 38.05 38.85 40.77 40.99 45.21 39.14 37.29 31.09 35.94 27.61 30.87 34.71 41.53 44.44 39.35 39.15 42.75 44.42 47.67 49.69 49.15 49.01 48.24 50.42 50.20 49.90
45.95 46.41 46.29 46.36 46.53 46.55 46.00 42.57 44.24 42.64 37.05 33.55 37.52 46.10 45.01 47.87 46.84 47.53 46.75 44.43 45.11 44.10 44.44 40.58 36.07 31.08 39.35 33.07 37.20 37.35 40.08 43.30 41.91 41.62 45.53 45.96 47.37 48.97 49.82 49.65 50.03 51.12 49.99 49.83
45.74 46.43 46.32 46.48 46.91 46.64 45.73 44.66 45.23 45.65 40.82 34.08 36.23 42.60 45.49 48.30 46.90 45.34 45.59 44.09 42.01 39.86 36.02 34.87 36.43 39.18 38.22 38.56 39.41 37.16 42.95 40.70 38.35 37.06 45.32 44.85 45.58 48.71 50.36 49.56 49.65 50.92 50.15 49.62
45.71 46.41 46.53 46.57 46.69 46.45 43.40 38.62 44.86 46.30 46.66 38.30 32.37 41.95 42.13 44.66 44.83 43.55 42.39 43.03 41.70 40.36 38.01 35.96 42.34 43.52 41.49 30.44 32.97 42.34 45.00 45.38 44.72 43.08 47.52 48.59 48.19 48.07 48.81 48.29 48.02 49.73 50.24 49.85
45.95 46.25 46.32 46.61 46.16 44.39 39.40 37.13 43.41 47.04 47.44 38.40 32.67 32.44 41.12 43.33 42.64 40.79 40.51 41.33 40.29 39.71 39.33 37.12 39.56 39.39 41.44 29.95 30.72 41.83 44.28 45.30 45.87 48.63 48.06 45.96 47.35 45.36 47.03 46.95 47.74 47.85 47.73 47.25
46.09 46.46 46.32 45.95 45.78 46.05 43.10 45.64 46.86 47.15 42.98 41.09 29.21 29.85 35.47 39.26 35.79 34.39 40.09 37.07 38.28 37.84 39.09 39.68 39.42 40.49 40.38 34.46 40.72 43.22 44.56 45.55 45.68 48.11 48.01 47.16 46.70 45.65 45.32 46.03 45.04 43.61 42.80 42.96
46.28 46.12 46.12 44.79 42.75 39.63 41.60 46.48 47.06 46.80 40.64 29.89 30.32 27.43 27.66 36.34 35.41 37.59 38.77 37.53 28.48 38.33 32.51 35.80 39.16 36.42 34.27 39.59 41.31 42.65 44.18 43.97 44.10 45.86 46.61 46.39 44.56 44.01 44.25 43.45 42.67 40.95 39.64 35.44
45.19 42.90 37.74 32.08 40.61 45.64 45.10 41.19 37.31 37.63 37.56 35.07 27.65 33.99 28.25 34.10 33.21 32.35 31.13 33.34 29.96 32.20 34.32 40.42 34.71 34.61 42.22 43.51 45.99 46.69 46.69 46.77 46.98 43.61 42.59 43.23 42.45 40.36 38.27 35.94 34.97 33.50 30.81 29.59
42.53 38.12 35.52 42.03 45.83 42.18 37.69 32.04 30.52 31.99 29.76 32.04 33.44 33.78 30.60 36.05 30.43 31.28 33.24 32.17 31.42 29.78 33.63 33.70 33.24 30.98 40.28 44.79 44.12 44.22 44.56 43.20 40.37 39.70 39.65 42.18 38.99 35.16 31.76 29.60 28.99 28.04 26.81 25.18
41.03 40.42 42.98 42.19 38.78 34.57 31.95 29.58 31.01 28.11 26.97 31.79 31.34 31.26 35.12 34.00 36.70 31.39 29.18 31.87 32.52 23.68 35.69 29.03 27.70 33.64 35.56 36.68 36.55 36.10 36.34 36.47 35.34 35.73 34.20 33.40 32.24 31.03 29.51 28.25 26.61 25.99 25.55 24.88
43.09 39.56 34.75 35.07 31.66 26.88 20.56 24.53 22.12 27.77 29.20 32.87 32.66 32.90 33.95 33.86 35.67 32.25 31.13 29.84 28.95 34.17 25.54 26.00 29.46 32.39 32.40 33.03 32.52 31.47 32.40 31.75 30.80 29.98 29.59 28.94 28.33 28.42 27.35 25.80 25.97 25.56 24.66 24.74
34.75 30.39 28.89 30.04 28.00 29.96 29.61 30.71 30.15 33.17 34.44 32.78 33.24 33.52 33.09 32.05 30.39 31.78 29.10 32.24 32.93 27.61 28.22 26.13 28.19 28.08 28.62 29.17 29.87 28.76 27.63 28.15 27.57 27.06 27.05 26.49 26.16 25.66 25.94 25.94 25.75 24.65 23.37 23.82
31.15 30.77 26.09 26.54 30.59 30.12 28.40 30.23 31.77 30.38 32.76 34.42 33.26 32.19 32.17 30.57 30.57 31.09 31.45 28.76 27.71 24.90 21.87 24.13 26.26 26.85 26.82 26.72 26.93 26.30 26.16 26.04 25.56 25.55 24.87 24.32 24.22 23.76 23.72 24.51 24.79 24.24 23.50 22.93
27.30 27.44 26.52 28.00 28.16 24.79 24.61 24.49 25.97 29.58 28.98 31.96 33.35 31.51 30.57 30.54 31.31 28.65 24.17 25.75 19.61 22.44 24.00 24.64 25.79 25.54 26.09 26.06 26.47 26.34 26.35 25.68 25.12 25.16 24.88 24.59 23.82 23.23 23.37 24.16 24.14 23.74 23.70 22.63
28.40 23.20 26.25 26.93 26.53 22.61 23.40 25.18 25.66 29.00 28.12 31.52 31.70 27.05 25.51 30.92 26.57 21.20 22.50 18.65 22.22 23.83 24.41 26.14 26.28 25.94 26.00 26.72 26.85 26.41 25.99 25.20 25.11 24.75 24.66 24.19 24.69 24.27 23.18 21.66 23.05 23.36 22.98 21.78

GFSNW_sfc_wetblb_084.txt.gz
Wetbulb
47.08 47.34 47.85 47.85 48.25 48.74 46.53 40.96 32.34 45.12 45.45 33.04 33.85 29.31 30.97 35.23 33.90 37.02 34.91 34.84 32.87 31.03 32.69 31.80 32.91 34.21 37.83 43.29 43.63 39.10 41.05 38.74 34.18 37.65 43.20 44.45 42.68 41.50 41.89 35.02 34.48 35.50 32.37 32.81
47.09 47.21 47.68 47.83 48.23 48.32 44.22 36.92 36.16 44.83 43.35 27.75 29.03 33.06 33.27 34.68 33.23 33.26 33.66 33.49 35.92 36.38 34.20 30.21 33.15 37.07 42.84 44.40 42.18 40.63 41.02 36.92 30.71 35.20 39.21 42.29 40.10 41.68 42.79 42.60 39.60 36.02 30.37 33.22
47.08 47.31 47.52 47.68 47.86 48.36 44.76 32.98 29.46 37.37 39.88 37.23 31.81 30.38 31.12 31.34 36.79 35.12 35.14 33.54 35.60 33.67 31.74 35.57 32.91 35.66 42.05 44.43 42.99 44.75 43.73 38.01 36.44 31.92 35.27 39.92 38.10 41.33 43.25 42.31 35.14 35.47 35.21 37.84
46.97 47.53 47.74 47.90 48.03 48.05 44.67 33.16 31.73 36.41 29.22 32.44 32.92 32.32 32.51 30.66 30.04 35.44 36.37 33.34 32.77 31.11 28.85 31.17 31.90 36.37 40.61 41.71 43.31 44.05 43.04 34.56 37.53 39.20 40.93 41.71 41.05 40.52 41.99 40.99 40.32 36.34 38.47 39.06
46.79 47.15 47.36 47.79 47.69 47.89 42.46 31.71 33.97 36.77 31.85 33.76 34.18 32.71 30.99 30.60 32.63 32.64 31.76 30.82 33.53 33.73 29.98 31.32 30.44 35.40 39.35 37.73 40.76 40.16 42.79 34.94 36.47 35.25 40.03 41.71 39.60 41.75 41.93 41.60 41.29 40.88 41.71 39.91
46.73 46.92 47.07 47.33 47.62 47.26 40.57 40.50 38.88 37.33 33.85 32.56 30.77 31.14 31.90 32.22 34.42 35.12 36.53 35.11 33.34 32.21 33.94 37.10 37.72 39.96 44.00 43.02 40.47 37.81 38.88 36.96 33.90 30.09 38.25 39.35 32.75 37.86 40.53 41.85 42.91 41.77 37.22 41.68
46.66 46.75 46.96 47.16 47.55 47.15 43.69 42.05 40.07 34.32 29.87 31.43 31.32 33.06 34.14 33.34 33.60 33.07 36.60 37.31 34.34 37.87 41.54 40.87 43.10 41.78 42.17 41.47 40.90 42.11 38.92 38.80 34.41 28.66 33.02 28.49 37.79 44.07 44.73 43.27 44.05 43.60 42.86 42.89
46.79 46.68 46.93 47.26 47.34 47.67 44.50 44.40 40.17 36.11 30.04 33.65 33.42 34.20 34.22 34.50 35.69 34.43 34.72 37.47 40.33 40.54 37.74 34.83 33.48 31.08 33.64 36.42 39.98 40.96 43.58 39.48 32.39 31.11 29.01 35.14 39.23 41.76 41.95 41.13 40.15 44.70 43.08 44.59
46.44 46.56 46.68 46.73 46.87 47.44 46.07 44.06 44.32 40.21 33.25 31.35 36.76 34.17 34.98 32.22 31.97 33.16 34.91 39.81 41.71 38.87 34.46 31.45 25.16 22.60 31.78 32.08 36.15 43.07 42.23 40.22 34.90 31.65 27.33 25.30 35.88 43.40 46.55 45.78 35.60 45.46 45.72 44.82
46.63 46.59 46.73 46.86 47.19 47.35 45.21 43.46 44.88 39.81 33.85 35.58 36.47 34.21 34.38 37.17 35.11 32.13 34.20 35.68 35.13 38.26 30.52 27.63 24.84 25.59 35.63 29.21 30.72 31.85 31.14 31.33 30.62 31.12 30.14 32.46 42.04 45.18 47.09 35.42 35.32 45.81 47.09 46.97
46.21 46.12 46.35 46.58 46.88 47.23 45.37 42.20 44.18 39.18 34.02 37.11 38.48 39.69 37.30 37.56 36.74 32.27 34.90 34.20 33.58 32.99 27.39 26.20 27.25 24.80 31.96 33.64 35.96 34.28 32.83 29.32 25.61 29.79 26.73 27.28 44.68 44.67 39.29 41.83 46.01 47.11 46.95 46.44
45.65 45.58 45.79 46.26 46.52 46.86 46.65 40.37 44.13 43.20 37.28 37.56 41.83 42.54 44.35 43.32 42.82 39.33 38.68 35.11 34.65 35.84 31.29 29.23 31.24 28.12 29.76 32.93 28.80 38.65 33.18 35.49 32.48 33.10 33.08 42.50 46.30 46.96 47.53 47.99 47.18 47.63 47.34 48.01
45.63 45.42 45.82 46.21 46.38 46.54 45.95 42.36 42.90 41.26 37.07 35.68 36.64 38.16 43.23 46.82 45.09 46.88 38.33 37.18 39.73 39.51 40.44 36.64 34.25 28.60 34.59 28.01 30.55 33.91 39.62 42.61 36.68 37.46 41.77 43.45 45.70 48.62 49.32 48.11 47.81 48.86 48.32 48.23
46.30 45.66 45.82 46.09 45.98 46.10 45.86 41.96 42.98 40.47 37.38 31.21 35.51 43.95 42.81 47.20 46.73 45.72 46.23 43.99 43.51 41.71 40.79 35.47 33.09 28.99 38.90 33.04 35.96 34.68 38.26 41.76 38.46 37.84 42.38 44.97 45.91 47.04 47.43 48.41 49.50 49.12 49.20 48.55
46.53 46.15 46.03 45.84 46.42 46.00 45.11 43.59 43.66 42.64 36.84 31.85 33.64 40.85 44.84 45.52 44.83 44.15 45.63 45.46 42.00 38.35 34.47 32.81 34.74 37.68 37.29 37.29 37.26 35.22 39.20 38.63 36.61 36.09 43.88 43.84 44.56 47.38 48.44 47.55 47.22 48.67 49.72 48.63
45.48 45.89 46.21 46.39 46.42 46.07 42.78 36.89 42.83 44.26 42.21 36.90 30.94 40.86 42.29 43.99 44.20 43.90 43.72 44.31 42.70 39.78 36.13 34.48 38.14 42.71 40.07 33.26 30.75 38.95 41.47 42.24 43.80 42.40 45.72 46.18 47.39 47.13 48.23 47.55 47.25 47.83 48.59 48.84
45.73 46.14 46.19 46.19 46.21 44.44 37.49 35.95 40.57 44.67 44.18 35.15 32.51 33.37 41.08 44.39 43.42 42.37 40.80 40.86 40.95 38.30 35.65 33.31 35.60 37.48 40.50 33.82 30.93 39.63 42.29 43.32 44.85 46.24 47.36 44.38 45.87 44.81 46.03 46.17 45.01 44.50 43.76 44.14
45.91 45.87 45.97 45.94 45.96 44.18 40.06 43.48 45.28 45.16 41.06 37.15 30.56 32.42 34.68 39.99 36.31 34.42 38.71 35.16 35.91 35.76 34.74 34.18 33.79 35.97 36.31 30.50 37.89 40.92 43.18 44.26 44.02 46.71 47.18 46.31 44.64 44.81 43.70 43.42 42.21 37.88 34.87 35.07
45.93 45.92 45.73 43.83 42.02 39.44 42.31 46.21 46.17 46.62 39.45 30.56 26.03 25.62 28.70 35.23 35.01 35.97 35.26 35.07 29.42 34.41 29.50 31.42 35.31 32.41 30.10 36.32 39.06 41.21 42.34 43.21 43.16 45.48 44.80 44.24 43.20 42.31 41.32 39.42 35.52 32.32 30.44 29.09
44.54 42.56 37.37 31.91 41.03 46.03 45.21 40.90 35.15 36.97 38.12 32.32 23.59 30.24 29.89 34.00 32.07 33.34 33.46 30.61 26.38 27.21 33.18 36.58 28.74 30.17 37.27 41.91 41.80 40.31 39.68 41.23 43.86 41.63 39.93 40.09 36.99 34.99 33.15 31.52 31.00 29.25 27.66 26.64
39.70 37.09 33.16 42.41 46.28 41.39 36.02 31.29 30.88 32.01 30.01 30.74 31.56 31.24 30.66 35.46 28.89 30.34 28.50 30.72 26.68 26.90 28.43 31.15 31.64 31.23 36.94 40.28 39.13 37.98 36.63 36.52 36.30 37.65 37.23 37.25 34.76 31.27 28.60 27.19 27.17 26.52 25.43 23.98
40.62 40.51 41.96 40.86 37.80 33.58 29.35 27.41 29.62 27.52 25.85 29.68 30.53 30.58 31.83 31.16 33.37 27.96 30.72 28.62 31.26 25.65 32.23 27.33 29.91 32.87 34.66 34.36 34.47 34.95 34.69 34.39 33.85 33.29 31.88 31.05 29.98 28.82 27.53 26.50 25.40 24.96 24.77 24.11
42.46 37.71 33.62 32.83 29.02 22.64 17.27 20.27 25.77 21.99 30.30 29.99 32.03 31.82 32.71 33.97 34.79 30.17 30.84 27.83 28.09 33.26 26.89 25.24 29.07 31.29 32.27 31.66 31.39 30.99 31.69 30.80 29.55 28.98 28.60 27.84 27.06 27.30 26.31 24.87 25.16 24.98 23.73 23.84
33.78 26.35 25.74 25.51 25.18 27.06 26.65 29.87 30.87 30.96 32.01 28.97 31.63 32.36 31.96 32.22 30.69 31.41 27.58 28.33 32.18 27.99 26.79 26.29 27.92 28.15 28.11 29.34 29.52 28.16 26.99 27.79 26.99 26.36 25.97 25.55 25.04 24.33 24.45 24.13 24.31 23.31 22.30 22.69
26.90 27.36 21.82 23.77 27.37 26.88 26.50 28.11 29.70 28.58 30.89 32.93 32.33 32.53 32.83 30.35 29.59 30.48 29.92 28.70 26.58 24.84 23.51 24.08 26.41 27.24 26.89 26.38 26.53 25.90 25.50 25.12 24.78 24.74 23.69 23.40 23.24 22.89 22.72 23.68 23.80 23.14 22.26 21.41
26.42 23.70 22.63 24.71 22.32 21.87 23.74 23.97 25.21 28.59 28.29 31.61 33.08 31.08 29.24 29.00 29.21 26.18 20.80 22.19 18.31 19.62 20.36 24.62 26.04 25.73 25.64 25.59 25.71 25.23 25.10 24.52 23.92 23.90 23.61 23.47 22.75 22.13 22.40 23.04 22.67 22.05 21.24 20.22
21.47 19.97 24.73 23.02 20.29 18.18 23.36 24.08 25.21 29.02 27.83 30.37 31.08 24.44 22.44 27.97 23.15 18.17 21.52 16.22 19.54 22.88 23.78 25.53 25.51 24.78 24.51 24.78 24.47 24.24 24.02 23.45 23.40 23.45 23.30 23.22 23.92 23.73 22.21 20.51 21.72 22.10 21.79 20.49

GFSNW_sfc_wetblb_087.txt.gz
Wetbulb
46.44 46.71 46.97 47.31 47.55 47.37 45.57 38.74 30.85 42.03 44.55 32.83 31.47 27.28 29.76 34.06 32.31 35.74 34.48 33.45 31.47 29.66 30.45 28.48 29.51 31.01 36.25 42.01 41.15 36.35 40.60 35.26 30.77 35.04 41.74 42.30 41.10 40.19 40.21 33.21 32.26 33.06 30.95 32.15
46.35 46.57 46.91 47.03 46.94 47.34 40.25 35.44 35.29 42.65 41.76 26.66 27.49 30.71 30.86 32.91 31.53 31.61 32.32 32.34 34.67 34.43 31.21 27.80 31.70 32.29 38.47 40.96 42.50 39.39 39.91 34.91 27.79 31.65 36.74 41.22 38.87 39.96 40.80 39.79 36.64 32.71 29.60 32.30
46.53 46.79 46.84 46.86 47.02 47.65 43.28 35.35 29.47 35.65 38.07 36.39 30.29 28.65 29.21 30.08 35.94 33.20 34.10 32.62 33.80 31.19 29.02 32.30 29.96 32.12 37.35 41.60 42.86 43.80 41.54 38.03 34.07 28.86 32.67 37.32 36.76 39.87 41.09 40.62 32.47 32.66 34.79 37.01
46.41 46.62 46.81 46.93 47.24 47.53 43.36 36.28 31.69 35.37 28.44 31.28 32.73 31.43 31.07 29.14 29.54 35.28 35.54 32.34 31.61 30.54 27.38 28.38 28.42 32.30 34.71 39.29 42.86 41.45 39.32 34.17 36.80 37.11 38.51 39.63 40.01 39.24 39.84 37.49 37.80 35.36 37.29 38.52
46.03 46.26 46.61 46.82 47.07 47.23 41.30 32.72 33.19 36.89 31.65 34.21 33.01 32.83 30.25 29.92 31.31 31.87 30.67 29.98 32.12 32.91 29.60 29.71 27.50 31.34 32.48 35.27 40.93 38.83 39.91 34.75 36.23 33.92 37.67 39.03 38.08 39.70 41.03 40.29 39.51 38.35 39.26 39.08
45.81 45.95 46.38 46.60 47.09 46.52 40.17 40.41 39.22 37.08 33.61 32.02 30.57 30.94 31.07 31.30 33.23 34.36 35.29 34.05 31.86 30.77 32.32 35.38 36.01 36.43 36.09 37.37 38.01 37.97 35.73 35.40 33.45 29.81 36.15 36.67 31.42 37.32 39.61 40.99 40.80 39.10 35.82 40.68
46.14 46.20 46.29 46.41 46.82 46.38 42.75 41.52 39.38 33.42 28.76 31.38 30.78 32.41 33.60 32.75 33.42 31.56 35.43 35.33 33.04 36.50 40.23 39.97 38.01 36.28 35.89 35.64 37.55 41.76 36.39 35.28 32.86 30.14 31.96 26.74 35.76 42.40 43.57 41.45 43.29 43.49 42.67 43.71
46.24 46.22 46.27 46.26 46.50 46.79 43.50 43.28 39.97 35.59 29.46 32.15 32.30 32.40 32.48 33.83 35.28 33.68 34.21 36.22 39.22 39.49 37.65 33.01 29.83 29.24 31.81 34.70 38.62 38.77 40.27 37.13 31.91 30.25 29.22 32.78 36.26 39.74 40.40 39.50 39.03 44.53 43.75 44.23
45.90 45.97 46.06 46.43 46.57 46.84 44.51 43.40 44.38 39.33 32.95 30.54 35.21 32.15 33.44 30.62 30.87 32.10 34.15 39.54 40.80 37.39 33.42 29.77 26.36 21.25 26.69 30.12 34.82 41.18 39.62 39.39 34.80 31.74 27.82 24.10 32.83 41.85 45.29 45.48 35.23 44.75 45.25 45.62
46.10 46.34 46.36 46.50 46.57 46.64 44.76 42.88 45.02 40.38 33.80 35.40 35.96 32.84 32.06 35.79 33.81 31.08 34.06 35.92 34.57 37.00 28.44 24.86 23.85 24.80 32.10 25.42 26.03 32.68 33.42 33.57 31.90 31.26 29.71 31.09 39.15 42.27 45.65 34.31 34.97 44.41 46.20 45.00
46.29 46.34 46.48 46.71 46.70 47.04 46.03 43.18 44.81 40.43 34.87 36.65 38.73 39.07 35.88 35.96 35.77 30.54 34.40 34.00 32.97 30.73 25.35 22.33 25.26 23.42 28.51 29.06 33.08 32.60 31.92 31.17 29.92 31.00 26.96 25.02 41.51 43.78 36.60 40.30 45.65 46.64 45.52 47.33
45.80 46.06 46.26 46.64 46.57 46.69 46.34 40.15 44.77 44.80 37.57 37.06 40.73 40.75 41.11 41.10 41.21 37.79 37.44 36.07 34.98 34.64 29.13 27.63 27.74 24.14 25.25 29.06 25.44 37.42 29.97 34.69 33.33 33.82 31.48 39.15 42.51 45.70 47.56 47.58 46.54 46.92 46.65 48.52
45.42 45.50 45.89 46.40 46.61 47.13 46.13 42.31 42.18 40.59 34.88 35.50 35.96 34.67 40.23 44.31 43.16 45.14 36.37 37.35 39.77 39.16 39.96 33.63 31.88 26.53 30.04 23.55 28.86 32.57 37.05 40.98 36.79 36.69 39.43 40.43 42.65 44.77 47.69 48.38 47.15 48.39 48.44 48.57
45.67 45.50 45.55 45.99 46.34 46.61 46.40 42.72 43.16 40.36 36.93 30.31 30.86 40.18 37.51 42.36 42.99 45.80 44.96 43.20 44.33 42.82 41.06 34.87 29.98 27.51 35.20 29.78 32.44 34.56 36.88 40.61 38.57 36.56 39.81 40.90 43.73 45.40 46.81 48.49 49.11 48.67 48.68 49.15
46.33 46.10 45.92 46.10 45.99 46.01 45.25 44.46 44.05 42.79 35.82 27.02 28.03 38.08 39.90 41.78 42.21 43.25 44.19 43.33 41.82 39.72 36.30 33.72 33.09 34.28 34.78 34.31 34.66 33.31 38.31 37.24 34.25 33.63 41.28 39.94 42.09 45.40 47.73 46.77 47.13 48.35 48.37 48.12
46.30 46.15 46.40 46.17 45.41 45.68 42.44 34.04 42.61 43.74 40.66 33.39 28.62 36.72 38.50 41.81 43.21 42.36 42.23 42.70 42.04 41.01 38.11 35.27 36.38 39.71 36.51 28.62 29.89 36.97 41.01 40.72 41.64 40.51 43.34 43.43 44.71 46.40 46.99 47.32 45.62 47.25 48.03 48.04
45.55 45.55 45.80 46.10 45.60 43.88 36.64 34.27 39.85 44.38 41.60 35.41 29.91 32.92 38.34 42.14 41.96 41.35 40.80 42.13 41.58 41.04 38.36 35.06 35.04 37.06 38.44 31.77 27.93 37.52 39.93 40.29 40.79 42.67 44.22 43.12 44.63 44.38 44.18 43.33 41.20 40.44 39.27 40.06
45.35 45.59 45.70 45.51 45.72 43.11 39.93 42.38 44.42 43.66 39.51 37.23 28.62 31.97 35.37 39.93 37.20 36.18 40.95 38.04 38.59 38.23 37.20 36.20 34.34 34.04 32.88 28.44 34.83 38.47 40.09 40.55 40.68 41.86 42.85 44.75 44.51 43.20 41.40 39.08 36.59 33.02 31.34 31.02
45.77 45.69 45.80 43.56 40.55 37.95 40.82 44.92 44.62 43.52 39.28 30.37 30.11 28.25 27.91 37.61 36.29 37.88 36.27 37.77 31.98 33.60 30.50 31.54 33.54 29.23 28.47 33.33 35.78 39.66 40.13 39.23 39.97 43.95 42.81 42.65 40.85 39.81 37.54 35.35 32.69 29.17 27.53 28.21
44.35 41.54 37.58 32.22 41.04 45.41 44.90 40.77 36.42 36.97 37.86 34.32 28.07 32.89 30.45 35.41 32.92 31.62 31.57 27.87 26.30 28.28 31.93 34.55 30.34 28.77 35.06 39.63 40.37 38.55 37.46 36.97 36.90 39.67 38.34 37.09 34.53 32.73 31.18 29.67 28.77 27.41 25.94 25.54
40.87 35.83 35.97 42.40 44.76 39.14 34.74 30.49 30.64 31.59 29.81 32.15 32.68 32.25 31.49 34.78 29.21 30.64 27.76 29.50 26.76 24.67 27.13 28.83 29.79 29.13 33.47 37.94 36.96 36.02 35.41 34.77 33.92 34.44 37.15 36.90 33.42 29.29 27.19 26.32 26.53 25.84 25.05 23.90
40.47 40.78 42.78 41.42 37.04 32.45 29.59 27.28 29.93 27.50 26.92 28.75 31.05 29.81 32.08 32.83 30.79 29.05 30.93 25.09 29.94 24.57 31.19 30.01 26.52 31.14 34.62 35.05 33.97 33.37 33.86 32.63 31.51 30.94 29.71 29.11 28.09 27.25 26.17 25.37 24.40 24.26 24.14 23.56
41.32 37.82 33.22 32.80 28.46 21.06 20.43 21.98 26.05 24.84 24.59 28.35 32.18 29.82 32.59 33.57 32.06 28.34 28.66 26.18 24.73 31.11 29.98 26.16 29.06 31.73 31.54 31.57 31.44 30.27 30.24 29.89 29.25 28.00 27.96 27.45 26.89 26.90 25.57 24.19 24.33 23.92 22.73 22.50
32.06 26.31 20.52 19.08 18.24 23.94 24.06 27.35 29.75 29.39 31.03 30.78 31.78 31.32 30.99 31.92 28.80 29.49 25.94 25.53 31.08 26.76 23.15 24.42 28.05 27.78 28.36 29.42 29.65 29.11 27.16 26.96 26.29 25.94 25.71 24.95 24.23 23.55 23.75 23.46 23.38 22.05 20.73 20.81
25.99 26.13 20.15 20.77 25.43 25.70 25.74 27.29 28.34 27.72 30.04 32.69 32.09 31.87 32.10 30.43 26.43 28.77 27.67 26.91 23.60 25.37 23.36 23.67 26.54 27.18 26.94 26.22 26.21 25.59 24.93 24.53 24.11 24.12 23.16 23.01 22.94 22.37 21.91 22.58 22.42 21.71 20.20 19.01
24.94 22.31 21.13 22.49 21.66 20.27 22.68 22.98 24.07 28.22 27.84 31.52 33.31 30.63 28.30 24.17 25.98 25.54 21.43 20.11 15.89 17.60 21.44 24.70 26.25 25.54 25.40 25.19 25.16 24.67 24.47 23.85 23.31 23.34 23.28 22.69 21.72 20.88 20.89 21.54 21.31 20.67 20.17 19.21
21.47 19.37 21.98 21.01 17.45 19.28 21.07 22.12 23.57 27.50 27.37 29.59 29.12 23.28 21.45 27.36 21.44 18.23 21.10 16.15 19.31 21.30 23.44 24.86 24.86 23.69 23.19 23.73 23.70 23.55 23.52 22.84 22.48 22.47 22.56 22.08 22.75 22.33 20.71 18.50 19.57 19.82 19.11 17.71

GFSNW_sfc_wetblb_090.txt.gz
Wetbulb
45.62 45.72 46.02 46.44 46.43 46.61 42.97 38.30 30.35 41.30 43.99 31.95 31.91 25.80 27.57 32.81 30.38 33.88 32.79 31.61 29.37 26.96 28.31 26.61 27.01 28.58 32.41 36.44 37.34 34.49 38.80 35.91 29.03 33.56 39.74 40.14 38.18 36.87 37.94 31.99 29.57 30.85 29.27 32.24
44.95 45.39 45.81 46.12 46.39 46.32 37.94 34.00 34.26 42.66 40.26 25.76 26.87 29.67 29.07 30.80 30.09 29.69 30.55 30.80 32.87 31.92 29.33 25.87 29.50 30.24 36.30 38.88 38.94 37.11 38.53 34.61 28.60 30.08 34.65 38.01 35.06 37.09 38.90 38.12 35.89 32.35 28.76 31.10
44.79 45.15 45.40 45.90 46.11 46.38 40.27 33.29 27.74 33.32 37.25 35.70 28.58 27.29 26.60 26.82 33.42 30.99 31.79 31.31 32.34 29.61 27.81 30.63 28.58 30.11 34.44 36.79 35.68 42.98 40.24 34.39 31.20 28.66 31.92 36.69 33.78 36.34 38.35 38.34 30.96 32.44 33.95 34.42
44.37 44.91 45.48 45.64 45.84 46.20 41.36 34.53 30.05 33.45 25.64 29.46 30.21 30.07 29.15 26.26 26.33 33.22 34.25 30.06 29.36 28.55 26.25 27.77 27.36 30.51 32.00 34.72 37.81 39.99 38.06 29.66 32.68 34.54 36.13 35.71 36.03 36.45 37.53 36.21 36.48 33.11 34.71 36.77
45.30 45.28 45.53 45.58 45.72 46.13 38.67 32.07 31.53 34.37 29.99 31.31 30.73 30.22 27.73 27.16 29.05 30.24 31.05 30.62 32.39 32.49 28.14 29.09 26.95 29.92 30.03 30.04 37.44 38.62 38.60 28.70 34.19 30.63 35.41 36.81 34.58 37.31 37.73 38.00 37.04 35.93 36.49 35.89
45.00 45.24 45.25 45.65 45.70 45.38 38.12 39.16 39.69 35.58 31.80 29.14 28.58 28.43 29.39 30.13 32.02 33.97 34.41 33.47 32.44 30.61 31.68 35.12 35.67 36.39 35.16 34.36 31.76 31.13 34.33 33.10 32.87 28.48 34.37 33.48 29.44 34.49 37.06 37.34 39.17 38.75 34.13 38.41
45.13 45.13 45.22 45.36 45.77 45.38 41.12 40.67 37.52 32.79 26.81 29.91 29.22 31.23 32.68 32.00 32.93 31.01 34.31 35.50 32.67 35.89 39.59 39.48 37.48 35.43 34.92 34.60 33.39 34.53 31.39 33.80 32.92 29.53 31.31 26.21 34.61 40.27 41.01 38.85 39.83 40.36 40.19 41.29
45.15 45.15 45.19 45.38 45.60 46.04 42.41 42.56 39.11 34.51 28.48 31.11 31.30 31.74 31.80 33.60 34.94 33.38 33.72 36.01 38.35 40.13 37.42 32.76 29.59 28.05 30.18 31.87 32.33 32.12 33.71 33.75 30.13 28.90 29.64 31.96 35.39 38.49 38.07 37.72 37.94 42.13 41.62 42.23
45.13 45.26 45.36 45.66 45.76 45.95 43.67 42.40 42.77 38.34 32.64 29.57 33.76 32.36 33.13 30.44 31.08 32.43 34.09 39.04 40.89 38.54 33.30 30.20 24.36 21.59 26.24 25.74 31.74 35.38 35.96 36.77 31.77 30.85 26.59 23.78 34.48 39.98 42.61 43.29 32.47 42.86 42.77 42.52
45.46 45.67 45.65 45.80 45.97 46.18 44.22 42.11 44.03 39.75 32.92 35.20 35.04 32.00 31.70 34.91 33.19 30.60 33.75 35.25 35.03 37.20 31.11 25.76 24.66 24.53 30.70 23.63 23.87 28.78 31.41 32.26 29.18 29.31 28.99 31.06 39.44 42.48 43.26 31.30 33.58 43.31 43.71 43.42
45.41 45.74 45.76 45.79 45.90 46.02 44.59 41.81 44.47 39.57 33.81 37.12 37.09 37.90 35.07 34.91 34.48 30.06 34.12 34.10 32.43 32.23 28.10 25.54 24.78 23.86 27.57 26.83 28.83 28.43 27.67 29.98 30.05 31.83 29.29 26.75 41.21 41.89 37.39 39.46 43.62 44.63 44.73 44.54
45.85 45.95 46.02 46.02 46.23 46.38 46.16 39.93 44.33 44.67 37.98 37.03 41.15 40.77 42.05 40.66 40.12 36.91 36.74 33.93 33.77 34.16 30.53 27.24 26.63 23.24 23.55 27.67 24.10 33.08 28.15 33.37 31.55 33.73 33.12 40.91 41.47 42.24 44.24 46.94 44.79 45.02 44.93 46.05
45.55 45.67 46.32 46.45 46.39 46.44 45.82 42.52 43.44 41.51 34.00 34.48 36.68 36.34 40.74 43.08 42.01 44.20 34.44 34.36 38.22 38.22 40.76 35.92 31.46 25.04 28.13 22.01 25.49 29.57 33.20 38.23 33.95 34.73 38.50 39.83 40.86 43.46 44.18 45.99 45.75 47.38 47.47 47.70
45.51 45.51 45.57 46.08 46.32 46.51 45.97 42.16 43.10 40.40 36.74 31.07 32.70 40.27 37.63 42.17 42.64 42.23 41.89 40.20 42.15 41.57 40.74 35.51 33.76 27.01 33.14 27.66 29.69 29.52 33.35 36.13 35.01 35.61 40.08 41.69 41.75 43.29 43.87 45.40 47.91 47.45 48.65 47.98
46.13 45.91 45.64 45.76 46.22 46.55 45.18 43.78 43.26 42.91 36.07 30.14 29.22 36.59 38.83 40.93 40.43 40.96 42.16 41.80 40.35 38.94 35.94 33.61 32.84 35.78 35.17 32.53 32.39 29.83 35.26 33.92 31.85 31.32 39.95 38.34 39.24 42.78 45.82 44.16 45.17 44.70 45.78 47.47
46.02 46.16 46.09 46.02 45.57 45.90 42.85 35.85 42.99 43.31 41.69 34.48 27.56 34.25 36.06 38.46 38.73 38.68 39.40 39.96 40.72 40.44 36.81 33.67 34.29 37.80 36.32 29.48 26.58 33.97 37.12 38.66 39.16 38.31 41.11 40.19 42.02 43.77 43.72 44.67 41.57 38.51 37.36 40.54
45.88 46.21 46.15 46.04 45.48 43.92 36.30 33.83 39.98 44.42 43.28 34.82 26.65 25.45 35.69 38.25 37.22 36.83 38.22 39.45 39.04 39.40 37.76 35.85 35.63 34.55 37.88 26.24 28.80 34.40 37.80 39.15 39.34 40.02 39.82 37.90 40.83 41.12 40.23 40.02 38.94 37.93 35.81 34.87
45.77 46.00 45.93 45.82 45.79 42.96 39.28 42.08 44.30 43.96 38.90 37.17 24.21 22.49 34.90 38.61 32.99 34.25 39.10 36.03 38.01 38.54 36.11 36.50 35.58 36.24 33.34 29.92 33.39 36.53 38.66 39.42 39.06 39.60 40.44 40.67 40.94 38.69 37.22 36.48 35.04 32.12 30.78 30.41
46.02 46.05 46.02 42.40 39.29 36.44 40.23 44.77 44.72 43.88 38.45 29.99 28.62 20.21 27.67 38.02 36.44 37.87 37.24 38.46 31.03 35.33 32.46 33.10 35.61 32.55 29.80 32.51 34.10 35.29 37.11 38.50 40.28 41.60 42.51 41.33 38.14 36.13 35.17 34.19 32.84 29.97 28.06 27.70
42.53 39.85 34.96 31.83 40.03 44.96 44.13 40.28 36.25 35.38 37.42 35.12 25.03 32.66 29.93 35.44 33.64 32.92 32.18 33.75 31.59 29.34 32.21 34.64 32.13 30.48 33.34 35.57 37.10 37.46 39.01 39.24 38.59 37.57 37.90 35.80 33.52 30.84 28.88 27.94 28.74 27.27 25.92 25.18
39.98 37.32 35.46 41.45 44.46 38.85 35.79 30.31 29.06 31.38 28.50 31.20 30.77 31.62 31.47 35.03 30.86 30.82 31.86 30.49 29.42 22.61 26.27 28.41 28.51 27.84 31.51 35.71 35.91 34.52 34.16 34.36 33.91 34.60 32.65 35.57 32.70 27.42 26.16 25.76 26.25 26.01 25.01 23.77
41.33 40.69 42.27 40.50 36.74 32.73 26.85 23.16 29.05 28.68 25.91 31.13 29.31 31.82 33.98 32.36 34.71 31.42 30.49 27.58 29.33 22.66 29.93 29.13 25.67 28.10 34.17 34.71 33.52 33.37 32.68 30.60 29.68 29.77 28.36 27.87 27.40 26.75 25.81 24.93 24.31 23.84 23.50 22.48
39.72 35.13 30.64 31.39 28.38 23.87 24.17 15.69 24.61 25.30 28.26 31.47 31.56 29.76 31.80 32.36 30.55 28.98 28.68 25.08 25.10 29.69 28.68 26.76 27.20 30.59 31.43 31.57 30.68 29.60 30.30 29.49 28.26 27.39 26.71 26.47 25.84 26.05 25.19 23.52 23.53 22.78 21.42 21.07
30.32 25.58 21.62 19.02 11.23 18.22 23.11 25.61 28.15 28.16 30.44 31.83 28.63 30.01 30.33 31.02 28.92 28.77 24.32 22.29 28.23 26.87 23.26 24.77 28.01 28.26 28.57 29.26 29.52 27.98 26.51 26.76 26.28 25.66 25.34 24.59 23.56 22.84 22.79 22.02 21.88 20.80 19.45 19.59
23.40 23.91 16.43 19.85 24.13 24.53 24.98 26.62 27.49 27.50 29.53 32.12 29.76 31.58 30.98 28.87 27.56 28.46 26.89 25.92 23.28 25.02 17.33 20.86 25.92 26.97 27.09 26.28 25.91 25.51 24.58 24.16 23.68 23.54 22.53 21.96 21.54 20.84 20.29 20.87 20.90 20.02 18.86 17.88
22.61 19.90 18.66 20.55 20.60 18.76 21.29 21.12 22.97 27.15 26.94 30.75 32.14 29.06 26.65 25.30 24.11 26.24 21.74 21.01 16.91 13.66 18.19 22.12 25.78 24.63 24.52 24.40 24.40 24.00 23.75 23.18 22.68 22.64 21.94 20.72 19.70 18.99 18.93 19.97 19.78 19.44 18.62 17.00
20.00 17.22 20.63 19.68 17.76 17.28 18.58 19.80 21.99 26.29 26.67 27.56 27.41 22.76 19.73 24.74 19.13 17.69 20.28 14.93 18.25 19.23 20.64 22.37 23.46 23.19 22.49 23.19 23.14 22.64 22.54 21.82 21.50 21.12 20.84 20.35 20.69 20.13 18.40 16.18 17.45 17.91 17.18 15.88

GFSNW_sfc_wetblb_093.txt.gz
Wetbulb
45.67 46.06 45.66 45.44 46.12 46.47 42.99 37.08 28.77 40.71 43.99 31.35 31.84 25.38 27.19 31.49 30.01 33.03 32.16 32.46 30.42 28.10 28.16 26.92 27.02 27.71 33.06 36.79 37.05 33.83 39.67 36.44 31.51 34.81 41.36 42.45 41.15 38.67 39.30 33.49 32.60 35.51 34.43 35.71
45.54 45.45 45.30 45.66 46.24 45.67 39.98 34.29 32.94 42.14 41.50 25.10 26.42 29.70 28.85 30.43 29.85 30.11 30.71 30.76 33.12 32.99 29.65 25.80 29.35 31.34 36.56 37.71 36.01 33.64 35.42 33.01 28.11 32.45 36.97 40.51 37.54 38.98 39.72 39.53 37.85 33.88 31.44 35.46
45.00 45.14 45.10 45.19 45.62 45.50 41.17 33.29 26.99 33.86 36.67 35.21 28.81 26.90 26.87 26.66 32.62 30.28 31.59 30.44 32.63 30.74 28.54 31.52 28.82 29.87 34.29 37.12 36.12 39.12 39.31 33.78 29.54 26.79 31.72 35.08 33.06 36.25 37.47 36.88 33.45 35.15 35.60 37.76
44.73 44.92 44.97 45.09 45.68 45.52 40.16 33.97 29.41 32.29 25.91 28.71 30.33 30.19 28.94 26.44 25.93 32.15 33.15 29.69 29.27 28.57 25.45 27.57 27.78 31.42 32.83 35.60 37.66 37.18 38.26 30.85 33.30 33.97 34.81 34.65 34.71 34.03 35.28 34.88 36.69 33.54 37.52 38.82
43.99 44.26 44.35 45.25 45.45 45.52 37.98 30.22 29.80 33.10 29.71 30.73 29.00 29.53 28.51 26.64 28.55 29.19 28.98 28.45 31.52 31.54 27.09 28.13 28.10 31.11 31.43 30.90 35.32 34.66 34.81 32.32 33.51 30.79 34.27 34.97 32.44 35.99 37.37 37.47 38.38 38.52 39.14 39.62
44.01 43.74 44.34 44.56 45.17 44.87 36.89 37.46 38.77 35.29 29.94 28.84 27.97 28.05 28.75 29.08 30.96 31.92 32.76 31.86 32.91 32.63 32.81 35.59 36.05 36.51 35.93 35.18 32.85 31.89 31.10 30.63 31.42 28.03 34.23 34.42 30.89 35.07 37.43 39.16 40.72 40.84 36.90 42.70
43.56 44.18 44.47 44.18 44.97 44.51 39.62 38.00 36.90 31.52 25.67 28.91 27.77 28.93 30.28 29.64 30.95 29.42 33.36 35.37 32.50 35.41 39.78 39.13 37.90 36.85 35.29 34.91 34.55 35.63 30.99 31.09 30.29 27.53 31.04 24.12 36.11 41.14 41.86 39.30 40.75 43.17 43.79 44.87
44.80 44.68 44.71 44.76 45.11 45.33 40.68 39.92 37.29 32.81 26.02 29.99 29.79 30.72 30.57 32.16 33.40 32.54 33.53 35.68 38.02 40.39 37.03 32.99 29.31 29.28 30.50 32.84 33.51 33.88 34.69 31.45 27.36 25.84 27.16 32.60 34.49 39.41 38.85 37.26 37.77 44.06 42.83 45.08
44.78 44.75 44.71 44.94 45.06 45.49 42.24 40.53 40.99 36.35 31.57 28.98 33.19 31.07 32.50 29.86 30.62 31.45 34.01 39.00 41.19 38.78 34.39 31.10 24.25 21.51 26.32 26.90 30.68 36.01 34.24 33.94 29.97 29.23 24.99 22.99 34.46 41.74 44.25 43.81 35.06 45.12 45.55 45.57
44.98 45.00 45.02 45.18 45.21 45.51 43.03 40.79 42.12 37.14 30.66 34.28 35.50 32.27 32.06 34.76 33.38 31.64 34.10 35.65 35.67 37.89 32.04 27.63 25.09 23.75 30.82 25.32 26.21 28.96 28.06 28.25 25.71 26.89 26.50 32.03 39.77 42.83 45.69 32.60 36.69 44.65 46.59 46.91
44.85 45.03 45.07 45.54 45.47 45.61 43.76 41.17 43.93 37.95 33.35 35.92 37.51 37.86 34.59 35.37 35.11 30.27 34.74 34.06 34.63 33.70 29.98 28.64 27.51 26.68 28.99 28.24 30.41 29.10 30.37 28.16 27.18 28.77 27.03 24.31 42.64 43.01 37.23 40.65 44.37 45.58 47.27 47.78
45.41 45.62 45.25 45.32 45.66 45.94 45.29 39.18 43.87 44.00 37.19 36.09 41.53 41.45 41.88 40.89 39.94 36.52 36.95 35.00 34.48 35.25 31.89 30.70 30.63 27.78 29.41 29.88 25.04 34.10 27.99 34.07 33.01 33.35 31.09 41.64 43.30 42.29 44.98 47.44 44.49 46.53 47.40 48.44
45.17 45.26 45.46 45.71 45.71 45.89 45.35 41.67 42.73 40.95 36.16 33.72 37.26 36.72 41.56 43.37 42.96 44.31 34.97 36.66 39.16 37.35 40.31 35.79 32.57 27.89 31.39 28.04 29.09 32.07 34.88 38.46 35.29 35.29 38.71 40.31 42.24 44.67 45.39 45.72 45.83 47.82 49.31 48.90
45.19 45.42 45.58 45.86 45.86 45.93 45.67 41.94 43.11 40.57 35.94 30.98 34.41 41.53 39.06 43.87 43.62 43.05 43.17 41.10 42.40 41.66 41.05 36.19 33.91 30.96 35.82 31.41 33.06 32.60 35.68 37.81 35.88 35.11 38.22 41.19 43.03 43.99 44.25 45.40 47.61 47.98 48.74 49.16
45.42 45.66 45.75 45.93 46.52 46.22 45.28 43.70 43.47 42.65 37.26 31.31 32.47 37.01 40.02 41.96 42.13 41.16 42.25 41.65 40.32 38.91 35.74 33.25 32.41 36.09 35.83 35.87 34.67 33.34 37.39 36.09 33.49 32.40 39.16 40.05 41.27 43.19 44.51 45.62 43.39 42.76 45.42 48.37
45.71 46.03 46.12 45.96 45.86 46.08 42.62 36.16 42.13 43.78 42.37 34.79 28.92 36.34 36.35 39.08 40.26 39.62 39.53 39.86 40.26 39.02 36.45 35.36 37.04 39.20 37.58 31.54 30.31 36.46 39.63 40.58 40.84 38.09 41.72 42.59 42.76 43.46 44.32 44.30 41.23 39.64 39.80 40.80
45.90 46.13 46.30 46.10 45.56 43.51 37.52 35.65 41.14 44.13 43.25 34.98 29.49 28.83 34.73 38.47 38.20 37.98 37.75 40.14 39.42 38.49 35.66 34.14 35.63 36.71 38.54 32.66 29.58 36.37 39.24 40.42 40.65 41.51 41.57 40.12 41.02 41.07 42.14 41.22 39.09 37.40 36.31 35.21
45.64 46.01 46.12 45.89 45.55 43.67 39.17 43.23 44.80 43.92 38.63 37.18 26.62 25.86 32.65 38.36 33.67 32.61 37.86 35.96 37.77 37.63 36.20 36.41 35.45 37.25 36.80 31.66 35.67 38.43 40.11 40.82 41.00 41.07 41.82 41.87 42.53 40.88 38.61 38.55 38.09 35.49 33.67 32.78
45.62 46.10 46.06 44.36 37.10 33.96 39.26 45.09 44.86 44.31 38.80 31.05 29.07 23.84 25.66 37.36 34.96 36.59 36.66 37.76 31.80 37.89 32.92 34.22 35.62 33.56 30.23 34.80 36.10 37.62 38.95 38.77 39.49 41.92 41.82 43.27 41.10 39.11 37.39 36.39 34.26 31.22 29.29 28.26
45.66 42.41 33.88 31.22 37.59 45.16 44.31 40.66 34.27 35.28 37.16 34.39 28.29 31.04 28.13 35.32 34.49 32.02 31.78 33.97 31.64 28.00 31.72 36.52 32.42 31.77 36.85 37.94 38.99 39.25 38.56 39.77 41.00 39.17 39.51 39.22 36.96 33.85 31.78 32.44 31.90 30.29 28.36 26.26
37.80 33.58 34.44 41.49 44.36 39.87 35.97 30.67 30.33 31.35 29.16 31.55 31.42 32.09 30.95 36.26 31.85 31.62 33.58 31.41 31.23 26.49 30.79 31.32 30.37 29.77 33.71 36.42 36.42 34.83 34.61 34.96 34.55 35.11 34.81 35.79 37.99 31.86 28.71 27.43 27.60 27.71 26.66 24.04
40.90 39.87 42.10 40.75 36.55 32.27 28.57 27.13 29.74 27.43 25.84 31.07 30.52 32.12 33.73 33.56 35.66 32.70 31.53 28.69 29.80 24.89 32.44 30.40 26.55 31.19 33.71 34.35 33.77 33.34 33.04 31.66 30.47 31.04 30.33 30.31 30.03 29.71 28.58 26.65 25.99 25.04 23.35 21.99
39.64 34.57 31.55 32.06 26.05 19.93 17.09 21.43 25.28 25.97 29.44 32.36 32.30 31.06 32.35 32.33 33.37 30.38 29.86 27.51 26.85 31.57 29.14 26.99 29.05 29.70 31.50 31.48 31.07 29.90 30.35 29.68 28.76 27.71 28.13 27.54 26.89 27.30 26.22 24.43 24.00 22.93 21.13 20.76
29.39 23.92 15.84 16.79 15.32 19.33 21.30 24.75 26.66 28.14 29.88 32.03 31.80 30.66 31.03 31.92 29.74 30.20 25.91 27.34 30.18 26.35 25.11 25.60 26.10 27.49 28.27 28.47 29.34 28.16 26.78 27.58 27.14 26.63 26.10 24.97 23.83 22.89 22.63 22.03 21.50 19.74 18.24 18.38
22.86 22.91 15.73 16.12 22.47 22.34 23.88 25.39 27.66 27.32 29.15 32.48 31.69 31.94 32.18 28.93 28.28 29.59 27.50 25.45 24.25 25.66 22.61 21.29 24.43 26.56 27.08 26.49 25.96 24.99 24.28 23.88 23.59 23.54 22.05 21.50 21.37 20.37 20.12 20.92 20.45 19.34 17.29 15.83
20.38 17.67 16.46 18.10 19.73 18.12 19.79 20.32 22.82 26.35 25.97 30.07 32.99 29.50 25.85 25.57 27.65 25.74 21.74 23.04 20.30 18.39 20.77 23.11 25.33 24.48 24.24 24.06 24.32 23.61 23.39 22.52 21.83 21.64 20.82 20.10 19.21 18.08 17.79 18.10 17.49 16.63 15.96 14.99
19.25 16.49 19.90 18.92 17.04 15.20 17.31 19.63 21.64 25.57 25.44 27.57 26.56 21.46 19.69 25.24 20.95 17.34 20.21 16.30 19.56 21.99 22.16 23.05 23.15 22.85 22.68 22.82 22.51 22.11 21.87 21.23 20.71 20.15 19.94 19.41 19.76 19.15 17.72 15.31 16.36 16.37 15.48 14.45

GFSNW_sfc_wetblb_096.txt.gz
Wetbulb
44.85 44.37 45.54 45.76 46.08 46.46 45.00 40.55 31.33 43.57 46.97 33.76 33.22 29.45 30.47 33.03 32.44 35.21 33.15 33.48 32.45 30.85 31.68 30.35 30.42 30.22 33.53 38.35 38.21 34.39 38.78 37.08 32.87 36.58 44.03 45.24 44.09 41.75 41.13 36.05 35.13 38.97 38.16 38.81
44.59 44.20 44.53 45.38 45.60 45.42 41.75 35.86 35.98 42.85 43.97 27.89 29.05 31.71 31.40 32.99 31.68 32.39 31.65 31.09 33.55 34.30 31.18 27.78 31.60 32.78 37.79 39.18 39.29 36.83 37.70 35.21 30.94 34.48 39.87 42.46 40.06 41.95 42.02 41.66 41.21 36.81 35.17 39.38
40.95 44.43 44.59 45.10 44.59 45.67 44.00 36.40 30.33 35.53 36.83 36.80 32.66 30.24 29.94 29.21 34.47 33.01 34.04 32.69 34.37 32.95 31.51 34.47 30.98 32.76 37.18 39.78 38.44 40.83 39.16 34.94 32.47 30.09 34.14 38.04 35.77 38.28 40.61 39.08 35.73 37.47 38.70 40.38
42.61 44.80 44.81 44.47 44.92 45.46 43.72 35.51 31.98 35.23 27.93 30.37 32.90 32.43 31.12 29.18 27.98 33.63 34.83 31.81 31.81 30.73 27.86 29.84 30.41 33.79 35.23 37.76 39.93 40.29 38.45 31.73 34.54 35.31 36.03 36.18 35.80 36.11 37.77 37.67 39.03 35.97 39.38 40.90
43.53 43.86 44.11 45.26 44.74 45.10 39.22 33.14 33.20 36.01 33.15 34.01 31.87 30.71 29.67 28.88 30.24 31.54 30.74 30.48 32.98 33.51 30.28 31.74 30.23 33.34 34.34 33.61 37.34 37.34 36.86 32.20 34.84 33.01 36.96 36.59 34.22 36.90 38.10 38.55 39.91 40.68 41.21 40.64
43.79 44.09 44.13 42.79 44.90 45.11 37.03 38.95 41.06 36.88 32.25 31.99 29.85 29.43 30.47 30.65 33.12 34.47 35.33 34.32 32.84 31.71 33.81 36.34 37.92 38.35 38.33 37.35 35.63 34.25 33.92 33.70 31.84 29.10 35.70 35.89 31.65 36.12 37.94 39.31 41.64 42.36 39.35 44.42
43.39 43.69 43.92 44.23 44.33 44.67 41.70 39.62 39.47 33.24 27.80 30.61 30.11 31.66 32.64 31.85 33.22 32.13 35.25 36.11 33.42 36.41 40.37 39.93 38.73 38.23 37.40 37.47 37.84 38.65 33.08 31.97 30.57 28.39 32.06 24.73 37.32 43.29 43.08 41.12 43.36 45.39 45.74 46.67
43.82 44.08 44.16 44.33 44.52 44.83 43.95 42.12 38.44 34.40 27.91 31.11 31.43 31.85 31.98 33.65 34.71 33.81 34.32 36.26 38.13 40.38 37.69 33.08 29.51 31.42 32.29 34.91 37.48 37.80 38.04 34.56 29.00 26.51 27.74 32.72 36.19 40.28 41.62 41.04 41.07 46.18 46.86 47.87
44.49 44.35 44.49 44.66 44.66 44.92 44.66 43.67 43.48 38.07 30.73 29.65 33.60 32.05 33.53 31.40 31.67 32.61 34.88 39.00 41.23 38.90 34.98 32.61 25.91 24.46 27.03 28.17 33.32 39.33 38.14 36.39 31.82 29.66 24.24 22.27 34.96 43.68 46.26 45.36 36.22 47.37 47.48 47.49
44.45 44.71 44.92 44.98 45.04 44.98 44.36 42.33 44.74 39.55 31.45 34.94 35.76 32.41 31.16 35.56 34.07 32.21 34.39 36.02 35.80 39.18 32.19 28.74 27.20 26.33 31.73 27.28 27.75 29.81 30.76 31.73 28.28 28.03 26.50 31.20 39.59 43.68 46.82 34.08 37.19 46.18 47.14 47.09
44.46 44.62 44.91 44.95 45.23 45.11 44.62 41.93 45.54 39.62 33.70 35.40 36.98 37.36 33.58 35.64 35.26 31.24 35.67 34.48 35.81 34.79 30.03 29.92 29.13 28.65 31.21 30.56 33.50 32.72 31.51 30.06 27.95 28.71 27.31 24.79 42.76 42.52 36.63 40.69 45.78 47.02 46.20 46.52
44.19 44.44 44.86 45.17 45.28 45.40 45.31 38.41 44.39 44.87 37.15 35.69 40.79 40.73 41.88 41.23 40.03 37.45 36.97 35.62 35.23 36.21 33.38 33.93 34.21 30.99 33.08 31.86 27.77 37.73 30.56 35.02 34.08 34.16 32.50 41.39 43.73 42.36 44.14 44.98 45.30 46.29 45.66 46.47
44.81 45.05 45.04 45.15 45.54 45.76 45.27 40.96 42.35 40.46 35.69 34.61 36.68 35.70 42.39 45.21 45.14 46.48 35.84 38.32 39.60 38.59 42.01 37.31 35.88 31.06 36.01 29.43 31.76 34.44 38.04 40.68 36.57 36.89 39.08 40.87 41.52 42.54 44.49 45.56 46.98 48.17 49.40 49.95
44.60 45.01 45.05 45.48 45.55 45.95 45.51 41.70 42.70 40.84 35.72 31.07 35.09 42.41 40.46 45.30 45.75 45.22 45.08 42.47 43.37 42.60 41.94 36.59 35.22 33.09 38.36 34.09 35.66 35.08 38.74 39.75 37.32 37.28 39.65 40.93 42.35 44.45 45.09 45.95 48.34 47.05 47.73 50.33
45.04 45.34 45.43 45.38 45.61 45.61 45.13 44.09 43.29 43.01 37.91 33.67 34.97 40.81 42.50 43.73 43.53 43.06 43.71 42.66 40.95 40.20 36.58 34.62 33.46 37.45 36.93 38.05 37.22 35.50 40.70 38.49 36.12 35.22 41.51 41.07 41.20 44.29 46.08 45.46 47.37 46.70 46.14 50.59
45.37 45.57 45.71 45.80 45.47 45.50 42.93 33.73 42.84 43.99 42.64 35.75 31.94 40.89 39.11 42.21 42.56 41.80 41.27 42.24 41.88 40.17 36.28 36.85 37.80 41.41 38.72 34.28 33.11 39.31 41.94 43.37 43.85 41.24 44.41 44.43 44.90 45.35 46.81 46.80 45.64 44.14 45.15 47.61
45.46 45.74 45.83 45.68 45.71 44.49 37.66 37.27 42.02 44.27 42.83 35.43 32.18 34.29 39.23 41.46 41.59 40.86 40.75 42.04 39.97 38.95 35.80 35.86 36.80 38.83 39.13 35.13 31.55 38.46 41.25 42.97 43.69 44.61 44.27 42.30 44.35 43.43 46.06 45.38 43.13 41.73 41.06 40.96
45.81 45.64 45.90 45.57 45.59 43.79 40.28 45.73 44.78 44.04 39.12 38.08 31.72 32.57 35.88 41.18 37.09 36.54 41.16 37.74 38.93 37.64 37.15 37.86 36.87 37.49 36.93 33.31 37.61 40.08 41.97 42.96 43.12 44.06 45.74 45.07 45.57 45.51 44.35 44.64 43.74 40.37 37.60 36.94
45.92 45.94 46.13 44.45 38.33 36.49 39.92 45.06 44.55 45.58 41.11 32.84 32.28 30.93 29.63 40.76 37.81 39.05 38.84 39.35 33.24 39.46 34.43 34.85 36.03 33.86 30.88 35.34 37.66 39.12 41.30 41.91 42.77 44.71 44.93 45.08 44.49 45.55 43.29 41.49 41.16 38.27 33.94 32.06
45.75 40.71 33.91 31.74 36.39 45.18 44.56 40.48 34.73 36.18 38.23 37.47 33.58 37.57 31.54 36.74 34.55 35.10 34.87 36.41 32.80 29.15 33.34 38.04 33.40 33.18 38.51 40.09 41.03 41.73 42.17 43.02 43.73 41.55 41.57 42.85 43.49 42.06 39.73 39.96 38.90 36.50 31.00 28.31
38.12 32.99 34.95 41.02 45.00 41.36 36.21 31.92 32.46 33.68 31.34 34.96 35.83 36.51 34.01 38.92 33.68 33.65 36.38 32.12 33.24 27.87 31.93 31.73 31.28 31.10 37.23 41.26 41.29 40.91 39.56 39.89 40.00 40.78 41.40 41.77 41.83 41.96 37.79 35.62 35.15 33.17 29.77 26.43
39.84 40.46 42.37 41.74 36.43 34.24 32.21 30.86 32.02 30.21 29.25 32.22 30.91 34.11 37.96 35.22 39.23 35.59 33.79 32.04 31.87 28.19 35.68 31.45 29.20 33.71 34.09 36.25 36.18 36.03 35.70 35.00 35.14 36.34 36.46 36.56 36.99 38.82 36.34 33.75 31.16 28.47 25.78 23.90
43.01 38.77 33.07 34.73 31.68 28.82 27.11 22.90 26.56 27.76 32.55 32.87 33.80 32.27 34.36 35.26 37.12 34.62 32.46 29.74 29.90 36.59 30.86 29.75 30.32 29.36 31.08 31.20 32.05 31.79 31.88 30.99 30.44 30.71 32.86 33.57 33.36 33.22 32.26 27.47 26.00 24.57 22.92 22.32
32.30 31.92 22.92 27.43 25.62 26.45 28.23 29.99 30.79 31.74 33.13 33.37 34.26 32.54 34.50 35.20 32.64 33.90 28.57 31.65 32.85 28.61 27.12 27.23 25.88 27.61 28.85 30.11 29.90 29.43 27.84 28.22 28.22 27.86 28.31 27.80 27.22 26.02 25.40 24.34 23.30 21.14 19.96 20.33
27.54 28.10 20.91 22.00 25.29 26.43 27.15 29.47 30.72 29.94 30.92 34.41 34.42 34.29 33.65 31.68 31.19 32.28 30.25 27.47 26.92 28.41 25.27 25.15 27.24 27.64 27.53 27.68 28.16 27.31 25.90 24.92 24.12 24.08 23.10 22.78 22.45 21.77 21.10 21.70 21.40 19.95 18.83 17.99
24.73 22.78 22.44 24.79 26.03 24.50 25.78 26.83 28.16 29.14 28.31 32.56 34.95 32.10 28.76 28.39 30.52 27.54 25.17 26.44 23.75 22.61 24.90 26.49 27.37 26.63 26.22 25.81 25.47 24.92 24.51 23.45 22.05 21.32 20.95 20.53 19.22 17.67 17.47 17.65 17.47 17.31 17.02 16.00
22.60 20.83 23.73 23.56 23.26 21.89 23.48 25.11 26.24 28.79 27.96 31.37 32.45 27.96 24.28 29.91 24.89 20.60 23.81 21.48 22.57 24.71 25.88 25.96 25.71 25.66 25.25 25.01 24.23 23.48 23.51 22.76 22.38 21.85 21.00 19.96 19.76 19.77 18.93 16.49 17.09 17.02 16.47 15.43

GFSNW_sfc_wetblb_099.txt.gz
Wetbulb
44.90 45.06 45.16 44.14 45.10 45.56 43.28 40.72 33.71 47.33 48.37 34.72 33.79 32.00 34.99 35.16 35.07 36.85 35.42 35.16 34.13 33.34 34.02 33.24 33.05 32.96 35.63 39.02 39.01 34.75 40.28 37.83 35.21 38.21 44.51 45.83 44.75 41.38 41.14 35.76 34.63 38.31 38.32 39.14
44.58 44.32 44.58 43.74 43.42 45.20 42.88 34.83 37.76 46.85 45.30 29.30 30.89 34.77 34.89 35.77 34.12 34.54 34.07 33.07 35.04 35.98 33.26 29.94 33.21 34.27 38.23 38.73 38.45 38.58 39.71 35.79 31.38 34.76 40.24 43.78 41.14 43.56 43.94 43.03 41.66 37.04 35.22 37.93
44.19 44.63 43.66 44.77 44.56 44.97 43.03 36.78 31.59 37.25 39.57 38.55 33.89 32.53 32.53 32.05 36.54 34.98 36.24 34.99 36.00 33.95 32.24 35.11 32.31 33.85 37.64 39.98 40.40 40.24 39.93 36.06 34.02 31.44 34.46 36.89 37.70 40.50 42.64 41.84 37.08 37.92 39.08 40.83
43.95 44.31 44.10 44.02 44.99 43.93 41.39 36.19 34.66 36.63 30.55 32.79 33.79 34.74 33.65 31.64 31.38 35.74 36.53 34.10 33.82 32.81 29.95 31.97 31.97 35.47 36.76 38.76 39.97 39.69 38.76 32.48 35.51 36.48 37.34 37.74 36.76 37.31 38.64 38.11 40.11 37.05 40.64 41.22
43.55 43.86 44.46 44.46 44.86 43.79 38.99 33.62 34.89 37.43 34.98 35.49 33.46 32.80 31.30 30.96 32.71 33.78 32.72 32.44 34.65 35.29 31.13 32.38 30.80 34.17 35.02 34.90 38.37 37.59 39.66 32.98 35.60 33.52 37.13 37.35 35.55 37.97 38.42 38.52 39.46 40.54 41.67 41.62
43.67 44.07 44.14 44.43 44.75 43.36 36.59 39.57 41.41 38.37 33.68 33.54 31.83 31.82 32.44 32.75 34.77 35.69 36.95 35.74 34.32 32.85 34.86 37.93 39.08 39.74 39.65 37.33 36.00 36.27 35.06 34.30 32.51 29.24 35.61 35.54 32.27 36.79 37.81 38.50 39.92 40.16 37.81 43.25
43.70 43.92 44.11 44.63 44.24 43.60 42.12 41.33 40.85 34.25 30.03 32.11 31.68 32.97 33.83 33.07 34.37 32.92 36.13 37.59 34.94 38.14 42.35 41.27 39.50 38.46 38.56 38.10 38.53 39.64 34.25 33.69 33.25 29.55 32.57 24.27 37.14 43.48 43.32 41.71 42.27 42.21 41.84 43.02
43.83 44.19 44.38 44.14 44.20 44.15 41.86 42.72 41.10 36.37 31.08 32.21 32.53 33.14 33.38 35.32 36.28 34.85 35.31 37.96 40.11 42.43 37.56 33.03 30.48 32.39 33.03 34.97 38.02 37.58 37.41 34.48 30.72 27.05 28.51 33.27 36.16 39.76 40.71 40.58 41.10 46.25 46.04 47.46
44.29 44.12 44.09 44.12 44.13 44.41 44.00 43.62 44.24 40.04 33.90 31.75 35.24 33.41 34.80 32.55 33.12 34.16 36.59 41.14 42.61 39.91 34.52 32.56 25.80 25.06 29.38 29.07 33.38 39.60 37.67 37.24 32.34 30.03 25.05 23.45 36.03 43.04 45.09 46.10 36.62 47.20 47.15 45.89
44.05 44.53 44.72 44.34 44.51 44.96 44.66 42.57 45.78 39.86 32.19 36.33 36.79 33.59 33.48 36.66 34.91 33.73 35.64 36.35 36.47 38.79 32.29 29.71 27.68 27.30 33.03 27.50 28.63 30.88 33.00 32.82 29.50 29.74 27.97 32.60 40.26 42.50 45.35 34.14 36.94 45.89 45.99 47.27
44.18 44.34 44.63 44.92 44.72 45.05 45.18 42.65 46.12 40.43 34.35 36.37 38.84 38.65 35.81 35.41 36.74 31.96 35.59 35.16 36.65 36.14 30.66 29.91 30.07 29.33 32.24 31.73 33.95 32.42 32.20 30.97 30.08 30.54 28.16 26.50 42.69 42.40 36.50 41.86 45.34 45.87 46.91 48.12
44.00 44.25 44.51 44.75 44.89 45.17 45.43 40.94 45.26 45.65 38.51 36.99 42.31 42.24 42.80 41.54 39.91 37.81 37.64 36.22 35.74 36.44 33.96 33.79 34.37 31.27 34.32 32.68 28.83 38.52 30.89 36.45 33.80 34.68 34.99 41.63 43.92 43.74 45.23 45.45 43.01 45.89 46.12 48.45
43.99 44.28 44.42 45.03 45.10 45.48 45.34 43.02 44.62 43.18 36.78 36.25 37.71 36.94 42.20 45.33 43.66 44.76 35.73 38.51 40.48 38.14 41.38 37.22 35.00 31.92 35.58 30.88 32.79 35.31 38.64 41.67 37.19 37.55 40.34 41.73 43.52 45.17 43.24 43.92 43.77 46.00 48.32 48.57
44.26 44.67 44.79 44.69 45.11 45.55 45.51 41.85 44.29 43.24 36.33 31.23 34.56 43.17 39.77 43.97 45.29 44.64 43.11 41.41 42.70 41.97 41.66 36.67 35.47 32.07 38.77 34.67 36.25 35.72 38.88 40.21 38.71 38.30 40.82 42.51 42.85 44.38 44.19 44.24 46.51 46.41 48.19 47.40
44.50 44.52 44.68 45.23 45.48 45.48 44.88 43.81 43.33 43.21 37.70 33.69 34.24 40.64 42.53 44.72 43.47 41.85 43.38 42.66 40.85 39.43 36.34 34.70 34.37 37.85 37.17 38.28 37.84 35.67 40.43 39.06 37.39 35.95 41.81 41.56 42.80 45.11 46.15 45.34 45.85 47.48 46.47 49.40
44.32 44.76 44.87 45.13 45.34 45.59 42.75 35.43 42.75 43.61 42.71 35.72 31.28 41.60 41.06 43.19 43.35 42.07 41.37 42.36 41.74 39.91 36.23 36.94 38.69 41.02 38.01 33.73 33.13 40.13 42.28 43.56 44.19 40.99 44.61 44.43 45.15 46.34 47.13 46.26 47.36 46.03 46.66 46.97
44.51 45.02 45.14 45.57 45.29 43.87 35.97 37.98 42.01 43.88 43.43 34.30 32.98 33.48 41.10 43.17 42.78 41.32 40.72 42.54 41.11 39.33 36.00 36.03 37.53 38.15 38.86 35.75 32.02 39.47 42.04 43.21 44.06 45.20 44.92 43.08 44.97 44.32 47.08 47.26 46.77 44.64 44.06 42.09
45.10 45.42 45.46 45.58 45.34 43.70 39.48 45.46 44.62 44.39 38.47 37.25 32.36 33.38 36.87 42.61 37.33 36.47 40.95 38.08 39.62 38.63 37.35 38.05 35.92 38.77 38.22 32.03 37.36 40.20 42.53 43.68 43.95 44.75 46.09 46.12 47.03 46.42 46.11 46.90 46.27 43.56 40.96 36.87
45.61 45.71 45.72 44.29 39.84 36.51 40.53 44.87 44.78 45.42 40.02 33.98 34.36 32.40 31.23 41.81 39.71 40.52 38.75 39.60 32.75 39.83 34.58 35.40 37.48 35.39 31.42 36.35 38.48 39.05 41.65 41.75 42.62 45.17 45.63 46.13 45.74 45.60 46.47 45.47 45.44 43.26 37.96 33.76
45.99 41.87 33.27 31.82 37.26 45.29 43.81 39.24 35.00 36.97 38.55 38.67 33.27 38.89 34.44 39.65 38.50 37.23 37.21 37.90 33.37 30.77 35.51 38.48 33.82 33.66 39.27 40.85 41.79 41.90 42.84 43.88 44.33 41.94 41.13 43.41 45.00 45.05 44.42 43.93 43.92 42.57 37.41 31.85
37.50 33.25 34.87 40.37 44.79 41.29 36.84 32.18 33.25 35.04 32.15 35.74 36.96 37.77 35.65 41.01 34.58 34.09 38.22 33.77 35.29 28.72 33.67 32.75 32.45 32.71 37.86 41.87 42.24 43.26 41.92 42.93 42.69 42.78 42.76 43.83 43.93 43.49 43.61 41.60 40.37 36.54 32.26 28.25
39.00 41.22 42.49 41.87 37.04 34.51 32.61 31.44 33.60 32.23 30.49 36.19 34.51 37.17 38.62 38.01 40.95 36.46 35.56 31.44 33.65 27.53 37.76 32.27 29.70 31.34 33.32 35.20 36.10 36.83 37.71 38.03 38.26 38.20 38.08 40.19 40.14 42.41 43.05 40.47 36.94 31.80 27.72 24.89
44.01 40.19 34.76 35.67 33.25 30.19 28.75 25.75 28.19 30.57 35.13 34.81 35.87 34.34 36.64 38.07 38.58 36.29 33.45 30.34 29.29 37.82 30.83 30.33 29.90 30.54 31.27 32.48 32.92 33.49 34.08 33.40 33.43 32.79 33.33 34.82 35.98 37.10 37.65 32.65 29.22 27.08 25.02 23.39
34.93 33.04 26.62 30.88 28.14 30.31 31.22 32.93 34.38 34.70 36.61 35.40 36.07 35.24 35.39 37.47 33.83 35.11 28.48 33.94 34.32 28.32 26.57 25.77 27.67 27.77 29.53 31.25 31.95 31.56 30.56 29.22 29.31 29.09 29.11 28.49 27.92 27.37 27.38 27.20 26.12 23.71 21.71 21.86
30.77 32.20 24.88 25.05 27.67 29.28 30.09 32.63 33.97 32.57 34.23 35.96 34.85 35.76 36.14 33.63 31.80 33.24 33.53 29.27 27.90 29.58 26.70 26.56 27.73 28.25 28.10 28.18 28.28 28.29 27.98 27.00 26.44 26.17 25.09 24.37 23.52 22.76 22.66 23.51 23.05 21.55 19.92 18.81
27.99 26.63 26.01 29.04 28.61 28.23 29.49 30.53 29.71 31.35 31.72 34.76 35.23 32.91 31.09 30.52 32.34 30.19 28.30 28.29 25.53 23.98 25.96 27.26 27.79 27.22 26.98 26.15 26.62 26.40 26.11 25.47 24.60 24.22 22.89 21.25 19.39 18.49 18.50 19.44 18.85 18.54 18.25 17.13
25.84 23.64 27.15 27.72 27.08 26.24 27.15 28.66 28.20 31.70 31.31 32.18 33.99 30.91 27.96 32.45 29.09 24.95 26.36 23.73 24.25 25.43 26.55 27.67 27.11 26.42 26.24 26.02 25.67 25.33 25.04 24.49 23.75 22.46 21.39 20.07 20.24 19.89 18.39 16.52 17.48 17.84 17.47 16.62

GFSNW_sfc_wetblb_102.txt.gz
Wetbulb
44.60 45.00 45.07 45.28 45.35 44.85 43.08 38.36 31.62 46.65 47.42 35.20 34.36 29.68 33.50 36.88 37.04 38.61 35.76 35.29 33.90 32.72 33.86 33.10 33.47 33.50 36.88 39.74 39.01 34.51 36.95 34.19 31.88 35.53 42.44 44.86 43.24 40.04 38.85 33.03 32.43 36.88 35.47 35.80
44.49 44.70 44.89 44.59 45.06 44.30 42.02 34.88 35.19 46.90 44.31 29.51 30.06 33.80 33.62 36.10 35.58 35.08 34.55 33.43 35.20 35.64 32.51 29.73 33.35 34.70 39.10 39.03 37.40 34.94 38.82 34.49 28.18 31.17 36.61 40.79 39.23 41.94 42.42 40.76 39.44 34.97 31.76 35.03
44.12 44.29 44.59 44.71 44.08 44.39 42.22 35.00 30.00 37.83 38.46 37.50 32.72 31.35 31.90 32.04 37.90 35.85 36.41 35.17 36.18 33.90 31.88 34.44 31.67 33.21 36.99 39.24 38.62 41.17 39.01 34.76 31.81 27.89 32.54 36.64 34.43 37.25 39.24 40.52 33.01 34.66 36.25 38.22
43.89 44.10 44.21 44.54 44.29 44.32 40.57 33.08 32.31 35.88 29.95 32.60 33.52 33.53 32.25 31.08 31.29 36.05 36.57 33.63 33.56 32.58 29.51 31.22 31.03 34.06 35.48 37.86 40.46 39.18 37.71 29.90 32.82 33.76 35.11 35.61 35.31 35.24 36.25 35.51 38.34 34.60 38.23 39.51
43.54 43.96 44.04 44.47 44.34 44.68 36.94 33.08 33.34 37.11 34.25 34.73 32.37 32.92 31.03 30.79 33.03 34.28 32.26 32.10 33.82 34.71 30.80 32.16 30.19 33.58 34.35 33.88 37.61 36.52 38.08 29.62 31.97 30.57 34.97 35.49 33.35 35.50 36.35 36.85 37.68 37.76 38.89 38.83
43.41 43.71 43.71 44.18 44.46 43.76 36.78 38.46 38.87 35.54 33.55 33.12 31.24 31.28 32.00 32.27 34.13 35.76 36.76 35.28 33.34 32.78 34.84 37.73 38.65 39.27 38.40 37.40 35.25 34.50 34.35 32.79 29.93 26.37 33.59 33.69 29.37 34.20 35.64 36.94 39.12 39.02 35.33 40.52
43.67 43.88 44.42 44.56 44.42 43.59 39.97 40.28 40.03 34.31 29.49 31.54 30.78 32.67 33.39 32.70 34.06 32.88 35.95 37.30 34.77 37.85 41.88 41.52 39.87 38.40 37.61 37.40 36.68 38.08 32.92 32.85 32.06 27.36 30.64 22.04 35.32 40.59 40.72 39.56 40.24 41.18 41.56 41.86
43.74 44.25 44.18 44.25 44.23 44.39 42.65 41.75 40.21 36.33 29.82 32.63 32.68 33.16 33.54 34.81 35.70 33.40 34.27 37.47 39.81 41.95 38.84 32.04 29.25 30.50 31.90 33.52 36.65 36.06 37.81 33.67 28.78 25.67 26.18 31.93 34.94 38.90 39.65 39.23 39.45 44.43 43.45 45.78
43.93 44.01 43.81 44.08 44.06 44.37 44.66 43.04 44.09 38.68 33.76 30.25 34.96 32.91 34.01 31.31 32.19 33.95 36.11 40.26 42.07 40.94 35.18 30.18 23.31 22.62 27.62 28.35 31.83 37.79 36.66 37.29 31.20 28.85 23.55 21.47 34.07 40.84 44.16 42.95 34.13 44.61 44.50 43.53
43.72 43.54 43.89 43.99 44.03 44.18 44.29 41.30 44.69 39.84 33.31 35.56 35.93 32.42 32.40 36.35 34.01 32.65 34.90 36.91 37.05 40.35 31.42 27.18 25.92 25.80 32.17 26.36 27.26 29.15 30.62 31.45 27.81 28.39 26.33 31.35 39.30 41.43 43.71 30.84 34.02 43.40 44.82 44.59
43.55 43.75 43.99 44.18 44.28 44.05 43.95 41.14 45.86 41.68 35.16 36.04 37.88 38.25 34.41 35.07 35.65 31.15 35.46 34.84 35.99 34.47 29.29 29.12 28.99 28.73 30.95 30.57 33.16 32.01 30.15 29.12 28.06 29.83 26.66 24.08 42.88 41.97 35.98 41.12 43.61 44.22 44.85 45.51
43.21 43.35 44.05 44.26 44.21 44.49 44.47 38.58 44.73 46.00 37.52 36.31 41.81 42.08 42.45 40.44 39.74 36.64 36.51 34.39 33.71 34.39 32.75 33.62 33.49 30.10 32.90 31.41 27.42 36.58 30.20 34.68 32.11 33.62 33.37 41.98 44.11 43.63 45.81 44.98 43.34 44.25 44.34 45.73
43.15 43.53 43.50 44.45 44.64 44.44 44.40 40.87 42.70 41.23 36.83 36.40 36.95 35.74 41.63 44.24 44.00 45.17 34.94 36.87 38.22 37.08 39.79 35.54 35.14 29.75 33.89 30.20 31.67 33.77 37.40 39.58 35.47 35.66 39.16 40.66 42.69 44.79 44.96 44.69 43.78 44.49 45.46 46.30
43.88 44.02 43.93 44.28 44.71 45.09 44.93 42.20 44.32 42.00 37.70 30.70 33.17 42.38 40.35 44.26 44.35 43.39 43.57 41.12 41.48 40.69 39.90 34.62 34.50 31.31 36.60 32.72 34.42 33.75 36.86 38.95 37.28 37.44 40.62 42.06 43.43 44.27 44.78 44.78 44.84 45.28 46.50 47.24
44.08 44.25 44.41 44.57 44.76 45.04 45.45 45.23 45.34 44.32 36.87 31.77 33.00 39.49 41.60 43.58 43.59 41.85 42.17 41.76 40.17 38.72 35.23 33.44 33.32 35.70 35.60 36.84 36.58 34.03 38.73 37.38 35.55 34.41 40.61 40.17 40.99 45.04 45.94 45.05 44.92 46.54 45.79 47.08
44.26 44.68 44.79 45.10 44.91 44.91 43.50 35.39 43.03 45.42 43.23 35.21 28.62 40.36 40.39 42.79 42.69 41.99 41.21 40.36 40.02 39.88 34.60 35.69 36.96 39.84 36.68 31.89 30.54 38.32 41.18 42.64 43.02 40.32 43.48 43.56 44.56 45.46 46.27 45.44 45.85 45.70 45.15 42.53
44.25 44.39 44.72 44.86 44.96 43.48 37.11 36.92 42.53 44.32 43.79 33.08 30.85 31.27 39.65 42.29 42.15 41.53 40.69 41.71 40.19 38.82 36.35 34.97 35.47 36.56 37.97 34.67 30.30 37.49 40.50 42.12 42.78 44.33 44.14 42.08 43.96 43.70 46.81 46.37 45.37 43.61 39.55 37.54
44.90 44.52 44.62 44.79 44.98 43.84 38.82 44.05 45.03 44.50 37.23 35.00 31.63 31.86 36.19 42.44 37.46 36.29 41.23 38.28 39.47 37.41 36.68 36.38 35.80 37.62 37.57 31.50 36.41 39.01 40.55 41.67 42.49 44.03 44.82 44.78 45.80 46.66 45.77 47.17 46.43 43.62 37.42 34.26
45.20 44.78 44.84 43.60 41.13 34.50 39.62 45.09 44.53 44.13 39.09 32.89 31.60 30.38 29.94 41.35 38.80 39.48 38.71 39.59 33.22 39.71 34.81 35.30 36.24 33.75 30.47 35.38 37.06 38.77 40.75 40.57 41.15 43.02 44.30 44.55 43.54 44.51 45.94 45.76 45.26 41.52 35.53 31.90
45.17 42.57 32.54 31.25 36.32 45.20 44.06 39.26 35.44 35.19 36.11 37.78 33.25 37.47 34.19 38.82 38.57 36.84 37.19 37.93 33.50 30.56 34.46 38.27 34.22 32.52 37.99 39.71 41.11 41.49 42.25 42.75 43.20 40.95 40.42 41.67 41.36 42.17 43.92 44.15 44.06 41.95 34.64 30.43
36.39 32.54 34.52 40.26 44.73 41.02 35.60 31.81 31.81 33.25 31.18 35.21 36.31 37.10 35.37 40.97 35.29 34.86 38.49 33.16 34.51 27.90 32.81 32.93 31.59 31.70 35.20 38.11 37.98 38.26 38.66 40.09 40.44 40.92 41.02 41.30 41.40 40.91 41.21 42.47 38.55 35.11 31.52 27.43
40.00 40.71 42.43 41.53 37.21 34.34 32.36 30.83 32.80 31.28 29.59 36.00 35.47 36.91 38.98 39.15 41.30 35.22 34.62 31.39 32.36 26.11 37.25 32.60 28.63 29.44 32.66 33.87 34.14 35.32 35.79 35.59 36.43 37.21 36.72 37.78 38.80 38.82 39.83 37.62 33.30 29.41 26.69 24.01
43.09 39.60 34.32 35.14 33.25 28.73 27.09 25.03 28.42 30.25 35.70 37.05 37.72 34.49 36.54 38.36 39.17 34.15 33.08 28.25 27.88 37.19 31.97 28.76 27.50 28.95 30.60 31.30 32.11 33.06 34.70 31.32 31.67 32.36 32.49 32.30 31.11 30.91 30.89 28.21 27.28 25.66 23.27 21.86
35.70 32.54 29.34 30.71 28.49 30.88 30.94 32.55 34.16 36.56 38.57 37.75 38.42 36.02 36.05 37.68 34.06 33.11 27.69 33.05 33.77 27.27 25.76 24.89 25.90 27.52 28.45 29.45 29.73 29.72 28.88 28.02 27.20 27.22 27.33 26.37 26.18 25.31 25.78 25.97 24.37 21.88 20.31 21.09
31.89 33.91 25.92 26.45 29.24 31.45 32.26 33.77 33.92 34.14 37.05 38.58 36.65 36.35 36.11 34.27 31.61 32.92 31.51 28.49 26.12 27.70 23.52 25.25 26.99 27.78 27.58 26.62 27.02 26.69 26.44 26.29 25.23 25.43 24.00 23.12 23.05 22.36 21.64 22.56 22.41 20.83 19.48 18.77
28.07 28.69 27.41 30.74 29.75 29.25 30.22 31.78 30.12 32.43 32.80 36.19 36.37 32.12 29.67 30.00 31.71 29.13 27.81 27.29 23.00 22.60 25.47 27.05 26.92 26.49 26.61 26.16 26.14 25.58 25.44 24.97 24.06 22.62 21.40 20.31 19.50 18.61 18.71 19.21 18.80 18.29 17.75 16.71
26.50 25.17 29.06 30.01 28.67 27.16 27.96 29.92 29.11 32.29 31.73 31.96 32.92 29.90 29.62 33.49 29.34 25.87 25.99 22.26 23.85 25.50 26.21 26.62 26.54 25.85 25.91 26.72 25.74 25.55 25.56 24.16 22.63 21.23 20.48 19.67 20.05 20.06 18.90 16.71 17.51 17.92 17.52 16.74

GFSNW_sfc_wetblb_105.txt.gz
Wetbulb
44.36 44.57 44.93 45.22 45.05 45.11 41.77 37.65 27.83 39.77 43.40 32.67 33.37 27.89 30.98 35.00 33.04 35.49 33.83 34.85 32.32 29.83 30.49 28.95 29.20 29.99 34.06 38.28 37.41 32.10 34.10 30.58 24.88 29.82 36.76 40.37 39.43 36.13 36.30 27.52 27.72 31.87 30.32 30.72
44.03 44.18 44.64 44.81 44.76 44.81 37.67 32.98 32.37 39.07 40.86 25.91 28.25 31.11 31.30 33.22 32.00 32.63 33.38 32.70 33.57 33.22 29.64 25.55 30.20 31.56 36.90 37.64 35.74 32.86 34.00 29.86 24.64 27.19 31.59 35.87 35.51 37.06 38.28 35.51 34.78 30.32 26.41 31.56
43.89 43.93 44.32 44.45 44.76 44.38 39.07 33.56 24.80 30.86 33.64 33.95 30.29 29.52 28.99 29.68 35.53 33.75 35.34 33.79 34.30 31.51 29.05 31.62 28.30 30.47 35.48 37.46 36.90 41.73 38.70 31.31 27.66 23.26 27.51 32.26 29.36 33.35 36.40 32.91 31.33 32.02 32.22 34.76
43.80 44.07 44.26 44.28 44.54 44.59 39.30 32.64 27.74 31.58 19.52 29.20 30.12 31.11 30.46 28.78 28.51 34.92 35.67 31.50 31.35 29.89 26.52 28.13 27.86 31.49 33.01 35.40 38.03 36.92 34.26 26.17 29.79 30.89 31.97 32.17 31.19 31.69 33.26 32.07 34.10 31.67 34.24 33.54
43.12 43.52 44.01 44.26 44.34 44.31 37.23 29.92 29.85 31.86 29.82 31.68 30.99 30.57 29.34 28.78 30.69 32.37 30.96 30.24 32.80 32.94 28.53 29.09 27.83 31.95 32.41 31.92 35.54 34.85 35.94 26.88 29.59 26.95 30.88 30.80 28.98 31.99 33.00 33.47 34.47 34.72 35.52 35.44
42.91 43.32 43.72 43.86 44.01 43.64 36.75 36.40 35.80 33.92 29.53 29.93 29.33 29.62 30.12 30.22 32.59 33.92 34.97 33.64 32.30 31.07 32.50 35.45 36.25 35.89 35.77 34.72 32.31 31.15 31.22 29.78 26.71 22.80 29.32 29.20 24.20 30.30 32.46 33.50 35.58 35.47 31.44 36.69
43.60 43.67 44.36 44.19 44.33 43.33 38.15 38.46 37.62 31.30 24.44 29.08 28.65 31.22 32.21 31.12 31.96 30.38 34.20 36.16 32.13 36.18 41.42 38.84 36.79 35.47 34.98 34.22 33.59 34.62 30.07 29.00 27.65 23.18 26.73 17.93 30.04 37.35 37.89 35.48 37.06 39.57 41.59 42.37
43.62 43.89 44.21 44.33 44.28 44.16 39.58 40.28 35.42 34.97 26.97 30.23 30.29 31.48 31.92 32.82 33.64 31.73 32.91 35.35 37.30 39.34 35.36 26.05 25.87 25.55 28.04 30.05 32.99 32.87 33.64 29.82 26.28 23.73 23.75 28.03 31.67 36.70 38.19 37.04 36.47 42.16 41.10 42.10
43.70 44.14 44.12 43.99 44.19 44.16 40.18 39.25 39.96 35.84 29.70 25.44 33.15 31.18 32.26 28.83 27.56 29.59 32.83 38.76 39.84 36.72 29.16 24.04 20.38 18.84 25.74 25.84 29.01 35.51 33.62 32.14 27.78 25.02 21.57 16.36 31.52 38.51 40.83 39.69 30.77 41.68 42.76 41.77
43.53 43.90 44.04 44.11 44.26 44.09 40.23 37.64 40.37 37.58 31.05 32.33 32.73 26.64 29.88 33.30 32.68 30.45 32.93 34.13 34.12 36.41 30.03 20.40 20.55 22.41 29.95 24.52 26.11 28.53 27.25 26.32 24.36 24.01 21.00 27.63 36.68 40.34 42.13 27.65 30.66 41.83 42.11 42.77
43.20 43.53 43.72 43.96 43.94 44.29 40.96 36.64 40.47 38.21 33.56 33.44 35.20 35.44 31.51 32.32 32.63 27.20 34.21 31.66 33.70 32.75 27.14 23.18 25.38 24.52 28.87 28.56 31.17 29.72 27.72 23.06 22.76 24.80 19.02 19.58 40.05 40.30 33.66 37.83 40.34 41.22 41.70 42.09
43.34 43.54 43.49 43.13 43.50 43.87 43.68 34.58 40.05 42.16 36.32 32.94 38.98 38.70 39.21 37.59 35.84 33.13 34.80 33.31 33.97 34.05 30.97 32.18 31.15 27.51 29.28 29.65 25.20 34.03 28.05 30.89 28.26 26.86 26.67 38.84 41.56 40.23 43.15 41.84 39.88 40.39 40.25 41.67
43.35 42.91 42.85 42.81 43.75 44.04 43.11 36.46 37.15 38.30 34.92 31.63 33.15 32.52 38.50 40.86 39.39 39.86 30.58 33.71 36.74 33.93 36.63 32.57 32.22 29.06 33.05 26.45 29.16 30.66 34.21 37.62 33.49 33.92 37.35 38.57 41.51 43.30 43.07 40.92 39.69 40.95 42.53 42.29
43.45 43.61 43.68 43.57 43.34 44.06 44.04 39.29 38.74 36.83 36.56 27.58 30.27 40.04 36.54 41.04 40.59 39.49 39.43 37.49 38.23 36.88 34.61 30.30 30.14 28.17 33.15 28.72 31.08 30.75 34.26 36.35 34.00 34.74 38.07 40.53 41.74 42.42 42.75 42.33 42.22 42.26 45.48 44.52
43.47 43.36 43.81 43.85 44.00 44.26 42.84 40.76 39.89 40.52 35.03 28.28 30.85 37.39 40.24 41.70 40.77 39.47 38.75 37.56 35.52 34.91 33.49 31.50 31.36 34.14 33.13 33.64 33.15 30.77 37.25 35.48 32.81 33.07 38.96 38.72 39.81 42.33 43.61 41.96 43.34 45.21 45.06 39.86
43.20 43.68 44.10 44.20 44.42 44.68 40.76 34.46 40.10 41.98 40.51 33.72 26.02 37.18 38.38 40.70 40.96 38.99 38.47 38.03 35.67 35.96 35.43 34.18 35.12 37.71 34.52 28.42 28.21 36.14 38.58 39.76 40.35 37.48 42.38 41.84 42.07 43.40 44.54 43.89 42.31 40.77 38.81 38.17
43.93 44.14 43.85 44.62 44.58 41.79 36.55 34.38 39.50 43.27 41.63 32.48 27.93 28.91 35.75 38.09 38.41 38.97 37.85 38.82 37.86 35.39 35.40 33.64 34.26 33.95 35.71 31.47 27.29 34.96 37.71 39.32 39.91 41.37 41.09 39.91 42.21 41.15 44.50 41.61 38.78 37.59 34.84 34.18
45.14 44.72 44.40 44.61 44.83 43.21 38.54 40.31 45.29 44.00 37.39 35.47 28.36 27.33 32.48 40.09 35.02 33.98 38.87 36.08 36.96 36.44 35.66 35.52 33.64 34.65 33.59 29.01 35.02 37.63 39.44 39.94 39.75 40.19 43.36 42.44 43.13 43.73 44.42 42.76 39.40 34.95 31.90 30.11
45.50 44.91 44.55 43.43 40.66 33.91 37.53 44.17 45.02 43.27 37.75 30.10 30.16 26.01 24.94 38.90 36.47 37.32 36.47 36.88 31.33 36.27 32.15 32.69 32.82 29.43 27.58 33.46 35.36 35.50 38.22 38.80 39.77 41.57 41.83 41.86 41.53 40.62 42.43 42.42 37.71 32.70 29.78 27.78
44.94 41.87 33.93 29.69 34.84 44.53 43.31 38.96 35.35 33.02 34.05 35.76 30.06 32.20 24.50 35.13 33.82 33.77 32.10 33.41 29.55 23.14 29.97 34.47 27.53 28.15 34.33 35.61 35.02 34.95 35.02 36.64 37.68 35.86 35.38 36.85 37.00 37.86 38.64 39.42 38.73 33.10 29.12 26.25
37.48 32.45 33.35 38.84 44.24 38.96 34.26 29.82 29.59 30.91 29.30 31.68 32.80 32.56 29.13 36.63 30.03 29.65 31.48 27.25 27.83 23.34 27.45 27.58 27.20 28.43 30.90 34.05 34.04 34.74 32.93 33.15 34.56 34.76 35.08 35.56 34.77 35.05 36.14 34.39 31.37 28.97 26.65 24.54
38.59 40.00 42.31 40.95 36.34 32.45 29.98 28.07 29.14 28.64 26.06 32.06 30.61 32.02 34.41 34.04 37.76 31.40 30.14 24.56 28.33 21.64 32.04 28.72 24.54 27.25 29.80 30.61 30.74 32.47 29.90 29.64 30.51 31.50 31.59 31.58 31.16 32.32 30.58 28.35 25.91 24.26 23.52 22.95
42.17 38.59 33.67 33.49 31.71 26.34 23.44 21.65 25.49 23.27 29.47 31.57 30.73 31.20 31.70 32.99 34.30 31.45 29.11 24.63 21.45 29.76 19.77 22.88 24.59 27.15 28.31 28.38 28.62 29.11 29.69 27.98 27.34 27.07 27.72 27.85 27.21 28.46 27.97 25.55 24.84 23.68 21.63 21.25
33.77 31.63 27.79 28.94 24.71 25.33 26.55 26.96 28.87 31.81 32.21 30.66 31.68 27.85 28.42 28.32 28.33 30.03 24.56 23.87 29.63 24.77 20.65 20.25 24.22 25.31 25.90 27.11 27.19 26.37 25.81 25.82 25.24 24.18 24.14 24.23 23.96 23.38 23.35 22.64 22.32 20.73 19.47 20.28
30.08 29.26 23.73 24.71 28.21 30.71 31.63 32.40 31.79 31.88 31.17 30.88 29.64 29.97 28.99 26.92 25.41 28.33 25.34 25.62 22.65 23.04 16.77 22.48 24.43 25.17 24.82 25.57 25.73 24.88 24.21 24.13 22.37 20.83 16.93 17.77 20.22 19.82 19.60 20.65 20.81 19.81 18.61 17.84
27.70 26.13 26.60 28.97 28.12 27.39 29.26 29.77 28.70 30.92 31.95 32.27 29.79 30.13 27.36 19.81 23.72 24.42 22.80 21.20 16.75 16.93 22.62 22.66 23.00 24.86 25.07 24.28 24.23 23.73 21.87 16.84 14.29 13.36 15.41 13.98 14.62 17.17 17.11 17.84 18.00 17.54 17.08 15.71
24.36 22.97 25.99 27.89 26.38 24.76 26.32 27.82 28.07 30.76 31.59 29.72 29.97 25.50 21.02 26.60 21.22 21.61 23.41 16.65 18.00 19.64 20.76 21.50 21.11 21.74 21.81 25.01 22.83 21.86 22.60 19.11 16.15 13.85 14.46 16.84 18.54 17.27 16.46 14.38 15.11 15.53 15.21 14.64

GFSNW_sfc_wetblb_111.txt.gz
Wetbulb
44.01 44.25 44.27 43.95 44.14 44.43 38.96 32.10 16.63 36.55 43.09 26.45 30.17 23.05 27.96 33.30 31.21 33.97 31.10 31.23 28.74 26.31 26.34 25.18 26.02 27.49 30.35 36.06 35.00 30.79 33.39 27.93 22.86 25.94 32.58 34.24 34.42 33.33 33.31 27.97 26.27 28.11 26.61 25.21
43.78 43.74 43.87 44.01 43.75 43.58 33.98 23.99 28.00 36.11 34.13 12.45 14.77 27.78 29.27 30.51 28.74 31.00 30.61 29.36 30.83 30.96 27.05 23.58 27.06 29.71 35.44 35.70 33.98 31.72 32.76 27.13 20.95 23.03 28.43 32.51 31.06 32.04 32.19 33.09 32.90 26.66 25.60 25.95
43.88 43.42 43.54 43.59 43.86 43.77 35.29 27.65 15.09 25.16 32.44 29.28 26.08 22.20 24.35 26.16 33.03 31.21 31.77 30.57 31.66 29.09 27.79 29.43 25.77 27.87 34.07 36.82 35.74 40.68 37.14 27.85 24.37 19.59 23.55 27.05 24.59 27.58 29.78 31.27 23.35 25.96 25.89 27.48
43.41 43.12 43.10 43.38 43.94 43.60 36.88 29.72 21.26 26.87 16.70 22.77 27.87 27.25 26.52 23.76 24.67 31.38 32.57 29.32 29.92 28.60 26.22 26.22 25.00 28.13 31.29 35.20 37.13 35.46 32.04 24.42 25.92 26.91 28.36 27.91 26.82 26.62 27.31 26.04 27.50 23.18 26.02 27.67
42.61 42.90 43.19 43.36 43.53 43.42 33.94 27.01 25.83 29.28 26.94 28.11 25.35 25.27 24.84 25.11 27.72 29.17 28.63 28.43 30.38 30.21 28.51 27.12 25.12 28.80 28.95 28.29 32.50 32.33 32.87 25.65 26.61 24.81 27.62 28.06 25.62 27.99 28.09 27.95 28.42 27.91 28.51 27.72
42.85 43.13 43.48 43.31 43.33 41.73 34.38 36.34 35.63 29.75 24.81 23.90 22.94 22.45 25.83 27.88 32.56 32.20 33.05 33.31 31.06 29.82 30.96 32.98 33.11 33.62 32.97 32.09 29.84 28.63 28.19 26.72 24.63 20.20 26.35 26.17 21.69 25.87 27.48 28.28 30.17 29.36 24.88 30.81
42.63 43.37 43.74 43.70 43.64 41.30 33.91 33.59 34.78 29.24 22.05 24.95 25.66 27.16 29.17 30.03 30.71 30.00 32.81 33.86 31.45 34.02 38.81 35.38 33.15 31.70 32.09 31.76 31.41 32.52 27.58 26.85 24.77 20.75 24.10 13.23 25.89 32.10 32.06 30.38 32.34 34.83 32.66 35.73
42.93 43.55 43.99 44.23 44.01 43.09 34.81 34.30 32.93 29.33 18.20 26.56 27.54 30.09 29.08 31.13 31.55 30.59 31.21 32.97 35.31 36.20 32.36 24.58 24.79 23.97 25.65 27.57 29.21 29.47 31.26 27.08 18.91 14.47 18.29 22.87 26.04 30.03 31.50 32.26 31.80 37.84 35.57 39.86
42.91 43.45 43.90 43.85 44.11 43.99 37.57 35.17 35.81 35.01 27.75 24.00 30.94 29.01 29.34 27.87 27.34 27.67 30.12 35.40 36.41 35.42 26.27 21.88 18.65 17.50 22.72 18.43 24.31 31.92 30.81 30.55 24.32 20.11 15.93 10.89 25.52 35.60 38.34 37.31 27.48 39.50 39.67 39.30
43.01 43.31 43.48 44.26 44.17 44.01 38.32 34.99 38.00 36.12 29.97 30.98 31.17 27.40 28.14 30.02 28.85 25.58 28.89 31.04 31.94 32.14 18.98 19.71 19.18 20.48 26.47 21.07 19.74 16.20 25.99 27.12 22.68 20.79 13.88 22.32 31.97 35.25 39.67 23.80 29.99 39.06 40.46 39.94
42.82 42.99 43.53 43.71 43.60 42.98 40.06 34.54 39.02 35.54 31.93 30.53 32.02 32.34 28.90 28.55 27.97 24.67 27.76 24.76 27.92 26.33 25.86 21.05 23.06 23.79 27.32 27.28 28.70 27.43 26.07 24.48 23.25 23.85 16.13 16.11 36.97 37.20 32.06 36.68 40.34 40.69 41.12 40.03
42.77 42.63 43.14 43.06 42.40 42.82 41.93 35.91 38.54 39.54 34.62 30.14 35.39 36.38 37.18 35.45 34.04 30.46 30.10 27.50 30.93 30.62 26.16 26.79 26.68 24.49 27.73 25.85 22.94 32.71 24.73 29.56 27.11 25.72 23.68 34.43 38.17 39.00 42.17 42.92 38.87 38.47 37.66 38.65
42.80 42.55 43.05 42.73 43.11 43.16 41.74 35.97 38.88 38.50 34.04 29.40 29.37 29.86 35.02 38.35 37.76 37.37 30.24 30.36 33.62 33.25 35.43 30.44 27.85 23.14 27.73 22.29 26.28 28.26 31.88 34.79 31.83 30.42 33.79 35.52 38.69 40.80 42.59 43.15 40.90 39.46 40.90 42.74
42.17 42.24 42.35 42.44 43.05 43.37 43.00 38.54 38.78 37.79 32.41 27.31 27.06 35.70 33.58 37.31 36.50 36.53 36.85 34.11 34.40 34.39 34.52 29.24 26.74 25.21 30.66 28.33 29.60 28.79 31.85 34.53 31.57 33.90 34.38 36.31 38.44 39.42 39.95 40.79 41.95 39.97 38.63 37.28
41.50 41.57 42.09 42.26 42.95 43.17 41.66 41.32 40.08 38.94 32.26 24.24 26.65 32.41 35.62 36.91 36.28 35.63 34.59 33.78 31.57 29.87 31.11 30.68 27.54 30.24 31.00 29.99 31.48 30.96 35.95 32.72 29.56 28.80 35.35 35.44 36.46 39.90 41.26 39.88 38.29 39.32 37.61 34.35
42.38 41.73 41.86 42.26 43.00 42.83 40.23 34.04 40.13 40.45 39.38 32.55 24.64 31.17 32.68 35.39 35.93 35.22 33.90 34.35 32.88 31.89 29.52 28.73 33.25 34.72 31.75 28.75 26.86 34.00 35.42 36.89 37.19 35.16 39.68 40.08 41.76 39.86 39.23 36.37 34.89 34.06 32.63 32.28
42.59 42.72 42.54 42.61 43.15 41.03 35.24 31.45 34.07 41.08 39.38 32.01 26.19 24.44 32.18 36.91 36.39 35.61 34.56 35.42 34.14 33.37 32.89 31.52 29.88 30.85 33.60 29.62 24.18 31.58 32.89 35.07 36.91 38.59 39.90 38.74 40.00 37.22 37.22 35.62 33.55 32.48 30.64 29.80
42.90 43.16 42.76 42.47 42.54 41.86 38.21 38.11 43.32 41.97 36.72 33.85 25.21 24.23 29.68 36.11 31.58 32.46 36.83 34.03 35.18 34.98 34.31 34.50 32.65 33.98 33.72 28.47 32.14 31.50 31.26 33.33 34.35 35.08 37.18 36.93 38.65 39.82 38.81 37.05 34.02 30.28 27.45 26.67
43.07 42.80 42.81 41.60 38.98 33.48 37.09 43.94 43.63 40.99 35.47 27.04 26.81 23.63 22.07 35.32 35.05 35.99 36.49 37.38 30.34 35.77 30.63 31.88 33.26 30.77 28.12 30.34 29.57 28.70 28.85 29.35 29.32 32.81 33.16 33.23 32.73 33.35 35.83 36.21 33.17 29.00 26.16 25.28
44.13 41.45 33.31 29.97 34.97 43.64 42.31 38.40 32.75 32.58 33.26 34.16 27.30 28.45 23.21 33.39 31.93 33.63 31.84 32.37 28.48 27.23 31.15 34.64 30.70 29.22 31.63 31.46 30.34 29.11 28.56 28.87 29.20 28.16 28.30 28.83 28.76 29.43 32.01 30.57 29.08 27.70 25.87 25.51
33.66 32.01 32.55 37.63 43.43 37.86 34.49 28.12 26.93 28.81 26.83 30.25 30.54 29.63 25.19 32.63 27.74 28.13 32.48 27.20 28.40 22.59 26.49 28.51 27.52 26.54 27.67 29.38 29.52 28.89 27.59 27.63 27.97 28.16 27.96 28.10 28.24 28.77 28.80 27.86 27.43 27.04 26.27 24.75
37.46 38.89 40.72 40.29 35.97 32.01 27.40 23.97 26.26 26.93 23.88 27.57 28.23 29.99 29.88 27.38 32.03 27.25 30.76 26.85 23.18 18.84 30.52 28.65 24.63 23.72 26.02 26.42 26.37 27.10 26.16 25.33 24.92 25.01 24.65 25.21 25.71 26.35 27.92 27.03 26.16 25.11 23.84 22.71
41.38 37.62 32.16 31.96 30.05 24.64 19.63 18.17 23.20 24.00 25.32 25.58 28.65 29.55 28.15 32.68 32.48 27.54 29.09 25.51 19.65 26.14 22.72 24.30 21.80 24.29 24.42 24.83 25.65 24.57 25.17 23.85 21.83 21.08 21.78 22.71 23.53 23.19 23.07 23.27 23.73 23.38 21.65 21.08
33.69 30.96 26.40 25.91 22.41 24.34 23.42 24.71 25.76 26.44 27.11 27.48 26.97 30.37 27.05 26.84 25.34 26.16 22.60 23.01 27.44 22.29 18.51 18.58 20.23 23.02 23.25 24.15 24.23 23.12 21.95 21.14 16.94 17.34 18.57 18.03 18.46 18.41 18.38 17.59 19.58 19.46 19.17 18.90
29.50 28.53 22.65 23.40 22.00 25.91 30.93 32.06 31.69 30.90 30.16 27.12 27.68 28.91 28.05 27.88 23.39 28.11 22.70 23.44 20.95 19.12 12.13 12.67 21.27 23.39 23.18 22.99 23.35 21.53 20.13 16.03 14.25 12.00 9.61 9.24 10.90 12.87 12.70 16.42 16.97 17.21 16.13 16.07
25.69 20.90 24.28 27.86 27.94 26.62 27.97 28.93 28.85 30.41 31.12 31.56 30.94 24.53 18.51 23.65 19.92 24.01 22.10 20.70 14.65 8.82 13.11 17.07 19.04 19.55 20.18 19.46 20.56 17.59 13.67 9.64 6.38 5.20 6.98 8.37 8.36 9.27 10.14 12.52 13.76 13.80 13.91 12.85
20.21 17.24 23.90 24.70 24.03 22.94 24.42 26.01 25.64 30.21 31.18 27.88 26.95 24.47 15.76 22.92 22.71 16.69 17.20 6.36 10.78 17.94 15.83 16.18 16.00 17.13 19.06 12.79 14.31 12.60 12.91 10.38 7.66 6.42 8.30 6.63 6.79 8.69 10.33 8.44 9.81 11.55 11.76 11.56

GFSNW_sfc_wetblb_114.txt.gz
Wetbulb
43.33 43.31 43.80 43.28 43.53 43.82 37.92 29.15 15.42 33.94 38.28 28.48 27.58 22.54 26.76 32.33 30.01 32.16 30.13 29.91 27.95 25.59 25.32 23.94 23.49 24.08 28.92 34.62 34.54 28.85 31.24 27.78 24.40 26.84 32.69 33.46 34.93 32.54 32.43 25.49 25.03 27.49 26.21 25.15
43.36 43.29 43.24 43.32 43.29 42.84 32.45 24.54 25.59 33.81 36.03 11.28 13.28 24.13 28.05 29.62 27.92 27.56 29.72 28.42 29.84 29.30 25.99 22.85 26.28 27.17 33.38 34.26 33.10 31.07 32.73 27.49 20.68 23.36 28.88 31.51 29.56 29.95 32.05 31.50 29.52 24.34 21.03 24.28
43.73 43.28 42.82 42.58 43.03 43.52 33.22 23.25 15.39 23.77 30.71 27.29 26.03 23.70 23.50 25.33 31.04 29.12 30.44 29.27 30.20 27.48 25.73 27.91 25.53 27.18 32.16 35.06 34.55 38.99 36.62 28.73 24.47 19.45 24.09 28.25 25.78 27.58 28.37 28.71 20.79 22.74 24.81 25.86
43.48 42.93 42.54 42.13 42.90 43.51 34.19 27.41 19.05 26.66 18.82 20.74 26.68 26.18 25.11 22.42 22.80 29.94 31.13 27.98 28.49 27.49 25.22 25.89 25.73 28.63 28.83 32.59 36.01 33.93 32.62 24.40 26.51 26.40 27.94 27.46 26.11 25.93 26.25 24.64 25.85 21.53 24.58 24.08
42.70 42.23 42.24 42.32 42.68 43.11 32.92 26.84 22.31 29.43 26.41 27.78 24.91 24.46 23.30 23.11 24.58 28.31 26.69 27.64 29.29 30.36 27.19 27.10 26.54 28.82 28.72 27.00 30.61 28.72 31.59 24.73 26.15 24.28 27.52 27.05 24.94 26.03 26.33 26.42 26.89 25.75 26.73 25.95
42.82 42.55 42.83 42.95 42.98 40.74 32.39 30.88 32.03 28.60 23.99 23.58 22.49 21.55 23.72 25.76 28.50 31.29 32.13 31.50 29.74 28.98 31.13 32.88 33.76 33.06 32.09 31.13 28.98 27.72 27.21 25.46 24.19 19.62 25.16 25.09 20.19 24.93 25.77 26.51 28.20 27.59 23.38 28.85
42.52 42.57 42.88 43.25 43.18 40.36 32.63 32.94 31.85 27.19 18.58 23.80 24.43 26.17 27.85 28.48 30.11 28.91 32.01 32.84 30.62 34.08 36.52 35.95 33.64 31.91 32.05 31.45 30.64 31.15 26.74 25.78 24.16 20.09 22.99 11.77 23.44 29.76 29.25 27.61 29.43 30.56 31.13 32.37
42.45 42.55 43.23 43.50 43.50 42.48 33.86 33.70 31.35 27.41 19.02 23.81 25.54 27.11 28.81 29.35 30.23 29.75 30.07 32.03 34.48 35.47 31.67 24.40 24.67 23.70 24.87 26.36 27.49 27.98 30.61 26.81 18.61 13.61 17.91 21.59 24.11 28.01 28.90 30.21 28.67 34.27 33.28 35.72
42.21 42.81 43.11 43.58 43.80 43.65 35.30 33.91 36.27 34.30 22.45 21.27 28.79 28.02 29.08 26.60 26.57 27.39 28.89 33.92 34.97 33.15 27.31 21.52 19.21 16.69 21.82 17.47 22.61 30.20 29.33 28.73 23.69 20.86 15.45 10.04 23.72 30.65 36.75 35.18 22.64 36.00 36.23 37.59
42.52 42.75 43.18 43.48 43.68 43.72 37.15 35.15 38.47 35.07 27.06 28.15 29.70 27.03 27.35 30.69 28.04 24.47 27.55 29.71 29.63 30.53 20.31 19.95 20.07 20.09 25.21 20.34 19.13 18.17 26.40 26.36 22.36 22.23 19.31 21.93 28.74 32.42 36.41 22.69 25.44 35.71 37.89 39.38
42.71 42.64 43.17 43.15 43.56 43.58 40.35 37.21 38.35 35.06 27.56 28.12 30.93 31.55 28.31 27.90 28.05 23.36 26.66 24.19 25.66 23.91 22.61 21.59 23.05 23.27 26.25 26.31 27.63 26.23 25.20 23.40 22.63 23.90 19.01 13.88 35.41 35.31 28.52 36.16 39.72 39.77 40.39 41.12
42.37 42.67 42.72 43.05 43.07 43.43 42.66 36.76 38.42 39.39 34.24 28.52 33.36 35.40 36.07 34.32 33.32 29.45 29.30 27.52 28.99 25.54 19.24 21.07 25.26 23.00 26.24 25.55 21.38 32.19 23.57 28.48 26.11 26.56 23.89 32.96 36.03 37.74 40.25 40.99 39.51 39.56 37.71 38.65
42.51 42.60 42.61 42.92 43.02 43.19 42.65 38.19 39.13 38.17 33.49 32.53 29.35 29.83 34.18 36.87 36.65 36.78 27.22 28.79 32.49 31.01 33.64 31.21 28.62 22.86 26.89 22.26 25.39 28.10 31.04 34.18 30.32 30.47 33.62 34.25 35.71 38.94 41.28 40.27 39.12 41.63 41.29 41.60
42.38 42.28 42.68 42.83 42.94 43.08 42.40 38.54 39.36 37.98 33.96 26.52 26.07 34.04 31.93 35.77 35.47 35.68 35.58 33.10 33.58 33.41 35.01 29.97 27.62 24.62 30.28 26.96 28.39 28.06 32.07 34.32 30.54 31.47 34.50 35.88 38.24 38.93 38.39 39.72 40.77 35.71 35.44 34.86
42.43 42.21 42.25 42.42 42.25 42.60 41.73 39.95 39.59 39.98 33.55 24.10 25.90 30.80 34.48 35.58 35.11 33.78 34.42 33.52 31.17 29.40 28.02 27.41 27.25 30.28 29.20 30.48 30.00 30.02 33.49 32.18 29.87 28.56 34.89 34.83 36.76 39.61 38.85 36.09 35.43 36.74 34.02 31.70
41.76 41.49 41.69 41.89 42.29 42.73 39.20 33.11 37.52 39.33 38.95 32.19 23.36 29.57 30.81 33.09 33.40 32.25 32.35 32.87 30.85 32.22 28.58 28.39 30.09 33.30 31.98 27.45 27.25 31.69 32.32 33.36 34.51 33.92 36.74 39.77 38.58 37.62 37.21 34.23 33.34 32.54 32.39 31.77
41.96 41.70 41.91 42.10 42.75 40.21 34.82 32.68 34.08 40.71 39.51 31.66 24.99 23.73 30.09 34.84 33.90 32.76 32.13 34.42 32.97 31.52 31.58 30.07 29.22 29.92 32.81 28.23 24.12 31.28 31.48 32.45 35.00 34.03 35.23 34.49 35.39 35.99 37.66 34.63 32.44 31.22 29.57 29.24
41.21 41.44 41.85 42.53 42.30 41.01 37.08 39.73 42.73 40.99 36.85 33.79 23.97 23.05 26.08 34.51 29.53 30.66 35.44 32.15 33.52 33.88 32.38 34.09 31.72 33.13 32.27 27.20 30.78 30.48 29.80 30.55 30.96 30.30 33.31 32.12 33.54 33.78 35.27 36.48 33.35 28.91 26.97 26.58
41.74 41.91 42.36 40.68 38.55 33.84 36.73 43.00 43.01 41.60 35.08 25.75 25.91 21.48 18.99 33.55 34.22 35.02 35.93 36.12 29.55 35.17 30.41 31.62 32.96 29.34 27.73 28.89 28.54 27.57 27.59 27.39 27.46 29.04 30.63 29.86 29.44 29.71 31.31 30.85 29.60 27.45 26.03 25.58
42.35 40.53 32.76 29.61 34.24 42.17 43.17 38.60 33.29 32.39 33.08 33.63 26.93 27.21 23.09 31.05 32.15 32.57 32.02 32.34 30.47 27.63 31.52 34.78 30.52 27.50 29.78 30.01 29.07 27.74 26.61 26.68 27.65 25.56 25.20 25.81 25.81 27.32 29.00 28.95 28.12 27.74 26.70 25.71
37.14 31.63 31.94 37.04 42.68 36.82 32.90 27.42 27.52 28.41 26.95 28.74 28.77 28.65 26.15 31.51 25.74 28.06 31.41 29.18 29.13 24.16 27.62 28.79 27.87 25.19 26.27 27.95 27.98 27.24 25.92 25.08 25.34 24.94 25.58 25.81 25.43 25.28 26.43 27.72 27.80 26.98 25.99 24.20
35.92 37.95 40.32 39.75 35.03 31.44 25.83 24.15 25.01 24.61 23.16 27.05 27.89 29.49 31.10 29.44 32.58 29.02 30.62 27.99 25.23 22.17 30.06 28.11 24.11 22.76 24.57 25.16 25.74 25.12 25.09 23.37 22.06 22.23 21.62 22.91 24.05 23.57 23.88 24.99 24.57 23.90 23.22 22.34
40.69 36.81 31.98 31.21 29.58 23.37 17.91 17.19 20.91 23.19 25.95 26.21 29.47 28.65 26.76 29.94 32.89 28.52 28.88 25.42 20.76 26.89 23.76 23.99 21.39 24.02 23.96 24.22 24.00 23.60 23.72 21.73 20.08 19.36 19.96 20.12 20.95 21.01 20.47 20.53 21.27 21.92 20.40 20.64
32.52 30.39 26.20 22.89 21.57 23.82 23.32 23.82 23.95 26.36 25.65 26.72 26.60 29.64 26.99 29.61 24.87 27.87 22.68 23.50 26.71 22.85 19.50 17.62 20.22 22.13 22.77 23.37 23.86 22.36 20.85 19.53 15.57 15.43 16.17 15.43 15.56 15.99 15.43 14.66 16.62 16.03 15.38 15.24
30.83 29.29 20.72 23.88 22.06 26.60 26.97 28.19 26.99 30.61 30.70 27.24 27.16 26.37 29.41 25.51 24.50 26.96 22.18 22.81 20.65 17.92 11.75 13.54 21.53 22.78 22.28 22.48 22.60 20.64 19.00 14.83 13.13 10.71 7.67 7.44 8.96 10.52 9.82 12.14 13.75 14.22 12.63 12.94
25.37 21.65 22.13 25.35 27.72 26.83 27.79 29.32 28.36 30.51 31.36 30.94 29.16 22.92 21.49 23.79 22.30 24.04 20.08 19.36 12.48 9.74 14.79 17.73 19.03 18.93 19.61 19.02 19.90 16.82 12.72 8.20 4.74 3.22 4.48 4.82 5.33 5.18 6.22 6.74 8.37 8.93 9.92 10.81
19.54 15.24 22.40 24.20 23.16 22.47 22.99 24.70 24.31 28.45 30.15 24.99 24.85 16.78 18.43 23.73 20.55 14.62 14.43 5.78 10.24 17.24 17.89 16.89 15.62 16.51 18.37 15.00 12.86 10.99 11.46 9.79 6.02 3.78 5.54 3.00 3.59 5.41 7.93 5.71 7.69 9.57 10.26 10.06

GFSNW_sfc_wetblb_117.txt.gz
Wetbulb
43.73 43.93 44.07 43.25 43.04 43.31 37.25 30.48 21.81 35.31 38.65 27.40 26.77 23.92 27.31 31.59 29.96 32.11 29.24 30.34 28.22 26.19 26.66 25.06 24.89 24.90 29.13 35.02 33.97 30.00 33.15 29.57 24.77 27.93 34.98 36.69 36.13 33.60 33.38 28.79 26.84 29.96 29.10 29.58
43.61 43.48 43.21 43.11 42.83 41.68 33.78 27.62 27.82 35.57 35.53 19.73 20.14 24.77 27.03 29.03 27.84 28.04 28.76 28.28 30.36 30.80 26.67 22.62 26.56 28.07 33.73 34.46 33.40 31.39 34.04 27.55 21.82 25.08 31.96 33.88 30.27 30.76 34.10 33.13 31.35 27.46 25.81 29.06
43.16 43.61 43.21 42.66 43.28 42.38 33.81 26.37 19.76 27.20 30.92 28.26 26.04 24.20 23.54 24.53 30.11 27.66 28.73 28.59 30.32 28.16 26.19 28.83 25.79 27.54 32.16 34.48 33.71 37.64 36.51 29.74 25.63 20.68 24.03 29.27 26.76 29.48 30.76 30.91 25.77 26.07 28.24 30.34
43.50 43.43 42.68 42.31 43.11 42.97 33.95 27.95 22.73 28.50 20.63 24.06 26.50 25.91 24.77 22.75 22.75 28.81 31.33 28.43 28.61 27.57 25.12 26.22 26.02 28.97 30.28 32.88 34.88 35.47 33.85 25.55 27.69 28.49 29.57 29.54 28.63 28.32 28.96 27.72 28.79 24.79 28.53 28.17
43.72 42.88 42.60 42.56 43.35 41.85 31.58 24.87 24.94 29.23 26.78 27.84 25.60 25.07 23.31 23.14 25.39 27.34 26.75 27.30 29.67 29.69 26.74 28.08 26.12 29.77 29.67 29.20 32.80 31.75 32.60 25.26 27.85 25.42 28.71 28.59 26.34 29.12 29.13 29.00 29.47 29.11 29.51 28.69
42.71 42.65 42.86 42.85 43.58 39.99 32.06 32.04 32.84 28.31 24.77 25.02 24.08 23.60 24.28 24.80 28.16 29.54 31.07 31.14 29.75 28.97 31.11 32.99 33.74 34.04 34.33 33.40 30.48 29.89 29.41 27.19 24.50 20.09 26.66 26.56 21.74 27.04 28.38 29.47 31.25 30.45 26.13 31.40
42.71 42.52 42.75 43.01 43.63 38.92 34.17 33.35 32.75 24.52 20.99 24.49 24.61 25.92 26.66 26.50 28.09 27.26 30.91 32.83 29.76 33.01 36.63 36.02 34.68 33.58 33.25 32.86 32.26 33.37 28.85 27.44 26.44 21.42 23.57 13.53 26.87 32.38 31.68 29.65 31.32 32.88 32.54 34.31
42.85 42.73 42.63 43.08 43.45 41.81 35.36 34.61 31.94 26.90 20.91 24.86 25.33 26.00 27.81 28.71 30.53 29.45 30.12 32.42 34.19 36.33 33.73 28.37 26.22 26.07 26.37 28.41 30.09 29.82 31.75 29.00 23.43 19.47 19.36 23.83 26.73 29.93 29.56 28.35 29.21 35.99 35.06 37.18
42.93 42.80 42.83 43.28 43.26 43.40 36.37 35.20 36.17 32.15 23.33 23.13 28.24 27.49 27.42 26.54 26.90 27.27 29.97 33.97 36.29 34.10 29.36 26.41 20.87 18.57 22.51 21.29 25.48 31.18 29.52 30.72 25.47 21.83 16.44 13.82 26.03 34.11 38.07 36.34 24.55 36.65 36.16 35.60
42.40 42.50 43.04 43.17 43.40 43.74 37.38 35.40 37.83 34.52 27.06 28.88 29.55 26.78 27.65 30.52 28.61 25.98 28.16 29.93 30.45 32.84 26.51 23.16 21.92 21.03 26.83 21.36 22.39 24.48 26.79 26.46 22.66 22.61 20.66 24.32 31.47 35.14 37.62 22.90 27.32 38.39 37.57 36.15
42.22 42.48 42.94 43.27 43.34 43.83 38.98 36.30 38.33 36.03 30.59 29.75 31.96 32.71 29.52 29.38 29.41 25.08 28.83 27.68 28.52 27.32 23.71 23.66 23.23 23.05 23.99 23.34 26.22 25.24 25.50 24.18 24.78 24.92 21.70 18.49 36.60 36.15 29.98 35.67 38.33 37.56 39.93 39.52
42.56 42.67 43.14 43.10 43.24 43.88 41.12 36.66 38.79 39.76 34.28 30.84 34.52 35.48 35.95 34.46 34.18 31.48 31.78 29.17 29.04 30.66 26.68 25.75 26.14 23.31 26.06 24.62 20.38 32.25 23.93 28.01 25.85 28.05 26.25 34.17 37.22 36.68 40.49 41.59 38.35 38.54 40.35 42.06
42.51 42.70 42.93 42.95 43.12 44.00 41.78 38.96 39.12 38.05 33.54 32.51 32.35 31.39 36.10 37.68 37.52 38.53 28.47 30.18 33.05 33.21 35.46 32.37 29.27 23.84 27.31 22.26 24.36 27.43 30.90 33.99 30.38 30.23 34.11 35.92 36.51 39.42 40.77 41.03 39.53 40.26 38.21 38.11
42.22 42.78 42.84 42.85 43.17 43.56 42.66 38.46 39.69 38.23 34.22 26.76 27.80 34.62 32.54 36.69 36.76 36.34 36.34 34.23 35.02 34.84 34.88 30.58 28.36 25.50 30.84 26.64 28.14 27.48 31.78 33.47 31.05 31.04 33.70 34.27 37.17 36.63 37.98 37.33 37.74 35.72 34.88 34.92
42.07 42.46 42.58 42.71 42.88 43.29 41.89 40.39 40.29 39.84 33.61 26.05 27.66 32.68 35.45 36.43 35.75 34.91 35.45 34.53 32.97 31.83 30.07 28.59 26.44 31.22 30.65 31.02 30.93 29.49 32.93 30.72 28.23 27.90 31.67 32.28 32.65 32.83 35.49 34.73 34.39 34.21 34.30 33.23
42.58 42.59 42.60 42.55 42.74 42.28 37.69 32.62 38.79 40.18 39.58 30.69 24.66 31.90 32.03 34.31 34.47 33.83 33.65 33.90 32.79 32.78 30.89 29.94 32.05 34.05 31.51 26.87 26.35 31.90 32.73 33.02 32.56 30.46 33.30 34.53 35.04 37.06 36.17 33.87 32.88 32.20 31.63 31.00
42.03 42.03 41.70 41.92 42.42 39.13 33.68 32.18 36.80 40.59 40.09 31.91 25.28 24.85 31.47 34.99 34.49 32.87 32.50 34.11 33.39 33.15 32.04 31.10 31.30 31.63 33.25 28.93 24.71 30.85 30.42 30.95 31.39 31.01 32.85 31.10 32.48 32.78 35.25 33.60 32.25 31.60 30.41 29.53
41.78 41.99 42.10 42.26 42.10 40.61 36.44 38.98 41.77 41.35 36.42 34.57 24.30 23.95 27.29 34.98 31.45 31.27 34.67 31.78 33.53 34.13 33.09 33.48 30.69 33.31 32.21 26.93 29.68 29.10 28.83 29.56 29.80 28.81 31.16 30.06 31.80 32.35 32.48 32.72 32.19 29.91 28.45 27.91
41.58 41.49 41.60 40.43 37.99 34.22 36.88 42.02 42.46 41.82 35.73 26.23 26.38 22.51 20.93 34.09 34.74 35.81 35.87 35.44 29.67 35.33 30.04 31.57 33.48 30.17 28.05 27.92 27.35 26.51 26.35 25.40 25.33 27.95 28.83 28.18 27.60 28.16 29.82 30.14 29.43 28.71 27.37 26.91
41.99 39.18 32.82 30.24 34.24 41.44 41.98 38.36 33.33 31.52 32.97 33.68 25.78 28.58 24.29 32.02 32.49 32.97 32.61 33.17 31.30 27.34 31.58 34.71 30.72 27.39 28.62 28.94 27.93 26.92 25.37 25.13 25.00 23.09 22.78 24.23 24.29 24.82 25.82 27.49 28.18 27.78 27.20 26.29
36.25 31.49 32.04 35.29 42.14 37.51 34.42 29.26 28.48 28.59 26.09 28.63 28.57 28.32 26.38 32.53 28.56 29.11 32.40 30.44 30.48 25.99 29.22 30.44 28.74 25.05 25.62 27.83 27.44 26.63 25.68 24.32 23.49 23.25 23.41 23.76 24.42 23.34 23.69 25.20 25.79 25.46 24.86 23.64
36.16 37.53 40.18 39.30 34.52 31.31 27.38 23.33 26.26 24.85 23.38 27.94 27.24 28.62 30.92 31.76 33.93 31.09 31.71 29.23 27.79 23.59 31.23 28.89 25.33 22.80 25.03 25.53 24.97 24.99 24.35 22.49 21.46 21.46 21.01 21.39 22.89 22.24 22.12 22.81 22.95 23.37 23.15 21.87
39.66 36.74 31.72 31.13 29.97 23.48 20.41 18.58 20.92 22.41 26.74 27.89 29.77 28.38 30.45 30.58 33.69 30.53 29.46 26.21 24.56 28.92 24.98 24.54 21.85 23.78 24.16 24.25 24.18 23.80 23.49 21.43 20.06 19.38 19.70 19.55 19.67 19.70 18.85 18.75 19.83 21.17 20.39 20.74
30.75 29.78 25.38 25.33 21.41 24.21 23.74 25.36 26.69 28.29 27.82 28.66 29.60 29.75 29.70 31.38 29.79 29.72 25.18 27.14 27.43 23.68 21.59 20.45 21.55 22.40 23.16 23.81 24.08 22.55 20.92 18.80 15.76 15.90 16.49 15.47 15.38 15.29 14.68 13.87 15.83 17.13 16.99 17.14
29.82 30.69 22.50 23.61 24.61 27.24 27.03 28.55 29.01 28.80 29.08 30.96 30.38 30.51 31.21 27.97 26.64 27.80 24.76 23.32 21.33 21.24 18.79 18.63 22.81 22.74 22.37 22.58 22.49 21.44 19.97 16.83 15.45 13.40 11.07 9.84 10.06 11.34 10.99 11.30 13.25 15.30 14.77 14.56
26.44 22.12 23.33 25.65 27.94 27.66 29.13 29.37 28.46 31.13 30.92 30.29 30.28 26.19 25.72 24.69 25.58 24.70 23.03 21.34 18.29 16.02 18.84 21.35 22.24 21.37 19.83 20.45 20.26 19.54 17.42 15.04 13.18 12.01 11.11 10.89 8.96 9.20 10.21 9.92 10.53 11.16 12.59 12.79
20.95 18.39 22.38 24.32 23.75 23.37 23.10 24.49 25.27 27.20 30.74 30.53 26.13 21.13 22.68 25.73 23.16 19.60 16.75 16.02 15.39 19.07 20.55 21.56 20.72 20.66 20.21 19.54 17.63 16.32 15.94 15.73 13.51 11.89 12.18 10.80 10.16 9.65 11.15 9.80 10.77 11.86 12.57 12.38

GFSNW_sfc_wetblb_120.txt.gz
Wetbulb
44.23 44.79 44.35 43.05 42.94 43.28 41.61 39.75 33.24 42.28 44.67 35.16 35.48 30.78 29.59 31.24 31.03 33.75 31.27 32.10 30.88 29.11 29.67 28.24 28.48 28.07 32.13 37.23 36.67 32.53 35.83 32.84 28.16 32.02 37.76 38.64 36.51 34.05 34.56 30.62 29.44 33.69 33.02 32.56
43.95 44.01 43.64 43.08 43.20 42.32 41.78 36.18 35.77 43.24 42.13 29.37 29.81 29.50 29.24 30.75 30.19 30.74 30.11 29.14 31.70 32.72 29.17 25.05 29.18 30.80 35.92 36.96 35.46 33.26 35.34 30.48 24.95 28.66 34.10 36.06 31.16 33.89 34.16 32.79 33.63 31.24 29.12 32.91
43.97 43.88 43.61 42.81 43.68 41.57 42.12 36.86 30.66 35.59 37.65 36.75 30.57 24.65 25.25 26.33 31.80 30.65 31.13 30.84 33.39 31.14 29.25 31.81 28.47 30.26 34.54 37.10 36.36 37.18 36.93 31.61 27.71 23.91 25.84 30.83 28.41 29.44 32.67 31.89 27.86 29.83 32.84 35.10
43.80 44.00 43.34 42.68 43.55 41.31 42.30 36.47 31.17 33.13 28.86 30.61 30.30 29.65 27.87 21.53 26.13 31.26 33.10 30.85 30.90 29.99 26.36 28.47 28.20 31.89 32.98 36.06 36.97 36.92 35.36 27.68 30.24 30.69 31.91 31.86 29.95 30.10 31.28 29.55 31.26 28.21 32.40 33.16
44.02 43.36 42.70 42.81 43.78 41.40 39.83 33.58 33.38 35.14 32.04 30.26 29.07 27.80 27.11 26.33 28.27 27.70 28.70 28.47 31.08 31.81 27.93 29.19 28.62 30.65 31.59 31.74 35.21 33.97 35.54 27.96 30.26 27.56 31.14 31.41 29.16 31.33 32.04 32.51 32.94 33.12 33.63 33.26
44.04 43.23 43.03 43.20 43.78 42.30 39.28 39.61 38.83 36.52 29.20 28.86 29.17 28.69 27.33 27.28 30.58 32.11 32.92 32.28 31.35 30.30 31.67 34.61 35.97 36.77 36.26 35.02 33.53 33.01 32.33 29.85 27.22 23.15 29.25 28.99 24.43 29.76 31.11 32.45 34.35 33.87 30.25 35.65
43.31 43.26 43.15 43.16 43.73 41.83 42.38 40.43 39.82 34.41 27.88 30.33 29.27 28.05 28.94 28.92 30.45 29.21 33.53 34.69 31.84 34.86 39.00 39.28 39.50 38.39 37.04 36.71 36.23 36.85 31.66 30.08 28.56 23.70 26.41 16.71 29.98 35.60 34.46 32.25 33.83 35.64 35.72 36.90
43.30 43.08 43.05 43.18 43.85 41.56 42.51 42.21 39.93 35.90 29.57 31.72 28.67 27.05 28.89 31.47 33.19 31.83 32.58 34.50 36.56 39.59 37.16 32.58 29.23 30.09 30.13 31.88 34.71 34.46 35.34 31.16 25.67 22.09 22.90 27.22 30.02 32.98 32.45 31.49 31.51 36.69 36.35 38.69
43.85 43.15 42.86 43.21 43.68 42.80 42.83 42.25 43.69 38.98 33.03 30.06 31.45 30.70 30.35 29.23 30.66 31.21 31.98 37.23 39.84 38.47 34.24 30.65 23.55 22.10 25.07 25.02 28.23 33.80 32.48 33.22 28.06 25.50 19.21 16.49 28.57 34.75 38.35 37.97 28.21 39.59 39.41 38.57
43.77 42.98 43.16 43.46 43.43 43.53 42.81 41.73 43.65 39.85 33.95 35.44 33.44 32.38 31.70 34.19 32.29 30.39 32.52 33.21 34.06 37.23 30.93 27.36 25.04 24.05 29.15 23.02 23.46 24.61 26.76 29.39 25.19 24.03 23.37 26.92 34.50 37.43 39.52 25.51 30.16 40.12 38.56 35.95
43.68 43.46 43.43 43.39 43.58 43.88 42.70 41.45 43.65 39.29 34.78 35.57 35.76 35.91 33.34 33.63 33.16 29.05 33.49 32.31 32.94 32.21 27.42 27.24 26.55 25.49 27.02 25.07 26.10 26.29 26.43 25.88 26.59 27.26 24.26 20.35 38.01 36.79 30.96 37.30 41.47 38.68 37.72 38.70
43.63 43.53 43.26 43.41 43.43 44.10 42.95 39.50 43.04 43.52 35.90 35.94 38.92 39.56 40.21 38.38 37.60 34.26 35.11 32.25 31.03 34.00 30.46 31.37 29.96 27.34 28.12 25.13 22.37 32.20 25.87 28.97 26.67 29.91 29.54 37.99 38.81 37.76 41.38 41.56 39.98 39.11 38.90 39.35
43.30 43.11 43.12 43.32 43.36 44.12 43.22 41.05 40.68 38.56 34.85 34.99 35.40 35.59 40.41 42.23 41.08 42.27 32.31 35.98 34.97 34.84 38.61 32.86 31.49 26.01 30.77 23.88 26.01 28.12 31.11 34.17 31.23 30.40 32.58 32.82 34.62 35.43 37.84 39.22 37.01 36.61 37.25 37.88
42.99 43.28 43.08 43.51 43.48 44.10 43.12 41.85 41.90 39.19 36.23 30.32 33.26 39.88 37.58 41.45 41.87 41.03 40.92 38.72 39.24 38.55 38.29 32.32 30.57 27.11 32.98 28.12 28.70 28.38 32.31 34.35 30.62 31.32 32.22 33.42 34.90 34.74 33.35 35.30 35.70 35.53 36.85 36.85
43.00 42.59 43.29 43.14 43.29 43.91 44.42 43.04 41.33 41.06 36.35 29.60 32.01 38.15 39.80 40.66 40.41 39.05 39.74 38.50 36.85 35.43 31.96 31.18 29.36 32.41 32.20 32.83 32.09 30.98 33.65 30.23 28.44 27.77 31.24 31.41 32.87 33.23 35.38 34.56 34.61 35.11 35.84 35.43
42.59 42.75 43.05 43.12 43.30 43.20 40.51 33.73 40.77 42.16 40.87 34.03 28.36 38.09 36.78 38.51 39.30 38.14 37.35 37.82 36.88 35.52 32.28 32.00 33.93 36.57 33.18 28.62 27.84 32.73 33.19 34.52 31.96 30.27 33.71 35.24 34.64 36.67 35.30 35.14 34.48 34.86 34.66 33.85
42.61 42.93 42.92 43.02 43.07 43.34 37.90 36.34 39.00 41.54 41.85 33.22 28.74 30.81 37.17 37.76 38.33 38.18 37.18 38.10 35.32 35.25 33.03 32.64 32.63 33.23 34.50 31.18 26.94 31.03 32.44 33.14 32.21 33.03 33.18 31.85 32.00 31.15 34.26 34.27 34.71 34.93 33.55 32.34
42.08 42.25 42.53 42.64 42.39 41.53 38.26 42.30 42.24 42.13 37.00 34.60 26.12 28.53 33.08 38.54 36.71 35.28 38.62 34.76 33.47 34.28 34.80 36.48 32.91 34.88 34.06 28.82 31.54 31.57 30.92 31.92 30.91 31.43 32.50 31.24 32.29 32.72 32.39 33.89 34.24 33.94 32.20 30.41
42.08 41.97 42.18 41.65 39.55 35.29 38.15 42.16 42.81 42.76 37.28 29.91 27.89 27.17 27.92 38.75 37.94 37.88 36.52 36.25 30.48 37.16 31.91 32.73 34.58 32.89 28.96 28.95 29.79 28.95 28.50 27.70 27.58 30.68 30.79 30.89 29.67 29.09 29.60 30.47 30.66 30.01 30.01 30.30
41.39 40.62 34.96 31.60 35.32 41.84 42.57 38.69 34.11 32.67 34.83 34.61 28.64 33.58 29.74 35.94 36.64 35.17 33.16 34.49 33.01 29.58 32.35 36.16 31.53 30.91 29.46 29.83 29.56 29.06 28.81 28.29 28.39 26.72 25.91 26.60 27.13 27.03 27.02 27.66 28.34 28.27 27.85 28.18
37.79 32.61 32.14 40.00 41.68 38.95 35.95 29.38 28.65 30.38 28.28 31.96 31.58 32.90 30.78 37.19 30.57 30.85 36.47 32.71 33.89 28.61 31.58 30.77 30.69 27.90 26.95 29.14 28.56 28.99 28.50 27.74 27.08 26.81 26.75 26.58 26.58 25.45 25.59 26.61 27.31 27.35 26.68 25.35
37.64 38.50 40.32 39.27 35.80 33.70 28.73 27.83 30.18 27.68 26.39 32.37 28.77 30.61 32.72 35.12 37.88 33.36 34.10 30.89 31.59 26.73 34.84 30.98 28.02 24.73 27.00 27.53 26.75 27.00 26.73 25.96 25.27 25.22 24.50 24.78 24.85 24.29 24.20 24.88 24.57 24.19 24.59 23.82
39.44 36.01 33.22 31.38 32.03 26.53 24.33 20.86 23.65 26.27 30.60 33.39 32.36 30.07 33.15 35.19 35.70 33.07 31.74 28.78 27.06 34.79 28.65 27.12 24.79 25.53 26.82 27.20 27.37 26.64 26.07 24.03 24.20 23.75 23.80 23.13 22.68 22.37 20.61 20.13 20.85 21.37 22.56 22.15
32.87 30.51 26.97 27.33 25.74 27.89 28.24 28.09 29.31 33.29 33.98 34.07 34.04 32.23 32.90 34.35 30.89 33.05 27.85 31.05 30.64 25.58 23.56 22.95 25.36 25.27 25.84 26.45 26.55 25.85 23.94 21.58 18.97 20.23 20.56 18.96 18.11 18.24 17.89 16.62 17.92 19.38 19.09 19.78
30.07 31.57 26.52 27.79 32.90 31.91 32.71 34.14 33.90 34.17 36.92 35.50 33.30 33.30 33.78 32.33 30.88 30.95 29.10 25.65 23.61 26.40 25.92 25.29 25.83 25.58 25.53 25.06 24.68 24.08 22.66 20.65 19.93 19.01 16.81 15.62 14.96 15.37 16.16 15.78 17.05 17.94 17.43 17.96
30.70 28.70 28.46 30.91 31.05 30.75 31.96 32.49 30.72 34.72 35.95 37.24 36.97 31.88 29.63 29.84 30.54 27.44 26.21 24.33 23.90 24.47 25.25 26.25 27.31 24.53 23.87 23.65 23.40 23.00 22.24 20.82 19.85 19.25 18.28 17.96 14.45 14.37 15.96 15.55 15.52 15.75 16.46 16.33
26.72 26.24 27.11 27.00 30.17 30.88 28.86 31.39 30.69 32.51 34.38 31.54 33.16 27.96 28.43 30.64 27.91 25.99 27.19 26.59 24.06 24.84 25.26 27.40 25.81 24.87 24.25 23.28 22.87 21.52 21.26 21.50 20.21 18.83 18.43 17.61 16.95 15.70 16.57 15.79 16.78 16.50 17.18 16.21

GFSNW_sfc_wetblb_123.txt.gz
Wetbulb
44.35 44.21 44.48 43.54 43.04 43.35 41.84 42.86 38.10 44.82 47.53 39.98 40.52 35.01 32.98 31.30 33.56 36.03 33.71 33.86 33.01 31.80 32.11 30.50 30.49 30.38 33.57 37.85 37.41 33.14 36.30 32.41 27.78 31.10 37.84 40.24 37.72 35.31 33.68 31.43 29.58 33.04 32.83 32.56
44.33 45.01 44.60 43.41 43.26 42.47 44.25 40.88 39.22 46.53 45.71 34.90 34.29 33.76 32.69 33.50 32.91 33.11 32.40 31.51 33.59 34.69 31.46 27.83 31.35 32.33 36.92 37.75 36.57 33.97 35.78 30.95 24.68 27.72 34.02 38.54 33.69 34.08 34.30 33.74 32.79 28.56 28.91 31.68
44.20 44.20 43.93 43.06 43.52 42.57 43.42 41.45 34.92 40.38 42.02 40.38 34.94 29.91 29.89 29.50 33.84 32.49 33.42 33.08 35.01 33.29 31.29 34.05 30.16 31.79 35.46 37.88 37.89 39.38 37.40 31.87 28.60 24.06 27.91 30.25 29.43 31.14 33.55 31.94 27.63 30.04 31.30 33.32
44.39 44.18 43.66 42.86 43.74 42.43 43.98 40.50 36.63 37.95 33.41 35.15 34.47 33.44 31.17 28.52 28.50 33.76 35.54 32.67 32.50 31.34 27.76 29.94 29.54 31.78 34.01 36.95 38.71 38.11 36.17 27.80 30.79 31.75 33.09 32.80 32.20 31.58 32.42 30.05 31.14 28.20 33.30 34.06
43.88 44.32 43.54 42.80 43.68 43.01 43.16 35.99 37.30 38.88 35.77 34.79 33.30 29.25 30.45 29.14 30.86 28.25 30.39 30.63 32.82 33.57 29.91 30.55 28.18 31.58 32.38 31.55 36.02 35.34 36.17 27.92 31.08 27.95 32.10 32.71 30.22 32.18 33.00 33.36 32.69 33.06 34.32 34.61
44.57 43.66 43.03 43.31 43.94 42.63 42.71 43.11 42.78 41.87 32.40 33.33 32.83 32.40 30.57 30.07 31.36 34.12 34.93 34.17 33.44 32.07 34.03 36.44 37.52 38.26 37.74 36.69 34.53 33.48 33.09 30.80 28.27 24.10 30.52 30.44 26.08 31.09 32.68 33.60 34.96 34.21 30.24 35.95
44.10 43.35 43.18 43.15 43.67 42.38 45.03 43.79 43.36 39.24 31.71 34.15 33.23 31.68 31.99 31.04 32.53 31.26 35.36 36.13 34.05 37.03 41.14 40.90 41.00 39.91 39.16 38.63 37.58 38.25 32.48 30.87 29.52 24.78 27.78 18.05 31.11 36.29 35.73 33.82 34.97 36.46 36.76 37.88
43.82 43.58 43.47 43.37 43.70 42.63 44.93 45.88 43.66 40.00 33.49 35.38 31.56 31.29 32.11 34.09 35.46 34.83 34.53 36.47 38.68 41.68 38.79 33.75 30.94 31.74 32.16 33.38 35.89 35.61 36.28 31.91 26.02 22.14 22.27 27.79 31.17 34.17 34.59 33.49 33.33 38.22 37.66 39.11
44.36 43.96 43.35 43.43 43.92 42.94 44.29 44.77 45.86 43.03 36.97 33.58 34.35 33.01 33.85 32.36 34.04 34.24 34.93 39.46 41.64 40.58 35.86 31.76 25.14 23.14 26.85 25.98 28.83 34.71 33.89 34.20 28.83 26.49 20.66 18.11 28.88 35.74 39.62 38.90 29.37 40.52 40.94 39.84
44.47 43.55 43.33 43.43 43.82 43.85 44.12 44.18 46.02 42.28 36.78 37.74 36.23 34.25 35.16 36.85 35.22 33.55 35.95 36.02 36.22 39.44 32.85 28.35 26.16 25.45 31.12 24.08 23.67 24.89 28.11 29.64 26.51 26.66 24.78 28.04 35.56 39.07 40.50 26.93 30.48 40.44 39.48 37.55
44.45 43.62 43.62 43.67 43.82 44.00 42.74 42.61 45.64 41.00 37.11 38.08 38.31 38.29 35.84 36.64 36.16 32.50 36.09 35.64 35.42 34.63 29.36 29.03 28.34 27.68 29.05 26.94 27.65 27.49 26.54 25.43 26.26 27.64 25.67 22.29 36.36 38.21 32.59 36.52 40.52 38.79 38.99 36.27
43.45 44.09 43.77 43.63 43.85 44.26 43.33 38.95 44.91 45.08 38.78 37.71 42.04 41.86 42.45 40.69 39.65 36.66 37.51 34.73 33.44 35.71 32.01 32.46 31.73 28.23 30.55 27.28 23.55 32.95 26.33 29.11 27.34 29.44 28.44 35.67 35.63 34.38 36.24 37.29 38.48 37.19 36.46 36.53
42.92 43.43 43.87 43.65 43.68 44.33 43.56 40.87 42.42 42.88 37.60 37.27 38.45 37.97 42.96 44.45 43.46 44.16 35.18 38.90 37.78 37.45 40.07 35.14 33.06 27.48 31.97 25.46 27.47 29.59 31.52 35.08 30.98 30.54 32.02 32.15 34.62 35.22 35.09 34.77 33.86 36.35 37.70 38.23
43.89 43.81 43.83 44.24 43.73 44.31 43.78 41.82 43.61 42.75 38.61 32.42 36.30 43.11 40.13 43.60 43.89 43.24 42.70 40.68 41.35 39.71 37.97 34.86 32.55 29.35 34.81 29.38 31.08 29.97 33.65 34.62 30.77 32.51 33.08 33.39 35.24 35.45 35.21 36.03 36.18 36.59 37.98 37.86
43.51 43.86 43.93 43.58 43.62 44.19 44.74 44.34 44.95 45.39 37.53 32.04 34.45 40.73 42.40 43.42 43.21 41.44 41.82 40.77 38.81 36.18 34.86 33.26 30.74 34.43 33.59 34.61 33.88 31.93 34.33 30.37 28.92 28.77 32.89 31.34 33.87 34.54 36.35 35.19 34.30 35.36 35.19 35.14
43.46 43.59 43.23 43.48 44.21 44.15 41.35 35.93 42.43 44.04 42.26 35.30 29.30 40.48 38.79 40.79 41.29 40.39 39.81 40.06 38.88 36.11 34.01 33.30 34.87 37.56 34.38 29.94 28.83 33.14 34.45 33.77 32.83 31.29 34.71 34.88 35.27 35.92 35.40 34.66 34.73 35.42 34.75 34.08
43.23 43.25 43.54 43.76 43.75 43.43 39.24 37.50 40.67 42.78 43.08 36.31 29.92 32.87 39.21 40.48 40.53 40.78 39.45 40.04 37.88 36.06 34.14 32.29 33.57 34.44 35.69 32.04 28.01 33.52 34.17 34.96 34.70 35.00 34.64 32.34 33.33 31.42 34.09 34.64 35.69 36.69 35.46 34.62
42.85 43.15 43.20 43.51 43.05 42.50 39.51 43.87 43.12 42.96 39.02 37.89 27.64 30.23 34.75 41.03 37.32 35.11 39.48 34.54 34.31 33.95 34.80 36.71 34.14 36.12 35.90 30.15 33.16 33.67 33.99 34.63 33.87 33.48 34.62 33.71 34.91 35.23 34.76 35.20 34.85 33.81 32.17 32.10
42.45 42.72 42.65 42.06 39.87 37.58 40.11 43.04 42.89 44.91 37.55 31.94 29.12 28.75 30.19 40.74 39.23 40.12 37.99 37.57 30.95 37.34 32.65 33.33 35.87 33.58 30.35 31.31 31.58 31.14 32.20 31.33 31.08 33.79 34.75 34.08 33.36 32.80 32.81 32.95 32.03 30.12 29.79 29.86
42.15 40.35 36.72 31.95 37.06 42.70 42.68 39.40 35.63 34.62 35.17 34.19 30.90 35.77 32.13 37.83 37.31 36.42 34.27 35.14 33.14 30.30 34.07 37.96 33.99 34.21 32.08 32.10 32.28 32.52 31.89 31.70 31.72 29.53 28.62 29.47 29.38 29.75 30.02 30.35 30.83 29.26 27.86 27.72
37.87 33.83 34.39 40.98 42.90 39.68 36.29 31.04 30.82 31.67 29.49 33.90 33.85 34.52 33.03 39.35 32.69 33.50 37.01 34.48 35.03 28.83 33.14 31.93 31.86 29.82 28.82 30.80 30.64 32.16 31.71 30.88 30.25 30.08 30.07 29.82 28.65 27.66 27.52 28.24 28.53 27.39 26.26 24.95
39.39 40.16 41.27 40.22 36.20 33.88 29.62 29.01 31.23 30.04 27.86 34.91 32.85 34.11 36.10 37.52 39.25 34.04 35.67 31.27 33.77 27.23 36.06 31.12 29.51 26.75 29.45 30.94 30.18 30.27 29.82 28.91 28.33 28.59 27.62 27.47 26.87 26.32 25.47 25.72 24.81 23.79 24.37 23.97
41.68 37.90 33.57 32.66 31.82 26.63 24.87 22.80 26.45 28.36 33.80 36.42 35.54 31.56 34.27 35.99 36.85 34.91 32.99 28.53 28.56 36.79 30.40 29.38 27.23 28.45 29.87 30.83 30.58 29.36 28.56 26.44 27.11 26.41 26.31 25.15 24.18 24.12 22.52 20.99 21.40 22.06 22.32 22.59
33.98 30.86 26.76 27.83 26.75 29.11 30.59 31.43 31.28 35.66 36.94 36.98 36.28 32.29 32.72 35.15 31.86 33.52 28.25 32.24 33.08 27.54 25.26 26.18 28.42 28.60 28.83 29.35 29.01 29.03 26.78 24.15 21.82 23.16 23.31 21.25 19.76 19.67 20.22 18.83 19.74 20.08 19.52 20.60
30.90 31.93 25.93 28.68 34.27 36.49 36.78 37.52 37.21 37.86 39.94 37.96 35.24 34.50 35.40 33.26 31.32 32.14 31.35 28.24 25.81 28.17 27.79 27.46 28.31 28.50 28.38 27.95 27.16 26.69 25.34 23.50 23.13 22.81 20.41 19.78 17.82 17.73 18.91 19.06 19.51 19.45 19.18 19.48
31.77 31.09 29.41 33.21 33.13 31.95 32.84 34.67 34.62 37.88 38.82 38.70 37.33 32.72 29.05 30.23 31.59 29.13 27.68 25.97 25.76 27.86 28.18 28.57 28.52 27.09 26.31 26.04 25.48 24.94 24.33 23.57 23.55 23.29 21.83 21.40 18.42 17.63 19.13 20.53 20.15 18.32 19.35 18.00
30.19 30.28 32.77 30.77 30.99 31.39 31.59 34.47 33.64 36.38 35.68 32.24 33.22 28.08 28.72 33.75 28.93 27.75 32.40 28.65 28.13 27.98 27.45 28.09 27.47 26.01 25.48 25.32 25.08 23.89 24.09 24.19 23.80 23.00 21.90 21.11 20.76 20.48 21.36 19.33 20.51 19.68 20.06 19.04

GFSNW_sfc_wetblb_126.txt.gz
Wetbulb
44.88 44.60 44.44 43.78 43.04 43.40 42.05 43.29 38.52 45.52 48.69 39.53 39.16 34.95 34.58 32.34 34.69 37.03 34.97 34.55 33.35 31.57 31.50 29.86 30.00 29.77 32.94 37.34 36.70 31.75 34.80 31.23 25.64 29.26 36.31 38.71 36.73 33.30 34.14 26.04 26.59 29.58 30.66 30.94
44.83 44.24 44.82 43.58 42.91 42.61 43.12 41.05 38.37 46.13 45.68 35.45 34.37 34.31 34.10 34.91 34.23 34.34 33.51 32.04 33.71 34.33 31.33 27.80 31.62 32.59 37.38 38.32 36.07 33.12 34.72 28.87 21.55 25.72 32.27 36.20 31.93 33.04 34.17 32.44 32.19 26.79 25.85 30.72
44.28 44.83 44.38 43.29 43.37 42.94 41.78 41.99 36.42 39.53 41.90 40.60 36.44 32.56 31.39 31.12 35.31 33.53 34.12 33.48 35.22 33.45 30.98 33.53 30.16 31.13 35.12 37.43 35.55 38.42 38.27 30.64 26.35 21.61 26.18 29.92 27.89 31.03 33.57 31.50 26.05 27.10 28.19 31.02
44.65 44.57 43.93 43.29 43.52 43.05 42.35 41.28 38.54 40.02 34.16 34.93 35.19 35.13 32.81 30.11 29.76 34.47 35.54 33.29 33.44 31.45 27.49 29.83 29.44 32.48 33.71 35.77 38.07 36.04 35.23 27.12 29.43 30.67 32.17 32.23 31.02 30.68 31.58 30.03 31.10 26.80 29.74 30.55
44.35 44.35 43.76 43.09 43.15 43.30 42.02 36.82 36.92 39.43 36.48 36.52 34.86 30.51 31.90 30.58 32.22 31.87 31.29 30.84 32.68 33.32 29.73 31.20 28.12 31.23 31.77 31.04 34.94 33.27 34.92 26.79 29.04 27.20 31.82 32.03 29.66 31.84 32.21 32.22 32.69 32.44 32.29 31.28
44.25 44.39 43.51 42.86 43.38 42.55 42.43 42.64 43.36 41.14 34.11 35.23 33.74 33.28 32.21 31.82 33.13 34.73 35.30 34.33 33.24 32.14 33.76 35.96 36.86 37.60 37.01 36.08 33.89 33.07 32.57 29.88 27.34 23.10 29.91 29.38 24.89 30.45 31.90 32.33 33.98 33.36 28.92 34.05
44.75 43.85 43.20 43.30 43.60 43.11 42.35 43.87 42.41 39.78 31.94 34.42 33.89 33.33 33.28 32.09 33.48 31.99 35.59 36.64 34.13 37.01 40.67 40.43 40.00 39.26 38.29 37.35 34.82 36.36 31.84 30.01 28.78 24.01 26.82 17.00 29.87 35.67 36.51 33.54 34.14 35.62 35.50 36.62
44.22 43.53 43.40 43.11 43.75 43.42 42.61 44.92 42.76 39.67 33.78 35.86 33.32 33.04 32.55 34.72 35.91 34.20 35.41 36.78 38.87 40.82 38.31 33.13 29.97 30.65 31.40 32.91 34.45 34.64 35.30 31.34 26.16 22.64 22.42 27.45 30.68 33.45 33.69 32.58 32.22 38.50 37.28 37.56
44.76 43.60 43.55 43.26 43.45 43.45 42.96 44.75 45.78 41.93 37.94 33.71 36.29 33.42 34.63 32.63 33.25 34.35 35.86 39.83 41.80 40.36 35.24 31.46 24.44 22.28 26.71 25.86 28.71 35.29 33.64 33.94 28.88 25.96 21.12 17.97 28.36 32.08 37.76 38.57 27.40 38.15 37.91 35.56
44.57 43.79 43.65 43.38 43.52 43.79 43.12 43.94 46.58 42.02 37.90 37.87 36.88 34.15 34.32 37.04 35.05 33.03 35.72 36.29 36.78 39.62 31.87 28.04 25.46 25.05 30.84 23.18 23.29 24.65 27.26 27.86 25.47 26.30 23.97 27.12 31.14 34.94 38.00 26.24 26.82 37.71 37.66 35.92
44.53 43.80 43.50 43.57 43.38 43.62 43.58 42.81 45.77 41.40 37.38 38.42 38.40 38.72 36.51 36.83 35.70 31.97 35.52 35.07 35.33 33.45 29.08 29.07 27.78 26.88 28.64 27.27 28.27 27.45 25.91 24.18 24.81 25.92 21.82 18.71 33.16 33.18 26.49 30.46 35.05 35.18 35.48 35.80
44.57 43.78 43.48 43.73 43.52 43.63 43.18 40.20 44.44 44.46 38.69 38.70 42.91 42.46 42.90 41.14 40.03 36.83 37.28 35.01 34.25 35.35 31.40 31.78 31.07 28.18 30.29 27.71 22.90 32.71 25.14 28.90 27.11 28.26 26.59 34.22 34.28 33.04 34.85 34.95 33.82 34.18 35.51 37.34
43.19 44.29 43.63 43.79 43.75 44.02 43.33 41.75 42.78 42.21 37.73 37.61 38.15 37.51 43.07 44.42 43.17 43.85 34.42 37.90 38.90 37.43 39.08 34.61 32.80 27.56 31.31 25.27 27.03 28.69 32.24 35.55 29.98 29.05 32.11 31.37 33.64 35.39 35.73 35.72 34.91 36.33 37.68 36.01
44.26 43.68 44.25 43.95 43.75 44.14 43.63 42.49 43.75 41.06 37.79 32.46 36.38 43.70 41.10 44.39 44.11 42.90 42.45 40.15 40.85 39.93 38.16 33.72 31.75 28.85 34.62 29.42 30.94 30.23 33.18 34.35 30.24 30.66 32.94 32.48 34.44 35.39 34.71 36.07 36.19 34.93 35.91 35.78
43.78 42.95 43.70 43.82 43.70 44.16 44.40 45.36 45.32 44.85 37.23 32.08 34.39 40.77 42.60 43.66 42.75 41.05 41.55 40.18 38.24 36.16 34.09 33.06 30.40 33.76 33.23 33.92 33.72 32.62 34.32 30.49 28.35 27.60 32.75 31.61 32.80 34.97 35.39 34.07 33.98 34.63 33.63 33.43
43.88 43.84 43.51 43.83 44.34 44.51 41.28 36.76 43.70 44.63 43.10 34.81 29.51 40.14 39.73 41.36 41.41 40.74 39.78 39.58 38.22 36.94 34.43 33.21 34.79 37.71 33.85 29.60 28.24 34.02 34.88 34.91 34.16 31.46 34.25 35.55 35.08 35.50 35.41 33.40 34.58 35.33 34.12 33.45
43.47 43.70 43.70 44.32 44.29 43.87 38.35 36.99 41.00 43.05 43.06 35.51 30.09 31.82 39.02 40.88 40.74 39.93 38.73 40.17 38.13 36.78 35.20 33.55 33.33 33.64 35.16 31.84 27.36 34.93 34.93 35.62 35.57 35.70 34.96 31.77 33.95 32.29 35.13 35.08 34.41 35.51 33.87 33.21
43.53 43.64 43.75 43.97 43.55 41.98 39.32 43.10 42.83 43.55 38.60 37.22 29.14 29.08 34.57 40.89 35.85 35.00 39.32 35.91 36.69 35.35 33.34 35.44 33.94 35.92 35.53 29.47 33.84 34.83 34.66 35.19 35.09 34.00 35.93 34.47 35.09 35.11 34.23 34.89 33.52 31.41 30.06 29.96
43.21 43.14 43.01 41.63 39.96 37.91 40.20 43.41 43.18 44.65 38.73 31.00 30.68 27.42 29.61 40.47 37.65 38.37 37.33 37.42 30.76 36.28 31.39 32.82 34.96 32.60 29.77 32.53 32.47 32.59 32.69 31.81 31.46 33.56 34.45 33.03 32.04 31.50 31.46 31.90 30.84 28.40 27.08 27.45
42.50 40.86 36.43 31.88 38.48 43.17 42.63 39.79 36.36 35.26 35.44 35.00 29.35 34.78 31.35 37.40 36.93 35.31 34.45 35.15 31.07 30.20 32.85 37.52 32.81 32.15 33.17 33.16 33.42 33.51 32.44 32.24 31.85 29.24 27.62 28.50 27.98 27.94 28.23 28.39 28.70 27.07 25.63 25.43
38.39 33.66 34.50 41.08 43.37 39.71 36.41 30.67 29.89 31.54 28.07 32.59 33.04 33.32 31.48 38.80 32.81 33.13 37.08 32.89 33.91 27.42 32.42 31.67 31.05 29.48 29.40 32.69 32.45 33.41 31.96 31.52 30.49 30.23 29.54 28.77 27.71 25.83 25.15 25.52 25.44 24.50 23.74 23.26
39.03 40.12 41.38 40.27 35.96 32.71 27.92 28.25 30.22 29.48 27.19 34.45 32.78 34.07 35.41 37.49 39.56 34.55 35.45 30.91 33.10 25.49 35.95 31.49 27.90 27.89 31.44 32.40 31.81 31.18 29.95 29.69 29.14 28.71 26.84 26.13 25.59 24.47 23.49 22.96 22.10 21.42 22.78 22.69
42.15 37.62 32.80 31.63 31.03 24.53 23.77 21.89 26.44 27.95 33.27 36.46 36.04 33.33 35.71 37.21 37.56 34.69 33.31 27.19 27.77 36.14 30.51 27.94 27.88 29.82 31.37 31.86 31.48 29.79 28.51 26.07 26.39 26.14 25.58 24.06 22.68 22.66 21.57 19.80 20.16 20.69 20.54 21.34
32.62 30.17 24.68 26.00 25.69 27.73 29.50 30.38 31.96 37.33 37.91 37.66 36.66 33.12 32.78 35.08 32.77 33.19 26.33 31.26 32.88 26.67 25.03 25.87 28.91 29.85 29.91 30.15 29.65 29.50 26.45 24.13 22.75 23.27 22.61 21.45 19.54 19.02 20.53 18.39 19.78 19.34 18.54 19.32
31.60 30.94 24.95 27.47 33.11 35.79 36.80 38.88 38.16 38.97 40.26 38.36 35.57 34.69 34.34 32.58 30.86 31.23 30.23 27.84 25.00 27.38 26.78 28.50 29.58 29.67 29.46 28.24 27.54 26.94 25.49 23.73 23.87 24.06 21.36 20.97 17.96 18.23 18.59 20.42 20.40 18.61 19.62 17.64
32.49 31.09 28.38 33.23 33.62 31.15 31.68 32.78 34.94 39.09 39.40 39.68 37.16 32.70 29.25 29.26 30.33 28.42 26.65 26.10 25.09 27.56 28.12 29.08 29.06 27.41 27.14 26.63 26.03 25.36 24.72 24.57 24.57 24.37 22.95 22.15 19.25 18.11 19.56 21.73 20.87 17.07 20.21 16.38
29.96 29.90 32.62 31.38 32.39 30.70 32.24 35.47 35.26 37.70 36.84 31.99 32.69 27.71 26.91 33.19 28.72 27.32 31.48 27.41 27.64 28.53 28.06 28.29 27.85 27.17 25.94 25.64 25.53 24.94 24.79 24.46 24.18 22.97 22.42 22.11 22.54 21.84 22.45 19.66 21.72 20.52 21.59 18.32